<?xml version='1.0' encoding='UTF-8'?><gpx version="1.1" creator="JPX - https://github.com/jenetics/jpx" xmlns="http://www.topografix.com/GPX/1/1"><trk><trkseg><trkpt lat="43.3415178" lon="11.5050987"><ele>335.0</ele><time>2026-04-05T14:11:29.267Z</time></trkpt><trkpt lat="43.3415862" lon="11.5050788"><ele>335.0</ele><time>2026-04-05T14:11:31.257Z</time></trkpt><trkpt lat="43.3416678" lon="11.505062"><ele>335.0</ele><time>2026-04-05T14:11:33.261Z</time></trkpt><trkpt lat="43.3417727" lon="11.5050392"><ele>335.0</ele><time>2026-04-05T14:11:35.265Z</time></trkpt><trkpt lat="43.3418435" lon="11.5050128"><ele>335.0</ele><time>2026-04-05T14:11:36.253Z</time></trkpt><trkpt lat="43.3419262" lon="11.5049853"><ele>335.0</ele><time>2026-04-05T14:11:37.259Z</time></trkpt><trkpt lat="43.3420274" lon="11.5049637"><ele>335.0</ele><time>2026-04-05T14:11:38.267Z</time></trkpt><trkpt lat="43.3421359" lon="11.5049431"><ele>335.0</ele><time>2026-04-05T14:11:39.272Z</time></trkpt><trkpt lat="43.3422523" lon="11.5049207"><ele>335.0</ele><time>2026-04-05T14:11:40.254Z</time></trkpt><trkpt lat="43.3423612" lon="11.5049014"><ele>335.0</ele><time>2026-04-05T14:11:41.264Z</time></trkpt><trkpt lat="43.3424735" lon="11.5048756"><ele>335.75</ele><time>2026-04-05T14:11:42.263Z</time></trkpt><trkpt lat="43.3425889" lon="11.5048503"><ele>336.5</ele><time>2026-04-05T14:11:43.264Z</time></trkpt><trkpt lat="43.3427049" lon="11.5048293"><ele>337.25</ele><time>2026-04-05T14:11:44.257Z</time></trkpt><trkpt lat="43.342814" lon="11.5048123"><ele>338.0</ele><time>2026-04-05T14:11:45.261Z</time></trkpt><trkpt lat="43.3429245" lon="11.5047905"><ele>338.0</ele><time>2026-04-05T14:11:46.263Z</time></trkpt><trkpt lat="43.3430372" lon="11.5047628"><ele>338.0</ele><time>2026-04-05T14:11:47.261Z</time></trkpt><trkpt lat="43.3431508" lon="11.5047456"><ele>338.0</ele><time>2026-04-05T14:11:48.269Z</time></trkpt><trkpt lat="43.3432662" lon="11.5047269"><ele>338.0</ele><time>2026-04-05T14:11:49.26Z</time></trkpt><trkpt lat="43.3433877" lon="11.5047051"><ele>338.0</ele><time>2026-04-05T14:11:50.259Z</time></trkpt><trkpt lat="43.3435084" lon="11.5046791"><ele>338.0</ele><time>2026-04-05T14:11:51.272Z</time></trkpt><trkpt lat="43.3436197" lon="11.5046559"><ele>338.0</ele><time>2026-04-05T14:11:52.268Z</time></trkpt><trkpt lat="43.3437252" lon="11.5046328"><ele>338.0</ele><time>2026-04-05T14:11:53.263Z</time></trkpt><trkpt lat="43.3438232" lon="11.5046009"><ele>338.0</ele><time>2026-04-05T14:11:54.264Z</time></trkpt><trkpt lat="43.3439328" lon="11.504564"><ele>337.5</ele><time>2026-04-05T14:11:55.267Z</time></trkpt><trkpt lat="43.3440637" lon="11.5045399"><ele>337.0</ele><time>2026-04-05T14:11:56.268Z</time></trkpt><trkpt lat="43.3442128" lon="11.5045204"><ele>336.5</ele><time>2026-04-05T14:11:57.26Z</time></trkpt><trkpt lat="43.3443512" lon="11.504509"><ele>336.0</ele><time>2026-04-05T14:11:58.264Z</time></trkpt><trkpt lat="43.3444833" lon="11.5044948"><ele>336.0</ele><time>2026-04-05T14:11:59.27Z</time></trkpt><trkpt lat="43.3446087" lon="11.5044855"><ele>336.0</ele><time>2026-04-05T14:12:00.26Z</time></trkpt><trkpt lat="43.3447275" lon="11.5044926"><ele>336.0</ele><time>2026-04-05T14:12:01.263Z</time></trkpt><trkpt lat="43.3448476" lon="11.5045053"><ele>336.0</ele><time>2026-04-05T14:12:02.268Z</time></trkpt><trkpt lat="43.344971" lon="11.5045202"><ele>337.75</ele><time>2026-04-05T14:12:03.265Z</time></trkpt><trkpt lat="43.3450963" lon="11.5045478"><ele>339.5</ele><time>2026-04-05T14:12:04.257Z</time></trkpt><trkpt lat="43.3452182" lon="11.5045865"><ele>341.25</ele><time>2026-04-05T14:12:05.265Z</time></trkpt><trkpt lat="43.3453234" lon="11.5046224"><ele>343.0</ele><time>2026-04-05T14:12:06.257Z</time></trkpt><trkpt lat="43.3454148" lon="11.5046667"><ele>343.2</ele><time>2026-04-05T14:12:07.255Z</time></trkpt><trkpt lat="43.3454941" lon="11.5047388"><ele>343.4</ele><time>2026-04-05T14:12:08.264Z</time></trkpt><trkpt lat="43.3455656" lon="11.5048283"><ele>343.59999999999997</ele><time>2026-04-05T14:12:09.272Z</time></trkpt><trkpt lat="43.3456422" lon="11.5049251"><ele>343.79999999999995</ele><time>2026-04-05T14:12:10.251Z</time></trkpt><trkpt lat="43.3457217" lon="11.505032"><ele>344.0</ele><time>2026-04-05T14:12:11.261Z</time></trkpt><trkpt lat="43.3458073" lon="11.5051424"><ele>345.4</ele><time>2026-04-05T14:12:12.256Z</time></trkpt><trkpt lat="43.3458894" lon="11.5052444"><ele>346.79999999999995</ele><time>2026-04-05T14:12:13.26Z</time></trkpt><trkpt lat="43.3459639" lon="11.5053233"><ele>348.20000000000005</ele><time>2026-04-05T14:12:14.266Z</time></trkpt><trkpt lat="43.3460425" lon="11.5053847"><ele>349.6</ele><time>2026-04-05T14:12:15.262Z</time></trkpt><trkpt lat="43.3461164" lon="11.5054412"><ele>351.0</ele><time>2026-04-05T14:12:16.25Z</time></trkpt><trkpt lat="43.3461891" lon="11.5054869"><ele>351.0</ele><time>2026-04-05T14:12:17.254Z</time></trkpt><trkpt lat="43.3462705" lon="11.5055581"><ele>351.0</ele><time>2026-04-05T14:12:19.261Z</time></trkpt><trkpt lat="43.3463185" lon="11.5056698"><ele>351.0</ele><time>2026-04-05T14:12:45.259Z</time></trkpt><trkpt lat="43.3463731" lon="11.5057445"><ele>351.0</ele><time>2026-04-05T14:12:47.264Z</time></trkpt><trkpt lat="43.3464461" lon="11.5058215"><ele>351.0</ele><time>2026-04-05T14:12:49.257Z</time></trkpt><trkpt lat="43.3465182" lon="11.5059147"><ele>349.8</ele><time>2026-04-05T14:12:51.252Z</time></trkpt><trkpt lat="43.3465874" lon="11.5060098"><ele>348.6</ele><time>2026-04-05T14:12:53.259Z</time></trkpt><trkpt lat="43.3466592" lon="11.5061122"><ele>347.4</ele><time>2026-04-05T14:12:55.257Z</time></trkpt><trkpt lat="43.3467422" lon="11.5062066"><ele>346.2</ele><time>2026-04-05T14:12:57.259Z</time></trkpt><trkpt lat="43.3468285" lon="11.5063064"><ele>345.0</ele><time>2026-04-05T14:12:59.259Z</time></trkpt><trkpt lat="43.3469103" lon="11.5064191"><ele>343.2</ele><time>2026-04-05T14:13:01.264Z</time></trkpt><trkpt lat="43.3469781" lon="11.5065534"><ele>341.4</ele><time>2026-04-05T14:13:03.27Z</time></trkpt><trkpt lat="43.3470242" lon="11.5066313"><ele>339.6</ele><time>2026-04-05T14:13:04.266Z</time></trkpt><trkpt lat="43.3470797" lon="11.506726"><ele>337.8</ele><time>2026-04-05T14:13:05.263Z</time></trkpt><trkpt lat="43.3471333" lon="11.5068215"><ele>336.0</ele><time>2026-04-05T14:13:06.263Z</time></trkpt><trkpt lat="43.3471856" lon="11.5069132"><ele>334.8333333333333</ele><time>2026-04-05T14:13:07.264Z</time></trkpt><trkpt lat="43.3472379" lon="11.5070081"><ele>333.6666666666667</ele><time>2026-04-05T14:13:08.268Z</time></trkpt><trkpt lat="43.3472847" lon="11.5071014"><ele>332.5</ele><time>2026-04-05T14:13:09.269Z</time></trkpt><trkpt lat="43.3473318" lon="11.5071838"><ele>331.33333333333337</ele><time>2026-04-05T14:13:10.267Z</time></trkpt><trkpt lat="43.3473746" lon="11.5072536"><ele>330.1666666666667</ele><time>2026-04-05T14:13:11.258Z</time></trkpt><trkpt lat="43.3474496" lon="11.5073665"><ele>329.0</ele><time>2026-04-05T14:13:13.268Z</time></trkpt><trkpt lat="43.3475237" lon="11.5074736"><ele>327.83333333333337</ele><time>2026-04-05T14:13:15.264Z</time></trkpt><trkpt lat="43.347576" lon="11.5075481"><ele>326.6666666666667</ele><time>2026-04-05T14:13:16.261Z</time></trkpt><trkpt lat="43.3476247" lon="11.507617"><ele>325.5</ele><time>2026-04-05T14:13:17.254Z</time></trkpt><trkpt lat="43.3476732" lon="11.5076872"><ele>324.3333333333333</ele><time>2026-04-05T14:13:18.257Z</time></trkpt><trkpt lat="43.3477175" lon="11.507758"><ele>323.16666666666663</ele><time>2026-04-05T14:13:19.259Z</time></trkpt><trkpt lat="43.3477634" lon="11.5078219"><ele>322.0</ele><time>2026-04-05T14:13:20.271Z</time></trkpt><trkpt lat="43.3478577" lon="11.5079379"><ele>322.3333333333333</ele><time>2026-04-05T14:13:22.263Z</time></trkpt><trkpt lat="43.3479157" lon="11.5079998"><ele>322.66666666666663</ele><time>2026-04-05T14:13:23.254Z</time></trkpt><trkpt lat="43.3479652" lon="11.5080552"><ele>323.0</ele><time>2026-04-05T14:13:24.265Z</time></trkpt><trkpt lat="43.3480428" lon="11.5081907"><ele>323.3333333333333</ele><time>2026-04-05T14:13:26.274Z</time></trkpt><trkpt lat="43.3480752" lon="11.5082733"><ele>323.6666666666667</ele><time>2026-04-05T14:13:27.258Z</time></trkpt><trkpt lat="43.3481081" lon="11.5083588"><ele>324.0</ele><time>2026-04-05T14:13:28.264Z</time></trkpt><trkpt lat="43.3481502" lon="11.5084333"><ele>324.0</ele><time>2026-04-05T14:13:29.269Z</time></trkpt><trkpt lat="43.3481955" lon="11.5085033"><ele>324.0</ele><time>2026-04-05T14:13:30.258Z</time></trkpt><trkpt lat="43.3482392" lon="11.5085726"><ele>324.0</ele><time>2026-04-05T14:13:31.272Z</time></trkpt><trkpt lat="43.3482829" lon="11.5086443"><ele>324.0</ele><time>2026-04-05T14:13:32.262Z</time></trkpt><trkpt lat="43.3483249" lon="11.5087195"><ele>324.0</ele><time>2026-04-05T14:13:33.271Z</time></trkpt><trkpt lat="43.3483654" lon="11.5087981"><ele>324.0</ele><time>2026-04-05T14:13:34.264Z</time></trkpt><trkpt lat="43.34841" lon="11.5088743"><ele>324.0</ele><time>2026-04-05T14:13:35.256Z</time></trkpt><trkpt lat="43.3484555" lon="11.5089502"><ele>324.7142857142857</ele><time>2026-04-05T14:13:36.262Z</time></trkpt><trkpt lat="43.3485014" lon="11.5090251"><ele>325.42857142857144</ele><time>2026-04-05T14:13:37.266Z</time></trkpt><trkpt lat="43.3485451" lon="11.5091012"><ele>326.1428571428571</ele><time>2026-04-05T14:13:38.273Z</time></trkpt><trkpt lat="43.3485889" lon="11.5091781"><ele>326.8571428571429</ele><time>2026-04-05T14:13:39.267Z</time></trkpt><trkpt lat="43.3486311" lon="11.5092541"><ele>327.57142857142856</ele><time>2026-04-05T14:13:40.267Z</time></trkpt><trkpt lat="43.3486733" lon="11.5093306"><ele>328.2857142857143</ele><time>2026-04-05T14:13:41.274Z</time></trkpt><trkpt lat="43.3487164" lon="11.5094065"><ele>329.0</ele><time>2026-04-05T14:13:42.271Z</time></trkpt><trkpt lat="43.3487582" lon="11.5094849"><ele>329.0</ele><time>2026-04-05T14:13:43.265Z</time></trkpt><trkpt lat="43.3487997" lon="11.5095686"><ele>329.0</ele><time>2026-04-05T14:13:44.263Z</time></trkpt><trkpt lat="43.3488433" lon="11.5096545"><ele>329.0</ele><time>2026-04-05T14:13:45.269Z</time></trkpt><trkpt lat="43.3488918" lon="11.5097427"><ele>329.0</ele><time>2026-04-05T14:13:46.256Z</time></trkpt><trkpt lat="43.3489387" lon="11.5098339"><ele>329.0</ele><time>2026-04-05T14:13:47.264Z</time></trkpt><trkpt lat="43.3489828" lon="11.5099296"><ele>329.0</ele><time>2026-04-05T14:13:48.263Z</time></trkpt><trkpt lat="43.3490312" lon="11.5100252"><ele>330.6666666666667</ele><time>2026-04-05T14:13:49.266Z</time></trkpt><trkpt lat="43.3490823" lon="11.5101205"><ele>332.33333333333337</ele><time>2026-04-05T14:13:50.263Z</time></trkpt><trkpt lat="43.3491307" lon="11.5102192"><ele>334.0</ele><time>2026-04-05T14:13:51.269Z</time></trkpt><trkpt lat="43.3491787" lon="11.5103212"><ele>335.6666666666667</ele><time>2026-04-05T14:13:52.269Z</time></trkpt><trkpt lat="43.3492274" lon="11.5104218"><ele>337.3333333333333</ele><time>2026-04-05T14:13:53.26Z</time></trkpt><trkpt lat="43.3492774" lon="11.510519"><ele>339.0</ele><time>2026-04-05T14:13:54.266Z</time></trkpt><trkpt lat="43.3493209" lon="11.5106091"><ele>340.0</ele><time>2026-04-05T14:13:55.271Z</time></trkpt><trkpt lat="43.3493627" lon="11.5106944"><ele>341.0</ele><time>2026-04-05T14:13:56.272Z</time></trkpt><trkpt lat="43.3494041" lon="11.5107765"><ele>342.0</ele><time>2026-04-05T14:13:57.271Z</time></trkpt><trkpt lat="43.3494328" lon="11.510857"><ele>343.0</ele><time>2026-04-05T14:13:58.264Z</time></trkpt><trkpt lat="43.3494513" lon="11.5109573"><ele>344.0</ele><time>2026-04-05T14:14:00.266Z</time></trkpt><trkpt lat="43.3494452" lon="11.5110496"><ele>345.0</ele><time>2026-04-05T14:14:51.258Z</time></trkpt><trkpt lat="43.3495077" lon="11.511004"><ele>346.0</ele><time>2026-04-05T14:15:01.255Z</time></trkpt><trkpt lat="43.3495509" lon="11.5109283"><ele>346.0</ele><time>2026-04-05T14:15:03.26Z</time></trkpt><trkpt lat="43.3496227" lon="11.5108269"><ele>346.0</ele><time>2026-04-05T14:15:05.251Z</time></trkpt><trkpt lat="43.3496678" lon="11.5107554"><ele>346.0</ele><time>2026-04-05T14:15:06.269Z</time></trkpt><trkpt lat="43.3497136" lon="11.5106738"><ele>346.0</ele><time>2026-04-05T14:15:07.26Z</time></trkpt><trkpt lat="43.3497543" lon="11.5105954"><ele>346.0</ele><time>2026-04-05T14:15:08.254Z</time></trkpt><trkpt lat="43.3498049" lon="11.5105115"><ele>346.0</ele><time>2026-04-05T14:15:09.257Z</time></trkpt><trkpt lat="43.3498552" lon="11.5104195"><ele>346.0</ele><time>2026-04-05T14:15:10.258Z</time></trkpt><trkpt lat="43.3499079" lon="11.5103255"><ele>346.0</ele><time>2026-04-05T14:15:11.254Z</time></trkpt><trkpt lat="43.3499596" lon="11.5102352"><ele>346.0</ele><time>2026-04-05T14:15:12.264Z</time></trkpt><trkpt lat="43.3500081" lon="11.5101441"><ele>346.0</ele><time>2026-04-05T14:15:13.263Z</time></trkpt><trkpt lat="43.3500625" lon="11.5100462"><ele>346.0</ele><time>2026-04-05T14:15:14.27Z</time></trkpt><trkpt lat="43.3501185" lon="11.5099435"><ele>346.0</ele><time>2026-04-05T14:15:15.262Z</time></trkpt><trkpt lat="43.3501736" lon="11.5098418"><ele>346.0</ele><time>2026-04-05T14:15:16.26Z</time></trkpt><trkpt lat="43.35023" lon="11.5097362"><ele>346.0</ele><time>2026-04-05T14:15:17.262Z</time></trkpt><trkpt lat="43.3502837" lon="11.5096287"><ele>346.0</ele><time>2026-04-05T14:15:18.269Z</time></trkpt><trkpt lat="43.3503367" lon="11.509532"><ele>346.0</ele><time>2026-04-05T14:15:19.264Z</time></trkpt><trkpt lat="43.3503889" lon="11.5094371"><ele>346.0</ele><time>2026-04-05T14:15:20.266Z</time></trkpt><trkpt lat="43.3504355" lon="11.5093396"><ele>345.5</ele><time>2026-04-05T14:15:21.261Z</time></trkpt><trkpt lat="43.3504738" lon="11.5092558"><ele>345.0</ele><time>2026-04-05T14:15:22.267Z</time></trkpt><trkpt lat="43.3505375" lon="11.5091204"><ele>344.5</ele><time>2026-04-05T14:15:24.266Z</time></trkpt><trkpt lat="43.3505979" lon="11.5090556"><ele>344.0</ele><time>2026-04-05T14:15:26.276Z</time></trkpt><trkpt lat="43.3506713" lon="11.5090957"><ele>343.5</ele><time>2026-04-05T14:15:28.256Z</time></trkpt><trkpt lat="43.3507431" lon="11.5091671"><ele>343.0</ele><time>2026-04-05T14:15:30.284Z</time></trkpt><trkpt lat="43.3508496" lon="11.5092783"><ele>343.85714285714283</ele><time>2026-04-05T14:15:32.254Z</time></trkpt><trkpt lat="43.350919" lon="11.5093481"><ele>344.7142857142857</ele><time>2026-04-05T14:15:33.264Z</time></trkpt><trkpt lat="43.350978" lon="11.5094132"><ele>345.57142857142856</ele><time>2026-04-05T14:15:34.275Z</time></trkpt><trkpt lat="43.3510295" lon="11.5094694"><ele>346.42857142857144</ele><time>2026-04-05T14:15:35.267Z</time></trkpt><trkpt lat="43.3510895" lon="11.5095286"><ele>347.2857142857143</ele><time>2026-04-05T14:15:36.273Z</time></trkpt><trkpt lat="43.3511501" lon="11.5095877"><ele>348.1428571428571</ele><time>2026-04-05T14:15:37.267Z</time></trkpt><trkpt lat="43.3512009" lon="11.5096413"><ele>349.0</ele><time>2026-04-05T14:15:38.271Z</time></trkpt><trkpt lat="43.3512958" lon="11.5097275"><ele>349.0</ele><time>2026-04-05T14:15:40.269Z</time></trkpt><trkpt lat="43.3513947" lon="11.5098148"><ele>349.0</ele><time>2026-04-05T14:15:42.262Z</time></trkpt><trkpt lat="43.3514872" lon="11.5098594"><ele>349.0</ele><time>2026-04-05T14:15:44.271Z</time></trkpt><trkpt lat="43.3515776" lon="11.5098699"><ele>349.0</ele><time>2026-04-05T14:15:46.279Z</time></trkpt><trkpt lat="43.3516864" lon="11.5098964"><ele>349.0</ele><time>2026-04-05T14:15:48.261Z</time></trkpt><trkpt lat="43.3517894" lon="11.5099383"><ele>349.0</ele><time>2026-04-05T14:15:50.27Z</time></trkpt><trkpt lat="43.3518967" lon="11.509988"><ele>349.0</ele><time>2026-04-05T14:15:52.26Z</time></trkpt><trkpt lat="43.3520164" lon="11.5100563"><ele>349.0</ele><time>2026-04-05T14:15:54.261Z</time></trkpt><trkpt lat="43.3520791" lon="11.5100962"><ele>349.0</ele><time>2026-04-05T14:15:55.269Z</time></trkpt><trkpt lat="43.3521374" lon="11.5101451"><ele>349.0</ele><time>2026-04-05T14:15:56.266Z</time></trkpt><trkpt lat="43.3521933" lon="11.5102153"><ele>348.8333333333333</ele><time>2026-04-05T14:15:57.259Z</time></trkpt><trkpt lat="43.352244" lon="11.5102835"><ele>348.66666666666663</ele><time>2026-04-05T14:15:58.262Z</time></trkpt><trkpt lat="43.3522982" lon="11.5103554"><ele>348.5</ele><time>2026-04-05T14:15:59.269Z</time></trkpt><trkpt lat="43.3523514" lon="11.5104256"><ele>348.3333333333333</ele><time>2026-04-05T14:16:00.271Z</time></trkpt><trkpt lat="43.3524104" lon="11.510505"><ele>348.1666666666667</ele><time>2026-04-05T14:16:01.263Z</time></trkpt><trkpt lat="43.3524669" lon="11.5105859"><ele>348.0</ele><time>2026-04-05T14:16:02.269Z</time></trkpt><trkpt lat="43.3525281" lon="11.5106711"><ele>347.8333333333333</ele><time>2026-04-05T14:16:03.263Z</time></trkpt><trkpt lat="43.3525874" lon="11.510751"><ele>347.6666666666667</ele><time>2026-04-05T14:16:04.272Z</time></trkpt><trkpt lat="43.3526408" lon="11.5108158"><ele>347.5</ele><time>2026-04-05T14:16:05.264Z</time></trkpt><trkpt lat="43.3526904" lon="11.5108801"><ele>347.33333333333337</ele><time>2026-04-05T14:16:06.271Z</time></trkpt><trkpt lat="43.3527748" lon="11.510976"><ele>347.1666666666667</ele><time>2026-04-05T14:16:08.267Z</time></trkpt><trkpt lat="43.3528581" lon="11.5109735"><ele>347.0</ele><time>2026-04-05T14:16:10.267Z</time></trkpt><trkpt lat="43.3529757" lon="11.510858"><ele>348.20000000000005</ele><time>2026-04-05T14:16:12.272Z</time></trkpt><trkpt lat="43.353048" lon="11.5107835"><ele>349.4</ele><time>2026-04-05T14:16:13.269Z</time></trkpt><trkpt lat="43.3531139" lon="11.5107344"><ele>350.6</ele><time>2026-04-05T14:16:14.26Z</time></trkpt><trkpt lat="43.3531801" lon="11.510694"><ele>351.79999999999995</ele><time>2026-04-05T14:16:15.257Z</time></trkpt><trkpt lat="43.3532927" lon="11.5106744"><ele>353.0</ele><time>2026-04-05T14:16:17.26Z</time></trkpt><trkpt lat="43.3533854" lon="11.5107339"><ele>353.0</ele><time>2026-04-05T14:16:19.257Z</time></trkpt><trkpt lat="43.3534633" lon="11.5108347"><ele>353.0</ele><time>2026-04-05T14:16:21.269Z</time></trkpt><trkpt lat="43.353547" lon="11.5109107"><ele>353.0</ele><time>2026-04-05T14:16:23.272Z</time></trkpt><trkpt lat="43.3536362" lon="11.5109147"><ele>353.0</ele><time>2026-04-05T14:16:25.263Z</time></trkpt><trkpt lat="43.3537237" lon="11.5108327"><ele>353.0</ele><time>2026-04-05T14:16:27.257Z</time></trkpt><trkpt lat="43.353782" lon="11.5107412"><ele>353.0</ele><time>2026-04-05T14:16:29.25Z</time></trkpt><trkpt lat="43.3538546" lon="11.5107032"><ele>353.0</ele><time>2026-04-05T14:16:32.249Z</time></trkpt><trkpt lat="43.3539263" lon="11.5107571"><ele>353.0</ele><time>2026-04-05T14:16:34.268Z</time></trkpt><trkpt lat="43.3539998" lon="11.5108783"><ele>353.0</ele><time>2026-04-05T14:16:36.26Z</time></trkpt><trkpt lat="43.3540625" lon="11.510977"><ele>353.0</ele><time>2026-04-05T14:16:38.26Z</time></trkpt><trkpt lat="43.3541249" lon="11.5110091"><ele>353.0</ele><time>2026-04-05T14:16:40.254Z</time></trkpt><trkpt lat="43.3541831" lon="11.5109648"><ele>352.5</ele><time>2026-04-05T14:16:42.263Z</time></trkpt><trkpt lat="43.3542318" lon="11.5108552"><ele>352.0</ele><time>2026-04-05T14:16:44.271Z</time></trkpt><trkpt lat="43.3542769" lon="11.5107776"><ele>351.5</ele><time>2026-04-05T14:16:45.257Z</time></trkpt><trkpt lat="43.3543295" lon="11.510706"><ele>351.0</ele><time>2026-04-05T14:16:46.267Z</time></trkpt><trkpt lat="43.3543828" lon="11.5106395"><ele>350.5</ele><time>2026-04-05T14:16:47.26Z</time></trkpt><trkpt lat="43.3544334" lon="11.5105839"><ele>350.0</ele><time>2026-04-05T14:16:48.26Z</time></trkpt><trkpt lat="43.3545245" lon="11.5104643"><ele>351.2</ele><time>2026-04-05T14:16:50.251Z</time></trkpt><trkpt lat="43.354601" lon="11.5103336"><ele>352.4</ele><time>2026-04-05T14:16:52.258Z</time></trkpt><trkpt lat="43.3546615" lon="11.5101855"><ele>353.6</ele><time>2026-04-05T14:16:54.252Z</time></trkpt><trkpt lat="43.354685" lon="11.5100907"><ele>354.8</ele><time>2026-04-05T14:16:55.269Z</time></trkpt><trkpt lat="43.3546987" lon="11.5100007"><ele>356.0</ele><time>2026-04-05T14:16:56.264Z</time></trkpt><trkpt lat="43.3547073" lon="11.5099074"><ele>356.0</ele><time>2026-04-05T14:16:57.264Z</time></trkpt><trkpt lat="43.3547049" lon="11.5098069"><ele>356.0</ele><time>2026-04-05T14:16:58.257Z</time></trkpt><trkpt lat="43.3546945" lon="11.5096919"><ele>356.0</ele><time>2026-04-05T14:16:59.259Z</time></trkpt><trkpt lat="43.3546843" lon="11.5095727"><ele>356.0</ele><time>2026-04-05T14:17:00.268Z</time></trkpt><trkpt lat="43.3546764" lon="11.5094522"><ele>356.0</ele><time>2026-04-05T14:17:01.264Z</time></trkpt><trkpt lat="43.3546613" lon="11.5093431"><ele>356.0</ele><time>2026-04-05T14:17:02.276Z</time></trkpt><trkpt lat="43.3546445" lon="11.5092337"><ele>355.33333333333337</ele><time>2026-04-05T14:17:03.269Z</time></trkpt><trkpt lat="43.3546299" lon="11.5091327"><ele>354.6666666666667</ele><time>2026-04-05T14:17:04.274Z</time></trkpt><trkpt lat="43.3546171" lon="11.5090363"><ele>354.0</ele><time>2026-04-05T14:17:05.268Z</time></trkpt><trkpt lat="43.3545984" lon="11.5089486"><ele>353.3333333333333</ele><time>2026-04-05T14:17:06.266Z</time></trkpt><trkpt lat="43.3545741" lon="11.5088074"><ele>352.66666666666663</ele><time>2026-04-05T14:17:08.268Z</time></trkpt><trkpt lat="43.3545475" lon="11.5086499"><ele>352.0</ele><time>2026-04-05T14:17:10.259Z</time></trkpt><trkpt lat="43.35452" lon="11.5085555"><ele>350.66666666666663</ele><time>2026-04-05T14:17:11.26Z</time></trkpt><trkpt lat="43.3544881" lon="11.5084631"><ele>349.3333333333333</ele><time>2026-04-05T14:17:12.268Z</time></trkpt><trkpt lat="43.354453" lon="11.5083698"><ele>348.0</ele><time>2026-04-05T14:17:13.254Z</time></trkpt><trkpt lat="43.3544184" lon="11.5082677"><ele>346.6666666666667</ele><time>2026-04-05T14:17:14.271Z</time></trkpt><trkpt lat="43.3543822" lon="11.5081561"><ele>345.33333333333337</ele><time>2026-04-05T14:17:15.271Z</time></trkpt><trkpt lat="43.3543423" lon="11.5080352"><ele>344.0</ele><time>2026-04-05T14:17:16.27Z</time></trkpt><trkpt lat="43.3543053" lon="11.5079118"><ele>344.1666666666667</ele><time>2026-04-05T14:17:17.272Z</time></trkpt><trkpt lat="43.3542759" lon="11.5078"><ele>344.33333333333337</ele><time>2026-04-05T14:17:18.27Z</time></trkpt><trkpt lat="43.3542449" lon="11.5076875"><ele>344.5</ele><time>2026-04-05T14:17:19.274Z</time></trkpt><trkpt lat="43.354214" lon="11.5075699"><ele>344.6666666666667</ele><time>2026-04-05T14:17:20.264Z</time></trkpt><trkpt lat="43.3541835" lon="11.5074553"><ele>344.8333333333333</ele><time>2026-04-05T14:17:21.252Z</time></trkpt><trkpt lat="43.3541456" lon="11.5073448"><ele>345.0</ele><time>2026-04-05T14:17:22.263Z</time></trkpt><trkpt lat="43.3541074" lon="11.5072412"><ele>345.0</ele><time>2026-04-05T14:17:23.254Z</time></trkpt><trkpt lat="43.3540717" lon="11.5071224"><ele>345.0</ele><time>2026-04-05T14:17:24.259Z</time></trkpt><trkpt lat="43.3540371" lon="11.5069997"><ele>345.0</ele><time>2026-04-05T14:17:25.269Z</time></trkpt><trkpt lat="43.3539987" lon="11.5068886"><ele>345.0</ele><time>2026-04-05T14:17:26.264Z</time></trkpt><trkpt lat="43.3539732" lon="11.5067903"><ele>345.0</ele><time>2026-04-05T14:17:27.264Z</time></trkpt><trkpt lat="43.3539546" lon="11.5067063"><ele>345.0</ele><time>2026-04-05T14:17:28.272Z</time></trkpt><trkpt lat="43.3539237" lon="11.5066249"><ele>344.5</ele><time>2026-04-05T14:17:29.262Z</time></trkpt><trkpt lat="43.353899" lon="11.5065389"><ele>344.0</ele><time>2026-04-05T14:17:30.266Z</time></trkpt><trkpt lat="43.3538814" lon="11.5064489"><ele>343.5</ele><time>2026-04-05T14:17:31.267Z</time></trkpt><trkpt lat="43.3538597" lon="11.5062916"><ele>343.0</ele><time>2026-04-05T14:17:33.272Z</time></trkpt><trkpt lat="43.3538669" lon="11.5061524"><ele>342.5</ele><time>2026-04-05T14:17:35.273Z</time></trkpt><trkpt lat="43.3539252" lon="11.506056"><ele>342.0</ele><time>2026-04-05T14:17:37.266Z</time></trkpt><trkpt lat="43.3540056" lon="11.5060511"><ele>343.8</ele><time>2026-04-05T14:17:39.264Z</time></trkpt><trkpt lat="43.3541262" lon="11.5060531"><ele>345.6</ele><time>2026-04-05T14:17:41.255Z</time></trkpt><trkpt lat="43.3541942" lon="11.5060674"><ele>347.40000000000003</ele><time>2026-04-05T14:17:42.258Z</time></trkpt><trkpt lat="43.3542905" lon="11.5060931"><ele>349.20000000000005</ele><time>2026-04-05T14:17:44.254Z</time></trkpt><trkpt lat="43.3542729" lon="11.5060004"><ele>351.0</ele><time>2026-04-05T14:17:47.267Z</time></trkpt><trkpt lat="43.3541542" lon="11.5059613"><ele>351.0</ele><time>2026-04-05T14:17:49.265Z</time></trkpt><trkpt lat="43.3540817" lon="11.5059327"><ele>351.0</ele><time>2026-04-05T14:17:50.273Z</time></trkpt><trkpt lat="43.3540132" lon="11.505901"><ele>351.0</ele><time>2026-04-05T14:17:51.276Z</time></trkpt><trkpt lat="43.353937" lon="11.5058648"><ele>351.0</ele><time>2026-04-05T14:17:52.259Z</time></trkpt><trkpt lat="43.3538552" lon="11.5058251"><ele>351.0</ele><time>2026-04-05T14:17:53.269Z</time></trkpt><trkpt lat="43.3537633" lon="11.5057794"><ele>351.0</ele><time>2026-04-05T14:17:54.258Z</time></trkpt><trkpt lat="43.3536686" lon="11.5057319"><ele>349.20000000000005</ele><time>2026-04-05T14:17:55.274Z</time></trkpt><trkpt lat="43.3535794" lon="11.5056828"><ele>347.40000000000003</ele><time>2026-04-05T14:17:56.264Z</time></trkpt><trkpt lat="43.3535049" lon="11.5056403"><ele>345.6</ele><time>2026-04-05T14:17:57.258Z</time></trkpt><trkpt lat="43.3534079" lon="11.5055893"><ele>343.8</ele><time>2026-04-05T14:17:59.275Z</time></trkpt><trkpt lat="43.3533887" lon="11.5054907"><ele>342.0</ele><time>2026-04-05T14:18:02.267Z</time></trkpt><trkpt lat="43.3534686" lon="11.505405"><ele>342.0</ele><time>2026-04-05T14:18:04.27Z</time></trkpt><trkpt lat="43.3535467" lon="11.5053352"><ele>342.0</ele><time>2026-04-05T14:18:05.264Z</time></trkpt><trkpt lat="43.3536375" lon="11.5052413"><ele>342.0</ele><time>2026-04-05T14:18:06.268Z</time></trkpt><trkpt lat="43.3537151" lon="11.5051594"><ele>342.0</ele><time>2026-04-05T14:18:07.255Z</time></trkpt><trkpt lat="43.3537981" lon="11.5050658"><ele>342.0</ele><time>2026-04-05T14:18:08.264Z</time></trkpt><trkpt lat="43.3538921" lon="11.5049653"><ele>343.0</ele><time>2026-04-05T14:18:09.264Z</time></trkpt><trkpt lat="43.3540026" lon="11.5048532"><ele>344.0</ele><time>2026-04-05T14:18:10.267Z</time></trkpt><trkpt lat="43.3541232" lon="11.5047086"><ele>345.0</ele><time>2026-04-05T14:18:11.268Z</time></trkpt><trkpt lat="43.3542643" lon="11.5045529"><ele>345.0</ele><time>2026-04-05T14:18:12.26Z</time></trkpt><trkpt lat="43.3544197" lon="11.504394"><ele>345.0</ele><time>2026-04-05T14:18:13.258Z</time></trkpt><trkpt lat="43.3545789" lon="11.5042236"><ele>345.0</ele><time>2026-04-05T14:18:14.258Z</time></trkpt><trkpt lat="43.3547216" lon="11.5040657"><ele>346.6666666666667</ele><time>2026-04-05T14:18:15.261Z</time></trkpt><trkpt lat="43.354853" lon="11.5039092"><ele>348.33333333333337</ele><time>2026-04-05T14:18:16.265Z</time></trkpt><trkpt lat="43.3549686" lon="11.503751"><ele>350.0</ele><time>2026-04-05T14:18:17.267Z</time></trkpt><trkpt lat="43.3550833" lon="11.5035906"><ele>350.0</ele><time>2026-04-05T14:18:18.27Z</time></trkpt><trkpt lat="43.3551886" lon="11.5034443"><ele>350.0</ele><time>2026-04-05T14:18:19.263Z</time></trkpt><trkpt lat="43.3552861" lon="11.5033077"><ele>350.0</ele><time>2026-04-05T14:18:20.26Z</time></trkpt><trkpt lat="43.3553795" lon="11.5031838"><ele>350.0</ele><time>2026-04-05T14:18:21.267Z</time></trkpt><trkpt lat="43.3554821" lon="11.5031067"><ele>351.75</ele><time>2026-04-05T14:18:22.264Z</time></trkpt><trkpt lat="43.3555882" lon="11.5030664"><ele>353.5</ele><time>2026-04-05T14:18:23.262Z</time></trkpt><trkpt lat="43.355704" lon="11.5030607"><ele>355.25</ele><time>2026-04-05T14:18:24.26Z</time></trkpt><trkpt lat="43.3558253" lon="11.5030877"><ele>357.0</ele><time>2026-04-05T14:18:25.275Z</time></trkpt><trkpt lat="43.3559529" lon="11.5031172"><ele>357.0</ele><time>2026-04-05T14:18:26.262Z</time></trkpt><trkpt lat="43.3560696" lon="11.5031355"><ele>357.0</ele><time>2026-04-05T14:18:27.262Z</time></trkpt><trkpt lat="43.3561794" lon="11.5031382"><ele>357.0</ele><time>2026-04-05T14:18:28.263Z</time></trkpt><trkpt lat="43.3562849" lon="11.503097"><ele>357.0</ele><time>2026-04-05T14:18:29.26Z</time></trkpt><trkpt lat="43.3563832" lon="11.5030115"><ele>357.5</ele><time>2026-04-05T14:18:30.265Z</time></trkpt><trkpt lat="43.3564682" lon="11.5028892"><ele>358.0</ele><time>2026-04-05T14:18:31.268Z</time></trkpt><trkpt lat="43.3565491" lon="11.5027468"><ele>358.5</ele><time>2026-04-05T14:18:32.264Z</time></trkpt><trkpt lat="43.3566289" lon="11.5025929"><ele>359.0</ele><time>2026-04-05T14:18:33.263Z</time></trkpt><trkpt lat="43.3566939" lon="11.5024278"><ele>359.0</ele><time>2026-04-05T14:18:34.25Z</time></trkpt><trkpt lat="43.3567376" lon="11.5022561"><ele>359.0</ele><time>2026-04-05T14:18:35.263Z</time></trkpt><trkpt lat="43.3567495" lon="11.5020756"><ele>359.0</ele><time>2026-04-05T14:18:36.252Z</time></trkpt><trkpt lat="43.3567307" lon="11.5018889"><ele>359.0</ele><time>2026-04-05T14:18:37.255Z</time></trkpt><trkpt lat="43.3566985" lon="11.5017038"><ele>358.75</ele><time>2026-04-05T14:18:38.267Z</time></trkpt><trkpt lat="43.3566742" lon="11.5015159"><ele>358.5</ele><time>2026-04-05T14:18:39.258Z</time></trkpt><trkpt lat="43.3566705" lon="11.5013433"><ele>358.25</ele><time>2026-04-05T14:18:40.277Z</time></trkpt><trkpt lat="43.3566853" lon="11.5011831"><ele>358.0</ele><time>2026-04-05T14:18:41.258Z</time></trkpt><trkpt lat="43.3567287" lon="11.5010368"><ele>358.0</ele><time>2026-04-05T14:18:42.267Z</time></trkpt><trkpt lat="43.3568012" lon="11.5009171"><ele>358.0</ele><time>2026-04-05T14:18:43.265Z</time></trkpt><trkpt lat="43.3569001" lon="11.5008347"><ele>358.0</ele><time>2026-04-05T14:18:44.255Z</time></trkpt><trkpt lat="43.3570159" lon="11.5007915"><ele>358.0</ele><time>2026-04-05T14:18:45.269Z</time></trkpt><trkpt lat="43.357142" lon="11.5007858"><ele>361.66666666666663</ele><time>2026-04-05T14:18:46.256Z</time></trkpt><trkpt lat="43.3572827" lon="11.500782"><ele>365.3333333333333</ele><time>2026-04-05T14:18:47.256Z</time></trkpt><trkpt lat="43.3574434" lon="11.5007804"><ele>369.0</ele><time>2026-04-05T14:18:48.258Z</time></trkpt><trkpt lat="43.3576231" lon="11.5007865"><ele>369.0</ele><time>2026-04-05T14:18:49.253Z</time></trkpt><trkpt lat="43.3578208" lon="11.5007949"><ele>369.0</ele><time>2026-04-05T14:18:50.269Z</time></trkpt><trkpt lat="43.3580236" lon="11.5008026"><ele>369.0</ele><time>2026-04-05T14:18:51.258Z</time></trkpt><trkpt lat="43.3582441" lon="11.5008082"><ele>371.3333333333333</ele><time>2026-04-05T14:18:52.261Z</time></trkpt><trkpt lat="43.3584684" lon="11.5008189"><ele>373.66666666666663</ele><time>2026-04-05T14:18:53.267Z</time></trkpt><trkpt lat="43.3586711" lon="11.5008303"><ele>376.0</ele><time>2026-04-05T14:18:54.26Z</time></trkpt><trkpt lat="43.3588639" lon="11.5008333"><ele>377.66666666666663</ele><time>2026-04-05T14:18:55.263Z</time></trkpt><trkpt lat="43.3590468" lon="11.5008414"><ele>379.3333333333333</ele><time>2026-04-05T14:18:56.268Z</time></trkpt><trkpt lat="43.3592153" lon="11.5008542"><ele>381.0</ele><time>2026-04-05T14:18:57.264Z</time></trkpt><trkpt lat="43.3593651" lon="11.5008632"><ele>381.0</ele><time>2026-04-05T14:18:58.27Z</time></trkpt><trkpt lat="43.3595057" lon="11.5008502"><ele>381.0</ele><time>2026-04-05T14:18:59.271Z</time></trkpt><trkpt lat="43.3596303" lon="11.5007991"><ele>381.0</ele><time>2026-04-05T14:19:00.28Z</time></trkpt><trkpt lat="43.3597471" lon="11.5007088"><ele>381.0</ele><time>2026-04-05T14:19:01.27Z</time></trkpt><trkpt lat="43.3598525" lon="11.5005861"><ele>381.0</ele><time>2026-04-05T14:19:02.269Z</time></trkpt><trkpt lat="43.35995" lon="11.5004756"><ele>381.0</ele><time>2026-04-05T14:19:03.267Z</time></trkpt><trkpt lat="43.3600472" lon="11.5003991"><ele>381.0</ele><time>2026-04-05T14:19:04.265Z</time></trkpt><trkpt lat="43.3601487" lon="11.5003529"><ele>381.0</ele><time>2026-04-05T14:19:05.261Z</time></trkpt><trkpt lat="43.3602622" lon="11.5003372"><ele>381.0</ele><time>2026-04-05T14:19:06.252Z</time></trkpt><trkpt lat="43.3603829" lon="11.5003402"><ele>381.0</ele><time>2026-04-05T14:19:07.259Z</time></trkpt><trkpt lat="43.360515" lon="11.500347"><ele>381.0</ele><time>2026-04-05T14:19:08.265Z</time></trkpt><trkpt lat="43.3606554" lon="11.50036"><ele>381.0</ele><time>2026-04-05T14:19:09.251Z</time></trkpt><trkpt lat="43.3608043" lon="11.5003685"><ele>379.0</ele><time>2026-04-05T14:19:10.256Z</time></trkpt><trkpt lat="43.3609623" lon="11.5003495"><ele>377.0</ele><time>2026-04-05T14:19:11.271Z</time></trkpt><trkpt lat="43.3611186" lon="11.5003217"><ele>375.0</ele><time>2026-04-05T14:19:12.274Z</time></trkpt><trkpt lat="43.3612616" lon="11.5003071"><ele>376.25</ele><time>2026-04-05T14:19:13.262Z</time></trkpt><trkpt lat="43.3613911" lon="11.5003132"><ele>377.5</ele><time>2026-04-05T14:19:14.273Z</time></trkpt><trkpt lat="43.3615128" lon="11.5003477"><ele>378.75</ele><time>2026-04-05T14:19:15.26Z</time></trkpt><trkpt lat="43.361618" lon="11.5004144"><ele>380.0</ele><time>2026-04-05T14:19:16.266Z</time></trkpt><trkpt lat="43.3617134" lon="11.5005117"><ele>380.0</ele><time>2026-04-05T14:19:17.26Z</time></trkpt><trkpt lat="43.361793" lon="11.5006471"><ele>380.0</ele><time>2026-04-05T14:19:18.266Z</time></trkpt><trkpt lat="43.3618607" lon="11.5008077"><ele>380.0</ele><time>2026-04-05T14:19:19.269Z</time></trkpt><trkpt lat="43.361931" lon="11.5009776"><ele>380.0</ele><time>2026-04-05T14:19:20.256Z</time></trkpt><trkpt lat="43.3619994" lon="11.5011393"><ele>380.5</ele><time>2026-04-05T14:19:21.275Z</time></trkpt><trkpt lat="43.3620597" lon="11.5012902"><ele>381.0</ele><time>2026-04-05T14:19:22.276Z</time></trkpt><trkpt lat="43.362122" lon="11.5014287"><ele>381.5</ele><time>2026-04-05T14:19:23.256Z</time></trkpt><trkpt lat="43.3621905" lon="11.5015509"><ele>382.0</ele><time>2026-04-05T14:19:24.253Z</time></trkpt><trkpt lat="43.362278" lon="11.5016467"><ele>382.0</ele><time>2026-04-05T14:19:25.268Z</time></trkpt><trkpt lat="43.3623822" lon="11.5017019"><ele>382.0</ele><time>2026-04-05T14:19:26.278Z</time></trkpt><trkpt lat="43.3624968" lon="11.5017104"><ele>382.0</ele><time>2026-04-05T14:19:27.264Z</time></trkpt><trkpt lat="43.3626165" lon="11.5016708"><ele>382.0</ele><time>2026-04-05T14:19:28.266Z</time></trkpt><trkpt lat="43.3627411" lon="11.5016019"><ele>382.0</ele><time>2026-04-05T14:19:29.269Z</time></trkpt><trkpt lat="43.3628748" lon="11.5015307"><ele>382.0</ele><time>2026-04-05T14:19:30.265Z</time></trkpt><trkpt lat="43.3630069" lon="11.5014643"><ele>382.0</ele><time>2026-04-05T14:19:31.272Z</time></trkpt><trkpt lat="43.3631387" lon="11.5014188"><ele>382.0</ele><time>2026-04-05T14:19:32.264Z</time></trkpt><trkpt lat="43.3632661" lon="11.5014056"><ele>381.0</ele><time>2026-04-05T14:19:33.26Z</time></trkpt><trkpt lat="43.3633894" lon="11.5014218"><ele>380.0</ele><time>2026-04-05T14:19:34.271Z</time></trkpt><trkpt lat="43.3635129" lon="11.5014512"><ele>379.0</ele><time>2026-04-05T14:19:35.249Z</time></trkpt><trkpt lat="43.3636393" lon="11.5014892"><ele>378.0</ele><time>2026-04-05T14:19:36.267Z</time></trkpt><trkpt lat="43.3637684" lon="11.5015325"><ele>376.5</ele><time>2026-04-05T14:19:37.257Z</time></trkpt><trkpt lat="43.3639048" lon="11.501581"><ele>375.0</ele><time>2026-04-05T14:19:38.258Z</time></trkpt><trkpt lat="43.3640454" lon="11.5016304"><ele>373.5</ele><time>2026-04-05T14:19:39.268Z</time></trkpt><trkpt lat="43.3641884" lon="11.5016805"><ele>372.0</ele><time>2026-04-05T14:19:40.264Z</time></trkpt><trkpt lat="43.3643353" lon="11.5017309"><ele>372.0</ele><time>2026-04-05T14:19:41.271Z</time></trkpt><trkpt lat="43.3644803" lon="11.5017771"><ele>372.0</ele><time>2026-04-05T14:19:42.265Z</time></trkpt><trkpt lat="43.3646207" lon="11.5018119"><ele>372.0</ele><time>2026-04-05T14:19:43.265Z</time></trkpt><trkpt lat="43.3647597" lon="11.5018326"><ele>372.0</ele><time>2026-04-05T14:19:44.258Z</time></trkpt><trkpt lat="43.3648947" lon="11.5018398"><ele>370.5</ele><time>2026-04-05T14:19:45.266Z</time></trkpt><trkpt lat="43.365019" lon="11.5018446"><ele>369.0</ele><time>2026-04-05T14:19:46.266Z</time></trkpt><trkpt lat="43.3651423" lon="11.5018484"><ele>367.5</ele><time>2026-04-05T14:19:47.259Z</time></trkpt><trkpt lat="43.3652769" lon="11.5018514"><ele>366.0</ele><time>2026-04-05T14:19:48.257Z</time></trkpt><trkpt lat="43.3654157" lon="11.5018522"><ele>365.6666666666667</ele><time>2026-04-05T14:19:49.277Z</time></trkpt><trkpt lat="43.3655642" lon="11.5018524"><ele>365.33333333333337</ele><time>2026-04-05T14:19:50.263Z</time></trkpt><trkpt lat="43.3657182" lon="11.5018576"><ele>365.0</ele><time>2026-04-05T14:19:51.262Z</time></trkpt><trkpt lat="43.3658736" lon="11.501862"><ele>365.0</ele><time>2026-04-05T14:19:52.275Z</time></trkpt><trkpt lat="43.3660286" lon="11.5018627"><ele>365.0</ele><time>2026-04-05T14:19:53.255Z</time></trkpt><trkpt lat="43.366184" lon="11.5018548"><ele>365.0</ele><time>2026-04-05T14:19:54.273Z</time></trkpt><trkpt lat="43.366334" lon="11.5018323"><ele>364.0</ele><time>2026-04-05T14:19:55.258Z</time></trkpt><trkpt lat="43.3664821" lon="11.5017866"><ele>363.0</ele><time>2026-04-05T14:19:56.25Z</time></trkpt><trkpt lat="43.3666298" lon="11.5017264"><ele>362.0</ele><time>2026-04-05T14:19:57.277Z</time></trkpt><trkpt lat="43.3667771" lon="11.501655"><ele>362.0</ele><time>2026-04-05T14:19:58.255Z</time></trkpt><trkpt lat="43.366923" lon="11.5015727"><ele>362.0</ele><time>2026-04-05T14:19:59.264Z</time></trkpt><trkpt lat="43.3670601" lon="11.5014936"><ele>362.0</ele><time>2026-04-05T14:20:00.268Z</time></trkpt><trkpt lat="43.3671956" lon="11.5014219"><ele>361.5</ele><time>2026-04-05T14:20:01.264Z</time></trkpt><trkpt lat="43.3673309" lon="11.5013762"><ele>361.0</ele><time>2026-04-05T14:20:02.267Z</time></trkpt><trkpt lat="43.3674638" lon="11.5013507"><ele>360.5</ele><time>2026-04-05T14:20:03.263Z</time></trkpt><trkpt lat="43.3675974" lon="11.5013241"><ele>360.0</ele><time>2026-04-05T14:20:04.27Z</time></trkpt><trkpt lat="43.3677259" lon="11.5012812"><ele>359.25</ele><time>2026-04-05T14:20:05.252Z</time></trkpt><trkpt lat="43.3678468" lon="11.5012125"><ele>358.5</ele><time>2026-04-05T14:20:06.266Z</time></trkpt><trkpt lat="43.367956" lon="11.5011087"><ele>357.75</ele><time>2026-04-05T14:20:07.27Z</time></trkpt><trkpt lat="43.3680548" lon="11.5009725"><ele>357.0</ele><time>2026-04-05T14:20:08.263Z</time></trkpt><trkpt lat="43.3681449" lon="11.5008104"><ele>357.0</ele><time>2026-04-05T14:20:09.274Z</time></trkpt><trkpt lat="43.3682278" lon="11.5006481"><ele>357.0</ele><time>2026-04-05T14:20:10.261Z</time></trkpt><trkpt lat="43.3683164" lon="11.5004967"><ele>357.0</ele><time>2026-04-05T14:20:11.27Z</time></trkpt><trkpt lat="43.3684216" lon="11.5003567"><ele>357.0</ele><time>2026-04-05T14:20:12.262Z</time></trkpt><trkpt lat="43.3685418" lon="11.5002312"><ele>357.40000000000003</ele><time>2026-04-05T14:20:13.253Z</time></trkpt><trkpt lat="43.3686537" lon="11.5001269"><ele>357.8</ele><time>2026-04-05T14:20:14.281Z</time></trkpt><trkpt lat="43.3687454" lon="11.5000512"><ele>358.2</ele><time>2026-04-05T14:20:15.266Z</time></trkpt><trkpt lat="43.3688176" lon="11.5000077"><ele>358.6</ele><time>2026-04-05T14:20:16.272Z</time></trkpt><trkpt lat="43.3689235" lon="11.4999784"><ele>359.0</ele><time>2026-04-05T14:20:18.268Z</time></trkpt><trkpt lat="43.3690016" lon="11.4999571"><ele>358.2</ele><time>2026-04-05T14:20:20.259Z</time></trkpt><trkpt lat="43.369075" lon="11.4999138"><ele>357.4</ele><time>2026-04-05T14:20:22.26Z</time></trkpt><trkpt lat="43.369157" lon="11.499856"><ele>356.6</ele><time>2026-04-05T14:20:24.276Z</time></trkpt><trkpt lat="43.3692555" lon="11.4997909"><ele>355.8</ele><time>2026-04-05T14:20:26.276Z</time></trkpt><trkpt lat="43.3693663" lon="11.4996926"><ele>355.0</ele><time>2026-04-05T14:20:28.254Z</time></trkpt><trkpt lat="43.3694291" lon="11.4996399"><ele>355.0</ele><time>2026-04-05T14:20:29.271Z</time></trkpt><trkpt lat="43.3694937" lon="11.4995897"><ele>355.0</ele><time>2026-04-05T14:20:30.261Z</time></trkpt><trkpt lat="43.3695601" lon="11.4995441"><ele>355.0</ele><time>2026-04-05T14:20:31.266Z</time></trkpt><trkpt lat="43.3696327" lon="11.4994945"><ele>355.0</ele><time>2026-04-05T14:20:32.259Z</time></trkpt><trkpt lat="43.3697084" lon="11.4994419"><ele>355.0</ele><time>2026-04-05T14:20:33.262Z</time></trkpt><trkpt lat="43.3697837" lon="11.4993826"><ele>355.0</ele><time>2026-04-05T14:20:34.26Z</time></trkpt><trkpt lat="43.369851" lon="11.4993354"><ele>355.2857142857143</ele><time>2026-04-05T14:20:35.264Z</time></trkpt><trkpt lat="43.3699148" lon="11.4992857"><ele>355.57142857142856</ele><time>2026-04-05T14:20:36.268Z</time></trkpt><trkpt lat="43.3699786" lon="11.499242"><ele>355.8571428571429</ele><time>2026-04-05T14:20:37.266Z</time></trkpt><trkpt lat="43.3700407" lon="11.4991978"><ele>356.1428571428571</ele><time>2026-04-05T14:20:38.262Z</time></trkpt><trkpt lat="43.3701096" lon="11.4991493"><ele>356.42857142857144</ele><time>2026-04-05T14:20:39.266Z</time></trkpt><trkpt lat="43.3701728" lon="11.4991064"><ele>356.7142857142857</ele><time>2026-04-05T14:20:40.276Z</time></trkpt><trkpt lat="43.3702339" lon="11.4990565"><ele>357.0</ele><time>2026-04-05T14:20:41.27Z</time></trkpt><trkpt lat="43.3702994" lon="11.4990038"><ele>357.0</ele><time>2026-04-05T14:20:42.265Z</time></trkpt><trkpt lat="43.3703623" lon="11.4989546"><ele>357.0</ele><time>2026-04-05T14:20:43.272Z</time></trkpt><trkpt lat="43.3704224" lon="11.4989007"><ele>357.0</ele><time>2026-04-05T14:20:44.267Z</time></trkpt><trkpt lat="43.3704782" lon="11.4988402"><ele>357.0</ele><time>2026-04-05T14:20:45.266Z</time></trkpt><trkpt lat="43.3705771" lon="11.4987431"><ele>357.0</ele><time>2026-04-05T14:20:47.265Z</time></trkpt><trkpt lat="43.3706483" lon="11.4986492"><ele>357.0</ele><time>2026-04-05T14:20:49.257Z</time></trkpt><trkpt lat="43.3707117" lon="11.4985554"><ele>357.1666666666667</ele><time>2026-04-05T14:20:51.26Z</time></trkpt><trkpt lat="43.3707792" lon="11.4984692"><ele>357.3333333333333</ele><time>2026-04-05T14:20:53.266Z</time></trkpt><trkpt lat="43.3708498" lon="11.498379"><ele>357.5</ele><time>2026-04-05T14:20:55.27Z</time></trkpt><trkpt lat="43.3709034" lon="11.4982858"><ele>357.66666666666663</ele><time>2026-04-05T14:20:57.265Z</time></trkpt><trkpt lat="43.370967" lon="11.4982087"><ele>357.8333333333333</ele><time>2026-04-05T14:20:59.264Z</time></trkpt><trkpt lat="43.3710455" lon="11.4981485"><ele>358.0</ele><time>2026-04-05T14:21:01.276Z</time></trkpt><trkpt lat="43.3711511" lon="11.498068"><ele>358.0</ele><time>2026-04-05T14:21:03.264Z</time></trkpt><trkpt lat="43.3712101" lon="11.4980191"><ele>358.0</ele><time>2026-04-05T14:21:04.276Z</time></trkpt><trkpt lat="43.3712694" lon="11.4979844"><ele>358.0</ele><time>2026-04-05T14:21:05.274Z</time></trkpt><trkpt lat="43.3713646" lon="11.4979438"><ele>358.0</ele><time>2026-04-05T14:21:07.271Z</time></trkpt><trkpt lat="43.3714219" lon="11.4978933"><ele>358.0</ele><time>2026-04-05T14:21:10.257Z</time></trkpt><trkpt lat="43.3715101" lon="11.4978511"><ele>358.0</ele><time>2026-04-05T14:21:43.271Z</time></trkpt><trkpt lat="43.3716123" lon="11.4978337"><ele>358.16666666666663</ele><time>2026-04-05T14:21:45.268Z</time></trkpt><trkpt lat="43.3716813" lon="11.4978212"><ele>358.3333333333333</ele><time>2026-04-05T14:21:47.28Z</time></trkpt><trkpt lat="43.3717687" lon="11.4977979"><ele>358.5</ele><time>2026-04-05T14:21:50.274Z</time></trkpt><trkpt lat="43.3718846" lon="11.497773"><ele>358.6666666666667</ele><time>2026-04-05T14:21:52.262Z</time></trkpt><trkpt lat="43.3719524" lon="11.4977466"><ele>358.83333333333337</ele><time>2026-04-05T14:21:53.251Z</time></trkpt><trkpt lat="43.3720216" lon="11.497735"><ele>359.0</ele><time>2026-04-05T14:21:54.271Z</time></trkpt><trkpt lat="43.3720915" lon="11.4977328"><ele>359.0</ele><time>2026-04-05T14:21:55.261Z</time></trkpt><trkpt lat="43.372157" lon="11.4977405"><ele>359.0</ele><time>2026-04-05T14:21:56.264Z</time></trkpt><trkpt lat="43.372231" lon="11.497747"><ele>359.0</ele><time>2026-04-05T14:21:57.265Z</time></trkpt><trkpt lat="43.3723034" lon="11.4977584"><ele>359.0</ele><time>2026-04-05T14:21:58.266Z</time></trkpt><trkpt lat="43.3723732" lon="11.4977706"><ele>359.0</ele><time>2026-04-05T14:21:59.264Z</time></trkpt><trkpt lat="43.372443" lon="11.4977827"><ele>359.0</ele><time>2026-04-05T14:22:00.281Z</time></trkpt><trkpt lat="43.3725069" lon="11.4977959"><ele>359.0</ele><time>2026-04-05T14:22:01.265Z</time></trkpt><trkpt lat="43.3726232" lon="11.4978224"><ele>359.33333333333337</ele><time>2026-04-05T14:22:03.271Z</time></trkpt><trkpt lat="43.3727373" lon="11.4978516"><ele>359.6666666666667</ele><time>2026-04-05T14:22:05.258Z</time></trkpt><trkpt lat="43.3728003" lon="11.4978727"><ele>360.0</ele><time>2026-04-05T14:22:06.256Z</time></trkpt><trkpt lat="43.3728629" lon="11.4979069"><ele>360.3333333333333</ele><time>2026-04-05T14:22:07.261Z</time></trkpt><trkpt lat="43.3729175" lon="11.4979502"><ele>360.66666666666663</ele><time>2026-04-05T14:22:08.262Z</time></trkpt><trkpt lat="43.3730259" lon="11.4980371"><ele>361.0</ele><time>2026-04-05T14:22:10.262Z</time></trkpt><trkpt lat="43.3731357" lon="11.4980827"><ele>361.8571428571429</ele><time>2026-04-05T14:22:12.271Z</time></trkpt><trkpt lat="43.3731987" lon="11.4981015"><ele>362.71428571428567</ele><time>2026-04-05T14:22:13.27Z</time></trkpt><trkpt lat="43.3732619" lon="11.4981218"><ele>363.57142857142856</ele><time>2026-04-05T14:22:14.272Z</time></trkpt><trkpt lat="43.373328" lon="11.4981432"><ele>364.42857142857144</ele><time>2026-04-05T14:22:15.265Z</time></trkpt><trkpt lat="43.3733936" lon="11.4981668"><ele>365.28571428571433</ele><time>2026-04-05T14:22:16.261Z</time></trkpt><trkpt lat="43.3734604" lon="11.498184"><ele>366.1428571428571</ele><time>2026-04-05T14:22:17.264Z</time></trkpt><trkpt lat="43.3735304" lon="11.4981973"><ele>367.0</ele><time>2026-04-05T14:22:18.267Z</time></trkpt><trkpt lat="43.3736008" lon="11.4982089"><ele>367.0</ele><time>2026-04-05T14:22:19.272Z</time></trkpt><trkpt lat="43.3736717" lon="11.4982185"><ele>367.0</ele><time>2026-04-05T14:22:20.264Z</time></trkpt><trkpt lat="43.3737382" lon="11.4982252"><ele>367.0</ele><time>2026-04-05T14:22:21.255Z</time></trkpt><trkpt lat="43.3738539" lon="11.4982252"><ele>367.0</ele><time>2026-04-05T14:22:23.261Z</time></trkpt><trkpt lat="43.3739786" lon="11.4981966"><ele>367.0</ele><time>2026-04-05T14:22:25.266Z</time></trkpt><trkpt lat="43.3740439" lon="11.4981669"><ele>367.0</ele><time>2026-04-05T14:22:26.274Z</time></trkpt><trkpt lat="43.3741115" lon="11.4981378"><ele>367.8333333333333</ele><time>2026-04-05T14:22:27.272Z</time></trkpt><trkpt lat="43.3741749" lon="11.4981089"><ele>368.66666666666663</ele><time>2026-04-05T14:22:28.274Z</time></trkpt><trkpt lat="43.3742924" lon="11.4980796"><ele>369.5</ele><time>2026-04-05T14:22:30.258Z</time></trkpt><trkpt lat="43.374413" lon="11.4980952"><ele>370.3333333333333</ele><time>2026-04-05T14:22:32.261Z</time></trkpt><trkpt lat="43.3744757" lon="11.4981056"><ele>371.1666666666667</ele><time>2026-04-05T14:22:33.259Z</time></trkpt><trkpt lat="43.3745395" lon="11.4981093"><ele>372.0</ele><time>2026-04-05T14:22:34.268Z</time></trkpt><trkpt lat="43.3746641" lon="11.4981343"><ele>372.8333333333333</ele><time>2026-04-05T14:22:36.279Z</time></trkpt><trkpt lat="43.3747235" lon="11.4981656"><ele>373.6666666666667</ele><time>2026-04-05T14:22:37.256Z</time></trkpt><trkpt lat="43.3748336" lon="11.4982491"><ele>374.5</ele><time>2026-04-05T14:22:39.255Z</time></trkpt><trkpt lat="43.3748914" lon="11.4982919"><ele>375.33333333333337</ele><time>2026-04-05T14:22:40.282Z</time></trkpt><trkpt lat="43.3749815" lon="11.4983606"><ele>376.1666666666667</ele><time>2026-04-05T14:22:42.273Z</time></trkpt><trkpt lat="43.3750473" lon="11.4984293"><ele>377.0</ele><time>2026-04-05T14:22:44.259Z</time></trkpt><trkpt lat="43.3750932" lon="11.4985351"><ele>377.0</ele><time>2026-04-05T14:23:14.259Z</time></trkpt><trkpt lat="43.3751161" lon="11.498673"><ele>377.0</ele><time>2026-04-05T14:23:16.261Z</time></trkpt><trkpt lat="43.3751111" lon="11.4987611"><ele>377.0</ele><time>2026-04-05T14:23:17.267Z</time></trkpt><trkpt lat="43.3751018" lon="11.498849"><ele>377.0</ele><time>2026-04-05T14:23:18.256Z</time></trkpt><trkpt lat="43.3750844" lon="11.4990009"><ele>377.0</ele><time>2026-04-05T14:23:20.272Z</time></trkpt><trkpt lat="43.3750803" lon="11.4991309"><ele>377.0</ele><time>2026-04-05T14:23:22.257Z</time></trkpt><trkpt lat="43.3750975" lon="11.4992277"><ele>377.6666666666667</ele><time>2026-04-05T14:23:24.253Z</time></trkpt><trkpt lat="43.3751361" lon="11.4993054"><ele>378.33333333333337</ele><time>2026-04-05T14:23:27.258Z</time></trkpt><trkpt lat="43.3751718" lon="11.4993794"><ele>379.0</ele><time>2026-04-05T14:23:43.264Z</time></trkpt><trkpt lat="43.3751898" lon="11.49954"><ele>379.6666666666667</ele><time>2026-04-05T14:23:45.258Z</time></trkpt><trkpt lat="43.3751976" lon="11.4997155"><ele>380.3333333333333</ele><time>2026-04-05T14:23:47.259Z</time></trkpt><trkpt lat="43.3751971" lon="11.4998072"><ele>381.0</ele><time>2026-04-05T14:23:48.274Z</time></trkpt><trkpt lat="43.3752115" lon="11.4999641"><ele>381.0</ele><time>2026-04-05T14:23:50.269Z</time></trkpt><trkpt lat="43.3752855" lon="11.5000748"><ele>381.0</ele><time>2026-04-05T14:23:52.264Z</time></trkpt><trkpt lat="43.3753844" lon="11.5001174"><ele>381.0</ele><time>2026-04-05T14:23:54.265Z</time></trkpt><trkpt lat="43.3754967" lon="11.5001155"><ele>381.0</ele><time>2026-04-05T14:23:56.265Z</time></trkpt><trkpt lat="43.3755837" lon="11.500112"><ele>381.0</ele><time>2026-04-05T14:23:58.264Z</time></trkpt><trkpt lat="43.375651" lon="11.5001661"><ele>380.8333333333333</ele><time>2026-04-05T14:24:00.26Z</time></trkpt><trkpt lat="43.3757278" lon="11.5002832"><ele>380.6666666666667</ele><time>2026-04-05T14:24:02.269Z</time></trkpt><trkpt lat="43.3757764" lon="11.5003595"><ele>380.5</ele><time>2026-04-05T14:24:03.266Z</time></trkpt><trkpt lat="43.3758207" lon="11.5004376"><ele>380.33333333333337</ele><time>2026-04-05T14:24:04.262Z</time></trkpt><trkpt lat="43.3758636" lon="11.5005302"><ele>380.1666666666667</ele><time>2026-04-05T14:24:05.271Z</time></trkpt><trkpt lat="43.3759032" lon="11.5006371"><ele>380.0</ele><time>2026-04-05T14:24:06.268Z</time></trkpt><trkpt lat="43.3759278" lon="11.5007488"><ele>378.83333333333337</ele><time>2026-04-05T14:24:07.269Z</time></trkpt><trkpt lat="43.3759447" lon="11.500869"><ele>377.6666666666667</ele><time>2026-04-05T14:24:08.267Z</time></trkpt><trkpt lat="43.3759545" lon="11.500987"><ele>376.5</ele><time>2026-04-05T14:24:09.263Z</time></trkpt><trkpt lat="43.3759641" lon="11.5011031"><ele>375.3333333333333</ele><time>2026-04-05T14:24:10.272Z</time></trkpt><trkpt lat="43.3759733" lon="11.5012196"><ele>374.16666666666663</ele><time>2026-04-05T14:24:11.267Z</time></trkpt><trkpt lat="43.3759907" lon="11.5013369"><ele>373.0</ele><time>2026-04-05T14:24:12.257Z</time></trkpt><trkpt lat="43.376011" lon="11.5014565"><ele>371.2</ele><time>2026-04-05T14:24:13.27Z</time></trkpt><trkpt lat="43.3760325" lon="11.5015803"><ele>369.4</ele><time>2026-04-05T14:24:14.256Z</time></trkpt><trkpt lat="43.376056" lon="11.5017197"><ele>367.59999999999997</ele><time>2026-04-05T14:24:15.264Z</time></trkpt><trkpt lat="43.3760779" lon="11.5018636"><ele>365.79999999999995</ele><time>2026-04-05T14:24:16.262Z</time></trkpt><trkpt lat="43.3760966" lon="11.5020231"><ele>364.0</ele><time>2026-04-05T14:24:17.262Z</time></trkpt><trkpt lat="43.3761136" lon="11.5021776"><ele>363.0</ele><time>2026-04-05T14:24:18.256Z</time></trkpt><trkpt lat="43.3761301" lon="11.5023262"><ele>362.0</ele><time>2026-04-05T14:24:19.261Z</time></trkpt><trkpt lat="43.3761471" lon="11.5024674"><ele>361.0</ele><time>2026-04-05T14:24:20.26Z</time></trkpt><trkpt lat="43.3761644" lon="11.5025987"><ele>360.0</ele><time>2026-04-05T14:24:21.267Z</time></trkpt><trkpt lat="43.3761811" lon="11.5027285"><ele>359.0</ele><time>2026-04-05T14:24:22.266Z</time></trkpt><trkpt lat="43.3761854" lon="11.5028544"><ele>358.0</ele><time>2026-04-05T14:24:23.264Z</time></trkpt><trkpt lat="43.376172" lon="11.5029731"><ele>357.0</ele><time>2026-04-05T14:24:24.266Z</time></trkpt><trkpt lat="43.3761497" lon="11.5030853"><ele>356.0</ele><time>2026-04-05T14:24:25.264Z</time></trkpt><trkpt lat="43.37613" lon="11.5031967"><ele>355.0</ele><time>2026-04-05T14:24:26.279Z</time></trkpt><trkpt lat="43.3761268" lon="11.5033071"><ele>354.0</ele><time>2026-04-05T14:24:27.276Z</time></trkpt><trkpt lat="43.3761335" lon="11.5034147"><ele>353.0</ele><time>2026-04-05T14:24:28.272Z</time></trkpt><trkpt lat="43.376154" lon="11.5035143"><ele>353.0</ele><time>2026-04-05T14:24:29.268Z</time></trkpt><trkpt lat="43.3761849" lon="11.5036031"><ele>353.0</ele><time>2026-04-05T14:24:30.264Z</time></trkpt><trkpt lat="43.3762249" lon="11.5036801"><ele>353.0</ele><time>2026-04-05T14:24:31.253Z</time></trkpt><trkpt lat="43.3762746" lon="11.5037401"><ele>353.0</ele><time>2026-04-05T14:24:32.263Z</time></trkpt><trkpt lat="43.37633" lon="11.5037817"><ele>353.0</ele><time>2026-04-05T14:24:33.268Z</time></trkpt><trkpt lat="43.3763916" lon="11.5038012"><ele>353.0</ele><time>2026-04-05T14:24:34.268Z</time></trkpt><trkpt lat="43.3764595" lon="11.5038082"><ele>353.0</ele><time>2026-04-05T14:24:35.268Z</time></trkpt><trkpt lat="43.3765289" lon="11.5038095"><ele>353.0</ele><time>2026-04-05T14:24:36.269Z</time></trkpt><trkpt lat="43.3765983" lon="11.5038044"><ele>353.0</ele><time>2026-04-05T14:24:37.271Z</time></trkpt><trkpt lat="43.3766662" lon="11.5038077"><ele>353.0</ele><time>2026-04-05T14:24:38.26Z</time></trkpt><trkpt lat="43.376733" lon="11.5038299"><ele>353.0</ele><time>2026-04-05T14:24:39.261Z</time></trkpt><trkpt lat="43.3767906" lon="11.5038743"><ele>353.0</ele><time>2026-04-05T14:24:40.267Z</time></trkpt><trkpt lat="43.3768321" lon="11.5039401"><ele>353.0</ele><time>2026-04-05T14:24:41.274Z</time></trkpt><trkpt lat="43.3768622" lon="11.5041098"><ele>353.0</ele><time>2026-04-05T14:24:43.267Z</time></trkpt><trkpt lat="43.3768436" lon="11.5042065"><ele>353.0</ele><time>2026-04-05T14:24:44.26Z</time></trkpt><trkpt lat="43.3768068" lon="11.5042967"><ele>353.0</ele><time>2026-04-05T14:24:45.26Z</time></trkpt><trkpt lat="43.3767556" lon="11.5043625"><ele>353.0</ele><time>2026-04-05T14:24:46.27Z</time></trkpt><trkpt lat="43.3766939" lon="11.5044081"><ele>353.0</ele><time>2026-04-05T14:24:47.254Z</time></trkpt><trkpt lat="43.3766094" lon="11.5044414"><ele>353.0</ele><time>2026-04-05T14:24:48.267Z</time></trkpt><trkpt lat="43.376505" lon="11.504473"><ele>353.0</ele><time>2026-04-05T14:24:49.261Z</time></trkpt><trkpt lat="43.3763874" lon="11.5045117"><ele>353.0</ele><time>2026-04-05T14:24:50.265Z</time></trkpt><trkpt lat="43.3762605" lon="11.5045548"><ele>353.0</ele><time>2026-04-05T14:24:51.268Z</time></trkpt><trkpt lat="43.3761229" lon="11.5046008"><ele>353.0</ele><time>2026-04-05T14:24:52.267Z</time></trkpt><trkpt lat="43.3759788" lon="11.5046484"><ele>353.0</ele><time>2026-04-05T14:24:53.254Z</time></trkpt><trkpt lat="43.375835" lon="11.5046952"><ele>353.0</ele><time>2026-04-05T14:24:54.25Z</time></trkpt><trkpt lat="43.3756997" lon="11.5047383"><ele>353.0</ele><time>2026-04-05T14:24:55.254Z</time></trkpt><trkpt lat="43.3755722" lon="11.504771"><ele>353.0</ele><time>2026-04-05T14:24:56.258Z</time></trkpt><trkpt lat="43.3754494" lon="11.5047883"><ele>353.0</ele><time>2026-04-05T14:24:57.269Z</time></trkpt><trkpt lat="43.3753348" lon="11.504794"><ele>353.0</ele><time>2026-04-05T14:24:58.268Z</time></trkpt><trkpt lat="43.3752306" lon="11.5047985"><ele>353.0</ele><time>2026-04-05T14:24:59.266Z</time></trkpt><trkpt lat="43.3751361" lon="11.5048138"><ele>353.0</ele><time>2026-04-05T14:25:00.265Z</time></trkpt><trkpt lat="43.3750409" lon="11.5048417"><ele>353.0</ele><time>2026-04-05T14:25:01.269Z</time></trkpt><trkpt lat="43.3749393" lon="11.5048891"><ele>353.0</ele><time>2026-04-05T14:25:02.268Z</time></trkpt><trkpt lat="43.3748343" lon="11.5049523"><ele>353.0</ele><time>2026-04-05T14:25:03.272Z</time></trkpt><trkpt lat="43.3747353" lon="11.5050154"><ele>353.0</ele><time>2026-04-05T14:25:04.261Z</time></trkpt><trkpt lat="43.3746472" lon="11.5050737"><ele>353.0</ele><time>2026-04-05T14:25:05.26Z</time></trkpt><trkpt lat="43.374576" lon="11.5051389"><ele>353.0</ele><time>2026-04-05T14:25:06.272Z</time></trkpt><trkpt lat="43.3745291" lon="11.505203"><ele>353.1666666666667</ele><time>2026-04-05T14:25:07.268Z</time></trkpt><trkpt lat="43.3745023" lon="11.5053499"><ele>353.33333333333337</ele><time>2026-04-05T14:25:09.254Z</time></trkpt><trkpt lat="43.3745289" lon="11.5054302"><ele>353.5</ele><time>2026-04-05T14:25:10.254Z</time></trkpt><trkpt lat="43.3745777" lon="11.5055194"><ele>353.6666666666667</ele><time>2026-04-05T14:25:11.26Z</time></trkpt><trkpt lat="43.3746247" lon="11.5056167"><ele>353.8333333333333</ele><time>2026-04-05T14:25:12.269Z</time></trkpt><trkpt lat="43.37466" lon="11.5057165"><ele>354.0</ele><time>2026-04-05T14:25:13.262Z</time></trkpt><trkpt lat="43.3746843" lon="11.5058325"><ele>356.0</ele><time>2026-04-05T14:25:14.277Z</time></trkpt><trkpt lat="43.3746933" lon="11.5059705"><ele>358.0</ele><time>2026-04-05T14:25:15.272Z</time></trkpt><trkpt lat="43.3746894" lon="11.5061227"><ele>360.0</ele><time>2026-04-05T14:25:16.267Z</time></trkpt><trkpt lat="43.3746782" lon="11.5062532"><ele>362.0</ele><time>2026-04-05T14:25:17.275Z</time></trkpt><trkpt lat="43.3746581" lon="11.5063463"><ele>364.0</ele><time>2026-04-05T14:25:18.26Z</time></trkpt><trkpt lat="43.3745556" lon="11.5064244"><ele>364.6</ele><time>2026-04-05T14:25:20.265Z</time></trkpt><trkpt lat="43.3744437" lon="11.5063667"><ele>365.2</ele><time>2026-04-05T14:25:22.286Z</time></trkpt><trkpt lat="43.3743954" lon="11.5063083"><ele>365.8</ele><time>2026-04-05T14:25:23.269Z</time></trkpt><trkpt lat="43.3743101" lon="11.5062429"><ele>366.40000000000003</ele><time>2026-04-05T14:25:25.265Z</time></trkpt><trkpt lat="43.3742194" lon="11.5062746"><ele>367.0</ele><time>2026-04-05T14:25:27.263Z</time></trkpt><trkpt lat="43.3741409" lon="11.5063965"><ele>367.0</ele><time>2026-04-05T14:25:29.255Z</time></trkpt><trkpt lat="43.3740987" lon="11.5064693"><ele>367.0</ele><time>2026-04-05T14:25:30.264Z</time></trkpt><trkpt lat="43.3740609" lon="11.5065477"><ele>367.0</ele><time>2026-04-05T14:25:31.268Z</time></trkpt><trkpt lat="43.3740231" lon="11.506632"><ele>367.0</ele><time>2026-04-05T14:25:32.264Z</time></trkpt><trkpt lat="43.3739841" lon="11.5067179"><ele>367.0</ele><time>2026-04-05T14:25:33.267Z</time></trkpt><trkpt lat="43.3739441" lon="11.5068076"><ele>367.0</ele><time>2026-04-05T14:25:34.269Z</time></trkpt><trkpt lat="43.3739018" lon="11.5068967"><ele>367.0</ele><time>2026-04-05T14:25:35.265Z</time></trkpt><trkpt lat="43.3738592" lon="11.5069845"><ele>365.6</ele><time>2026-04-05T14:25:36.26Z</time></trkpt><trkpt lat="43.3738116" lon="11.5070599"><ele>364.20000000000005</ele><time>2026-04-05T14:25:37.256Z</time></trkpt><trkpt lat="43.3737293" lon="11.5071629"><ele>362.8</ele><time>2026-04-05T14:25:39.258Z</time></trkpt><trkpt lat="43.3736323" lon="11.5072172"><ele>361.4</ele><time>2026-04-05T14:25:41.271Z</time></trkpt><trkpt lat="43.3735552" lon="11.5073204"><ele>360.0</ele><time>2026-04-05T14:25:43.258Z</time></trkpt><trkpt lat="43.3735513" lon="11.5074642"><ele>360.0</ele><time>2026-04-05T14:25:45.256Z</time></trkpt><trkpt lat="43.3736089" lon="11.5076272"><ele>360.0</ele><time>2026-04-05T14:25:47.262Z</time></trkpt><trkpt lat="43.3736638" lon="11.5077091"><ele>360.0</ele><time>2026-04-05T14:25:48.262Z</time></trkpt><trkpt lat="43.3737211" lon="11.5078066"><ele>360.0</ele><time>2026-04-05T14:25:49.271Z</time></trkpt><trkpt lat="43.3737877" lon="11.5079013"><ele>360.0</ele><time>2026-04-05T14:25:50.264Z</time></trkpt><trkpt lat="43.3738608" lon="11.5079892"><ele>362.6</ele><time>2026-04-05T14:25:51.27Z</time></trkpt><trkpt lat="43.3739407" lon="11.5080752"><ele>365.2</ele><time>2026-04-05T14:25:52.265Z</time></trkpt><trkpt lat="43.3740259" lon="11.5081544"><ele>367.79999999999995</ele><time>2026-04-05T14:25:53.268Z</time></trkpt><trkpt lat="43.3741153" lon="11.508228"><ele>370.4</ele><time>2026-04-05T14:25:54.26Z</time></trkpt><trkpt lat="43.3742054" lon="11.5082945"><ele>373.0</ele><time>2026-04-05T14:25:55.268Z</time></trkpt><trkpt lat="43.3742965" lon="11.5083503"><ele>373.0</ele><time>2026-04-05T14:25:56.261Z</time></trkpt><trkpt lat="43.3743804" lon="11.5084002"><ele>373.0</ele><time>2026-04-05T14:25:57.27Z</time></trkpt><trkpt lat="43.3744517" lon="11.5084427"><ele>373.0</ele><time>2026-04-05T14:25:58.257Z</time></trkpt><trkpt lat="43.3745319" lon="11.5084857"><ele>373.0</ele><time>2026-04-05T14:25:59.266Z</time></trkpt><trkpt lat="43.3746103" lon="11.508531"><ele>373.0</ele><time>2026-04-05T14:26:00.256Z</time></trkpt><trkpt lat="43.3746892" lon="11.508577"><ele>373.0</ele><time>2026-04-05T14:26:01.258Z</time></trkpt><trkpt lat="43.374765" lon="11.5086274"><ele>374.3333333333333</ele><time>2026-04-05T14:26:02.267Z</time></trkpt><trkpt lat="43.3748344" lon="11.5086809"><ele>375.66666666666663</ele><time>2026-04-05T14:26:03.266Z</time></trkpt><trkpt lat="43.3748894" lon="11.5087404"><ele>377.0</ele><time>2026-04-05T14:26:04.256Z</time></trkpt><trkpt lat="43.3749331" lon="11.5088383"><ele>378.3333333333333</ele><time>2026-04-05T14:26:06.258Z</time></trkpt><trkpt lat="43.3749259" lon="11.5089484"><ele>379.6666666666667</ele><time>2026-04-05T14:26:08.254Z</time></trkpt><trkpt lat="43.374953" lon="11.5091043"><ele>381.0</ele><time>2026-04-05T14:26:10.266Z</time></trkpt><trkpt lat="43.374986" lon="11.5091816"><ele>381.0</ele><time>2026-04-05T14:26:11.249Z</time></trkpt><trkpt lat="43.375033" lon="11.5092608"><ele>381.0</ele><time>2026-04-05T14:26:12.26Z</time></trkpt><trkpt lat="43.3750866" lon="11.5093502"><ele>381.0</ele><time>2026-04-05T14:26:13.27Z</time></trkpt><trkpt lat="43.375123" lon="11.5094277"><ele>381.0</ele><time>2026-04-05T14:26:14.266Z</time></trkpt><trkpt lat="43.3751608" lon="11.5095131"><ele>381.0</ele><time>2026-04-05T14:26:15.257Z</time></trkpt><trkpt lat="43.3752103" lon="11.5095995"><ele>381.0</ele><time>2026-04-05T14:26:16.262Z</time></trkpt><trkpt lat="43.3752722" lon="11.5096904"><ele>381.0</ele><time>2026-04-05T14:26:17.271Z</time></trkpt><trkpt lat="43.3753423" lon="11.5097747"><ele>381.0</ele><time>2026-04-05T14:26:18.258Z</time></trkpt><trkpt lat="43.3754173" lon="11.5098537"><ele>381.0</ele><time>2026-04-05T14:26:19.267Z</time></trkpt><trkpt lat="43.3754954" lon="11.5099339"><ele>381.0</ele><time>2026-04-05T14:26:20.259Z</time></trkpt><trkpt lat="43.3755815" lon="11.5100139"><ele>381.0</ele><time>2026-04-05T14:26:21.256Z</time></trkpt><trkpt lat="43.3756735" lon="11.5100969"><ele>381.75</ele><time>2026-04-05T14:26:22.269Z</time></trkpt><trkpt lat="43.3757715" lon="11.5101833"><ele>382.5</ele><time>2026-04-05T14:26:23.267Z</time></trkpt><trkpt lat="43.3758711" lon="11.5102738"><ele>383.25</ele><time>2026-04-05T14:26:24.277Z</time></trkpt><trkpt lat="43.375973" lon="11.5103684"><ele>384.0</ele><time>2026-04-05T14:26:25.259Z</time></trkpt><trkpt lat="43.3760631" lon="11.5104572"><ele>384.0</ele><time>2026-04-05T14:26:26.264Z</time></trkpt><trkpt lat="43.37614" lon="11.5105389"><ele>384.0</ele><time>2026-04-05T14:26:27.266Z</time></trkpt><trkpt lat="43.3762041" lon="11.5106058"><ele>384.0</ele><time>2026-04-05T14:26:28.269Z</time></trkpt><trkpt lat="43.3762556" lon="11.5106638"><ele>384.0</ele><time>2026-04-05T14:26:29.258Z</time></trkpt><trkpt lat="43.3763313" lon="11.5107839"><ele>384.0</ele><time>2026-04-05T14:26:31.259Z</time></trkpt><trkpt lat="43.3763707" lon="11.5109107"><ele>384.8333333333333</ele><time>2026-04-05T14:26:33.269Z</time></trkpt><trkpt lat="43.3763797" lon="11.5110833"><ele>385.66666666666663</ele><time>2026-04-05T14:26:35.26Z</time></trkpt><trkpt lat="43.3763752" lon="11.5111737"><ele>386.5</ele><time>2026-04-05T14:26:36.268Z</time></trkpt><trkpt lat="43.376369" lon="11.5112677"><ele>387.3333333333333</ele><time>2026-04-05T14:26:37.264Z</time></trkpt><trkpt lat="43.3763623" lon="11.5113605"><ele>388.16666666666663</ele><time>2026-04-05T14:26:38.267Z</time></trkpt><trkpt lat="43.3763553" lon="11.5114515"><ele>389.0</ele><time>2026-04-05T14:26:39.26Z</time></trkpt><trkpt lat="43.3763483" lon="11.5115411"><ele>389.0</ele><time>2026-04-05T14:26:40.268Z</time></trkpt><trkpt lat="43.3763438" lon="11.5116358"><ele>389.0</ele><time>2026-04-05T14:26:41.256Z</time></trkpt><trkpt lat="43.3763378" lon="11.5117315"><ele>389.0</ele><time>2026-04-05T14:26:42.261Z</time></trkpt><trkpt lat="43.3763376" lon="11.5118248"><ele>389.0</ele><time>2026-04-05T14:26:43.265Z</time></trkpt><trkpt lat="43.3763554" lon="11.5119158"><ele>389.0</ele><time>2026-04-05T14:26:44.261Z</time></trkpt><trkpt lat="43.3763952" lon="11.5119924"><ele>389.0</ele><time>2026-04-05T14:26:45.267Z</time></trkpt><trkpt lat="43.3764501" lon="11.5120558"><ele>389.0</ele><time>2026-04-05T14:26:46.268Z</time></trkpt><trkpt lat="43.3765167" lon="11.5121049"><ele>389.79999999999995</ele><time>2026-04-05T14:26:47.27Z</time></trkpt><trkpt lat="43.3765932" lon="11.5121384"><ele>390.59999999999997</ele><time>2026-04-05T14:26:48.263Z</time></trkpt><trkpt lat="43.3766822" lon="11.5121738"><ele>391.4</ele><time>2026-04-05T14:26:49.268Z</time></trkpt><trkpt lat="43.376785" lon="11.5122155"><ele>392.2</ele><time>2026-04-05T14:26:50.263Z</time></trkpt><trkpt lat="43.3769015" lon="11.5122685"><ele>393.0</ele><time>2026-04-05T14:26:51.262Z</time></trkpt><trkpt lat="43.3770333" lon="11.5123299"><ele>393.0</ele><time>2026-04-05T14:26:52.265Z</time></trkpt><trkpt lat="43.377179" lon="11.5123948"><ele>393.0</ele><time>2026-04-05T14:26:53.263Z</time></trkpt><trkpt lat="43.3773164" lon="11.5124537"><ele>393.0</ele><time>2026-04-05T14:26:54.272Z</time></trkpt><trkpt lat="43.3774459" lon="11.5125045"><ele>393.0</ele><time>2026-04-05T14:26:55.27Z</time></trkpt><trkpt lat="43.3775696" lon="11.5125477"><ele>393.5</ele><time>2026-04-05T14:26:56.263Z</time></trkpt><trkpt lat="43.3776874" lon="11.5125873"><ele>394.0</ele><time>2026-04-05T14:26:57.257Z</time></trkpt><trkpt lat="43.3778002" lon="11.5126268"><ele>394.5</ele><time>2026-04-05T14:26:58.265Z</time></trkpt><trkpt lat="43.3779064" lon="11.5126688"><ele>395.0</ele><time>2026-04-05T14:26:59.271Z</time></trkpt><trkpt lat="43.3780063" lon="11.5127108"><ele>395.6</ele><time>2026-04-05T14:27:00.267Z</time></trkpt><trkpt lat="43.3781071" lon="11.5127484"><ele>396.2</ele><time>2026-04-05T14:27:01.261Z</time></trkpt><trkpt lat="43.3782114" lon="11.512788"><ele>396.79999999999995</ele><time>2026-04-05T14:27:02.257Z</time></trkpt><trkpt lat="43.3783206" lon="11.5128265"><ele>397.4</ele><time>2026-04-05T14:27:03.272Z</time></trkpt><trkpt lat="43.3784324" lon="11.5128585"><ele>398.0</ele><time>2026-04-05T14:27:04.261Z</time></trkpt><trkpt lat="43.3785453" lon="11.5128847"><ele>398.0</ele><time>2026-04-05T14:27:05.258Z</time></trkpt><trkpt lat="43.3786561" lon="11.5128957"><ele>398.0</ele><time>2026-04-05T14:27:06.271Z</time></trkpt><trkpt lat="43.3787609" lon="11.5128901"><ele>398.0</ele><time>2026-04-05T14:27:07.26Z</time></trkpt><trkpt lat="43.3788654" lon="11.512864"><ele>398.0</ele><time>2026-04-05T14:27:08.258Z</time></trkpt><trkpt lat="43.3789707" lon="11.5128153"><ele>398.0</ele><time>2026-04-05T14:27:09.273Z</time></trkpt><trkpt lat="43.3790778" lon="11.512748"><ele>398.0</ele><time>2026-04-05T14:27:10.26Z</time></trkpt><trkpt lat="43.3791903" lon="11.5126727"><ele>398.0</ele><time>2026-04-05T14:27:11.275Z</time></trkpt><trkpt lat="43.3793069" lon="11.5125938"><ele>398.0</ele><time>2026-04-05T14:27:12.262Z</time></trkpt><trkpt lat="43.3794264" lon="11.5125077"><ele>398.0</ele><time>2026-04-05T14:27:13.263Z</time></trkpt><trkpt lat="43.3795514" lon="11.512418"><ele>398.0</ele><time>2026-04-05T14:27:14.261Z</time></trkpt><trkpt lat="43.379664" lon="11.5123342"><ele>398.0</ele><time>2026-04-05T14:27:15.258Z</time></trkpt><trkpt lat="43.3797685" lon="11.5122556"><ele>398.0</ele><time>2026-04-05T14:27:16.26Z</time></trkpt><trkpt lat="43.3798653" lon="11.5121879"><ele>398.0</ele><time>2026-04-05T14:27:17.261Z</time></trkpt><trkpt lat="43.3799531" lon="11.5121348"><ele>398.59999999999997</ele><time>2026-04-05T14:27:18.276Z</time></trkpt><trkpt lat="43.3800422" lon="11.5120783"><ele>399.2</ele><time>2026-04-05T14:27:19.268Z</time></trkpt><trkpt lat="43.3801311" lon="11.5120241"><ele>399.8</ele><time>2026-04-05T14:27:20.259Z</time></trkpt><trkpt lat="43.3802203" lon="11.5119731"><ele>400.4</ele><time>2026-04-05T14:27:21.258Z</time></trkpt><trkpt lat="43.3803105" lon="11.5119209"><ele>401.0</ele><time>2026-04-05T14:27:22.257Z</time></trkpt><trkpt lat="43.3804013" lon="11.511871"><ele>401.16666666666663</ele><time>2026-04-05T14:27:23.261Z</time></trkpt><trkpt lat="43.3804906" lon="11.5118276"><ele>401.3333333333333</ele><time>2026-04-05T14:27:24.261Z</time></trkpt><trkpt lat="43.3805687" lon="11.511795"><ele>401.5</ele><time>2026-04-05T14:27:25.259Z</time></trkpt><trkpt lat="43.3806363" lon="11.5117736"><ele>401.66666666666663</ele><time>2026-04-05T14:27:26.265Z</time></trkpt><trkpt lat="43.3807431" lon="11.511769"><ele>401.8333333333333</ele><time>2026-04-05T14:27:28.268Z</time></trkpt><trkpt lat="43.3808059" lon="11.5117784"><ele>402.0</ele><time>2026-04-05T14:27:31.258Z</time></trkpt><trkpt lat="43.3808769" lon="11.5117578"><ele>403.40000000000003</ele><time>2026-04-05T14:29:18.264Z</time></trkpt><trkpt lat="43.3808957" lon="11.5116432"><ele>404.8</ele><time>2026-04-05T14:29:20.266Z</time></trkpt><trkpt lat="43.3809102" lon="11.5115466"><ele>406.2</ele><time>2026-04-05T14:29:22.266Z</time></trkpt><trkpt lat="43.3809808" lon="11.5114823"><ele>407.6</ele><time>2026-04-05T14:29:25.267Z</time></trkpt><trkpt lat="43.3810392" lon="11.5115492"><ele>409.0</ele><time>2026-04-05T14:29:27.259Z</time></trkpt><trkpt lat="43.3811244" lon="11.5116917"><ele>409.0</ele><time>2026-04-05T14:29:29.267Z</time></trkpt><trkpt lat="43.3811752" lon="11.5117889"><ele>409.0</ele><time>2026-04-05T14:29:30.27Z</time></trkpt><trkpt lat="43.3812279" lon="11.5118837"><ele>409.0</ele><time>2026-04-05T14:29:31.268Z</time></trkpt><trkpt lat="43.3812839" lon="11.5119855"><ele>409.0</ele><time>2026-04-05T14:29:32.271Z</time></trkpt><trkpt lat="43.3813372" lon="11.5120868"><ele>409.0</ele><time>2026-04-05T14:29:33.251Z</time></trkpt><trkpt lat="43.3813969" lon="11.5121913"><ele>408.50000000000006</ele><time>2026-04-05T14:29:34.267Z</time></trkpt><trkpt lat="43.3814563" lon="11.5122987"><ele>408.0</ele><time>2026-04-05T14:29:35.264Z</time></trkpt><trkpt lat="43.3815141" lon="11.5123989"><ele>407.5</ele><time>2026-04-05T14:29:36.27Z</time></trkpt><trkpt lat="43.3815676" lon="11.5124939"><ele>407.0</ele><time>2026-04-05T14:29:37.269Z</time></trkpt><trkpt lat="43.3816194" lon="11.5125876"><ele>406.50000000000006</ele><time>2026-04-05T14:29:38.262Z</time></trkpt><trkpt lat="43.3816682" lon="11.5126832"><ele>406.0</ele><time>2026-04-05T14:29:39.266Z</time></trkpt><trkpt lat="43.3817314" lon="11.5127696"><ele>406.0</ele><time>2026-04-05T14:29:40.263Z</time></trkpt><trkpt lat="43.3817904" lon="11.5128617"><ele>406.0</ele><time>2026-04-05T14:29:41.266Z</time></trkpt><trkpt lat="43.381851" lon="11.5129551"><ele>406.0</ele><time>2026-04-05T14:29:42.262Z</time></trkpt><trkpt lat="43.3819042" lon="11.5130535"><ele>406.0</ele><time>2026-04-05T14:29:43.256Z</time></trkpt><trkpt lat="43.3819498" lon="11.5131577"><ele>406.0</ele><time>2026-04-05T14:29:44.257Z</time></trkpt><trkpt lat="43.3819965" lon="11.513271"><ele>406.20000000000005</ele><time>2026-04-05T14:29:45.268Z</time></trkpt><trkpt lat="43.382049" lon="11.5133954"><ele>406.40000000000003</ele><time>2026-04-05T14:29:46.265Z</time></trkpt><trkpt lat="43.3820976" lon="11.5135258"><ele>406.6</ele><time>2026-04-05T14:29:47.263Z</time></trkpt><trkpt lat="43.382151" lon="11.5136485"><ele>406.8</ele><time>2026-04-05T14:29:48.263Z</time></trkpt><trkpt lat="43.3822036" lon="11.5137672"><ele>407.0</ele><time>2026-04-05T14:29:49.262Z</time></trkpt><trkpt lat="43.3822499" lon="11.5138791"><ele>405.3333333333333</ele><time>2026-04-05T14:29:50.269Z</time></trkpt><trkpt lat="43.3822931" lon="11.5139865"><ele>403.66666666666663</ele><time>2026-04-05T14:29:51.274Z</time></trkpt><trkpt lat="43.3823347" lon="11.514098"><ele>402.0</ele><time>2026-04-05T14:29:52.273Z</time></trkpt><trkpt lat="43.3823748" lon="11.5142072"><ele>400.33333333333337</ele><time>2026-04-05T14:29:53.27Z</time></trkpt><trkpt lat="43.3824092" lon="11.5143141"><ele>398.6666666666667</ele><time>2026-04-05T14:29:54.275Z</time></trkpt><trkpt lat="43.3824413" lon="11.5144173"><ele>397.0</ele><time>2026-04-05T14:29:55.27Z</time></trkpt><trkpt lat="43.3824698" lon="11.5145265"><ele>396.6666666666667</ele><time>2026-04-05T14:29:56.259Z</time></trkpt><trkpt lat="43.3824993" lon="11.5146286"><ele>396.33333333333337</ele><time>2026-04-05T14:29:57.255Z</time></trkpt><trkpt lat="43.3825424" lon="11.5147258"><ele>396.0</ele><time>2026-04-05T14:29:58.27Z</time></trkpt><trkpt lat="43.3825961" lon="11.5148244"><ele>395.66666666666663</ele><time>2026-04-05T14:29:59.263Z</time></trkpt><trkpt lat="43.3826592" lon="11.51493"><ele>395.3333333333333</ele><time>2026-04-05T14:30:00.261Z</time></trkpt><trkpt lat="43.3827275" lon="11.515025"><ele>395.0</ele><time>2026-04-05T14:30:01.255Z</time></trkpt><trkpt lat="43.3827946" lon="11.5151173"><ele>394.99999999999994</ele><time>2026-04-05T14:30:02.253Z</time></trkpt><trkpt lat="43.382864" lon="11.5152073"><ele>395.0</ele><time>2026-04-05T14:30:03.269Z</time></trkpt><trkpt lat="43.3829233" lon="11.5153054"><ele>395.0</ele><time>2026-04-05T14:30:04.259Z</time></trkpt><trkpt lat="43.3829761" lon="11.5154052"><ele>395.0</ele><time>2026-04-05T14:30:05.286Z</time></trkpt><trkpt lat="43.3830208" lon="11.5155034"><ele>394.99999999999994</ele><time>2026-04-05T14:30:06.263Z</time></trkpt><trkpt lat="43.3830567" lon="11.5156096"><ele>395.0</ele><time>2026-04-05T14:30:07.264Z</time></trkpt><trkpt lat="43.3830885" lon="11.5157222"><ele>392.0</ele><time>2026-04-05T14:30:08.263Z</time></trkpt><trkpt lat="43.3831178" lon="11.5158424"><ele>389.0</ele><time>2026-04-05T14:30:09.266Z</time></trkpt><trkpt lat="43.3831486" lon="11.5159676"><ele>386.0</ele><time>2026-04-05T14:30:10.268Z</time></trkpt><trkpt lat="43.3831804" lon="11.5160922"><ele>383.0</ele><time>2026-04-05T14:30:11.266Z</time></trkpt><trkpt lat="43.3831999" lon="11.516226"><ele>380.0</ele><time>2026-04-05T14:30:12.25Z</time></trkpt><trkpt lat="43.3832171" lon="11.5163527"><ele>379.0</ele><time>2026-04-05T14:30:13.253Z</time></trkpt><trkpt lat="43.3832182" lon="11.5164757"><ele>378.0</ele><time>2026-04-05T14:30:14.254Z</time></trkpt><trkpt lat="43.3832186" lon="11.5166065"><ele>377.0</ele><time>2026-04-05T14:30:15.256Z</time></trkpt><trkpt lat="43.3831692" lon="11.5167069"><ele>376.0</ele><time>2026-04-05T14:30:16.266Z</time></trkpt><trkpt lat="43.3831595" lon="11.5168202"><ele>375.0</ele><time>2026-04-05T14:30:17.267Z</time></trkpt><trkpt lat="43.3831888" lon="11.5169068"><ele>374.0</ele><time>2026-04-05T14:30:18.254Z</time></trkpt><trkpt lat="43.3831909" lon="11.5169969"><ele>374.0</ele><time>2026-04-05T14:30:19.269Z</time></trkpt><trkpt lat="43.3832551" lon="11.5170704"><ele>374.0</ele><time>2026-04-05T14:30:20.258Z</time></trkpt><trkpt lat="43.3832907" lon="11.5171638"><ele>374.0</ele><time>2026-04-05T14:30:21.264Z</time></trkpt><trkpt lat="43.3833311" lon="11.5172739"><ele>374.0</ele><time>2026-04-05T14:30:22.255Z</time></trkpt><trkpt lat="43.3833671" lon="11.5174039"><ele>374.0</ele><time>2026-04-05T14:30:23.262Z</time></trkpt><trkpt lat="43.3834057" lon="11.5175504"><ele>374.0</ele><time>2026-04-05T14:30:24.26Z</time></trkpt><trkpt lat="43.3834529" lon="11.5176945"><ele>374.0</ele><time>2026-04-05T14:30:25.262Z</time></trkpt><trkpt lat="43.3835045" lon="11.517849"><ele>374.0</ele><time>2026-04-05T14:30:26.259Z</time></trkpt><trkpt lat="43.3835458" lon="11.517996"><ele>374.0</ele><time>2026-04-05T14:30:27.259Z</time></trkpt><trkpt lat="43.3835869" lon="11.5181402"><ele>375.5</ele><time>2026-04-05T14:30:28.264Z</time></trkpt><trkpt lat="43.3836222" lon="11.5182723"><ele>377.0</ele><time>2026-04-05T14:30:29.258Z</time></trkpt><trkpt lat="43.3836485" lon="11.5183843"><ele>378.5</ele><time>2026-04-05T14:30:30.263Z</time></trkpt><trkpt lat="43.3836706" lon="11.5184948"><ele>380.0</ele><time>2026-04-05T14:30:31.26Z</time></trkpt><trkpt lat="43.3836907" lon="11.5186068"><ele>381.5</ele><time>2026-04-05T14:30:32.259Z</time></trkpt><trkpt lat="43.3837134" lon="11.5187166"><ele>383.0</ele><time>2026-04-05T14:30:33.261Z</time></trkpt><trkpt lat="43.3837352" lon="11.5188236"><ele>383.0</ele><time>2026-04-05T14:30:34.26Z</time></trkpt><trkpt lat="43.3837571" lon="11.5189271"><ele>383.0</ele><time>2026-04-05T14:30:35.259Z</time></trkpt><trkpt lat="43.3837782" lon="11.5190243"><ele>383.0</ele><time>2026-04-05T14:30:36.264Z</time></trkpt><trkpt lat="43.3837946" lon="11.5191202"><ele>383.0</ele><time>2026-04-05T14:30:37.265Z</time></trkpt><trkpt lat="43.383818" lon="11.5192195"><ele>383.0</ele><time>2026-04-05T14:30:38.255Z</time></trkpt><trkpt lat="43.3838256" lon="11.519315"><ele>383.0</ele><time>2026-04-05T14:30:39.269Z</time></trkpt><trkpt lat="43.3838631" lon="11.5194785"><ele>379.1666666666667</ele><time>2026-04-05T14:30:41.264Z</time></trkpt><trkpt lat="43.383953" lon="11.5195931"><ele>375.33333333333337</ele><time>2026-04-05T14:30:43.256Z</time></trkpt><trkpt lat="43.3840149" lon="11.5196388"><ele>371.5</ele><time>2026-04-05T14:30:44.257Z</time></trkpt><trkpt lat="43.3840679" lon="11.5196866"><ele>367.6666666666667</ele><time>2026-04-05T14:30:45.263Z</time></trkpt><trkpt lat="43.3841118" lon="11.5197497"><ele>363.8333333333333</ele><time>2026-04-05T14:30:46.266Z</time></trkpt><trkpt lat="43.3841306" lon="11.5198352"><ele>360.0</ele><time>2026-04-05T14:30:47.262Z</time></trkpt><trkpt lat="43.3841411" lon="11.5199317"><ele>360.0</ele><time>2026-04-05T14:30:48.273Z</time></trkpt><trkpt lat="43.3841537" lon="11.5200613"><ele>360.0</ele><time>2026-04-05T14:30:49.269Z</time></trkpt><trkpt lat="43.3841753" lon="11.5201786"><ele>360.0</ele><time>2026-04-05T14:30:50.269Z</time></trkpt><trkpt lat="43.3842015" lon="11.5202902"><ele>360.0</ele><time>2026-04-05T14:30:51.284Z</time></trkpt><trkpt lat="43.3842506" lon="11.5204086"><ele>360.0</ele><time>2026-04-05T14:30:52.257Z</time></trkpt><trkpt lat="43.3843119" lon="11.520523"><ele>359.0</ele><time>2026-04-05T14:30:53.256Z</time></trkpt><trkpt lat="43.3843761" lon="11.5206279"><ele>358.0</ele><time>2026-04-05T14:30:54.268Z</time></trkpt><trkpt lat="43.3844352" lon="11.5207206"><ele>357.0</ele><time>2026-04-05T14:30:55.268Z</time></trkpt><trkpt lat="43.3844917" lon="11.5208071"><ele>356.0</ele><time>2026-04-05T14:30:56.262Z</time></trkpt><trkpt lat="43.384549" lon="11.5208897"><ele>355.0</ele><time>2026-04-05T14:30:57.266Z</time></trkpt><trkpt lat="43.3846048" lon="11.520983"><ele>354.0</ele><time>2026-04-05T14:30:58.264Z</time></trkpt><trkpt lat="43.3846595" lon="11.5210879"><ele>354.4</ele><time>2026-04-05T14:30:59.268Z</time></trkpt><trkpt lat="43.3847158" lon="11.5212023"><ele>354.79999999999995</ele><time>2026-04-05T14:31:00.266Z</time></trkpt><trkpt lat="43.3847654" lon="11.5213125"><ele>355.20000000000005</ele><time>2026-04-05T14:31:01.272Z</time></trkpt><trkpt lat="43.38482" lon="11.5214338"><ele>355.6</ele><time>2026-04-05T14:31:02.272Z</time></trkpt><trkpt lat="43.384876" lon="11.5215672"><ele>356.0</ele><time>2026-04-05T14:31:03.254Z</time></trkpt><trkpt lat="43.3849339" lon="11.5217063"><ele>356.0</ele><time>2026-04-05T14:31:04.26Z</time></trkpt><trkpt lat="43.384989" lon="11.5218444"><ele>356.0</ele><time>2026-04-05T14:31:05.257Z</time></trkpt><trkpt lat="43.3850364" lon="11.5219816"><ele>356.0</ele><time>2026-04-05T14:31:06.26Z</time></trkpt><trkpt lat="43.3850879" lon="11.5221227"><ele>356.0</ele><time>2026-04-05T14:31:07.261Z</time></trkpt><trkpt lat="43.3851375" lon="11.5222574"><ele>356.0</ele><time>2026-04-05T14:31:08.271Z</time></trkpt><trkpt lat="43.3851792" lon="11.5223879"><ele>354.6</ele><time>2026-04-05T14:31:09.265Z</time></trkpt><trkpt lat="43.3852226" lon="11.5225119"><ele>353.20000000000005</ele><time>2026-04-05T14:31:10.269Z</time></trkpt><trkpt lat="43.3852633" lon="11.522635"><ele>351.79999999999995</ele><time>2026-04-05T14:31:11.262Z</time></trkpt><trkpt lat="43.3852943" lon="11.5227526"><ele>350.4</ele><time>2026-04-05T14:31:12.263Z</time></trkpt><trkpt lat="43.385321" lon="11.5228652"><ele>349.0</ele><time>2026-04-05T14:31:13.265Z</time></trkpt><trkpt lat="43.3853578" lon="11.5229785"><ele>349.0</ele><time>2026-04-05T14:31:14.259Z</time></trkpt><trkpt lat="43.3854126" lon="11.523098"><ele>349.0</ele><time>2026-04-05T14:31:15.266Z</time></trkpt><trkpt lat="43.3854727" lon="11.5232208"><ele>349.0</ele><time>2026-04-05T14:31:16.261Z</time></trkpt><trkpt lat="43.3855352" lon="11.5233431"><ele>349.0</ele><time>2026-04-05T14:31:17.264Z</time></trkpt><trkpt lat="43.385592" lon="11.5234536"><ele>349.0</ele><time>2026-04-05T14:31:18.256Z</time></trkpt><trkpt lat="43.38565" lon="11.5235647"><ele>349.0</ele><time>2026-04-05T14:31:19.272Z</time></trkpt><trkpt lat="43.3857059" lon="11.5236838"><ele>349.0</ele><time>2026-04-05T14:31:20.265Z</time></trkpt><trkpt lat="43.3857638" lon="11.5238027"><ele>349.0</ele><time>2026-04-05T14:31:21.265Z</time></trkpt><trkpt lat="43.3858305" lon="11.5239191"><ele>349.0</ele><time>2026-04-05T14:31:22.261Z</time></trkpt><trkpt lat="43.3858985" lon="11.5240376"><ele>349.0</ele><time>2026-04-05T14:31:23.257Z</time></trkpt><trkpt lat="43.3859586" lon="11.5241578"><ele>347.6</ele><time>2026-04-05T14:31:24.267Z</time></trkpt><trkpt lat="43.3860206" lon="11.5242758"><ele>346.2</ele><time>2026-04-05T14:31:25.263Z</time></trkpt><trkpt lat="43.386088" lon="11.5243842"><ele>344.8</ele><time>2026-04-05T14:31:26.263Z</time></trkpt><trkpt lat="43.3861527" lon="11.524483"><ele>343.40000000000003</ele><time>2026-04-05T14:31:27.259Z</time></trkpt><trkpt lat="43.3862126" lon="11.5245776"><ele>342.0</ele><time>2026-04-05T14:31:28.267Z</time></trkpt><trkpt lat="43.3862718" lon="11.5246674"><ele>342.0</ele><time>2026-04-05T14:31:29.261Z</time></trkpt><trkpt lat="43.3863309" lon="11.5247444"><ele>342.0</ele><time>2026-04-05T14:31:30.268Z</time></trkpt><trkpt lat="43.3863893" lon="11.5248122"><ele>342.0</ele><time>2026-04-05T14:31:31.26Z</time></trkpt><trkpt lat="43.3864438" lon="11.5248778"><ele>342.0</ele><time>2026-04-05T14:31:32.256Z</time></trkpt><trkpt lat="43.3864939" lon="11.5249427"><ele>342.0</ele><time>2026-04-05T14:31:33.262Z</time></trkpt><trkpt lat="43.3865419" lon="11.5250163"><ele>342.0</ele><time>2026-04-05T14:31:34.265Z</time></trkpt><trkpt lat="43.3865988" lon="11.5251149"><ele>340.40000000000003</ele><time>2026-04-05T14:31:35.267Z</time></trkpt><trkpt lat="43.3866503" lon="11.5252295"><ele>338.8</ele><time>2026-04-05T14:31:36.277Z</time></trkpt><trkpt lat="43.3866925" lon="11.5253482"><ele>337.2</ele><time>2026-04-05T14:31:37.264Z</time></trkpt><trkpt lat="43.3867285" lon="11.5254679"><ele>335.6</ele><time>2026-04-05T14:31:38.268Z</time></trkpt><trkpt lat="43.3867649" lon="11.5255883"><ele>334.0</ele><time>2026-04-05T14:31:39.257Z</time></trkpt><trkpt lat="43.3868023" lon="11.5257066"><ele>333.0</ele><time>2026-04-05T14:31:40.261Z</time></trkpt><trkpt lat="43.3868296" lon="11.5258182"><ele>332.0</ele><time>2026-04-05T14:31:41.257Z</time></trkpt><trkpt lat="43.3868522" lon="11.5259223"><ele>331.0</ele><time>2026-04-05T14:31:42.252Z</time></trkpt><trkpt lat="43.3868745" lon="11.5260255"><ele>330.0</ele><time>2026-04-05T14:31:43.259Z</time></trkpt><trkpt lat="43.3869021" lon="11.5261341"><ele>329.0</ele><time>2026-04-05T14:31:44.261Z</time></trkpt><trkpt lat="43.3869344" lon="11.5262389"><ele>328.0</ele><time>2026-04-05T14:31:45.267Z</time></trkpt><trkpt lat="43.3869705" lon="11.5263416"><ele>327.8333333333333</ele><time>2026-04-05T14:31:46.259Z</time></trkpt><trkpt lat="43.3870186" lon="11.5264415"><ele>327.66666666666663</ele><time>2026-04-05T14:31:47.258Z</time></trkpt><trkpt lat="43.3870653" lon="11.5265273"><ele>327.5</ele><time>2026-04-05T14:31:48.255Z</time></trkpt><trkpt lat="43.3871133" lon="11.5266023"><ele>327.3333333333333</ele><time>2026-04-05T14:31:49.26Z</time></trkpt><trkpt lat="43.3871478" lon="11.5266888"><ele>327.1666666666667</ele><time>2026-04-05T14:31:50.255Z</time></trkpt><trkpt lat="43.3871663" lon="11.5267998"><ele>327.0</ele><time>2026-04-05T14:31:51.269Z</time></trkpt><trkpt lat="43.3871751" lon="11.5269287"><ele>327.0</ele><time>2026-04-05T14:31:52.267Z</time></trkpt><trkpt lat="43.3871867" lon="11.5270566"><ele>327.0</ele><time>2026-04-05T14:31:53.261Z</time></trkpt><trkpt lat="43.3872037" lon="11.5271831"><ele>327.0</ele><time>2026-04-05T14:31:54.257Z</time></trkpt><trkpt lat="43.3872297" lon="11.5273188"><ele>327.0</ele><time>2026-04-05T14:31:55.264Z</time></trkpt><trkpt lat="43.3872643" lon="11.5274552"><ele>327.0</ele><time>2026-04-05T14:31:56.26Z</time></trkpt><trkpt lat="43.3873151" lon="11.5275886"><ele>326.40000000000003</ele><time>2026-04-05T14:31:57.26Z</time></trkpt><trkpt lat="43.3873696" lon="11.527714"><ele>325.8</ele><time>2026-04-05T14:31:58.27Z</time></trkpt><trkpt lat="43.3874227" lon="11.5278386"><ele>325.2</ele><time>2026-04-05T14:31:59.261Z</time></trkpt><trkpt lat="43.3874714" lon="11.5279499"><ele>324.6</ele><time>2026-04-05T14:32:00.264Z</time></trkpt><trkpt lat="43.3875063" lon="11.5280737"><ele>324.0</ele><time>2026-04-05T14:32:01.253Z</time></trkpt><trkpt lat="43.3875299" lon="11.5282063"><ele>324.0</ele><time>2026-04-05T14:32:02.272Z</time></trkpt><trkpt lat="43.3875321" lon="11.528336"><ele>324.0</ele><time>2026-04-05T14:32:03.256Z</time></trkpt><trkpt lat="43.3875294" lon="11.528449"><ele>324.0</ele><time>2026-04-05T14:32:04.264Z</time></trkpt><trkpt lat="43.3875366" lon="11.528562"><ele>324.0</ele><time>2026-04-05T14:32:05.254Z</time></trkpt><trkpt lat="43.3875511" lon="11.5286808"><ele>324.0</ele><time>2026-04-05T14:32:06.274Z</time></trkpt><trkpt lat="43.3875703" lon="11.528808"><ele>324.0</ele><time>2026-04-05T14:32:07.267Z</time></trkpt><trkpt lat="43.3875885" lon="11.5289433"><ele>324.0</ele><time>2026-04-05T14:32:08.258Z</time></trkpt><trkpt lat="43.3876078" lon="11.5290869"><ele>324.0</ele><time>2026-04-05T14:32:09.257Z</time></trkpt><trkpt lat="43.3876213" lon="11.5292233"><ele>324.0</ele><time>2026-04-05T14:32:10.261Z</time></trkpt><trkpt lat="43.3876245" lon="11.5293503"><ele>324.0</ele><time>2026-04-05T14:32:11.268Z</time></trkpt><trkpt lat="43.3876242" lon="11.5294835"><ele>324.0</ele><time>2026-04-05T14:32:12.281Z</time></trkpt><trkpt lat="43.3876103" lon="11.5296219"><ele>322.59999999999997</ele><time>2026-04-05T14:32:13.254Z</time></trkpt><trkpt lat="43.3875906" lon="11.5297554"><ele>321.2</ele><time>2026-04-05T14:32:14.263Z</time></trkpt><trkpt lat="43.3875724" lon="11.5298777"><ele>319.79999999999995</ele><time>2026-04-05T14:32:15.266Z</time></trkpt><trkpt lat="43.3875552" lon="11.5300022"><ele>318.4</ele><time>2026-04-05T14:32:16.254Z</time></trkpt><trkpt lat="43.3875279" lon="11.5301347"><ele>317.0</ele><time>2026-04-05T14:32:17.273Z</time></trkpt><trkpt lat="43.3874889" lon="11.5302679"><ele>317.0</ele><time>2026-04-05T14:32:18.267Z</time></trkpt><trkpt lat="43.3874384" lon="11.5303867"><ele>317.0</ele><time>2026-04-05T14:32:19.277Z</time></trkpt><trkpt lat="43.3873932" lon="11.5304792"><ele>317.0</ele><time>2026-04-05T14:32:20.262Z</time></trkpt><trkpt lat="43.3873569" lon="11.530563"><ele>317.0</ele><time>2026-04-05T14:32:21.272Z</time></trkpt><trkpt lat="43.3873232" lon="11.5306402"><ele>317.0</ele><time>2026-04-05T14:32:22.269Z</time></trkpt><trkpt lat="43.3872943" lon="11.5307209"><ele>317.0</ele><time>2026-04-05T14:32:23.263Z</time></trkpt><trkpt lat="43.3872462" lon="11.5308704"><ele>316.33333333333337</ele><time>2026-04-05T14:32:25.26Z</time></trkpt><trkpt lat="43.3872218" lon="11.5309515"><ele>315.6666666666667</ele><time>2026-04-05T14:32:26.268Z</time></trkpt><trkpt lat="43.3872006" lon="11.5310352"><ele>315.0</ele><time>2026-04-05T14:32:27.266Z</time></trkpt><trkpt lat="43.387177" lon="11.5311922"><ele>314.3333333333333</ele><time>2026-04-05T14:32:29.264Z</time></trkpt><trkpt lat="43.3871697" lon="11.5312827"><ele>313.66666666666663</ele><time>2026-04-05T14:32:30.254Z</time></trkpt><trkpt lat="43.3871757" lon="11.5313853"><ele>313.0</ele><time>2026-04-05T14:32:31.279Z</time></trkpt><trkpt lat="43.3871919" lon="11.5315005"><ele>310.5</ele><time>2026-04-05T14:32:32.26Z</time></trkpt><trkpt lat="43.3872167" lon="11.531646"><ele>308.0</ele><time>2026-04-05T14:32:33.267Z</time></trkpt><trkpt lat="43.3872429" lon="11.5318119"><ele>305.5</ele><time>2026-04-05T14:32:34.255Z</time></trkpt><trkpt lat="43.3872753" lon="11.5319903"><ele>303.0</ele><time>2026-04-05T14:32:35.253Z</time></trkpt><trkpt lat="43.3873096" lon="11.5321827"><ele>301.5</ele><time>2026-04-05T14:32:36.252Z</time></trkpt><trkpt lat="43.3873382" lon="11.5323637"><ele>300.0</ele><time>2026-04-05T14:32:37.253Z</time></trkpt><trkpt lat="43.3873642" lon="11.5325346"><ele>298.5</ele><time>2026-04-05T14:32:38.255Z</time></trkpt><trkpt lat="43.3873934" lon="11.5326945"><ele>297.0</ele><time>2026-04-05T14:32:39.269Z</time></trkpt><trkpt lat="43.3874218" lon="11.5328319"><ele>297.1666666666667</ele><time>2026-04-05T14:32:40.255Z</time></trkpt><trkpt lat="43.3874451" lon="11.5329572"><ele>297.3333333333333</ele><time>2026-04-05T14:32:41.26Z</time></trkpt><trkpt lat="43.3874669" lon="11.533072"><ele>297.5</ele><time>2026-04-05T14:32:42.261Z</time></trkpt><trkpt lat="43.3874923" lon="11.5331705"><ele>297.66666666666663</ele><time>2026-04-05T14:32:43.262Z</time></trkpt><trkpt lat="43.3875154" lon="11.5332557"><ele>297.8333333333333</ele><time>2026-04-05T14:32:44.268Z</time></trkpt><trkpt lat="43.3875948" lon="11.5333856"><ele>298.0</ele><time>2026-04-05T14:32:46.26Z</time></trkpt><trkpt lat="43.387653" lon="11.5334212"><ele>298.0</ele><time>2026-04-05T14:32:47.264Z</time></trkpt><trkpt lat="43.3877229" lon="11.533426"><ele>298.0</ele><time>2026-04-05T14:32:48.255Z</time></trkpt><trkpt lat="43.3878042" lon="11.5334084"><ele>298.0</ele><time>2026-04-05T14:32:49.254Z</time></trkpt><trkpt lat="43.3878962" lon="11.5333652"><ele>298.0</ele><time>2026-04-05T14:32:50.27Z</time></trkpt><trkpt lat="43.3880037" lon="11.5333111"><ele>298.0</ele><time>2026-04-05T14:32:51.268Z</time></trkpt><trkpt lat="43.3881265" lon="11.5332734"><ele>298.75</ele><time>2026-04-05T14:32:52.264Z</time></trkpt><trkpt lat="43.3882508" lon="11.5332413"><ele>299.5</ele><time>2026-04-05T14:32:53.257Z</time></trkpt><trkpt lat="43.3883736" lon="11.5332179"><ele>300.25</ele><time>2026-04-05T14:32:54.267Z</time></trkpt><trkpt lat="43.3885012" lon="11.5332029"><ele>301.0</ele><time>2026-04-05T14:32:55.256Z</time></trkpt><trkpt lat="43.3886354" lon="11.533203"><ele>301.0</ele><time>2026-04-05T14:32:56.273Z</time></trkpt><trkpt lat="43.3887739" lon="11.5332129"><ele>301.0</ele><time>2026-04-05T14:32:57.264Z</time></trkpt><trkpt lat="43.3889146" lon="11.5332294"><ele>301.0</ele><time>2026-04-05T14:32:58.264Z</time></trkpt><trkpt lat="43.3890541" lon="11.5332464"><ele>301.0</ele><time>2026-04-05T14:32:59.267Z</time></trkpt><trkpt lat="43.3891933" lon="11.5332664"><ele>302.40000000000003</ele><time>2026-04-05T14:33:00.271Z</time></trkpt><trkpt lat="43.3893245" lon="11.5332876"><ele>303.8</ele><time>2026-04-05T14:33:01.27Z</time></trkpt><trkpt lat="43.3894385" lon="11.5333"><ele>305.20000000000005</ele><time>2026-04-05T14:33:02.263Z</time></trkpt><trkpt lat="43.3895395" lon="11.5333117"><ele>306.6</ele><time>2026-04-05T14:33:03.262Z</time></trkpt><trkpt lat="43.3896284" lon="11.5333331"><ele>308.0</ele><time>2026-04-05T14:33:04.272Z</time></trkpt><trkpt lat="43.389709" lon="11.5333675"><ele>308.0</ele><time>2026-04-05T14:33:05.267Z</time></trkpt><trkpt lat="43.3897881" lon="11.5334154"><ele>308.0</ele><time>2026-04-05T14:33:06.267Z</time></trkpt><trkpt lat="43.3898722" lon="11.5334796"><ele>308.0</ele><time>2026-04-05T14:33:07.267Z</time></trkpt><trkpt lat="43.3899593" lon="11.5335499"><ele>308.0</ele><time>2026-04-05T14:33:08.263Z</time></trkpt><trkpt lat="43.3900348" lon="11.5336072"><ele>308.0</ele><time>2026-04-05T14:33:09.277Z</time></trkpt><trkpt lat="43.3900951" lon="11.5336632"><ele>308.0</ele><time>2026-04-05T14:33:10.279Z</time></trkpt><trkpt lat="43.3901764" lon="11.5337815"><ele>310.33333333333337</ele><time>2026-04-05T14:33:12.259Z</time></trkpt><trkpt lat="43.3901728" lon="11.5338707"><ele>312.6666666666667</ele><time>2026-04-05T14:33:14.269Z</time></trkpt><trkpt lat="43.3900963" lon="11.5339314"><ele>315.0</ele><time>2026-04-05T14:33:16.275Z</time></trkpt><trkpt lat="43.3900224" lon="11.5339573"><ele>317.3333333333333</ele><time>2026-04-05T14:33:17.255Z</time></trkpt><trkpt lat="43.3899349" lon="11.5339884"><ele>319.66666666666663</ele><time>2026-04-05T14:33:18.277Z</time></trkpt><trkpt lat="43.3898401" lon="11.5340166"><ele>322.0</ele><time>2026-04-05T14:33:19.258Z</time></trkpt><trkpt lat="43.3897406" lon="11.534044"><ele>321.40000000000003</ele><time>2026-04-05T14:33:20.262Z</time></trkpt><trkpt lat="43.3896588" lon="11.5340715"><ele>320.8</ele><time>2026-04-05T14:33:21.254Z</time></trkpt><trkpt lat="43.3895823" lon="11.534105"><ele>320.2</ele><time>2026-04-05T14:33:22.264Z</time></trkpt><trkpt lat="43.3895237" lon="11.5341469"><ele>319.6</ele><time>2026-04-05T14:33:23.262Z</time></trkpt><trkpt lat="43.3894469" lon="11.5342698"><ele>319.0</ele><time>2026-04-05T14:33:25.257Z</time></trkpt><trkpt lat="43.3894367" lon="11.5344389"><ele>319.0</ele><time>2026-04-05T14:33:27.254Z</time></trkpt><trkpt lat="43.389455" lon="11.5345406"><ele>319.0</ele><time>2026-04-05T14:33:28.271Z</time></trkpt><trkpt lat="43.3894809" lon="11.5346581"><ele>319.0</ele><time>2026-04-05T14:33:29.269Z</time></trkpt><trkpt lat="43.3895063" lon="11.5347709"><ele>319.0</ele><time>2026-04-05T14:33:30.261Z</time></trkpt><trkpt lat="43.3895258" lon="11.5348818"><ele>319.0</ele><time>2026-04-05T14:33:31.264Z</time></trkpt><trkpt lat="43.3895494" lon="11.5349867"><ele>319.0</ele><time>2026-04-05T14:33:32.267Z</time></trkpt><trkpt lat="43.3895744" lon="11.5350959"><ele>321.2</ele><time>2026-04-05T14:33:33.265Z</time></trkpt><trkpt lat="43.3895979" lon="11.5351995"><ele>323.4</ele><time>2026-04-05T14:33:34.267Z</time></trkpt><trkpt lat="43.3896115" lon="11.5353094"><ele>325.6</ele><time>2026-04-05T14:33:35.264Z</time></trkpt><trkpt lat="43.3896158" lon="11.5354068"><ele>327.8</ele><time>2026-04-05T14:33:36.265Z</time></trkpt><trkpt lat="43.389612" lon="11.5355655"><ele>330.0</ele><time>2026-04-05T14:33:38.264Z</time></trkpt><trkpt lat="43.3896747" lon="11.5356802"><ele>332.4</ele><time>2026-04-05T14:33:40.257Z</time></trkpt><trkpt lat="43.3897893" lon="11.5357338"><ele>334.8</ele><time>2026-04-05T14:33:42.273Z</time></trkpt><trkpt lat="43.3898598" lon="11.5357405"><ele>337.20000000000005</ele><time>2026-04-05T14:33:43.256Z</time></trkpt><trkpt lat="43.3899208" lon="11.5357631"><ele>339.6</ele><time>2026-04-05T14:33:44.265Z</time></trkpt><trkpt lat="43.3899897" lon="11.535878"><ele>342.0</ele><time>2026-04-05T14:33:46.272Z</time></trkpt><trkpt lat="43.3900235" lon="11.5360375"><ele>342.0</ele><time>2026-04-05T14:33:48.265Z</time></trkpt><trkpt lat="43.3900463" lon="11.53613"><ele>342.0</ele><time>2026-04-05T14:33:49.267Z</time></trkpt><trkpt lat="43.3900656" lon="11.536235"><ele>342.0</ele><time>2026-04-05T14:33:50.274Z</time></trkpt><trkpt lat="43.3900846" lon="11.5363379"><ele>342.0</ele><time>2026-04-05T14:33:51.274Z</time></trkpt><trkpt lat="43.3901068" lon="11.5364495"><ele>342.0</ele><time>2026-04-05T14:33:52.269Z</time></trkpt><trkpt lat="43.3901306" lon="11.5365654"><ele>342.0</ele><time>2026-04-05T14:33:53.267Z</time></trkpt><trkpt lat="43.3901537" lon="11.536689"><ele>343.6</ele><time>2026-04-05T14:33:54.258Z</time></trkpt><trkpt lat="43.3901816" lon="11.5368142"><ele>345.20000000000005</ele><time>2026-04-05T14:33:55.272Z</time></trkpt><trkpt lat="43.3902097" lon="11.5369469"><ele>346.8</ele><time>2026-04-05T14:33:56.255Z</time></trkpt><trkpt lat="43.3902364" lon="11.537078"><ele>348.4</ele><time>2026-04-05T14:33:57.26Z</time></trkpt><trkpt lat="43.3902653" lon="11.5372099"><ele>350.0</ele><time>2026-04-05T14:33:58.264Z</time></trkpt><trkpt lat="43.3902907" lon="11.5373475"><ele>351.8</ele><time>2026-04-05T14:33:59.26Z</time></trkpt><trkpt lat="43.3903222" lon="11.5374965"><ele>353.6</ele><time>2026-04-05T14:34:00.265Z</time></trkpt><trkpt lat="43.3903499" lon="11.5376433"><ele>355.4</ele><time>2026-04-05T14:34:01.269Z</time></trkpt><trkpt lat="43.390371" lon="11.5377737"><ele>357.2</ele><time>2026-04-05T14:34:02.261Z</time></trkpt><trkpt lat="43.3903927" lon="11.5378911"><ele>359.0</ele><time>2026-04-05T14:34:03.256Z</time></trkpt><trkpt lat="43.3904125" lon="11.5379849"><ele>359.1666666666667</ele><time>2026-04-05T14:34:04.262Z</time></trkpt><trkpt lat="43.3904353" lon="11.5380765"><ele>359.33333333333337</ele><time>2026-04-05T14:34:05.255Z</time></trkpt><trkpt lat="43.3905076" lon="11.5382157"><ele>359.5</ele><time>2026-04-05T14:34:07.269Z</time></trkpt><trkpt lat="43.3905644" lon="11.5382661"><ele>359.6666666666667</ele><time>2026-04-05T14:34:08.263Z</time></trkpt><trkpt lat="43.3906332" lon="11.5383093"><ele>359.8333333333333</ele><time>2026-04-05T14:34:09.269Z</time></trkpt><trkpt lat="43.3907129" lon="11.5383461"><ele>360.0</ele><time>2026-04-05T14:34:10.256Z</time></trkpt><trkpt lat="43.3907942" lon="11.5383778"><ele>361.3333333333333</ele><time>2026-04-05T14:34:11.264Z</time></trkpt><trkpt lat="43.3908822" lon="11.538412"><ele>362.6666666666667</ele><time>2026-04-05T14:34:12.269Z</time></trkpt><trkpt lat="43.3909743" lon="11.5384471"><ele>364.0</ele><time>2026-04-05T14:34:13.268Z</time></trkpt><trkpt lat="43.3910681" lon="11.5384795"><ele>365.33333333333337</ele><time>2026-04-05T14:34:14.261Z</time></trkpt><trkpt lat="43.391143" lon="11.5385137"><ele>366.6666666666667</ele><time>2026-04-05T14:34:15.266Z</time></trkpt><trkpt lat="43.3912034" lon="11.5385442"><ele>368.0</ele><time>2026-04-05T14:34:16.258Z</time></trkpt><trkpt lat="43.3912884" lon="11.5386392"><ele>371.2</ele><time>2026-04-05T14:34:18.266Z</time></trkpt><trkpt lat="43.3913434" lon="11.5388142"><ele>374.4</ele><time>2026-04-05T14:34:20.259Z</time></trkpt><trkpt lat="43.3913586" lon="11.5389393"><ele>377.59999999999997</ele><time>2026-04-05T14:34:21.271Z</time></trkpt><trkpt lat="43.3913699" lon="11.5390624"><ele>380.79999999999995</ele><time>2026-04-05T14:34:22.267Z</time></trkpt><trkpt lat="43.391387" lon="11.5391638"><ele>384.0</ele><time>2026-04-05T14:34:23.264Z</time></trkpt><trkpt lat="43.3914189" lon="11.5392551"><ele>384.0</ele><time>2026-04-05T14:34:24.268Z</time></trkpt><trkpt lat="43.3914601" lon="11.5393373"><ele>384.0</ele><time>2026-04-05T14:34:25.269Z</time></trkpt><trkpt lat="43.3915183" lon="11.5394136"><ele>384.0</ele><time>2026-04-05T14:34:26.26Z</time></trkpt><trkpt lat="43.3915886" lon="11.5394846"><ele>384.0</ele><time>2026-04-05T14:34:27.262Z</time></trkpt><trkpt lat="43.3916686" lon="11.5395533"><ele>384.0</ele><time>2026-04-05T14:34:28.275Z</time></trkpt><trkpt lat="43.3917527" lon="11.5396229"><ele>384.0</ele><time>2026-04-05T14:34:29.275Z</time></trkpt><trkpt lat="43.3918428" lon="11.5396904"><ele>383.5</ele><time>2026-04-05T14:34:30.265Z</time></trkpt><trkpt lat="43.3919294" lon="11.5397589"><ele>383.0</ele><time>2026-04-05T14:34:31.267Z</time></trkpt><trkpt lat="43.3920044" lon="11.5398167"><ele>382.5</ele><time>2026-04-05T14:34:32.254Z</time></trkpt><trkpt lat="43.3920813" lon="11.5398684"><ele>382.0</ele><time>2026-04-05T14:34:33.283Z</time></trkpt><trkpt lat="43.3921593" lon="11.5399219"><ele>381.5</ele><time>2026-04-05T14:34:34.267Z</time></trkpt><trkpt lat="43.3922379" lon="11.5399838"><ele>381.0</ele><time>2026-04-05T14:34:35.259Z</time></trkpt><trkpt lat="43.3923185" lon="11.5400478"><ele>383.6</ele><time>2026-04-05T14:34:36.245Z</time></trkpt><trkpt lat="43.3924" lon="11.5401084"><ele>386.20000000000005</ele><time>2026-04-05T14:34:37.272Z</time></trkpt><trkpt lat="43.392485" lon="11.5401657"><ele>388.79999999999995</ele><time>2026-04-05T14:34:38.26Z</time></trkpt><trkpt lat="43.392572" lon="11.5402209"><ele>391.4</ele><time>2026-04-05T14:34:39.255Z</time></trkpt><trkpt lat="43.392664" lon="11.5402741"><ele>394.0</ele><time>2026-04-05T14:34:40.265Z</time></trkpt><trkpt lat="43.3927541" lon="11.5403265"><ele>394.0</ele><time>2026-04-05T14:34:41.26Z</time></trkpt><trkpt lat="43.3928412" lon="11.5403803"><ele>394.0</ele><time>2026-04-05T14:34:42.264Z</time></trkpt><trkpt lat="43.3929333" lon="11.5404356"><ele>394.0</ele><time>2026-04-05T14:34:43.255Z</time></trkpt><trkpt lat="43.3930258" lon="11.5404896"><ele>394.0</ele><time>2026-04-05T14:34:44.261Z</time></trkpt><trkpt lat="43.3931196" lon="11.540543"><ele>394.0</ele><time>2026-04-05T14:34:45.272Z</time></trkpt><trkpt lat="43.393215" lon="11.5405935"><ele>394.6666666666667</ele><time>2026-04-05T14:34:46.272Z</time></trkpt><trkpt lat="43.3932938" lon="11.5406438"><ele>395.33333333333337</ele><time>2026-04-05T14:34:47.271Z</time></trkpt><trkpt lat="43.3933649" lon="11.5406893"><ele>396.0</ele><time>2026-04-05T14:34:48.262Z</time></trkpt><trkpt lat="43.3934392" lon="11.5407363"><ele>396.66666666666663</ele><time>2026-04-05T14:34:49.271Z</time></trkpt><trkpt lat="43.3935123" lon="11.5407966"><ele>397.3333333333333</ele><time>2026-04-05T14:34:50.264Z</time></trkpt><trkpt lat="43.3935909" lon="11.5408758"><ele>398.0</ele><time>2026-04-05T14:34:51.254Z</time></trkpt><trkpt lat="43.3936714" lon="11.5409717"><ele>398.0</ele><time>2026-04-05T14:34:52.258Z</time></trkpt><trkpt lat="43.3937447" lon="11.5410663"><ele>398.0</ele><time>2026-04-05T14:34:53.27Z</time></trkpt><trkpt lat="43.3938133" lon="11.5411772"><ele>398.0</ele><time>2026-04-05T14:34:54.258Z</time></trkpt><trkpt lat="43.3938727" lon="11.5412962"><ele>398.0</ele><time>2026-04-05T14:34:55.265Z</time></trkpt><trkpt lat="43.3939352" lon="11.5414052"><ele>398.0</ele><time>2026-04-05T14:34:56.272Z</time></trkpt><trkpt lat="43.3940088" lon="11.5415032"><ele>399.2</ele><time>2026-04-05T14:34:57.273Z</time></trkpt><trkpt lat="43.3940909" lon="11.5416032"><ele>400.4</ele><time>2026-04-05T14:34:58.264Z</time></trkpt><trkpt lat="43.3941779" lon="11.5417081"><ele>401.59999999999997</ele><time>2026-04-05T14:34:59.269Z</time></trkpt><trkpt lat="43.3942559" lon="11.541793"><ele>402.79999999999995</ele><time>2026-04-05T14:35:00.273Z</time></trkpt><trkpt lat="43.3943225" lon="11.5418742"><ele>404.0</ele><time>2026-04-05T14:35:01.267Z</time></trkpt><trkpt lat="43.3943725" lon="11.5419552"><ele>404.0</ele><time>2026-04-05T14:35:02.276Z</time></trkpt><trkpt lat="43.3944139" lon="11.5420404"><ele>404.0</ele><time>2026-04-05T14:35:03.262Z</time></trkpt><trkpt lat="43.3944597" lon="11.5421363"><ele>404.0</ele><time>2026-04-05T14:35:04.269Z</time></trkpt><trkpt lat="43.3945129" lon="11.5422432"><ele>404.0</ele><time>2026-04-05T14:35:05.264Z</time></trkpt><trkpt lat="43.3945699" lon="11.5423663"><ele>404.0</ele><time>2026-04-05T14:35:06.271Z</time></trkpt><trkpt lat="43.3946342" lon="11.5424862"><ele>404.8333333333333</ele><time>2026-04-05T14:35:07.262Z</time></trkpt><trkpt lat="43.394693" lon="11.5426034"><ele>405.66666666666663</ele><time>2026-04-05T14:35:08.258Z</time></trkpt><trkpt lat="43.3947413" lon="11.5427018"><ele>406.5</ele><time>2026-04-05T14:35:09.261Z</time></trkpt><trkpt lat="43.3947878" lon="11.5427893"><ele>407.33333333333337</ele><time>2026-04-05T14:35:10.252Z</time></trkpt><trkpt lat="43.3948375" lon="11.5428572"><ele>408.1666666666667</ele><time>2026-04-05T14:35:11.26Z</time></trkpt><trkpt lat="43.3949059" lon="11.5429146"><ele>409.0</ele><time>2026-04-05T14:35:12.262Z</time></trkpt><trkpt lat="43.3949773" lon="11.542969"><ele>409.6</ele><time>2026-04-05T14:35:13.269Z</time></trkpt><trkpt lat="43.3950565" lon="11.5430346"><ele>410.2</ele><time>2026-04-05T14:35:14.258Z</time></trkpt><trkpt lat="43.3951419" lon="11.5431039"><ele>410.8</ele><time>2026-04-05T14:35:15.258Z</time></trkpt><trkpt lat="43.3952335" lon="11.5431754"><ele>411.40000000000003</ele><time>2026-04-05T14:35:16.256Z</time></trkpt><trkpt lat="43.3953293" lon="11.543252"><ele>412.0</ele><time>2026-04-05T14:35:17.263Z</time></trkpt><trkpt lat="43.3954348" lon="11.5433282"><ele>413.0</ele><time>2026-04-05T14:35:18.257Z</time></trkpt><trkpt lat="43.3955445" lon="11.5434096"><ele>414.0</ele><time>2026-04-05T14:35:19.26Z</time></trkpt><trkpt lat="43.3956563" lon="11.543491"><ele>415.0</ele><time>2026-04-05T14:35:20.264Z</time></trkpt><trkpt lat="43.3957531" lon="11.543563"><ele>416.0</ele><time>2026-04-05T14:35:21.272Z</time></trkpt><trkpt lat="43.3958484" lon="11.5436414"><ele>415.99999999999994</ele><time>2026-04-05T14:35:22.269Z</time></trkpt><trkpt lat="43.3959299" lon="11.5437187"><ele>416.0</ele><time>2026-04-05T14:35:23.255Z</time></trkpt><trkpt lat="43.395996" lon="11.543792"><ele>416.0</ele><time>2026-04-05T14:35:24.259Z</time></trkpt><trkpt lat="43.3960565" lon="11.5438594"><ele>416.0</ele><time>2026-04-05T14:35:25.269Z</time></trkpt><trkpt lat="43.3961057" lon="11.5439151"><ele>415.99999999999994</ele><time>2026-04-05T14:35:26.27Z</time></trkpt><trkpt lat="43.3961613" lon="11.5439721"><ele>416.0</ele><time>2026-04-05T14:35:27.267Z</time></trkpt><trkpt lat="43.3962055" lon="11.5440374"><ele>415.99999999999994</ele><time>2026-04-05T14:35:28.259Z</time></trkpt><trkpt lat="43.3962715" lon="11.5441617"><ele>416.0</ele><time>2026-04-05T14:35:30.262Z</time></trkpt><trkpt lat="43.396305" lon="11.5442779"><ele>416.0</ele><time>2026-04-05T14:35:32.272Z</time></trkpt><trkpt lat="43.3963164" lon="11.5443686"><ele>416.0</ele><time>2026-04-05T14:35:46.263Z</time></trkpt><trkpt lat="43.3963131" lon="11.5444573"><ele>415.99999999999994</ele><time>2026-04-05T14:35:47.268Z</time></trkpt><trkpt lat="43.3963052" lon="11.5445596"><ele>416.0</ele><time>2026-04-05T14:35:48.265Z</time></trkpt><trkpt lat="43.3963124" lon="11.544668"><ele>416.8333333333333</ele><time>2026-04-05T14:35:49.258Z</time></trkpt><trkpt lat="43.3963397" lon="11.5447782"><ele>417.66666666666663</ele><time>2026-04-05T14:35:50.256Z</time></trkpt><trkpt lat="43.3963798" lon="11.5448754"><ele>418.5</ele><time>2026-04-05T14:35:51.269Z</time></trkpt><trkpt lat="43.3964245" lon="11.5449612"><ele>419.33333333333337</ele><time>2026-04-05T14:35:52.258Z</time></trkpt><trkpt lat="43.3964801" lon="11.5450425"><ele>420.1666666666667</ele><time>2026-04-05T14:35:53.264Z</time></trkpt><trkpt lat="43.3965465" lon="11.5451251"><ele>421.0</ele><time>2026-04-05T14:35:54.271Z</time></trkpt><trkpt lat="43.3966232" lon="11.5452066"><ele>421.0</ele><time>2026-04-05T14:35:55.264Z</time></trkpt><trkpt lat="43.3967046" lon="11.5452845"><ele>421.0</ele><time>2026-04-05T14:35:56.256Z</time></trkpt><trkpt lat="43.3967907" lon="11.5453606"><ele>421.0</ele><time>2026-04-05T14:35:57.262Z</time></trkpt><trkpt lat="43.3968783" lon="11.5454508"><ele>421.0</ele><time>2026-04-05T14:35:58.273Z</time></trkpt><trkpt lat="43.396967" lon="11.5455537"><ele>421.0</ele><time>2026-04-05T14:35:59.265Z</time></trkpt><trkpt lat="43.3970536" lon="11.5456688"><ele>421.0</ele><time>2026-04-05T14:36:00.259Z</time></trkpt><trkpt lat="43.3971334" lon="11.5457809"><ele>421.0</ele><time>2026-04-05T14:36:01.259Z</time></trkpt><trkpt lat="43.3972127" lon="11.5458884"><ele>421.0</ele><time>2026-04-05T14:36:02.26Z</time></trkpt><trkpt lat="43.3972909" lon="11.5459892"><ele>421.0</ele><time>2026-04-05T14:36:03.259Z</time></trkpt><trkpt lat="43.3973679" lon="11.5460881"><ele>421.0</ele><time>2026-04-05T14:36:04.273Z</time></trkpt><trkpt lat="43.397444" lon="11.5461887"><ele>417.6</ele><time>2026-04-05T14:36:05.263Z</time></trkpt><trkpt lat="43.3975088" lon="11.546301"><ele>414.20000000000005</ele><time>2026-04-05T14:36:06.266Z</time></trkpt><trkpt lat="43.397564" lon="11.54642"><ele>410.79999999999995</ele><time>2026-04-05T14:36:07.266Z</time></trkpt><trkpt lat="43.3976177" lon="11.546536"><ele>407.4</ele><time>2026-04-05T14:36:08.263Z</time></trkpt><trkpt lat="43.3976717" lon="11.546651"><ele>404.0</ele><time>2026-04-05T14:36:09.265Z</time></trkpt><trkpt lat="43.3977297" lon="11.5467683"><ele>404.0</ele><time>2026-04-05T14:36:10.268Z</time></trkpt><trkpt lat="43.397786" lon="11.5468876"><ele>404.0</ele><time>2026-04-05T14:36:11.264Z</time></trkpt><trkpt lat="43.3978417" lon="11.5470013"><ele>404.0</ele><time>2026-04-05T14:36:12.267Z</time></trkpt><trkpt lat="43.3978867" lon="11.5471116"><ele>404.0</ele><time>2026-04-05T14:36:13.261Z</time></trkpt><trkpt lat="43.3979115" lon="11.5472321"><ele>404.0</ele><time>2026-04-05T14:36:14.267Z</time></trkpt><trkpt lat="43.3979107" lon="11.547364"><ele>401.4</ele><time>2026-04-05T14:36:15.266Z</time></trkpt><trkpt lat="43.3978883" lon="11.5475033"><ele>398.79999999999995</ele><time>2026-04-05T14:36:16.263Z</time></trkpt><trkpt lat="43.397855" lon="11.5476417"><ele>396.20000000000005</ele><time>2026-04-05T14:36:17.267Z</time></trkpt><trkpt lat="43.3978128" lon="11.5477763"><ele>393.6</ele><time>2026-04-05T14:36:18.269Z</time></trkpt><trkpt lat="43.397756" lon="11.5479024"><ele>391.0</ele><time>2026-04-05T14:36:19.264Z</time></trkpt><trkpt lat="43.3976866" lon="11.5480183"><ele>390.0</ele><time>2026-04-05T14:36:20.253Z</time></trkpt><trkpt lat="43.397611" lon="11.5481253"><ele>389.0</ele><time>2026-04-05T14:36:21.274Z</time></trkpt><trkpt lat="43.3975291" lon="11.5482366"><ele>388.0</ele><time>2026-04-05T14:36:22.256Z</time></trkpt><trkpt lat="43.3974344" lon="11.5483518"><ele>387.0</ele><time>2026-04-05T14:36:23.273Z</time></trkpt><trkpt lat="43.3973258" lon="11.5484762"><ele>387.0</ele><time>2026-04-05T14:36:24.269Z</time></trkpt><trkpt lat="43.3972065" lon="11.5486085"><ele>387.0</ele><time>2026-04-05T14:36:25.258Z</time></trkpt><trkpt lat="43.3970735" lon="11.5487459"><ele>387.0</ele><time>2026-04-05T14:36:26.265Z</time></trkpt><trkpt lat="43.3969344" lon="11.5488799"><ele>384.6666666666667</ele><time>2026-04-05T14:36:27.256Z</time></trkpt><trkpt lat="43.3968053" lon="11.5490065"><ele>382.33333333333337</ele><time>2026-04-05T14:36:28.264Z</time></trkpt><trkpt lat="43.3966817" lon="11.5491288"><ele>380.0</ele><time>2026-04-05T14:36:29.254Z</time></trkpt><trkpt lat="43.3965664" lon="11.5492479"><ele>380.0</ele><time>2026-04-05T14:36:30.271Z</time></trkpt><trkpt lat="43.3964561" lon="11.5493587"><ele>380.0</ele><time>2026-04-05T14:36:31.267Z</time></trkpt><trkpt lat="43.3963472" lon="11.5494574"><ele>380.0</ele><time>2026-04-05T14:36:32.268Z</time></trkpt><trkpt lat="43.3962408" lon="11.5495503"><ele>380.0</ele><time>2026-04-05T14:36:33.252Z</time></trkpt><trkpt lat="43.3961467" lon="11.5496257"><ele>379.2</ele><time>2026-04-05T14:36:34.265Z</time></trkpt><trkpt lat="43.3960489" lon="11.5496758"><ele>378.4</ele><time>2026-04-05T14:36:35.271Z</time></trkpt><trkpt lat="43.3959404" lon="11.5496982"><ele>377.6</ele><time>2026-04-05T14:36:36.263Z</time></trkpt><trkpt lat="43.3958283" lon="11.54971"><ele>376.8</ele><time>2026-04-05T14:36:37.261Z</time></trkpt><trkpt lat="43.3957202" lon="11.5497312"><ele>376.0</ele><time>2026-04-05T14:36:38.266Z</time></trkpt><trkpt lat="43.3956169" lon="11.549777"><ele>376.0</ele><time>2026-04-05T14:36:39.268Z</time></trkpt><trkpt lat="43.3955162" lon="11.5498497"><ele>376.0</ele><time>2026-04-05T14:36:40.266Z</time></trkpt><trkpt lat="43.395414" lon="11.5499331"><ele>376.0</ele><time>2026-04-05T14:36:41.272Z</time></trkpt><trkpt lat="43.3953169" lon="11.5500198"><ele>376.0</ele><time>2026-04-05T14:36:42.267Z</time></trkpt><trkpt lat="43.3952207" lon="11.5500958"><ele>374.0</ele><time>2026-04-05T14:36:43.255Z</time></trkpt><trkpt lat="43.395116" lon="11.5501505"><ele>372.0</ele><time>2026-04-05T14:36:44.265Z</time></trkpt><trkpt lat="43.3950008" lon="11.5501872"><ele>370.0</ele><time>2026-04-05T14:36:45.262Z</time></trkpt><trkpt lat="43.3948772" lon="11.5502254"><ele>368.0</ele><time>2026-04-05T14:36:46.264Z</time></trkpt><trkpt lat="43.3947454" lon="11.5502729"><ele>366.25</ele><time>2026-04-05T14:36:47.264Z</time></trkpt><trkpt lat="43.3946063" lon="11.5503136"><ele>364.5</ele><time>2026-04-05T14:36:48.264Z</time></trkpt><trkpt lat="43.394455" lon="11.5503445"><ele>362.75</ele><time>2026-04-05T14:36:49.275Z</time></trkpt><trkpt lat="43.3943074" lon="11.5503637"><ele>361.0</ele><time>2026-04-05T14:36:50.26Z</time></trkpt><trkpt lat="43.3941605" lon="11.5503742"><ele>361.0</ele><time>2026-04-05T14:36:51.269Z</time></trkpt><trkpt lat="43.3940159" lon="11.5503749"><ele>361.0</ele><time>2026-04-05T14:36:52.264Z</time></trkpt><trkpt lat="43.3938746" lon="11.5503658"><ele>361.0</ele><time>2026-04-05T14:36:53.267Z</time></trkpt><trkpt lat="43.3937349" lon="11.5503635"><ele>361.0</ele><time>2026-04-05T14:36:54.263Z</time></trkpt><trkpt lat="43.3935984" lon="11.5503668"><ele>359.25</ele><time>2026-04-05T14:36:55.263Z</time></trkpt><trkpt lat="43.393464" lon="11.5503808"><ele>357.5</ele><time>2026-04-05T14:36:56.266Z</time></trkpt><trkpt lat="43.3933341" lon="11.5504032"><ele>355.75</ele><time>2026-04-05T14:36:57.261Z</time></trkpt><trkpt lat="43.3932069" lon="11.5504416"><ele>354.0</ele><time>2026-04-05T14:36:58.258Z</time></trkpt><trkpt lat="43.393081" lon="11.5504881"><ele>352.75</ele><time>2026-04-05T14:36:59.265Z</time></trkpt><trkpt lat="43.3929553" lon="11.5505308"><ele>351.5</ele><time>2026-04-05T14:37:00.26Z</time></trkpt><trkpt lat="43.3928322" lon="11.5505573"><ele>350.25</ele><time>2026-04-05T14:37:01.268Z</time></trkpt><trkpt lat="43.3927132" lon="11.5505555"><ele>349.0</ele><time>2026-04-05T14:37:02.266Z</time></trkpt><trkpt lat="43.3925937" lon="11.550536"><ele>349.0</ele><time>2026-04-05T14:37:03.268Z</time></trkpt><trkpt lat="43.3924753" lon="11.5505004"><ele>349.0</ele><time>2026-04-05T14:37:04.264Z</time></trkpt><trkpt lat="43.3923566" lon="11.5504518"><ele>349.0</ele><time>2026-04-05T14:37:05.267Z</time></trkpt><trkpt lat="43.3922341" lon="11.5504064"><ele>349.0</ele><time>2026-04-05T14:37:06.269Z</time></trkpt><trkpt lat="43.3921059" lon="11.5503568"><ele>347.25</ele><time>2026-04-05T14:37:07.268Z</time></trkpt><trkpt lat="43.3919788" lon="11.5502995"><ele>345.5</ele><time>2026-04-05T14:37:08.261Z</time></trkpt><trkpt lat="43.3918594" lon="11.5502441"><ele>343.75</ele><time>2026-04-05T14:37:09.262Z</time></trkpt><trkpt lat="43.3917412" lon="11.5501981"><ele>342.0</ele><time>2026-04-05T14:37:10.261Z</time></trkpt><trkpt lat="43.3916151" lon="11.5501731"><ele>342.0</ele><time>2026-04-05T14:37:11.266Z</time></trkpt><trkpt lat="43.391482" lon="11.5501722"><ele>342.0</ele><time>2026-04-05T14:37:12.277Z</time></trkpt><trkpt lat="43.3913412" lon="11.5501814"><ele>342.0</ele><time>2026-04-05T14:37:13.274Z</time></trkpt><trkpt lat="43.3911954" lon="11.5501913"><ele>342.0</ele><time>2026-04-05T14:37:14.276Z</time></trkpt><trkpt lat="43.3910433" lon="11.5502028"><ele>340.6666666666667</ele><time>2026-04-05T14:37:15.259Z</time></trkpt><trkpt lat="43.39089" lon="11.5502149"><ele>339.33333333333337</ele><time>2026-04-05T14:37:16.267Z</time></trkpt><trkpt lat="43.3907372" lon="11.5502273"><ele>338.0</ele><time>2026-04-05T14:37:17.271Z</time></trkpt><trkpt lat="43.3905788" lon="11.5502372"><ele>336.33333333333337</ele><time>2026-04-05T14:37:18.274Z</time></trkpt><trkpt lat="43.3904159" lon="11.5502512"><ele>334.6666666666667</ele><time>2026-04-05T14:37:19.261Z</time></trkpt><trkpt lat="43.3902482" lon="11.5502568"><ele>333.0</ele><time>2026-04-05T14:37:20.267Z</time></trkpt><trkpt lat="43.390076" lon="11.550261"><ele>333.0</ele><time>2026-04-05T14:37:21.267Z</time></trkpt><trkpt lat="43.3899004" lon="11.5502659"><ele>333.0</ele><time>2026-04-05T14:37:22.264Z</time></trkpt><trkpt lat="43.3897303" lon="11.5502663"><ele>333.0</ele><time>2026-04-05T14:37:23.263Z</time></trkpt><trkpt lat="43.3895668" lon="11.5502612"><ele>331.3333333333333</ele><time>2026-04-05T14:37:24.27Z</time></trkpt><trkpt lat="43.3894104" lon="11.550255"><ele>329.66666666666663</ele><time>2026-04-05T14:37:25.271Z</time></trkpt><trkpt lat="43.38926" lon="11.5502418"><ele>328.0</ele><time>2026-04-05T14:37:26.267Z</time></trkpt><trkpt lat="43.3891167" lon="11.5502281"><ele>328.0</ele><time>2026-04-05T14:37:27.266Z</time></trkpt><trkpt lat="43.388979" lon="11.5502208"><ele>328.0</ele><time>2026-04-05T14:37:28.268Z</time></trkpt><trkpt lat="43.3888444" lon="11.550229"><ele>328.0</ele><time>2026-04-05T14:37:29.26Z</time></trkpt><trkpt lat="43.3887091" lon="11.5502705"><ele>328.0</ele><time>2026-04-05T14:37:30.264Z</time></trkpt><trkpt lat="43.3885718" lon="11.5503363"><ele>326.3333333333333</ele><time>2026-04-05T14:37:31.273Z</time></trkpt><trkpt lat="43.3884294" lon="11.5504081"><ele>324.6666666666667</ele><time>2026-04-05T14:37:32.262Z</time></trkpt><trkpt lat="43.3882801" lon="11.5504794"><ele>323.0</ele><time>2026-04-05T14:37:33.266Z</time></trkpt><trkpt lat="43.3881321" lon="11.5505468"><ele>324.0</ele><time>2026-04-05T14:37:34.271Z</time></trkpt><trkpt lat="43.3879892" lon="11.5506009"><ele>325.0</ele><time>2026-04-05T14:37:35.261Z</time></trkpt><trkpt lat="43.3878408" lon="11.5506331"><ele>326.0</ele><time>2026-04-05T14:37:36.273Z</time></trkpt><trkpt lat="43.3876842" lon="11.5506423"><ele>326.0</ele><time>2026-04-05T14:37:37.269Z</time></trkpt><trkpt lat="43.3875223" lon="11.5506436"><ele>326.0</ele><time>2026-04-05T14:37:38.258Z</time></trkpt><trkpt lat="43.3873556" lon="11.5506422"><ele>326.0</ele><time>2026-04-05T14:37:39.266Z</time></trkpt><trkpt lat="43.3871857" lon="11.5506459"><ele>326.33333333333337</ele><time>2026-04-05T14:37:40.257Z</time></trkpt><trkpt lat="43.3870191" lon="11.5506559"><ele>326.6666666666667</ele><time>2026-04-05T14:37:41.267Z</time></trkpt><trkpt lat="43.3868645" lon="11.5506553"><ele>327.0</ele><time>2026-04-05T14:37:42.274Z</time></trkpt><trkpt lat="43.3867169" lon="11.5506492"><ele>327.0</ele><time>2026-04-05T14:37:43.271Z</time></trkpt><trkpt lat="43.3865749" lon="11.5506451"><ele>327.0</ele><time>2026-04-05T14:37:44.272Z</time></trkpt><trkpt lat="43.3864366" lon="11.550644"><ele>327.0</ele><time>2026-04-05T14:37:45.27Z</time></trkpt><trkpt lat="43.3863027" lon="11.5506453"><ele>327.0</ele><time>2026-04-05T14:37:46.273Z</time></trkpt><trkpt lat="43.3861738" lon="11.5506458"><ele>326.25</ele><time>2026-04-05T14:37:47.272Z</time></trkpt><trkpt lat="43.3860433" lon="11.5506413"><ele>325.5</ele><time>2026-04-05T14:37:48.27Z</time></trkpt><trkpt lat="43.3859097" lon="11.550632"><ele>324.75</ele><time>2026-04-05T14:37:49.281Z</time></trkpt><trkpt lat="43.3857792" lon="11.5506202"><ele>324.0</ele><time>2026-04-05T14:37:50.272Z</time></trkpt><trkpt lat="43.3856538" lon="11.5506081"><ele>324.0</ele><time>2026-04-05T14:37:51.273Z</time></trkpt><trkpt lat="43.385529" lon="11.5506092"><ele>324.0</ele><time>2026-04-05T14:37:52.268Z</time></trkpt><trkpt lat="43.3854" lon="11.5506306"><ele>324.0</ele><time>2026-04-05T14:37:53.27Z</time></trkpt><trkpt lat="43.3852663" lon="11.550671"><ele>324.0</ele><time>2026-04-05T14:37:54.264Z</time></trkpt><trkpt lat="43.3851305" lon="11.5507284"><ele>322.75</ele><time>2026-04-05T14:37:55.26Z</time></trkpt><trkpt lat="43.3849897" lon="11.5507941"><ele>321.5</ele><time>2026-04-05T14:37:56.27Z</time></trkpt><trkpt lat="43.3848485" lon="11.5508633"><ele>320.25</ele><time>2026-04-05T14:37:57.261Z</time></trkpt><trkpt lat="43.3847177" lon="11.5509349"><ele>319.0</ele><time>2026-04-05T14:37:58.266Z</time></trkpt><trkpt lat="43.384593" lon="11.5510089"><ele>318.0</ele><time>2026-04-05T14:37:59.262Z</time></trkpt><trkpt lat="43.3844741" lon="11.5510852"><ele>317.0</ele><time>2026-04-05T14:38:00.265Z</time></trkpt><trkpt lat="43.3843582" lon="11.5511613"><ele>316.0</ele><time>2026-04-05T14:38:01.261Z</time></trkpt><trkpt lat="43.3842411" lon="11.5512363"><ele>315.0</ele><time>2026-04-05T14:38:02.261Z</time></trkpt><trkpt lat="43.384121" lon="11.5513097"><ele>314.5</ele><time>2026-04-05T14:38:03.257Z</time></trkpt><trkpt lat="43.383995" lon="11.5513689"><ele>314.0</ele><time>2026-04-05T14:38:04.259Z</time></trkpt><trkpt lat="43.3838623" lon="11.5514155"><ele>313.5</ele><time>2026-04-05T14:38:05.265Z</time></trkpt><trkpt lat="43.3837252" lon="11.5514642"><ele>313.0</ele><time>2026-04-05T14:38:06.271Z</time></trkpt><trkpt lat="43.3835876" lon="11.5515169"><ele>312.75</ele><time>2026-04-05T14:38:07.26Z</time></trkpt><trkpt lat="43.3834497" lon="11.5515651"><ele>312.5</ele><time>2026-04-05T14:38:08.265Z</time></trkpt><trkpt lat="43.3833191" lon="11.5516117"><ele>312.25</ele><time>2026-04-05T14:38:09.266Z</time></trkpt><trkpt lat="43.3831973" lon="11.5516552"><ele>312.0</ele><time>2026-04-05T14:38:10.262Z</time></trkpt><trkpt lat="43.3830872" lon="11.5516947"><ele>312.3333333333333</ele><time>2026-04-05T14:38:11.27Z</time></trkpt><trkpt lat="43.38299" lon="11.5517338"><ele>312.6666666666667</ele><time>2026-04-05T14:38:12.265Z</time></trkpt><trkpt lat="43.3829032" lon="11.5517724"><ele>313.0</ele><time>2026-04-05T14:38:13.264Z</time></trkpt><trkpt lat="43.3828237" lon="11.5518037"><ele>313.33333333333337</ele><time>2026-04-05T14:38:14.269Z</time></trkpt><trkpt lat="43.3827527" lon="11.5518314"><ele>313.6666666666667</ele><time>2026-04-05T14:38:15.267Z</time></trkpt><trkpt lat="43.3826934" lon="11.5518822"><ele>314.0</ele><time>2026-04-05T14:38:16.261Z</time></trkpt><trkpt lat="43.3826589" lon="11.5519587"><ele>313.8</ele><time>2026-04-05T14:38:17.269Z</time></trkpt><trkpt lat="43.382649" lon="11.5520499"><ele>313.59999999999997</ele><time>2026-04-05T14:38:18.266Z</time></trkpt><trkpt lat="43.3826638" lon="11.55216"><ele>313.4</ele><time>2026-04-05T14:38:19.275Z</time></trkpt><trkpt lat="43.3827001" lon="11.5522878"><ele>313.2</ele><time>2026-04-05T14:38:20.263Z</time></trkpt><trkpt lat="43.3827524" lon="11.5524327"><ele>313.0</ele><time>2026-04-05T14:38:21.26Z</time></trkpt><trkpt lat="43.3828114" lon="11.5526006"><ele>313.0</ele><time>2026-04-05T14:38:22.284Z</time></trkpt><trkpt lat="43.3828728" lon="11.5527829"><ele>313.0</ele><time>2026-04-05T14:38:23.271Z</time></trkpt><trkpt lat="43.3829376" lon="11.5529703"><ele>313.0</ele><time>2026-04-05T14:38:24.267Z</time></trkpt><trkpt lat="43.3830078" lon="11.5531663"><ele>313.0</ele><time>2026-04-05T14:38:25.273Z</time></trkpt><trkpt lat="43.3830828" lon="11.5533672"><ele>313.0</ele><time>2026-04-05T14:38:26.264Z</time></trkpt><trkpt lat="43.383147" lon="11.5535717"><ele>313.0</ele><time>2026-04-05T14:38:27.254Z</time></trkpt><trkpt lat="43.3831979" lon="11.5537757"><ele>313.25</ele><time>2026-04-05T14:38:28.259Z</time></trkpt><trkpt lat="43.3832333" lon="11.5539828"><ele>313.5</ele><time>2026-04-05T14:38:29.256Z</time></trkpt><trkpt lat="43.3832603" lon="11.5541819"><ele>313.75</ele><time>2026-04-05T14:38:30.268Z</time></trkpt><trkpt lat="43.3832822" lon="11.5543705"><ele>314.0</ele><time>2026-04-05T14:38:31.257Z</time></trkpt><trkpt lat="43.3832924" lon="11.554548"><ele>313.5</ele><time>2026-04-05T14:38:32.262Z</time></trkpt><trkpt lat="43.3832754" lon="11.5547181"><ele>313.0</ele><time>2026-04-05T14:38:33.269Z</time></trkpt><trkpt lat="43.3832332" lon="11.5548876"><ele>312.5</ele><time>2026-04-05T14:38:34.269Z</time></trkpt><trkpt lat="43.3831805" lon="11.5550579"><ele>312.0</ele><time>2026-04-05T14:38:35.274Z</time></trkpt><trkpt lat="43.3831162" lon="11.5552322"><ele>311.25</ele><time>2026-04-05T14:38:36.269Z</time></trkpt><trkpt lat="43.3830445" lon="11.5554097"><ele>310.5</ele><time>2026-04-05T14:38:37.27Z</time></trkpt><trkpt lat="43.3829648" lon="11.5555782"><ele>309.75</ele><time>2026-04-05T14:38:38.251Z</time></trkpt><trkpt lat="43.3828748" lon="11.5557366"><ele>309.0</ele><time>2026-04-05T14:38:39.255Z</time></trkpt><trkpt lat="43.3827791" lon="11.5558922"><ele>308.75</ele><time>2026-04-05T14:38:40.269Z</time></trkpt><trkpt lat="43.3826898" lon="11.5560354"><ele>308.5</ele><time>2026-04-05T14:38:41.263Z</time></trkpt><trkpt lat="43.3826099" lon="11.5561693"><ele>308.25</ele><time>2026-04-05T14:38:42.262Z</time></trkpt><trkpt lat="43.3825463" lon="11.5562972"><ele>308.0</ele><time>2026-04-05T14:38:43.272Z</time></trkpt><trkpt lat="43.3825047" lon="11.5564425"><ele>308.0</ele><time>2026-04-05T14:38:44.264Z</time></trkpt><trkpt lat="43.3824921" lon="11.5566075"><ele>308.0</ele><time>2026-04-05T14:38:45.257Z</time></trkpt><trkpt lat="43.3825021" lon="11.5567922"><ele>308.0</ele><time>2026-04-05T14:38:46.269Z</time></trkpt><trkpt lat="43.3825228" lon="11.5569997"><ele>308.0</ele><time>2026-04-05T14:38:47.26Z</time></trkpt><trkpt lat="43.3825463" lon="11.5572011"><ele>307.5</ele><time>2026-04-05T14:38:48.258Z</time></trkpt><trkpt lat="43.3825649" lon="11.5573983"><ele>307.0</ele><time>2026-04-05T14:38:49.259Z</time></trkpt><trkpt lat="43.3825594" lon="11.5575913"><ele>306.5</ele><time>2026-04-05T14:38:50.255Z</time></trkpt><trkpt lat="43.3825262" lon="11.5577796"><ele>306.0</ele><time>2026-04-05T14:38:51.269Z</time></trkpt><trkpt lat="43.3824605" lon="11.5579538"><ele>305.0</ele><time>2026-04-05T14:38:52.257Z</time></trkpt><trkpt lat="43.3823732" lon="11.5581186"><ele>304.0</ele><time>2026-04-05T14:38:53.259Z</time></trkpt><trkpt lat="43.3822762" lon="11.5582838"><ele>303.0</ele><time>2026-04-05T14:38:54.261Z</time></trkpt><trkpt lat="43.3821802" lon="11.5584378"><ele>302.75</ele><time>2026-04-05T14:38:55.267Z</time></trkpt><trkpt lat="43.3820895" lon="11.5585818"><ele>302.5</ele><time>2026-04-05T14:38:56.258Z</time></trkpt><trkpt lat="43.3820048" lon="11.558719"><ele>302.25</ele><time>2026-04-05T14:38:57.261Z</time></trkpt><trkpt lat="43.3819223" lon="11.5588483"><ele>302.0</ele><time>2026-04-05T14:38:58.254Z</time></trkpt><trkpt lat="43.3818411" lon="11.5589674"><ele>302.0</ele><time>2026-04-05T14:38:59.267Z</time></trkpt><trkpt lat="43.3817598" lon="11.55908"><ele>302.0</ele><time>2026-04-05T14:39:00.262Z</time></trkpt><trkpt lat="43.3816813" lon="11.559184"><ele>302.0</ele><time>2026-04-05T14:39:01.264Z</time></trkpt><trkpt lat="43.3816052" lon="11.5592872"><ele>302.0</ele><time>2026-04-05T14:39:02.272Z</time></trkpt><trkpt lat="43.3815244" lon="11.5593819"><ele>302.0</ele><time>2026-04-05T14:39:03.259Z</time></trkpt><trkpt lat="43.3814377" lon="11.5594774"><ele>301.25</ele><time>2026-04-05T14:39:04.261Z</time></trkpt><trkpt lat="43.3813465" lon="11.5595726"><ele>300.5</ele><time>2026-04-05T14:39:05.262Z</time></trkpt><trkpt lat="43.3812488" lon="11.5596632"><ele>299.75</ele><time>2026-04-05T14:39:06.264Z</time></trkpt><trkpt lat="43.3811424" lon="11.5597426"><ele>299.0</ele><time>2026-04-05T14:39:07.264Z</time></trkpt><trkpt lat="43.3810285" lon="11.5597968"><ele>299.0</ele><time>2026-04-05T14:39:08.277Z</time></trkpt><trkpt lat="43.3809032" lon="11.559825"><ele>299.0</ele><time>2026-04-05T14:39:09.257Z</time></trkpt><trkpt lat="43.3807741" lon="11.5598333"><ele>299.0</ele><time>2026-04-05T14:39:10.265Z</time></trkpt><trkpt lat="43.380652" lon="11.5598359"><ele>299.0</ele><time>2026-04-05T14:39:11.268Z</time></trkpt><trkpt lat="43.3805368" lon="11.5598352"><ele>298.8</ele><time>2026-04-05T14:39:12.262Z</time></trkpt><trkpt lat="43.3804258" lon="11.5598326"><ele>298.59999999999997</ele><time>2026-04-05T14:39:13.265Z</time></trkpt><trkpt lat="43.3803202" lon="11.5598313"><ele>298.4</ele><time>2026-04-05T14:39:14.256Z</time></trkpt><trkpt lat="43.3802226" lon="11.5598354"><ele>298.2</ele><time>2026-04-05T14:39:15.258Z</time></trkpt><trkpt lat="43.3801328" lon="11.5598557"><ele>298.0</ele><time>2026-04-05T14:39:16.27Z</time></trkpt><trkpt lat="43.3800513" lon="11.559891"><ele>298.0</ele><time>2026-04-05T14:39:17.257Z</time></trkpt><trkpt lat="43.3799833" lon="11.5599336"><ele>298.0</ele><time>2026-04-05T14:39:18.266Z</time></trkpt><trkpt lat="43.379928" lon="11.5599834"><ele>298.0</ele><time>2026-04-05T14:39:19.267Z</time></trkpt><trkpt lat="43.3798818" lon="11.5600465"><ele>298.0</ele><time>2026-04-05T14:39:20.26Z</time></trkpt><trkpt lat="43.379841" lon="11.5601148"><ele>298.0</ele><time>2026-04-05T14:39:21.275Z</time></trkpt><trkpt lat="43.3798053" lon="11.5601869"><ele>298.0</ele><time>2026-04-05T14:39:22.262Z</time></trkpt><trkpt lat="43.3797742" lon="11.5602699"><ele>298.0</ele><time>2026-04-05T14:39:23.259Z</time></trkpt><trkpt lat="43.3797492" lon="11.5603727"><ele>297.8</ele><time>2026-04-05T14:39:24.263Z</time></trkpt><trkpt lat="43.3797314" lon="11.5604916"><ele>297.6</ele><time>2026-04-05T14:39:25.255Z</time></trkpt><trkpt lat="43.3797225" lon="11.5606302"><ele>297.4</ele><time>2026-04-05T14:39:26.274Z</time></trkpt><trkpt lat="43.3797168" lon="11.5607774"><ele>297.2</ele><time>2026-04-05T14:39:27.263Z</time></trkpt><trkpt lat="43.3797152" lon="11.5609275"><ele>297.0</ele><time>2026-04-05T14:39:28.267Z</time></trkpt><trkpt lat="43.3797117" lon="11.5610818"><ele>295.8</ele><time>2026-04-05T14:39:29.256Z</time></trkpt><trkpt lat="43.3797087" lon="11.5612377"><ele>294.6</ele><time>2026-04-05T14:39:30.276Z</time></trkpt><trkpt lat="43.3797106" lon="11.5613904"><ele>293.40000000000003</ele><time>2026-04-05T14:39:31.268Z</time></trkpt><trkpt lat="43.3797246" lon="11.5615393"><ele>292.2</ele><time>2026-04-05T14:39:32.269Z</time></trkpt><trkpt lat="43.3797525" lon="11.5616882"><ele>291.0</ele><time>2026-04-05T14:39:33.265Z</time></trkpt><trkpt lat="43.3797897" lon="11.5618359"><ele>291.0</ele><time>2026-04-05T14:39:34.272Z</time></trkpt><trkpt lat="43.3798302" lon="11.561987"><ele>291.0</ele><time>2026-04-05T14:39:35.264Z</time></trkpt><trkpt lat="43.3798706" lon="11.5621391"><ele>291.0</ele><time>2026-04-05T14:39:36.259Z</time></trkpt><trkpt lat="43.3799146" lon="11.5622895"><ele>291.0</ele><time>2026-04-05T14:39:37.267Z</time></trkpt><trkpt lat="43.3799613" lon="11.5624343"><ele>289.2</ele><time>2026-04-05T14:39:38.267Z</time></trkpt><trkpt lat="43.3800084" lon="11.5625674"><ele>287.40000000000003</ele><time>2026-04-05T14:39:39.256Z</time></trkpt><trkpt lat="43.3800551" lon="11.5626943"><ele>285.6</ele><time>2026-04-05T14:39:40.26Z</time></trkpt><trkpt lat="43.3801049" lon="11.562808"><ele>283.8</ele><time>2026-04-05T14:39:41.271Z</time></trkpt><trkpt lat="43.3801626" lon="11.562908"><ele>282.0</ele><time>2026-04-05T14:39:42.261Z</time></trkpt><trkpt lat="43.3802331" lon="11.5629933"><ele>280.6</ele><time>2026-04-05T14:39:43.266Z</time></trkpt><trkpt lat="43.3803146" lon="11.5630642"><ele>279.2</ele><time>2026-04-05T14:39:44.257Z</time></trkpt><trkpt lat="43.3804076" lon="11.5631252"><ele>277.8</ele><time>2026-04-05T14:39:45.254Z</time></trkpt><trkpt lat="43.380505" lon="11.563173"><ele>276.4</ele><time>2026-04-05T14:39:46.265Z</time></trkpt><trkpt lat="43.3806015" lon="11.5632178"><ele>275.0</ele><time>2026-04-05T14:39:47.271Z</time></trkpt><trkpt lat="43.3806982" lon="11.563255"><ele>275.0</ele><time>2026-04-05T14:39:48.263Z</time></trkpt><trkpt lat="43.3807964" lon="11.5632914"><ele>275.0</ele><time>2026-04-05T14:39:49.273Z</time></trkpt><trkpt lat="43.3808877" lon="11.5633301"><ele>275.0</ele><time>2026-04-05T14:39:50.282Z</time></trkpt><trkpt lat="43.3809714" lon="11.5633782"><ele>275.0</ele><time>2026-04-05T14:39:51.259Z</time></trkpt><trkpt lat="43.3810351" lon="11.5634444"><ele>275.0</ele><time>2026-04-05T14:39:52.253Z</time></trkpt><trkpt lat="43.3810787" lon="11.5635248"><ele>275.0</ele><time>2026-04-05T14:39:53.266Z</time></trkpt><trkpt lat="43.3811078" lon="11.5636208"><ele>273.4</ele><time>2026-04-05T14:39:54.265Z</time></trkpt><trkpt lat="43.3811376" lon="11.563724"><ele>271.8</ele><time>2026-04-05T14:39:55.253Z</time></trkpt><trkpt lat="43.3811612" lon="11.5638412"><ele>270.2</ele><time>2026-04-05T14:39:56.26Z</time></trkpt><trkpt lat="43.3811838" lon="11.5639768"><ele>268.6</ele><time>2026-04-05T14:39:57.263Z</time></trkpt><trkpt lat="43.3812159" lon="11.5641079"><ele>267.0</ele><time>2026-04-05T14:39:58.26Z</time></trkpt><trkpt lat="43.3812613" lon="11.5642242"><ele>267.0</ele><time>2026-04-05T14:39:59.26Z</time></trkpt><trkpt lat="43.3813205" lon="11.5643409"><ele>267.0</ele><time>2026-04-05T14:40:00.262Z</time></trkpt><trkpt lat="43.3813904" lon="11.5644373"><ele>267.0</ele><time>2026-04-05T14:40:01.257Z</time></trkpt><trkpt lat="43.38146" lon="11.5645199"><ele>267.0</ele><time>2026-04-05T14:40:02.28Z</time></trkpt><trkpt lat="43.3815229" lon="11.5645867"><ele>267.0</ele><time>2026-04-05T14:40:03.255Z</time></trkpt><trkpt lat="43.3815772" lon="11.5646379"><ele>267.0</ele><time>2026-04-05T14:40:04.258Z</time></trkpt><trkpt lat="43.3816401" lon="11.5647207"><ele>266.6666666666667</ele><time>2026-04-05T14:40:06.27Z</time></trkpt><trkpt lat="43.3817118" lon="11.5647767"><ele>266.3333333333333</ele><time>2026-04-05T14:40:28.259Z</time></trkpt><trkpt lat="43.3817731" lon="11.5648001"><ele>266.0</ele><time>2026-04-05T14:40:29.262Z</time></trkpt><trkpt lat="43.38184" lon="11.5648063"><ele>265.66666666666663</ele><time>2026-04-05T14:40:30.271Z</time></trkpt><trkpt lat="43.3819106" lon="11.5648187"><ele>265.3333333333333</ele><time>2026-04-05T14:40:31.258Z</time></trkpt><trkpt lat="43.3819925" lon="11.5648403"><ele>265.0</ele><time>2026-04-05T14:40:32.26Z</time></trkpt><trkpt lat="43.3820793" lon="11.5648746"><ele>265.0</ele><time>2026-04-05T14:40:33.269Z</time></trkpt><trkpt lat="43.3821634" lon="11.5649242"><ele>265.0</ele><time>2026-04-05T14:40:34.271Z</time></trkpt><trkpt lat="43.3822484" lon="11.5649865"><ele>265.0</ele><time>2026-04-05T14:40:35.259Z</time></trkpt><trkpt lat="43.3823399" lon="11.5650589"><ele>265.0</ele><time>2026-04-05T14:40:36.27Z</time></trkpt><trkpt lat="43.3824336" lon="11.5651412"><ele>265.0</ele><time>2026-04-05T14:40:37.258Z</time></trkpt><trkpt lat="43.3825287" lon="11.5652431"><ele>264.5</ele><time>2026-04-05T14:40:38.264Z</time></trkpt><trkpt lat="43.3826243" lon="11.5653632"><ele>264.0</ele><time>2026-04-05T14:40:39.274Z</time></trkpt><trkpt lat="43.3827333" lon="11.5655063"><ele>263.5</ele><time>2026-04-05T14:40:40.261Z</time></trkpt><trkpt lat="43.3828515" lon="11.5656626"><ele>263.0</ele><time>2026-04-05T14:40:41.265Z</time></trkpt><trkpt lat="43.382979" lon="11.5658325"><ele>263.33333333333337</ele><time>2026-04-05T14:40:42.271Z</time></trkpt><trkpt lat="43.3831198" lon="11.5660223"><ele>263.6666666666667</ele><time>2026-04-05T14:40:43.265Z</time></trkpt><trkpt lat="43.3832674" lon="11.5662226"><ele>264.0</ele><time>2026-04-05T14:40:44.264Z</time></trkpt><trkpt lat="43.3834294" lon="11.5664394"><ele>264.0</ele><time>2026-04-05T14:40:45.265Z</time></trkpt><trkpt lat="43.3836003" lon="11.5666694"><ele>264.0</ele><time>2026-04-05T14:40:46.263Z</time></trkpt><trkpt lat="43.383757" lon="11.5668885"><ele>264.3333333333333</ele><time>2026-04-05T14:40:47.263Z</time></trkpt><trkpt lat="43.383905" lon="11.5670956"><ele>264.66666666666663</ele><time>2026-04-05T14:40:48.263Z</time></trkpt><trkpt lat="43.3840489" lon="11.5672871"><ele>265.0</ele><time>2026-04-05T14:40:49.269Z</time></trkpt><trkpt lat="43.3841845" lon="11.5674668"><ele>265.0</ele><time>2026-04-05T14:40:50.278Z</time></trkpt><trkpt lat="43.3843122" lon="11.5676389"><ele>265.0</ele><time>2026-04-05T14:40:51.272Z</time></trkpt><trkpt lat="43.3844307" lon="11.5678023"><ele>265.0</ele><time>2026-04-05T14:40:52.274Z</time></trkpt><trkpt lat="43.38454" lon="11.5679565"><ele>265.0</ele><time>2026-04-05T14:40:53.259Z</time></trkpt><trkpt lat="43.3846438" lon="11.5680984"><ele>265.0</ele><time>2026-04-05T14:40:54.261Z</time></trkpt><trkpt lat="43.384744" lon="11.5682305"><ele>265.0</ele><time>2026-04-05T14:40:55.258Z</time></trkpt><trkpt lat="43.3848362" lon="11.568357"><ele>265.0</ele><time>2026-04-05T14:40:56.264Z</time></trkpt><trkpt lat="43.3849181" lon="11.5684724"><ele>265.8</ele><time>2026-04-05T14:40:57.264Z</time></trkpt><trkpt lat="43.3849886" lon="11.5685652"><ele>266.6</ele><time>2026-04-05T14:40:58.256Z</time></trkpt><trkpt lat="43.3850475" lon="11.5686412"><ele>267.4</ele><time>2026-04-05T14:40:59.264Z</time></trkpt><trkpt lat="43.3851486" lon="11.5687003"><ele>268.2</ele><time>2026-04-05T14:41:01.264Z</time></trkpt><trkpt lat="43.385216" lon="11.5686459"><ele>269.0</ele><time>2026-04-05T14:41:03.264Z</time></trkpt><trkpt lat="43.3852614" lon="11.568548"><ele>269.0</ele><time>2026-04-05T14:41:05.261Z</time></trkpt><trkpt lat="43.3853348" lon="11.5684381"><ele>269.0</ele><time>2026-04-05T14:41:07.264Z</time></trkpt><trkpt lat="43.3853811" lon="11.5683785"><ele>269.0</ele><time>2026-04-05T14:41:08.267Z</time></trkpt><trkpt lat="43.3854307" lon="11.5683119"><ele>269.0</ele><time>2026-04-05T14:41:09.254Z</time></trkpt><trkpt lat="43.3854856" lon="11.5682462"><ele>269.0</ele><time>2026-04-05T14:41:10.256Z</time></trkpt><trkpt lat="43.385537" lon="11.5681796"><ele>269.0</ele><time>2026-04-05T14:41:11.259Z</time></trkpt><trkpt lat="43.385586" lon="11.5681052"><ele>269.83333333333337</ele><time>2026-04-05T14:41:12.258Z</time></trkpt><trkpt lat="43.3856302" lon="11.5680298"><ele>270.6666666666667</ele><time>2026-04-05T14:41:13.254Z</time></trkpt><trkpt lat="43.385673" lon="11.5679376"><ele>271.5</ele><time>2026-04-05T14:41:14.256Z</time></trkpt><trkpt lat="43.3857127" lon="11.5678253"><ele>272.3333333333333</ele><time>2026-04-05T14:41:15.262Z</time></trkpt><trkpt lat="43.3857506" lon="11.5676996"><ele>273.16666666666663</ele><time>2026-04-05T14:41:16.273Z</time></trkpt><trkpt lat="43.3857912" lon="11.567564"><ele>274.0</ele><time>2026-04-05T14:41:17.268Z</time></trkpt><trkpt lat="43.3858319" lon="11.567425"><ele>274.0</ele><time>2026-04-05T14:41:18.266Z</time></trkpt><trkpt lat="43.3858689" lon="11.5673052"><ele>274.0</ele><time>2026-04-05T14:41:19.268Z</time></trkpt><trkpt lat="43.3859031" lon="11.5671917"><ele>274.0</ele><time>2026-04-05T14:41:20.262Z</time></trkpt><trkpt lat="43.3859362" lon="11.5670874"><ele>274.0</ele><time>2026-04-05T14:41:21.268Z</time></trkpt><trkpt lat="43.3859681" lon="11.5669963"><ele>274.0</ele><time>2026-04-05T14:41:22.269Z</time></trkpt><trkpt lat="43.3859991" lon="11.5669104"><ele>274.0</ele><time>2026-04-05T14:41:23.27Z</time></trkpt><trkpt lat="43.3860217" lon="11.5668236"><ele>273.66666666666663</ele><time>2026-04-05T14:41:24.268Z</time></trkpt><trkpt lat="43.3860346" lon="11.5667327"><ele>273.3333333333333</ele><time>2026-04-05T14:41:25.261Z</time></trkpt><trkpt lat="43.3860378" lon="11.566628"><ele>273.0</ele><time>2026-04-05T14:41:26.261Z</time></trkpt><trkpt lat="43.3860278" lon="11.5665109"><ele>272.6666666666667</ele><time>2026-04-05T14:41:27.269Z</time></trkpt><trkpt lat="43.386004" lon="11.5663882"><ele>272.33333333333337</ele><time>2026-04-05T14:41:28.265Z</time></trkpt><trkpt lat="43.3859658" lon="11.5662629"><ele>272.0</ele><time>2026-04-05T14:41:29.264Z</time></trkpt><trkpt lat="43.3859213" lon="11.5661408"><ele>271.83333333333337</ele><time>2026-04-05T14:41:30.261Z</time></trkpt><trkpt lat="43.385884" lon="11.5660293"><ele>271.6666666666667</ele><time>2026-04-05T14:41:31.254Z</time></trkpt><trkpt lat="43.3858518" lon="11.5659229"><ele>271.5</ele><time>2026-04-05T14:41:32.259Z</time></trkpt><trkpt lat="43.3858289" lon="11.5658212"><ele>271.3333333333333</ele><time>2026-04-05T14:41:33.266Z</time></trkpt><trkpt lat="43.3858179" lon="11.5657253"><ele>271.16666666666663</ele><time>2026-04-05T14:41:34.265Z</time></trkpt><trkpt lat="43.3858205" lon="11.5656282"><ele>271.0</ele><time>2026-04-05T14:41:35.261Z</time></trkpt><trkpt lat="43.3858374" lon="11.5655245"><ele>271.0</ele><time>2026-04-05T14:41:36.265Z</time></trkpt><trkpt lat="43.3858686" lon="11.5654177"><ele>271.0</ele><time>2026-04-05T14:41:37.264Z</time></trkpt><trkpt lat="43.3859077" lon="11.5653194"><ele>271.0</ele><time>2026-04-05T14:41:38.267Z</time></trkpt><trkpt lat="43.3859444" lon="11.5652329"><ele>271.0</ele><time>2026-04-05T14:41:39.269Z</time></trkpt><trkpt lat="43.3859914" lon="11.5651533"><ele>271.0</ele><time>2026-04-05T14:41:40.266Z</time></trkpt><trkpt lat="43.3860533" lon="11.5650827"><ele>271.0</ele><time>2026-04-05T14:41:41.265Z</time></trkpt><trkpt lat="43.386129" lon="11.5650285"><ele>271.0</ele><time>2026-04-05T14:41:42.265Z</time></trkpt><trkpt lat="43.3862145" lon="11.5649868"><ele>271.0</ele><time>2026-04-05T14:41:43.268Z</time></trkpt><trkpt lat="43.3862959" lon="11.5649465"><ele>271.0</ele><time>2026-04-05T14:41:44.265Z</time></trkpt><trkpt lat="43.3863694" lon="11.5649045"><ele>271.0</ele><time>2026-04-05T14:41:45.261Z</time></trkpt><trkpt lat="43.3864518" lon="11.5648612"><ele>271.0</ele><time>2026-04-05T14:41:46.266Z</time></trkpt><trkpt lat="43.3865366" lon="11.5648155"><ele>271.0</ele><time>2026-04-05T14:41:47.275Z</time></trkpt><trkpt lat="43.3866201" lon="11.5647636"><ele>270.66666666666663</ele><time>2026-04-05T14:41:48.267Z</time></trkpt><trkpt lat="43.3867056" lon="11.5647156"><ele>270.3333333333333</ele><time>2026-04-05T14:41:49.261Z</time></trkpt><trkpt lat="43.3867809" lon="11.5646739"><ele>270.0</ele><time>2026-04-05T14:41:50.27Z</time></trkpt><trkpt lat="43.3868581" lon="11.5646332"><ele>269.6666666666667</ele><time>2026-04-05T14:41:51.266Z</time></trkpt><trkpt lat="43.3869352" lon="11.5645921"><ele>269.33333333333337</ele><time>2026-04-05T14:41:52.264Z</time></trkpt><trkpt lat="43.3870078" lon="11.5645521"><ele>269.0</ele><time>2026-04-05T14:41:53.259Z</time></trkpt><trkpt lat="43.387076" lon="11.5645122"><ele>269.0</ele><time>2026-04-05T14:41:54.27Z</time></trkpt><trkpt lat="43.3871498" lon="11.5644671"><ele>269.0</ele><time>2026-04-05T14:41:55.273Z</time></trkpt><trkpt lat="43.3872312" lon="11.5644254"><ele>269.0</ele><time>2026-04-05T14:41:56.271Z</time></trkpt><trkpt lat="43.3873181" lon="11.5643783"><ele>269.0</ele><time>2026-04-05T14:41:57.267Z</time></trkpt><trkpt lat="43.3874114" lon="11.5643285"><ele>269.0</ele><time>2026-04-05T14:41:58.273Z</time></trkpt><trkpt lat="43.3875061" lon="11.5642747"><ele>269.4</ele><time>2026-04-05T14:41:59.252Z</time></trkpt><trkpt lat="43.3876031" lon="11.564218"><ele>269.79999999999995</ele><time>2026-04-05T14:42:00.26Z</time></trkpt><trkpt lat="43.3877003" lon="11.5641601"><ele>270.20000000000005</ele><time>2026-04-05T14:42:01.259Z</time></trkpt><trkpt lat="43.3877998" lon="11.5641029"><ele>270.6</ele><time>2026-04-05T14:42:02.258Z</time></trkpt><trkpt lat="43.3879002" lon="11.5640457"><ele>271.0</ele><time>2026-04-05T14:42:03.264Z</time></trkpt><trkpt lat="43.3880061" lon="11.5639868"><ele>271.75</ele><time>2026-04-05T14:42:04.257Z</time></trkpt><trkpt lat="43.3881149" lon="11.5639274"><ele>272.5</ele><time>2026-04-05T14:42:05.262Z</time></trkpt><trkpt lat="43.3882225" lon="11.5638669"><ele>273.25</ele><time>2026-04-05T14:42:06.271Z</time></trkpt><trkpt lat="43.3883306" lon="11.5638071"><ele>274.0</ele><time>2026-04-05T14:42:07.264Z</time></trkpt><trkpt lat="43.3884297" lon="11.5637519"><ele>274.0</ele><time>2026-04-05T14:42:08.258Z</time></trkpt><trkpt lat="43.3885092" lon="11.5637028"><ele>274.0</ele><time>2026-04-05T14:42:09.262Z</time></trkpt><trkpt lat="43.3885714" lon="11.5636644"><ele>274.0</ele><time>2026-04-05T14:42:10.274Z</time></trkpt><trkpt lat="43.3886476" lon="11.5636357"><ele>274.0</ele><time>2026-04-05T14:42:12.269Z</time></trkpt><trkpt lat="43.3887036" lon="11.563711"><ele>274.0</ele><time>2026-04-05T14:42:37.269Z</time></trkpt><trkpt lat="43.3887225" lon="11.5638422"><ele>274.0</ele><time>2026-04-05T14:42:39.264Z</time></trkpt><trkpt lat="43.3887439" lon="11.5640095"><ele>274.00000000000006</ele><time>2026-04-05T14:42:41.262Z</time></trkpt><trkpt lat="43.3887633" lon="11.564098"><ele>274.0</ele><time>2026-04-05T14:42:42.257Z</time></trkpt><trkpt lat="43.3887989" lon="11.5641768"><ele>274.0</ele><time>2026-04-05T14:42:43.268Z</time></trkpt><trkpt lat="43.3888479" lon="11.5642415"><ele>274.0</ele><time>2026-04-05T14:42:44.27Z</time></trkpt><trkpt lat="43.3889106" lon="11.5642881"><ele>274.0</ele><time>2026-04-05T14:42:45.261Z</time></trkpt><trkpt lat="43.3889763" lon="11.5643285"><ele>274.00000000000006</ele><time>2026-04-05T14:42:46.256Z</time></trkpt><trkpt lat="43.3890375" lon="11.5643776"><ele>274.0</ele><time>2026-04-05T14:42:47.269Z</time></trkpt><trkpt lat="43.38909" lon="11.5644457"><ele>274.16666666666663</ele><time>2026-04-05T14:42:48.263Z</time></trkpt><trkpt lat="43.3891322" lon="11.5645382"><ele>274.3333333333333</ele><time>2026-04-05T14:42:49.258Z</time></trkpt><trkpt lat="43.3891684" lon="11.5646479"><ele>274.5</ele><time>2026-04-05T14:42:50.261Z</time></trkpt><trkpt lat="43.3892044" lon="11.564763"><ele>274.6666666666667</ele><time>2026-04-05T14:42:51.26Z</time></trkpt><trkpt lat="43.3892388" lon="11.5648871"><ele>274.83333333333337</ele><time>2026-04-05T14:42:52.268Z</time></trkpt><trkpt lat="43.3892666" lon="11.5650119"><ele>275.0</ele><time>2026-04-05T14:42:53.269Z</time></trkpt><trkpt lat="43.3892836" lon="11.5651317"><ele>275.0</ele><time>2026-04-05T14:42:54.263Z</time></trkpt><trkpt lat="43.3892948" lon="11.5652333"><ele>275.0</ele><time>2026-04-05T14:42:55.273Z</time></trkpt><trkpt lat="43.3893357" lon="11.5653838"><ele>275.0</ele><time>2026-04-05T14:42:57.262Z</time></trkpt><trkpt lat="43.3893747" lon="11.5654564"><ele>275.0</ele><time>2026-04-05T14:42:58.26Z</time></trkpt><trkpt lat="43.3894203" lon="11.5655294"><ele>275.0</ele><time>2026-04-05T14:42:59.268Z</time></trkpt><trkpt lat="43.389468" lon="11.5656025"><ele>275.0</ele><time>2026-04-05T14:43:00.257Z</time></trkpt><trkpt lat="43.3895168" lon="11.565683"><ele>274.7142857142857</ele><time>2026-04-05T14:43:01.259Z</time></trkpt><trkpt lat="43.3895632" lon="11.5657691"><ele>274.42857142857144</ele><time>2026-04-05T14:43:02.264Z</time></trkpt><trkpt lat="43.3896176" lon="11.5658438"><ele>274.1428571428571</ele><time>2026-04-05T14:43:03.257Z</time></trkpt><trkpt lat="43.3896814" lon="11.5659014"><ele>273.8571428571429</ele><time>2026-04-05T14:43:04.265Z</time></trkpt><trkpt lat="43.3897514" lon="11.5659375"><ele>273.57142857142856</ele><time>2026-04-05T14:43:05.259Z</time></trkpt><trkpt lat="43.3898218" lon="11.5659642"><ele>273.2857142857143</ele><time>2026-04-05T14:43:06.258Z</time></trkpt><trkpt lat="43.3898882" lon="11.5659867"><ele>273.0</ele><time>2026-04-05T14:43:07.271Z</time></trkpt><trkpt lat="43.3899533" lon="11.5660145"><ele>272.85714285714283</ele><time>2026-04-05T14:43:08.254Z</time></trkpt><trkpt lat="43.3900095" lon="11.5660622"><ele>272.7142857142857</ele><time>2026-04-05T14:43:09.264Z</time></trkpt><trkpt lat="43.3900474" lon="11.5661336"><ele>272.57142857142856</ele><time>2026-04-05T14:43:10.27Z</time></trkpt><trkpt lat="43.3900683" lon="11.5662159"><ele>272.42857142857144</ele><time>2026-04-05T14:43:11.272Z</time></trkpt><trkpt lat="43.3900759" lon="11.56631"><ele>272.2857142857143</ele><time>2026-04-05T14:43:12.256Z</time></trkpt><trkpt lat="43.3900771" lon="11.56642"><ele>272.1428571428571</ele><time>2026-04-05T14:43:13.256Z</time></trkpt><trkpt lat="43.3900701" lon="11.5665393"><ele>272.0</ele><time>2026-04-05T14:43:14.255Z</time></trkpt><trkpt lat="43.3900656" lon="11.5666736"><ele>271.8</ele><time>2026-04-05T14:43:15.275Z</time></trkpt><trkpt lat="43.3900634" lon="11.5668138"><ele>271.6</ele><time>2026-04-05T14:43:16.27Z</time></trkpt><trkpt lat="43.3900676" lon="11.5669492"><ele>271.40000000000003</ele><time>2026-04-05T14:43:17.266Z</time></trkpt><trkpt lat="43.3900695" lon="11.5670883"><ele>271.2</ele><time>2026-04-05T14:43:18.265Z</time></trkpt><trkpt lat="43.3900686" lon="11.5672356"><ele>271.0</ele><time>2026-04-05T14:43:19.273Z</time></trkpt><trkpt lat="43.3900686" lon="11.5673904"><ele>270.0</ele><time>2026-04-05T14:43:20.262Z</time></trkpt><trkpt lat="43.3900678" lon="11.5675492"><ele>269.0</ele><time>2026-04-05T14:43:21.263Z</time></trkpt><trkpt lat="43.3900691" lon="11.5677014"><ele>268.0</ele><time>2026-04-05T14:43:22.259Z</time></trkpt><trkpt lat="43.3900676" lon="11.5678594"><ele>267.0</ele><time>2026-04-05T14:43:23.272Z</time></trkpt><trkpt lat="43.3900641" lon="11.5680193"><ele>266.6</ele><time>2026-04-05T14:43:24.261Z</time></trkpt><trkpt lat="43.3900624" lon="11.5681686"><ele>266.2</ele><time>2026-04-05T14:43:25.265Z</time></trkpt><trkpt lat="43.3900607" lon="11.5683166"><ele>265.8</ele><time>2026-04-05T14:43:26.268Z</time></trkpt><trkpt lat="43.3900563" lon="11.5684735"><ele>265.4</ele><time>2026-04-05T14:43:27.261Z</time></trkpt><trkpt lat="43.3900511" lon="11.5686329"><ele>265.0</ele><time>2026-04-05T14:43:28.263Z</time></trkpt><trkpt lat="43.3900455" lon="11.5687904"><ele>265.0</ele><time>2026-04-05T14:43:29.268Z</time></trkpt><trkpt lat="43.3900397" lon="11.5689384"><ele>265.0</ele><time>2026-04-05T14:43:30.257Z</time></trkpt><trkpt lat="43.3900391" lon="11.5690595"><ele>265.0</ele><time>2026-04-05T14:43:31.261Z</time></trkpt><trkpt lat="43.3900387" lon="11.5691628"><ele>265.0</ele><time>2026-04-05T14:43:32.268Z</time></trkpt><trkpt lat="43.39003" lon="11.5692668"><ele>265.0</ele><time>2026-04-05T14:43:33.258Z</time></trkpt><trkpt lat="43.3900115" lon="11.5693778"><ele>265.0</ele><time>2026-04-05T14:43:34.258Z</time></trkpt><trkpt lat="43.3899898" lon="11.5694943"><ele>265.6</ele><time>2026-04-05T14:43:35.26Z</time></trkpt><trkpt lat="43.3899645" lon="11.5696214"><ele>266.2</ele><time>2026-04-05T14:43:36.269Z</time></trkpt><trkpt lat="43.3899256" lon="11.5697495"><ele>266.8</ele><time>2026-04-05T14:43:37.261Z</time></trkpt><trkpt lat="43.3898749" lon="11.5698811"><ele>267.4</ele><time>2026-04-05T14:43:38.268Z</time></trkpt><trkpt lat="43.3898114" lon="11.5700098"><ele>268.0</ele><time>2026-04-05T14:43:39.265Z</time></trkpt><trkpt lat="43.3897432" lon="11.5701391"><ele>267.0</ele><time>2026-04-05T14:43:40.264Z</time></trkpt><trkpt lat="43.3896725" lon="11.5702789"><ele>266.0</ele><time>2026-04-05T14:43:41.273Z</time></trkpt><trkpt lat="43.389601" lon="11.5704189"><ele>265.0</ele><time>2026-04-05T14:43:42.271Z</time></trkpt><trkpt lat="43.3895325" lon="11.5705471"><ele>264.0</ele><time>2026-04-05T14:43:43.261Z</time></trkpt><trkpt lat="43.3894693" lon="11.5706717"><ele>263.8</ele><time>2026-04-05T14:43:44.258Z</time></trkpt><trkpt lat="43.3894109" lon="11.5707909"><ele>263.59999999999997</ele><time>2026-04-05T14:43:45.266Z</time></trkpt><trkpt lat="43.3893524" lon="11.5708996"><ele>263.4</ele><time>2026-04-05T14:43:46.264Z</time></trkpt><trkpt lat="43.3892933" lon="11.5709987"><ele>263.2</ele><time>2026-04-05T14:43:47.271Z</time></trkpt><trkpt lat="43.3892324" lon="11.5710852"><ele>263.0</ele><time>2026-04-05T14:43:48.258Z</time></trkpt><trkpt lat="43.3891658" lon="11.5711713"><ele>262.8</ele><time>2026-04-05T14:43:49.257Z</time></trkpt><trkpt lat="43.3890956" lon="11.5712439"><ele>262.6</ele><time>2026-04-05T14:43:50.262Z</time></trkpt><trkpt lat="43.3890153" lon="11.5713032"><ele>262.4</ele><time>2026-04-05T14:43:51.266Z</time></trkpt><trkpt lat="43.3889251" lon="11.5713537"><ele>262.2</ele><time>2026-04-05T14:43:52.259Z</time></trkpt><trkpt lat="43.3888247" lon="11.5714115"><ele>262.0</ele><time>2026-04-05T14:43:53.268Z</time></trkpt><trkpt lat="43.3887201" lon="11.5714776"><ele>261.5</ele><time>2026-04-05T14:43:54.264Z</time></trkpt><trkpt lat="43.3886092" lon="11.5715522"><ele>261.0</ele><time>2026-04-05T14:43:55.26Z</time></trkpt><trkpt lat="43.3885025" lon="11.571633"><ele>260.5</ele><time>2026-04-05T14:43:56.257Z</time></trkpt><trkpt lat="43.388404" lon="11.571704"><ele>260.0</ele><time>2026-04-05T14:43:57.283Z</time></trkpt><trkpt lat="43.3883143" lon="11.5717815"><ele>260.0</ele><time>2026-04-05T14:43:58.266Z</time></trkpt><trkpt lat="43.3882414" lon="11.5718738"><ele>260.0</ele><time>2026-04-05T14:43:59.264Z</time></trkpt><trkpt lat="43.388186" lon="11.5719753"><ele>260.0</ele><time>2026-04-05T14:44:00.255Z</time></trkpt><trkpt lat="43.3881494" lon="11.5720808"><ele>260.0</ele><time>2026-04-05T14:44:01.268Z</time></trkpt><trkpt lat="43.388128" lon="11.5721856"><ele>260.0</ele><time>2026-04-05T14:44:02.257Z</time></trkpt><trkpt lat="43.3881171" lon="11.5722913"><ele>260.0</ele><time>2026-04-05T14:44:03.256Z</time></trkpt><trkpt lat="43.3881077" lon="11.5723941"><ele>260.0</ele><time>2026-04-05T14:44:04.263Z</time></trkpt><trkpt lat="43.3880976" lon="11.5724893"><ele>260.0</ele><time>2026-04-05T14:44:05.266Z</time></trkpt><trkpt lat="43.3880919" lon="11.5726278"><ele>260.0</ele><time>2026-04-05T14:44:07.274Z</time></trkpt><trkpt lat="43.3881062" lon="11.5727492"><ele>260.0</ele><time>2026-04-05T14:44:09.263Z</time></trkpt><trkpt lat="43.3881377" lon="11.572827"><ele>260.0</ele><time>2026-04-05T14:44:10.265Z</time></trkpt><trkpt lat="43.3881911" lon="11.5729099"><ele>260.0</ele><time>2026-04-05T14:44:11.255Z</time></trkpt><trkpt lat="43.3882592" lon="11.5730086"><ele>259.75</ele><time>2026-04-05T14:44:12.268Z</time></trkpt><trkpt lat="43.3883381" lon="11.5731224"><ele>259.5</ele><time>2026-04-05T14:44:13.267Z</time></trkpt><trkpt lat="43.3884338" lon="11.5732539"><ele>259.25</ele><time>2026-04-05T14:44:14.263Z</time></trkpt><trkpt lat="43.3885397" lon="11.5733931"><ele>259.0</ele><time>2026-04-05T14:44:15.263Z</time></trkpt><trkpt lat="43.3886556" lon="11.5735498"><ele>259.0</ele><time>2026-04-05T14:44:16.265Z</time></trkpt><trkpt lat="43.3887726" lon="11.5737058"><ele>259.0</ele><time>2026-04-05T14:44:17.255Z</time></trkpt><trkpt lat="43.3888995" lon="11.5738764"><ele>259.0</ele><time>2026-04-05T14:44:18.268Z</time></trkpt><trkpt lat="43.3890257" lon="11.5740442"><ele>259.0</ele><time>2026-04-05T14:44:19.261Z</time></trkpt><trkpt lat="43.3891422" lon="11.5742018"><ele>259.0</ele><time>2026-04-05T14:44:20.269Z</time></trkpt><trkpt lat="43.3892546" lon="11.5743523"><ele>259.0</ele><time>2026-04-05T14:44:21.269Z</time></trkpt><trkpt lat="43.3893587" lon="11.5744966"><ele>259.25</ele><time>2026-04-05T14:44:22.268Z</time></trkpt><trkpt lat="43.3894566" lon="11.574635"><ele>259.5</ele><time>2026-04-05T14:44:23.262Z</time></trkpt><trkpt lat="43.3895529" lon="11.5747668"><ele>259.75</ele><time>2026-04-05T14:44:24.262Z</time></trkpt><trkpt lat="43.3896506" lon="11.5749012"><ele>260.0</ele><time>2026-04-05T14:44:25.273Z</time></trkpt><trkpt lat="43.389751" lon="11.5750374"><ele>260.0</ele><time>2026-04-05T14:44:26.268Z</time></trkpt><trkpt lat="43.3898555" lon="11.5751739"><ele>260.0</ele><time>2026-04-05T14:44:27.269Z</time></trkpt><trkpt lat="43.3899598" lon="11.5753147"><ele>260.0</ele><time>2026-04-05T14:44:28.266Z</time></trkpt><trkpt lat="43.3900653" lon="11.5754597"><ele>260.0</ele><time>2026-04-05T14:44:29.26Z</time></trkpt><trkpt lat="43.390172" lon="11.5756093"><ele>260.33333333333337</ele><time>2026-04-05T14:44:30.275Z</time></trkpt><trkpt lat="43.3902783" lon="11.5757653"><ele>260.6666666666667</ele><time>2026-04-05T14:44:31.268Z</time></trkpt><trkpt lat="43.3903778" lon="11.5759337"><ele>261.0</ele><time>2026-04-05T14:44:32.263Z</time></trkpt><trkpt lat="43.3904715" lon="11.5761228"><ele>260.6666666666667</ele><time>2026-04-05T14:44:33.269Z</time></trkpt><trkpt lat="43.3905644" lon="11.5763375"><ele>260.33333333333337</ele><time>2026-04-05T14:44:34.26Z</time></trkpt><trkpt lat="43.390656" lon="11.5765655"><ele>260.0</ele><time>2026-04-05T14:44:35.263Z</time></trkpt><trkpt lat="43.3907451" lon="11.576795"><ele>260.0</ele><time>2026-04-05T14:44:36.271Z</time></trkpt><trkpt lat="43.3908277" lon="11.5770136"><ele>260.0</ele><time>2026-04-05T14:44:37.27Z</time></trkpt><trkpt lat="43.3909051" lon="11.5772194"><ele>260.0</ele><time>2026-04-05T14:44:38.27Z</time></trkpt><trkpt lat="43.3909796" lon="11.5774139"><ele>260.33333333333337</ele><time>2026-04-05T14:44:39.271Z</time></trkpt><trkpt lat="43.3910559" lon="11.5776116"><ele>260.6666666666667</ele><time>2026-04-05T14:44:40.267Z</time></trkpt><trkpt lat="43.39113" lon="11.5778108"><ele>261.0</ele><time>2026-04-05T14:44:41.281Z</time></trkpt><trkpt lat="43.3912072" lon="11.5780148"><ele>260.3333333333333</ele><time>2026-04-05T14:44:42.254Z</time></trkpt><trkpt lat="43.391289" lon="11.5782256"><ele>259.66666666666663</ele><time>2026-04-05T14:44:43.265Z</time></trkpt><trkpt lat="43.391373" lon="11.5784452"><ele>259.0</ele><time>2026-04-05T14:44:44.269Z</time></trkpt><trkpt lat="43.3914552" lon="11.5786687"><ele>260.0</ele><time>2026-04-05T14:44:45.26Z</time></trkpt><trkpt lat="43.39154" lon="11.5789035"><ele>261.0</ele><time>2026-04-05T14:44:46.271Z</time></trkpt><trkpt lat="43.3916248" lon="11.5791497"><ele>262.0</ele><time>2026-04-05T14:44:47.268Z</time></trkpt><trkpt lat="43.3917002" lon="11.5794133"><ele>260.66666666666663</ele><time>2026-04-05T14:44:48.268Z</time></trkpt><trkpt lat="43.391766" lon="11.5796818"><ele>259.3333333333333</ele><time>2026-04-05T14:44:49.26Z</time></trkpt><trkpt lat="43.3918266" lon="11.5799412"><ele>258.0</ele><time>2026-04-05T14:44:50.259Z</time></trkpt><trkpt lat="43.3918927" lon="11.5801947"><ele>258.0</ele><time>2026-04-05T14:44:51.263Z</time></trkpt><trkpt lat="43.3919633" lon="11.5804481"><ele>258.0</ele><time>2026-04-05T14:44:52.266Z</time></trkpt><trkpt lat="43.3920341" lon="11.580702"><ele>258.0</ele><time>2026-04-05T14:44:53.252Z</time></trkpt><trkpt lat="43.3921016" lon="11.5809561"><ele>258.0</ele><time>2026-04-05T14:44:54.257Z</time></trkpt><trkpt lat="43.3921711" lon="11.5812109"><ele>258.0</ele><time>2026-04-05T14:44:55.275Z</time></trkpt><trkpt lat="43.3922388" lon="11.5814623"><ele>258.0</ele><time>2026-04-05T14:44:56.26Z</time></trkpt><trkpt lat="43.3923032" lon="11.5817011"><ele>259.3333333333333</ele><time>2026-04-05T14:44:57.258Z</time></trkpt><trkpt lat="43.3923655" lon="11.5819324"><ele>260.66666666666663</ele><time>2026-04-05T14:44:58.272Z</time></trkpt><trkpt lat="43.3924303" lon="11.5821679"><ele>262.0</ele><time>2026-04-05T14:44:59.271Z</time></trkpt><trkpt lat="43.3924912" lon="11.5823906"><ele>262.0</ele><time>2026-04-05T14:45:00.264Z</time></trkpt><trkpt lat="43.3925495" lon="11.5826033"><ele>262.0</ele><time>2026-04-05T14:45:01.262Z</time></trkpt><trkpt lat="43.3926029" lon="11.5827985"><ele>262.0</ele><time>2026-04-05T14:45:02.253Z</time></trkpt><trkpt lat="43.392646" lon="11.5829822"><ele>262.5</ele><time>2026-04-05T14:45:03.262Z</time></trkpt><trkpt lat="43.3926694" lon="11.5831655"><ele>263.0</ele><time>2026-04-05T14:45:04.262Z</time></trkpt><trkpt lat="43.3926727" lon="11.5833613"><ele>263.5</ele><time>2026-04-05T14:45:05.261Z</time></trkpt><trkpt lat="43.392656" lon="11.583566"><ele>264.0</ele><time>2026-04-05T14:45:06.266Z</time></trkpt><trkpt lat="43.3926151" lon="11.5837676"><ele>264.3333333333333</ele><time>2026-04-05T14:45:07.265Z</time></trkpt><trkpt lat="43.3925575" lon="11.5839675"><ele>264.66666666666663</ele><time>2026-04-05T14:45:08.265Z</time></trkpt><trkpt lat="43.3924948" lon="11.5841677"><ele>265.0</ele><time>2026-04-05T14:45:09.255Z</time></trkpt><trkpt lat="43.3924423" lon="11.5843683"><ele>266.0</ele><time>2026-04-05T14:45:10.273Z</time></trkpt><trkpt lat="43.3924029" lon="11.5845665"><ele>267.0</ele><time>2026-04-05T14:45:11.271Z</time></trkpt><trkpt lat="43.3923769" lon="11.584774"><ele>268.0</ele><time>2026-04-05T14:45:12.261Z</time></trkpt><trkpt lat="43.3923672" lon="11.5849817"><ele>268.0</ele><time>2026-04-05T14:45:13.262Z</time></trkpt><trkpt lat="43.3923706" lon="11.585188"><ele>268.0</ele><time>2026-04-05T14:45:14.262Z</time></trkpt><trkpt lat="43.3923925" lon="11.5854"><ele>268.0</ele><time>2026-04-05T14:45:15.264Z</time></trkpt><trkpt lat="43.3924422" lon="11.5856138"><ele>266.3333333333333</ele><time>2026-04-05T14:45:16.265Z</time></trkpt><trkpt lat="43.3925143" lon="11.5858243"><ele>264.6666666666667</ele><time>2026-04-05T14:45:17.264Z</time></trkpt><trkpt lat="43.3926092" lon="11.5860316"><ele>263.0</ele><time>2026-04-05T14:45:18.261Z</time></trkpt><trkpt lat="43.3927238" lon="11.5862277"><ele>264.0</ele><time>2026-04-05T14:45:19.262Z</time></trkpt><trkpt lat="43.3928573" lon="11.586411"><ele>265.0</ele><time>2026-04-05T14:45:20.26Z</time></trkpt><trkpt lat="43.3930089" lon="11.5865907"><ele>266.0</ele><time>2026-04-05T14:45:21.263Z</time></trkpt><trkpt lat="43.3931681" lon="11.5867733"><ele>266.0</ele><time>2026-04-05T14:45:22.266Z</time></trkpt><trkpt lat="43.3933331" lon="11.5869562"><ele>266.0</ele><time>2026-04-05T14:45:23.262Z</time></trkpt><trkpt lat="43.3935036" lon="11.5871489"><ele>266.0</ele><time>2026-04-05T14:45:24.254Z</time></trkpt><trkpt lat="43.3936752" lon="11.5873412"><ele>264.33333333333337</ele><time>2026-04-05T14:45:25.257Z</time></trkpt><trkpt lat="43.3938362" lon="11.5875199"><ele>262.6666666666667</ele><time>2026-04-05T14:45:26.264Z</time></trkpt><trkpt lat="43.3939881" lon="11.5876883"><ele>261.0</ele><time>2026-04-05T14:45:27.261Z</time></trkpt><trkpt lat="43.3941251" lon="11.5878421"><ele>260.0</ele><time>2026-04-05T14:45:28.27Z</time></trkpt><trkpt lat="43.3942475" lon="11.5879984"><ele>259.0</ele><time>2026-04-05T14:45:29.257Z</time></trkpt><trkpt lat="43.3943559" lon="11.5881675"><ele>258.0</ele><time>2026-04-05T14:45:30.264Z</time></trkpt><trkpt lat="43.3944505" lon="11.5883628"><ele>258.0</ele><time>2026-04-05T14:45:31.264Z</time></trkpt><trkpt lat="43.394538" lon="11.588577"><ele>258.0</ele><time>2026-04-05T14:45:32.261Z</time></trkpt><trkpt lat="43.3946256" lon="11.5888039"><ele>258.0</ele><time>2026-04-05T14:45:33.27Z</time></trkpt><trkpt lat="43.3947171" lon="11.5890426"><ele>257.3333333333333</ele><time>2026-04-05T14:45:34.28Z</time></trkpt><trkpt lat="43.3948134" lon="11.5892891"><ele>256.66666666666663</ele><time>2026-04-05T14:45:35.263Z</time></trkpt><trkpt lat="43.3949102" lon="11.5895458"><ele>256.0</ele><time>2026-04-05T14:45:36.265Z</time></trkpt><trkpt lat="43.3950062" lon="11.5898094"><ele>255.66666666666666</ele><time>2026-04-05T14:45:37.271Z</time></trkpt><trkpt lat="43.3951002" lon="11.59006"><ele>255.33333333333331</ele><time>2026-04-05T14:45:38.273Z</time></trkpt><trkpt lat="43.3951907" lon="11.5902951"><ele>255.0</ele><time>2026-04-05T14:45:39.267Z</time></trkpt><trkpt lat="43.3952803" lon="11.5905148"><ele>255.66666666666669</ele><time>2026-04-05T14:45:40.255Z</time></trkpt><trkpt lat="43.3953787" lon="11.5907178"><ele>256.33333333333337</ele><time>2026-04-05T14:45:41.266Z</time></trkpt><trkpt lat="43.3954939" lon="11.5909153"><ele>257.0</ele><time>2026-04-05T14:45:42.265Z</time></trkpt><trkpt lat="43.3956223" lon="11.5910931"><ele>257.33333333333337</ele><time>2026-04-05T14:45:43.261Z</time></trkpt><trkpt lat="43.3957571" lon="11.5912383"><ele>257.6666666666667</ele><time>2026-04-05T14:45:44.259Z</time></trkpt><trkpt lat="43.395906" lon="11.5913641"><ele>258.0</ele><time>2026-04-05T14:45:45.262Z</time></trkpt><trkpt lat="43.3960671" lon="11.5914719"><ele>258.0</ele><time>2026-04-05T14:45:46.265Z</time></trkpt><trkpt lat="43.3962405" lon="11.5915591"><ele>258.0</ele><time>2026-04-05T14:45:47.262Z</time></trkpt><trkpt lat="43.3964233" lon="11.5916328"><ele>258.0</ele><time>2026-04-05T14:45:48.259Z</time></trkpt><trkpt lat="43.3966125" lon="11.5917053"><ele>259.3333333333333</ele><time>2026-04-05T14:45:49.269Z</time></trkpt><trkpt lat="43.3968052" lon="11.5917761"><ele>260.66666666666663</ele><time>2026-04-05T14:45:50.258Z</time></trkpt><trkpt lat="43.3969963" lon="11.591838"><ele>262.0</ele><time>2026-04-05T14:45:51.273Z</time></trkpt><trkpt lat="43.3971862" lon="11.5919003"><ele>262.66666666666663</ele><time>2026-04-05T14:45:52.259Z</time></trkpt><trkpt lat="43.3973763" lon="11.5919644"><ele>263.3333333333333</ele><time>2026-04-05T14:45:53.266Z</time></trkpt><trkpt lat="43.3975656" lon="11.5920359"><ele>264.0</ele><time>2026-04-05T14:45:54.27Z</time></trkpt><trkpt lat="43.3977597" lon="11.5921045"><ele>262.6666666666667</ele><time>2026-04-05T14:45:55.265Z</time></trkpt><trkpt lat="43.3979591" lon="11.5921719"><ele>261.33333333333337</ele><time>2026-04-05T14:45:56.258Z</time></trkpt><trkpt lat="43.3981557" lon="11.5922417"><ele>260.0</ele><time>2026-04-05T14:45:57.262Z</time></trkpt><trkpt lat="43.3983485" lon="11.5923133"><ele>259.6666666666667</ele><time>2026-04-05T14:45:58.264Z</time></trkpt><trkpt lat="43.39854" lon="11.5923799"><ele>259.3333333333333</ele><time>2026-04-05T14:45:59.267Z</time></trkpt><trkpt lat="43.3987357" lon="11.592442"><ele>259.0</ele><time>2026-04-05T14:46:00.255Z</time></trkpt><trkpt lat="43.3989358" lon="11.5925061"><ele>258.0</ele><time>2026-04-05T14:46:01.25Z</time></trkpt><trkpt lat="43.3991274" lon="11.5925724"><ele>257.0</ele><time>2026-04-05T14:46:02.273Z</time></trkpt><trkpt lat="43.3993037" lon="11.5926348"><ele>256.0</ele><time>2026-04-05T14:46:03.256Z</time></trkpt><trkpt lat="43.3994655" lon="11.5926943"><ele>256.0</ele><time>2026-04-05T14:46:04.263Z</time></trkpt><trkpt lat="43.3996176" lon="11.5927474"><ele>256.0</ele><time>2026-04-05T14:46:05.264Z</time></trkpt><trkpt lat="43.3997644" lon="11.5927982"><ele>256.0</ele><time>2026-04-05T14:46:06.269Z</time></trkpt><trkpt lat="43.3999115" lon="11.5928442"><ele>255.33333333333331</ele><time>2026-04-05T14:46:07.28Z</time></trkpt><trkpt lat="43.4000638" lon="11.5928957"><ele>254.66666666666669</ele><time>2026-04-05T14:46:08.261Z</time></trkpt><trkpt lat="43.4002137" lon="11.5929501"><ele>254.0</ele><time>2026-04-05T14:46:09.268Z</time></trkpt><trkpt lat="43.4003531" lon="11.5930017"><ele>254.0</ele><time>2026-04-05T14:46:10.278Z</time></trkpt><trkpt lat="43.4004878" lon="11.593049"><ele>254.0</ele><time>2026-04-05T14:46:11.267Z</time></trkpt><trkpt lat="43.4006157" lon="11.5930928"><ele>254.0</ele><time>2026-04-05T14:46:12.268Z</time></trkpt><trkpt lat="43.4007334" lon="11.5931478"><ele>254.0</ele><time>2026-04-05T14:46:13.265Z</time></trkpt><trkpt lat="43.400839" lon="11.5932167"><ele>254.0</ele><time>2026-04-05T14:46:14.261Z</time></trkpt><trkpt lat="43.4009351" lon="11.5932785"><ele>254.0</ele><time>2026-04-05T14:46:15.272Z</time></trkpt><trkpt lat="43.401039" lon="11.5933168"><ele>254.0</ele><time>2026-04-05T14:46:16.27Z</time></trkpt><trkpt lat="43.401154" lon="11.5933304"><ele>254.0</ele><time>2026-04-05T14:46:17.264Z</time></trkpt><trkpt lat="43.4012808" lon="11.5933467"><ele>254.66666666666669</ele><time>2026-04-05T14:46:18.261Z</time></trkpt><trkpt lat="43.4014203" lon="11.5933799"><ele>255.33333333333331</ele><time>2026-04-05T14:46:19.265Z</time></trkpt><trkpt lat="43.401574" lon="11.593429"><ele>256.0</ele><time>2026-04-05T14:46:20.274Z</time></trkpt><trkpt lat="43.4017449" lon="11.5934877"><ele>256.0</ele><time>2026-04-05T14:46:21.267Z</time></trkpt><trkpt lat="43.4019347" lon="11.5935519"><ele>256.0</ele><time>2026-04-05T14:46:22.273Z</time></trkpt><trkpt lat="43.4021384" lon="11.5936209"><ele>256.0</ele><time>2026-04-05T14:46:23.273Z</time></trkpt><trkpt lat="43.402341" lon="11.5936875"><ele>254.0</ele><time>2026-04-05T14:46:24.259Z</time></trkpt><trkpt lat="43.4025339" lon="11.5937563"><ele>252.0</ele><time>2026-04-05T14:46:25.257Z</time></trkpt><trkpt lat="43.4027266" lon="11.5938261"><ele>250.0</ele><time>2026-04-05T14:46:26.263Z</time></trkpt><trkpt lat="43.4029117" lon="11.5938904"><ele>249.66666666666666</ele><time>2026-04-05T14:46:27.27Z</time></trkpt><trkpt lat="43.4030924" lon="11.5939529"><ele>249.33333333333331</ele><time>2026-04-05T14:46:28.263Z</time></trkpt><trkpt lat="43.4032752" lon="11.5940169"><ele>249.0</ele><time>2026-04-05T14:46:29.275Z</time></trkpt><trkpt lat="43.4034586" lon="11.5940828"><ele>249.0</ele><time>2026-04-05T14:46:30.267Z</time></trkpt><trkpt lat="43.4036452" lon="11.5941473"><ele>249.0</ele><time>2026-04-05T14:46:31.256Z</time></trkpt><trkpt lat="43.403835" lon="11.5942089"><ele>249.0</ele><time>2026-04-05T14:46:32.257Z</time></trkpt><trkpt lat="43.4040266" lon="11.5942722"><ele>249.0</ele><time>2026-04-05T14:46:33.255Z</time></trkpt><trkpt lat="43.40422" lon="11.5943399"><ele>249.0</ele><time>2026-04-05T14:46:34.271Z</time></trkpt><trkpt lat="43.4044138" lon="11.5944083"><ele>249.0</ele><time>2026-04-05T14:46:35.265Z</time></trkpt><trkpt lat="43.4046077" lon="11.5944785"><ele>248.66666666666669</ele><time>2026-04-05T14:46:36.269Z</time></trkpt><trkpt lat="43.4048062" lon="11.5945443"><ele>248.33333333333334</ele><time>2026-04-05T14:46:37.273Z</time></trkpt><trkpt lat="43.4050042" lon="11.5946104"><ele>248.0</ele><time>2026-04-05T14:46:38.263Z</time></trkpt><trkpt lat="43.4051969" lon="11.5946762"><ele>248.0</ele><time>2026-04-05T14:46:39.26Z</time></trkpt><trkpt lat="43.4053878" lon="11.5947425"><ele>248.0</ele><time>2026-04-05T14:46:40.253Z</time></trkpt><trkpt lat="43.4055778" lon="11.5948095"><ele>248.0</ele><time>2026-04-05T14:46:41.256Z</time></trkpt><trkpt lat="43.4057679" lon="11.5948777"><ele>249.0</ele><time>2026-04-05T14:46:42.266Z</time></trkpt><trkpt lat="43.4059583" lon="11.5949455"><ele>250.0</ele><time>2026-04-05T14:46:43.264Z</time></trkpt><trkpt lat="43.4061498" lon="11.5950117"><ele>251.0</ele><time>2026-04-05T14:46:44.267Z</time></trkpt><trkpt lat="43.4063432" lon="11.5950776"><ele>251.33333333333334</ele><time>2026-04-05T14:46:45.263Z</time></trkpt><trkpt lat="43.406536" lon="11.5951455"><ele>251.66666666666669</ele><time>2026-04-05T14:46:46.265Z</time></trkpt><trkpt lat="43.4067221" lon="11.5952134"><ele>252.0</ele><time>2026-04-05T14:46:47.267Z</time></trkpt><trkpt lat="43.4068978" lon="11.5952749"><ele>252.0</ele><time>2026-04-05T14:46:48.276Z</time></trkpt><trkpt lat="43.407065" lon="11.5953298"><ele>252.0</ele><time>2026-04-05T14:46:49.27Z</time></trkpt><trkpt lat="43.4072224" lon="11.5953865"><ele>252.0</ele><time>2026-04-05T14:46:50.262Z</time></trkpt><trkpt lat="43.4073692" lon="11.5954609"><ele>252.0</ele><time>2026-04-05T14:46:51.268Z</time></trkpt><trkpt lat="43.4075103" lon="11.5955572"><ele>252.0</ele><time>2026-04-05T14:46:52.265Z</time></trkpt><trkpt lat="43.4076499" lon="11.5956717"><ele>252.0</ele><time>2026-04-05T14:46:53.255Z</time></trkpt><trkpt lat="43.407788" lon="11.5958022"><ele>252.0</ele><time>2026-04-05T14:46:54.272Z</time></trkpt><trkpt lat="43.407924" lon="11.5959503"><ele>252.0</ele><time>2026-04-05T14:46:55.254Z</time></trkpt><trkpt lat="43.4080546" lon="11.5961106"><ele>252.0</ele><time>2026-04-05T14:46:56.264Z</time></trkpt><trkpt lat="43.4081748" lon="11.5962745"><ele>252.0</ele><time>2026-04-05T14:46:57.268Z</time></trkpt><trkpt lat="43.4082917" lon="11.5964407"><ele>252.0</ele><time>2026-04-05T14:46:58.262Z</time></trkpt><trkpt lat="43.4084117" lon="11.5966095"><ele>252.0</ele><time>2026-04-05T14:46:59.272Z</time></trkpt><trkpt lat="43.4085368" lon="11.5967796"><ele>252.0</ele><time>2026-04-05T14:47:00.26Z</time></trkpt><trkpt lat="43.4086608" lon="11.5969552"><ele>252.0</ele><time>2026-04-05T14:47:01.269Z</time></trkpt><trkpt lat="43.4087777" lon="11.5971252"><ele>252.0</ele><time>2026-04-05T14:47:02.276Z</time></trkpt><trkpt lat="43.4088924" lon="11.5972876"><ele>251.66666666666669</ele><time>2026-04-05T14:47:03.265Z</time></trkpt><trkpt lat="43.4090077" lon="11.5974351"><ele>251.33333333333334</ele><time>2026-04-05T14:47:04.263Z</time></trkpt><trkpt lat="43.4091276" lon="11.5975681"><ele>251.0</ele><time>2026-04-05T14:47:05.258Z</time></trkpt><trkpt lat="43.4092587" lon="11.5976962"><ele>251.0</ele><time>2026-04-05T14:47:06.269Z</time></trkpt><trkpt lat="43.4093973" lon="11.5978233"><ele>251.0</ele><time>2026-04-05T14:47:07.266Z</time></trkpt><trkpt lat="43.4095412" lon="11.5979513"><ele>251.0</ele><time>2026-04-05T14:47:08.261Z</time></trkpt><trkpt lat="43.4096794" lon="11.5980751"><ele>250.33333333333334</ele><time>2026-04-05T14:47:09.258Z</time></trkpt><trkpt lat="43.4098125" lon="11.5981966"><ele>249.66666666666669</ele><time>2026-04-05T14:47:10.264Z</time></trkpt><trkpt lat="43.4099459" lon="11.5983189"><ele>249.0</ele><time>2026-04-05T14:47:11.257Z</time></trkpt><trkpt lat="43.4100835" lon="11.5984372"><ele>249.0</ele><time>2026-04-05T14:47:12.267Z</time></trkpt><trkpt lat="43.4102214" lon="11.5985561"><ele>249.0</ele><time>2026-04-05T14:47:13.262Z</time></trkpt><trkpt lat="43.4103557" lon="11.5986727"><ele>249.0</ele><time>2026-04-05T14:47:14.273Z</time></trkpt><trkpt lat="43.4104837" lon="11.5987834"><ele>249.25</ele><time>2026-04-05T14:47:15.278Z</time></trkpt><trkpt lat="43.4106049" lon="11.5988877"><ele>249.5</ele><time>2026-04-05T14:47:16.259Z</time></trkpt><trkpt lat="43.4107193" lon="11.598989"><ele>249.75</ele><time>2026-04-05T14:47:17.272Z</time></trkpt><trkpt lat="43.4108293" lon="11.599086"><ele>250.0</ele><time>2026-04-05T14:47:18.269Z</time></trkpt><trkpt lat="43.4109401" lon="11.5991792"><ele>250.0</ele><time>2026-04-05T14:47:19.27Z</time></trkpt><trkpt lat="43.4110546" lon="11.5992754"><ele>250.0</ele><time>2026-04-05T14:47:20.255Z</time></trkpt><trkpt lat="43.4111723" lon="11.5993809"><ele>250.0</ele><time>2026-04-05T14:47:21.264Z</time></trkpt><trkpt lat="43.4112936" lon="11.5994912"><ele>250.0</ele><time>2026-04-05T14:47:22.265Z</time></trkpt><trkpt lat="43.4114211" lon="11.5996027"><ele>249.25</ele><time>2026-04-05T14:47:23.266Z</time></trkpt><trkpt lat="43.4115495" lon="11.5997134"><ele>248.5</ele><time>2026-04-05T14:47:24.268Z</time></trkpt><trkpt lat="43.4116699" lon="11.5998161"><ele>247.75</ele><time>2026-04-05T14:47:25.268Z</time></trkpt><trkpt lat="43.411783" lon="11.5999125"><ele>247.0</ele><time>2026-04-05T14:47:26.256Z</time></trkpt><trkpt lat="43.4118907" lon="11.6000112"><ele>247.0</ele><time>2026-04-05T14:47:27.262Z</time></trkpt><trkpt lat="43.4120025" lon="11.6001135"><ele>247.0</ele><time>2026-04-05T14:47:28.255Z</time></trkpt><trkpt lat="43.4121234" lon="11.6002157"><ele>247.0</ele><time>2026-04-05T14:47:29.273Z</time></trkpt><trkpt lat="43.4122513" lon="11.6003265"><ele>247.0</ele><time>2026-04-05T14:47:30.26Z</time></trkpt><trkpt lat="43.4123852" lon="11.6004442"><ele>247.0</ele><time>2026-04-05T14:47:31.26Z</time></trkpt><trkpt lat="43.4125189" lon="11.6005653"><ele>247.0</ele><time>2026-04-05T14:47:32.271Z</time></trkpt><trkpt lat="43.4126469" lon="11.6006763"><ele>247.0</ele><time>2026-04-05T14:47:33.262Z</time></trkpt><trkpt lat="43.4127781" lon="11.6007889"><ele>247.0</ele><time>2026-04-05T14:47:34.275Z</time></trkpt><trkpt lat="43.4129114" lon="11.6009076"><ele>247.0</ele><time>2026-04-05T14:47:35.265Z</time></trkpt><trkpt lat="43.4130495" lon="11.6010284"><ele>247.0</ele><time>2026-04-05T14:47:36.255Z</time></trkpt><trkpt lat="43.4131915" lon="11.6011465"><ele>247.66666666666666</ele><time>2026-04-05T14:47:37.274Z</time></trkpt><trkpt lat="43.4133268" lon="11.6012626"><ele>248.33333333333331</ele><time>2026-04-05T14:47:38.269Z</time></trkpt><trkpt lat="43.4134569" lon="11.6013798"><ele>249.0</ele><time>2026-04-05T14:47:39.268Z</time></trkpt><trkpt lat="43.4135899" lon="11.6014919"><ele>249.0</ele><time>2026-04-05T14:47:40.262Z</time></trkpt><trkpt lat="43.4137255" lon="11.6016031"><ele>249.0</ele><time>2026-04-05T14:47:41.269Z</time></trkpt><trkpt lat="43.4138551" lon="11.6017138"><ele>249.0</ele><time>2026-04-05T14:47:42.262Z</time></trkpt><trkpt lat="43.4139771" lon="11.6018226"><ele>249.0</ele><time>2026-04-05T14:47:43.269Z</time></trkpt><trkpt lat="43.4140915" lon="11.6019251"><ele>249.0</ele><time>2026-04-05T14:47:44.268Z</time></trkpt><trkpt lat="43.4141973" lon="11.6020275"><ele>249.0</ele><time>2026-04-05T14:47:45.255Z</time></trkpt><trkpt lat="43.4142936" lon="11.6021337"><ele>249.0</ele><time>2026-04-05T14:47:46.265Z</time></trkpt><trkpt lat="43.4143892" lon="11.602248"><ele>249.0</ele><time>2026-04-05T14:47:47.265Z</time></trkpt><trkpt lat="43.414484" lon="11.6023732"><ele>249.0</ele><time>2026-04-05T14:47:48.266Z</time></trkpt><trkpt lat="43.4145777" lon="11.6024992"><ele>249.0</ele><time>2026-04-05T14:47:49.264Z</time></trkpt><trkpt lat="43.4146699" lon="11.602618"><ele>249.0</ele><time>2026-04-05T14:47:50.276Z</time></trkpt><trkpt lat="43.4147626" lon="11.6027452"><ele>249.5</ele><time>2026-04-05T14:47:51.272Z</time></trkpt><trkpt lat="43.414844" lon="11.6028888"><ele>250.0</ele><time>2026-04-05T14:47:52.255Z</time></trkpt><trkpt lat="43.4149094" lon="11.6030557"><ele>250.5</ele><time>2026-04-05T14:47:53.279Z</time></trkpt><trkpt lat="43.4149619" lon="11.6032344"><ele>251.0</ele><time>2026-04-05T14:47:54.261Z</time></trkpt><trkpt lat="43.4150067" lon="11.6034279"><ele>251.0</ele><time>2026-04-05T14:47:55.26Z</time></trkpt><trkpt lat="43.4150398" lon="11.6036288"><ele>251.0</ele><time>2026-04-05T14:47:56.258Z</time></trkpt><trkpt lat="43.4150613" lon="11.6038391"><ele>251.0</ele><time>2026-04-05T14:47:57.27Z</time></trkpt><trkpt lat="43.4150763" lon="11.6040476"><ele>249.75</ele><time>2026-04-05T14:47:58.267Z</time></trkpt><trkpt lat="43.4150904" lon="11.604245"><ele>248.5</ele><time>2026-04-05T14:47:59.261Z</time></trkpt><trkpt lat="43.4151085" lon="11.604439"><ele>247.25</ele><time>2026-04-05T14:48:00.255Z</time></trkpt><trkpt lat="43.4151156" lon="11.6046354"><ele>246.0</ele><time>2026-04-05T14:48:01.256Z</time></trkpt><trkpt lat="43.4151226" lon="11.6048368"><ele>245.5</ele><time>2026-04-05T14:48:02.258Z</time></trkpt><trkpt lat="43.4151326" lon="11.6050342"><ele>245.0</ele><time>2026-04-05T14:48:03.259Z</time></trkpt><trkpt lat="43.415143" lon="11.6052201"><ele>244.5</ele><time>2026-04-05T14:48:04.264Z</time></trkpt><trkpt lat="43.4151615" lon="11.6053958"><ele>244.0</ele><time>2026-04-05T14:48:05.26Z</time></trkpt><trkpt lat="43.4151939" lon="11.6055604"><ele>243.75</ele><time>2026-04-05T14:48:06.263Z</time></trkpt><trkpt lat="43.4152445" lon="11.6057184"><ele>243.5</ele><time>2026-04-05T14:48:07.254Z</time></trkpt><trkpt lat="43.4153178" lon="11.6058714"><ele>243.25</ele><time>2026-04-05T14:48:08.264Z</time></trkpt><trkpt lat="43.4154174" lon="11.6060179"><ele>243.0</ele><time>2026-04-05T14:48:09.268Z</time></trkpt><trkpt lat="43.4155319" lon="11.6061626"><ele>243.66666666666669</ele><time>2026-04-05T14:48:10.271Z</time></trkpt><trkpt lat="43.4156514" lon="11.6063172"><ele>244.33333333333334</ele><time>2026-04-05T14:48:11.257Z</time></trkpt><trkpt lat="43.4157707" lon="11.6064714"><ele>245.0</ele><time>2026-04-05T14:48:12.255Z</time></trkpt><trkpt lat="43.415891" lon="11.606619"><ele>245.0</ele><time>2026-04-05T14:48:13.267Z</time></trkpt><trkpt lat="43.416004" lon="11.6067588"><ele>245.0</ele><time>2026-04-05T14:48:14.253Z</time></trkpt><trkpt lat="43.4161102" lon="11.6068956"><ele>245.0</ele><time>2026-04-05T14:48:15.273Z</time></trkpt><trkpt lat="43.4162107" lon="11.6070292"><ele>245.0</ele><time>2026-04-05T14:48:16.27Z</time></trkpt><trkpt lat="43.416314" lon="11.6071613"><ele>245.0</ele><time>2026-04-05T14:48:17.261Z</time></trkpt><trkpt lat="43.4164131" lon="11.6072876"><ele>245.0</ele><time>2026-04-05T14:48:18.268Z</time></trkpt><trkpt lat="43.4165132" lon="11.6074074"><ele>245.0</ele><time>2026-04-05T14:48:19.264Z</time></trkpt><trkpt lat="43.4166199" lon="11.6075335"><ele>245.0</ele><time>2026-04-05T14:48:20.266Z</time></trkpt><trkpt lat="43.4167263" lon="11.607674"><ele>245.0</ele><time>2026-04-05T14:48:21.264Z</time></trkpt><trkpt lat="43.4168389" lon="11.6078184"><ele>245.0</ele><time>2026-04-05T14:48:22.269Z</time></trkpt><trkpt lat="43.4169525" lon="11.6079595"><ele>245.0</ele><time>2026-04-05T14:48:23.265Z</time></trkpt><trkpt lat="43.4170591" lon="11.6080882"><ele>245.0</ele><time>2026-04-05T14:48:24.271Z</time></trkpt><trkpt lat="43.4171716" lon="11.6081954"><ele>245.75</ele><time>2026-04-05T14:48:25.262Z</time></trkpt><trkpt lat="43.4172996" lon="11.6082817"><ele>246.5</ele><time>2026-04-05T14:48:26.257Z</time></trkpt><trkpt lat="43.4174378" lon="11.608362"><ele>247.25</ele><time>2026-04-05T14:48:27.264Z</time></trkpt><trkpt lat="43.4175678" lon="11.6084391"><ele>248.0</ele><time>2026-04-05T14:48:28.265Z</time></trkpt><trkpt lat="43.4176895" lon="11.608513"><ele>248.0</ele><time>2026-04-05T14:48:29.269Z</time></trkpt><trkpt lat="43.417805" lon="11.6085824"><ele>248.0</ele><time>2026-04-05T14:48:30.275Z</time></trkpt><trkpt lat="43.4179232" lon="11.6086448"><ele>248.0</ele><time>2026-04-05T14:48:31.27Z</time></trkpt><trkpt lat="43.4180469" lon="11.6087153"><ele>248.0</ele><time>2026-04-05T14:48:32.273Z</time></trkpt><trkpt lat="43.4181742" lon="11.6087973"><ele>249.0</ele><time>2026-04-05T14:48:33.27Z</time></trkpt><trkpt lat="43.4183051" lon="11.6088921"><ele>250.0</ele><time>2026-04-05T14:48:34.263Z</time></trkpt><trkpt lat="43.4184369" lon="11.6090074"><ele>251.0</ele><time>2026-04-05T14:48:35.247Z</time></trkpt><trkpt lat="43.4185677" lon="11.609139"><ele>251.0</ele><time>2026-04-05T14:48:36.268Z</time></trkpt><trkpt lat="43.4186926" lon="11.6092706"><ele>251.0</ele><time>2026-04-05T14:48:37.263Z</time></trkpt><trkpt lat="43.4188123" lon="11.6093936"><ele>251.0</ele><time>2026-04-05T14:48:38.272Z</time></trkpt><trkpt lat="43.4189352" lon="11.6095179"><ele>250.0</ele><time>2026-04-05T14:48:39.276Z</time></trkpt><trkpt lat="43.4190609" lon="11.6096456"><ele>249.0</ele><time>2026-04-05T14:48:40.26Z</time></trkpt><trkpt lat="43.4191847" lon="11.6097814"><ele>248.0</ele><time>2026-04-05T14:48:41.265Z</time></trkpt><trkpt lat="43.4193126" lon="11.6099157"><ele>248.0</ele><time>2026-04-05T14:48:42.259Z</time></trkpt><trkpt lat="43.4194442" lon="11.6100479"><ele>248.0</ele><time>2026-04-05T14:48:43.269Z</time></trkpt><trkpt lat="43.4195729" lon="11.6101831"><ele>248.0</ele><time>2026-04-05T14:48:44.264Z</time></trkpt><trkpt lat="43.4196993" lon="11.6103216"><ele>247.0</ele><time>2026-04-05T14:48:45.262Z</time></trkpt><trkpt lat="43.4198259" lon="11.6104557"><ele>246.0</ele><time>2026-04-05T14:48:46.266Z</time></trkpt><trkpt lat="43.4199544" lon="11.6105888"><ele>245.0</ele><time>2026-04-05T14:48:47.251Z</time></trkpt><trkpt lat="43.4200855" lon="11.6107213"><ele>245.0</ele><time>2026-04-05T14:48:48.265Z</time></trkpt><trkpt lat="43.4202165" lon="11.6108544"><ele>245.0</ele><time>2026-04-05T14:48:49.26Z</time></trkpt><trkpt lat="43.4203475" lon="11.6109911"><ele>245.0</ele><time>2026-04-05T14:48:50.261Z</time></trkpt><trkpt lat="43.420476" lon="11.6111261"><ele>244.66666666666669</ele><time>2026-04-05T14:48:51.278Z</time></trkpt><trkpt lat="43.4206018" lon="11.6112586"><ele>244.33333333333331</ele><time>2026-04-05T14:48:52.255Z</time></trkpt><trkpt lat="43.4207274" lon="11.611382"><ele>244.0</ele><time>2026-04-05T14:48:53.265Z</time></trkpt><trkpt lat="43.4208487" lon="11.6115087"><ele>244.0</ele><time>2026-04-05T14:48:54.254Z</time></trkpt><trkpt lat="43.4209718" lon="11.6116366"><ele>244.0</ele><time>2026-04-05T14:48:55.27Z</time></trkpt><trkpt lat="43.4210947" lon="11.6117648"><ele>244.0</ele><time>2026-04-05T14:48:56.262Z</time></trkpt><trkpt lat="43.4212195" lon="11.6118911"><ele>243.33333333333331</ele><time>2026-04-05T14:48:57.267Z</time></trkpt><trkpt lat="43.4213442" lon="11.6120187"><ele>242.66666666666669</ele><time>2026-04-05T14:48:58.26Z</time></trkpt><trkpt lat="43.421464" lon="11.6121469"><ele>242.0</ele><time>2026-04-05T14:48:59.261Z</time></trkpt><trkpt lat="43.4215849" lon="11.6122724"><ele>242.0</ele><time>2026-04-05T14:49:00.261Z</time></trkpt><trkpt lat="43.4217069" lon="11.612394"><ele>242.0</ele><time>2026-04-05T14:49:01.269Z</time></trkpt><trkpt lat="43.4218305" lon="11.6125182"><ele>242.0</ele><time>2026-04-05T14:49:02.266Z</time></trkpt><trkpt lat="43.4219538" lon="11.612646"><ele>242.0</ele><time>2026-04-05T14:49:03.26Z</time></trkpt><trkpt lat="43.4220771" lon="11.6127763"><ele>242.0</ele><time>2026-04-05T14:49:04.254Z</time></trkpt><trkpt lat="43.4222026" lon="11.6129053"><ele>242.0</ele><time>2026-04-05T14:49:05.267Z</time></trkpt><trkpt lat="43.4223296" lon="11.6130345"><ele>242.33333333333334</ele><time>2026-04-05T14:49:06.266Z</time></trkpt><trkpt lat="43.4224554" lon="11.6131641"><ele>242.66666666666669</ele><time>2026-04-05T14:49:07.268Z</time></trkpt><trkpt lat="43.4225777" lon="11.6132937"><ele>243.0</ele><time>2026-04-05T14:49:08.26Z</time></trkpt><trkpt lat="43.422699" lon="11.6134242"><ele>243.0</ele><time>2026-04-05T14:49:09.27Z</time></trkpt><trkpt lat="43.4228247" lon="11.6135545"><ele>243.0</ele><time>2026-04-05T14:49:10.278Z</time></trkpt><trkpt lat="43.4229498" lon="11.6136833"><ele>243.0</ele><time>2026-04-05T14:49:11.265Z</time></trkpt><trkpt lat="43.4230674" lon="11.6138065"><ele>243.5</ele><time>2026-04-05T14:49:12.26Z</time></trkpt><trkpt lat="43.4231774" lon="11.6139251"><ele>244.0</ele><time>2026-04-05T14:49:13.26Z</time></trkpt><trkpt lat="43.4232797" lon="11.6140352"><ele>244.5</ele><time>2026-04-05T14:49:14.261Z</time></trkpt><trkpt lat="43.4233661" lon="11.6141279"><ele>245.0</ele><time>2026-04-05T14:49:15.268Z</time></trkpt><trkpt lat="43.4234366" lon="11.6141972"><ele>245.00000000000003</ele><time>2026-04-05T14:49:16.264Z</time></trkpt><trkpt lat="43.4234881" lon="11.6142574"><ele>245.0</ele><time>2026-04-05T14:49:17.264Z</time></trkpt><trkpt lat="43.423522" lon="11.6143949"><ele>245.0</ele><time>2026-04-05T14:49:19.259Z</time></trkpt><trkpt lat="43.4235133" lon="11.6144819"><ele>245.0</ele><time>2026-04-05T14:49:20.268Z</time></trkpt><trkpt lat="43.4234993" lon="11.6145872"><ele>245.00000000000003</ele><time>2026-04-05T14:49:21.256Z</time></trkpt><trkpt lat="43.4234933" lon="11.6147134"><ele>245.0</ele><time>2026-04-05T14:49:22.262Z</time></trkpt><trkpt lat="43.4234838" lon="11.6148572"><ele>245.2</ele><time>2026-04-05T14:49:23.269Z</time></trkpt><trkpt lat="43.4234588" lon="11.6150021"><ele>245.4</ele><time>2026-04-05T14:49:24.264Z</time></trkpt><trkpt lat="43.4234268" lon="11.6151471"><ele>245.60000000000002</ele><time>2026-04-05T14:49:25.257Z</time></trkpt><trkpt lat="43.4233965" lon="11.6152815"><ele>245.8</ele><time>2026-04-05T14:49:26.254Z</time></trkpt><trkpt lat="43.4233799" lon="11.6153901"><ele>246.0</ele><time>2026-04-05T14:49:27.271Z</time></trkpt><trkpt lat="43.4233886" lon="11.6154829"><ele>247.60000000000002</ele><time>2026-04-05T14:49:28.256Z</time></trkpt><trkpt lat="43.4234223" lon="11.6155742"><ele>249.20000000000002</ele><time>2026-04-05T14:49:29.27Z</time></trkpt><trkpt lat="43.4234775" lon="11.6156718"><ele>250.79999999999998</ele><time>2026-04-05T14:49:30.269Z</time></trkpt><trkpt lat="43.4235469" lon="11.6157895"><ele>252.39999999999998</ele><time>2026-04-05T14:49:31.274Z</time></trkpt><trkpt lat="43.423626" lon="11.6159234"><ele>254.0</ele><time>2026-04-05T14:49:32.273Z</time></trkpt><trkpt lat="43.4237079" lon="11.6160647"><ele>253.79999999999998</ele><time>2026-04-05T14:49:33.26Z</time></trkpt><trkpt lat="43.4237916" lon="11.61621"><ele>253.59999999999997</ele><time>2026-04-05T14:49:34.268Z</time></trkpt><trkpt lat="43.4238678" lon="11.6163314"><ele>253.4</ele><time>2026-04-05T14:49:35.259Z</time></trkpt><trkpt lat="43.4239384" lon="11.616437"><ele>253.2</ele><time>2026-04-05T14:49:36.271Z</time></trkpt><trkpt lat="43.423987" lon="11.616528"><ele>253.0</ele><time>2026-04-05T14:49:37.264Z</time></trkpt><trkpt lat="43.4240118" lon="11.6166188"><ele>253.0</ele><time>2026-04-05T14:49:38.262Z</time></trkpt><trkpt lat="43.4240222" lon="11.6167195"><ele>253.0</ele><time>2026-04-05T14:49:39.265Z</time></trkpt><trkpt lat="43.4240204" lon="11.6168312"><ele>253.0</ele><time>2026-04-05T14:49:40.274Z</time></trkpt><trkpt lat="43.424017" lon="11.6169582"><ele>253.0</ele><time>2026-04-05T14:49:41.264Z</time></trkpt><trkpt lat="43.4240142" lon="11.6171019"><ele>253.0</ele><time>2026-04-05T14:49:42.268Z</time></trkpt><trkpt lat="43.4240125" lon="11.6172602"><ele>255.25</ele><time>2026-04-05T14:49:43.259Z</time></trkpt><trkpt lat="43.424023" lon="11.6174319"><ele>257.5</ele><time>2026-04-05T14:49:44.272Z</time></trkpt><trkpt lat="43.4240431" lon="11.6176099"><ele>259.75</ele><time>2026-04-05T14:49:45.26Z</time></trkpt><trkpt lat="43.4240608" lon="11.6177847"><ele>262.0</ele><time>2026-04-05T14:49:46.261Z</time></trkpt><trkpt lat="43.424074" lon="11.6179357"><ele>264.0</ele><time>2026-04-05T14:49:47.265Z</time></trkpt><trkpt lat="43.424096" lon="11.618088"><ele>266.0</ele><time>2026-04-05T14:49:48.263Z</time></trkpt><trkpt lat="43.4241371" lon="11.6182349"><ele>268.0</ele><time>2026-04-05T14:49:49.267Z</time></trkpt><trkpt lat="43.4241813" lon="11.6183834"><ele>270.0</ele><time>2026-04-05T14:49:50.265Z</time></trkpt><trkpt lat="43.4242239" lon="11.6185396"><ele>273.25</ele><time>2026-04-05T14:49:51.259Z</time></trkpt><trkpt lat="43.4242685" lon="11.6187036"><ele>276.5</ele><time>2026-04-05T14:49:52.267Z</time></trkpt><trkpt lat="43.4243181" lon="11.6188753"><ele>279.75</ele><time>2026-04-05T14:49:53.265Z</time></trkpt><trkpt lat="43.4243686" lon="11.6190529"><ele>283.0</ele><time>2026-04-05T14:49:54.267Z</time></trkpt><trkpt lat="43.424423" lon="11.6192221"><ele>283.0</ele><time>2026-04-05T14:49:55.262Z</time></trkpt><trkpt lat="43.4244764" lon="11.6193798"><ele>283.0</ele><time>2026-04-05T14:49:56.258Z</time></trkpt><trkpt lat="43.4245306" lon="11.6195354"><ele>283.0</ele><time>2026-04-05T14:49:57.271Z</time></trkpt><trkpt lat="43.4245788" lon="11.6196916"><ele>283.0</ele><time>2026-04-05T14:49:58.265Z</time></trkpt><trkpt lat="43.4246228" lon="11.6198244"><ele>282.8333333333333</ele><time>2026-04-05T14:49:59.264Z</time></trkpt><trkpt lat="43.4246696" lon="11.6199472"><ele>282.66666666666663</ele><time>2026-04-05T14:50:00.257Z</time></trkpt><trkpt lat="43.4247079" lon="11.6200645"><ele>282.5</ele><time>2026-04-05T14:50:01.264Z</time></trkpt><trkpt lat="43.4247392" lon="11.6201734"><ele>282.3333333333333</ele><time>2026-04-05T14:50:02.254Z</time></trkpt><trkpt lat="43.4247641" lon="11.6202772"><ele>282.1666666666667</ele><time>2026-04-05T14:50:03.264Z</time></trkpt><trkpt lat="43.4247804" lon="11.6203813"><ele>282.0</ele><time>2026-04-05T14:50:04.266Z</time></trkpt><trkpt lat="43.424788" lon="11.6204788"><ele>282.0</ele><time>2026-04-05T14:50:05.268Z</time></trkpt><trkpt lat="43.4247825" lon="11.6206012"><ele>282.0</ele><time>2026-04-05T14:50:07.283Z</time></trkpt><trkpt lat="43.4247996" lon="11.6206916"><ele>282.0</ele><time>2026-04-05T14:50:28.26Z</time></trkpt><trkpt lat="43.4248022" lon="11.6207896"><ele>282.0</ele><time>2026-04-05T14:50:30.262Z</time></trkpt><trkpt lat="43.424798" lon="11.6209329"><ele>282.0</ele><time>2026-04-05T14:50:32.269Z</time></trkpt><trkpt lat="43.4247773" lon="11.6210712"><ele>282.0</ele><time>2026-04-05T14:50:34.269Z</time></trkpt><trkpt lat="43.4247489" lon="11.6212077"><ele>280.6</ele><time>2026-04-05T14:50:36.269Z</time></trkpt><trkpt lat="43.4247247" lon="11.6213402"><ele>279.2</ele><time>2026-04-05T14:50:38.268Z</time></trkpt><trkpt lat="43.4247028" lon="11.6214694"><ele>277.8</ele><time>2026-04-05T14:50:40.268Z</time></trkpt><trkpt lat="43.4246794" lon="11.6215984"><ele>276.4</ele><time>2026-04-05T14:50:42.269Z</time></trkpt><trkpt lat="43.4246685" lon="11.6217429"><ele>275.0</ele><time>2026-04-05T14:50:44.27Z</time></trkpt><trkpt lat="43.4246976" lon="11.6219043"><ele>273.6666666666667</ele><time>2026-04-05T14:50:46.276Z</time></trkpt><trkpt lat="43.4247562" lon="11.6220576"><ele>272.33333333333337</ele><time>2026-04-05T14:50:48.262Z</time></trkpt><trkpt lat="43.4247909" lon="11.6221345"><ele>271.0</ele><time>2026-04-05T14:50:49.27Z</time></trkpt><trkpt lat="43.4248281" lon="11.6222107"><ele>269.6666666666667</ele><time>2026-04-05T14:50:50.265Z</time></trkpt><trkpt lat="43.4248697" lon="11.6222876"><ele>268.3333333333333</ele><time>2026-04-05T14:50:51.275Z</time></trkpt><trkpt lat="43.4249171" lon="11.6223574"><ele>267.0</ele><time>2026-04-05T14:50:52.269Z</time></trkpt><trkpt lat="43.4249691" lon="11.6224261"><ele>267.0</ele><time>2026-04-05T14:50:53.271Z</time></trkpt><trkpt lat="43.4250251" lon="11.6224914"><ele>267.0</ele><time>2026-04-05T14:50:54.265Z</time></trkpt><trkpt lat="43.4250844" lon="11.6225467"><ele>267.0</ele><time>2026-04-05T14:50:55.281Z</time></trkpt><trkpt lat="43.4251482" lon="11.6225961"><ele>267.0</ele><time>2026-04-05T14:50:56.255Z</time></trkpt><trkpt lat="43.4252169" lon="11.6226442"><ele>267.0</ele><time>2026-04-05T14:50:57.272Z</time></trkpt><trkpt lat="43.4252918" lon="11.6226946"><ele>267.0</ele><time>2026-04-05T14:50:58.271Z</time></trkpt><trkpt lat="43.4253716" lon="11.622751"><ele>267.0</ele><time>2026-04-05T14:50:59.273Z</time></trkpt><trkpt lat="43.4254468" lon="11.6227962"><ele>267.0</ele><time>2026-04-05T14:51:00.274Z</time></trkpt><trkpt lat="43.4255156" lon="11.6228362"><ele>267.0</ele><time>2026-04-05T14:51:01.266Z</time></trkpt><trkpt lat="43.425585" lon="11.6228765"><ele>267.0</ele><time>2026-04-05T14:51:02.266Z</time></trkpt><trkpt lat="43.4256513" lon="11.6229174"><ele>267.0</ele><time>2026-04-05T14:51:03.271Z</time></trkpt><trkpt lat="43.4257146" lon="11.6229406"><ele>267.0</ele><time>2026-04-05T14:51:04.262Z</time></trkpt><trkpt lat="43.425828" lon="11.6229265"><ele>266.75</ele><time>2026-04-05T14:51:06.272Z</time></trkpt><trkpt lat="43.4259226" lon="11.6228482"><ele>266.5</ele><time>2026-04-05T14:51:08.264Z</time></trkpt><trkpt lat="43.4260057" lon="11.6227282"><ele>266.25</ele><time>2026-04-05T14:51:10.269Z</time></trkpt><trkpt lat="43.4260961" lon="11.6226054"><ele>266.0</ele><time>2026-04-05T14:51:12.255Z</time></trkpt><trkpt lat="43.4261667" lon="11.6224676"><ele>265.5</ele><time>2026-04-05T14:51:14.262Z</time></trkpt><trkpt lat="43.4262221" lon="11.6223268"><ele>265.0</ele><time>2026-04-05T14:51:16.268Z</time></trkpt><trkpt lat="43.4263035" lon="11.6222227"><ele>264.5</ele><time>2026-04-05T14:51:18.26Z</time></trkpt><trkpt lat="43.4263888" lon="11.6221103"><ele>264.0</ele><time>2026-04-05T14:51:20.272Z</time></trkpt><trkpt lat="43.4264692" lon="11.6220063"><ele>262.59999999999997</ele><time>2026-04-05T14:51:22.264Z</time></trkpt><trkpt lat="43.426537" lon="11.6218954"><ele>261.2</ele><time>2026-04-05T14:51:24.261Z</time></trkpt><trkpt lat="43.4266148" lon="11.621774"><ele>259.79999999999995</ele><time>2026-04-05T14:51:26.267Z</time></trkpt><trkpt lat="43.4266959" lon="11.6216774"><ele>258.4</ele><time>2026-04-05T14:51:28.276Z</time></trkpt><trkpt lat="43.4267665" lon="11.6215703"><ele>257.0</ele><time>2026-04-05T14:51:30.265Z</time></trkpt><trkpt lat="43.4268271" lon="11.6214553"><ele>257.0</ele><time>2026-04-05T14:51:32.27Z</time></trkpt><trkpt lat="43.4268807" lon="11.6213685"><ele>257.0</ele><time>2026-04-05T14:51:34.275Z</time></trkpt><trkpt lat="43.4269112" lon="11.6212884"><ele>257.0</ele><time>2026-04-05T14:51:48.265Z</time></trkpt><trkpt lat="43.4269568" lon="11.6212012"><ele>257.0</ele><time>2026-04-05T14:51:50.26Z</time></trkpt><trkpt lat="43.4269988" lon="11.6210887"><ele>257.0</ele><time>2026-04-05T14:51:52.27Z</time></trkpt><trkpt lat="43.4270483" lon="11.6209926"><ele>257.0</ele><time>2026-04-05T14:51:54.26Z</time></trkpt><trkpt lat="43.4271196" lon="11.6209407"><ele>255.2</ele><time>2026-04-05T14:51:56.29Z</time></trkpt><trkpt lat="43.4271981" lon="11.6209412"><ele>253.39999999999998</ele><time>2026-04-05T14:51:58.267Z</time></trkpt><trkpt lat="43.4272821" lon="11.620969"><ele>251.60000000000002</ele><time>2026-04-05T14:52:00.259Z</time></trkpt><trkpt lat="43.427393" lon="11.6210234"><ele>249.8</ele><time>2026-04-05T14:52:02.266Z</time></trkpt><trkpt lat="43.427498" lon="11.6210814"><ele>248.0</ele><time>2026-04-05T14:52:04.267Z</time></trkpt><trkpt lat="43.4275572" lon="11.6211168"><ele>247.71428571428572</ele><time>2026-04-05T14:52:05.267Z</time></trkpt><trkpt lat="43.4276139" lon="11.6211587"><ele>247.42857142857144</ele><time>2026-04-05T14:52:06.269Z</time></trkpt><trkpt lat="43.4276727" lon="11.6212021"><ele>247.14285714285717</ele><time>2026-04-05T14:52:07.266Z</time></trkpt><trkpt lat="43.4277427" lon="11.621245"><ele>246.8571428571429</ele><time>2026-04-05T14:52:08.266Z</time></trkpt><trkpt lat="43.4278159" lon="11.6212922"><ele>246.57142857142858</ele><time>2026-04-05T14:52:09.268Z</time></trkpt><trkpt lat="43.427892" lon="11.6213335"><ele>246.28571428571433</ele><time>2026-04-05T14:52:10.27Z</time></trkpt><trkpt lat="43.4279614" lon="11.6213746"><ele>246.00000000000003</ele><time>2026-04-05T14:52:11.263Z</time></trkpt><trkpt lat="43.4280324" lon="11.6214165"><ele>246.66666666666666</ele><time>2026-04-05T14:52:12.267Z</time></trkpt><trkpt lat="43.428112" lon="11.6214568"><ele>247.33333333333331</ele><time>2026-04-05T14:52:13.266Z</time></trkpt><trkpt lat="43.4281917" lon="11.6214961"><ele>248.0</ele><time>2026-04-05T14:52:14.271Z</time></trkpt><trkpt lat="43.4282724" lon="11.6215353"><ele>248.66666666666666</ele><time>2026-04-05T14:52:15.269Z</time></trkpt><trkpt lat="43.4283504" lon="11.6215763"><ele>249.33333333333331</ele><time>2026-04-05T14:52:16.262Z</time></trkpt><trkpt lat="43.4284347" lon="11.6216244"><ele>250.0</ele><time>2026-04-05T14:52:17.265Z</time></trkpt><trkpt lat="43.4285153" lon="11.6216672"><ele>250.0</ele><time>2026-04-05T14:52:18.278Z</time></trkpt><trkpt lat="43.4285962" lon="11.6217101"><ele>250.0</ele><time>2026-04-05T14:52:19.274Z</time></trkpt><trkpt lat="43.4286806" lon="11.6217549"><ele>250.0</ele><time>2026-04-05T14:52:20.262Z</time></trkpt><trkpt lat="43.4287669" lon="11.6217984"><ele>250.0</ele><time>2026-04-05T14:52:21.277Z</time></trkpt><trkpt lat="43.4288529" lon="11.6218431"><ele>250.0</ele><time>2026-04-05T14:52:22.258Z</time></trkpt><trkpt lat="43.4289395" lon="11.6218861"><ele>250.66666666666666</ele><time>2026-04-05T14:52:23.269Z</time></trkpt><trkpt lat="43.4290235" lon="11.6219351"><ele>251.33333333333331</ele><time>2026-04-05T14:52:24.273Z</time></trkpt><trkpt lat="43.4291029" lon="11.6219948"><ele>252.0</ele><time>2026-04-05T14:52:25.261Z</time></trkpt><trkpt lat="43.4291825" lon="11.622062"><ele>252.66666666666669</ele><time>2026-04-05T14:52:26.274Z</time></trkpt><trkpt lat="43.4292527" lon="11.6221178"><ele>253.33333333333334</ele><time>2026-04-05T14:52:27.268Z</time></trkpt><trkpt lat="43.4293164" lon="11.6221604"><ele>254.0</ele><time>2026-04-05T14:52:28.264Z</time></trkpt><trkpt lat="43.4294144" lon="11.6222225"><ele>254.0</ele><time>2026-04-05T14:52:30.265Z</time></trkpt><trkpt lat="43.4294818" lon="11.6222671"><ele>253.99999999999997</ele><time>2026-04-05T14:52:32.268Z</time></trkpt><trkpt lat="43.4295708" lon="11.6222625"><ele>253.99999999999997</ele><time>2026-04-05T14:52:35.267Z</time></trkpt><trkpt lat="43.4296675" lon="11.6221874"><ele>254.0</ele><time>2026-04-05T14:52:37.266Z</time></trkpt><trkpt lat="43.4297619" lon="11.622103"><ele>254.0</ele><time>2026-04-05T14:52:39.269Z</time></trkpt><trkpt lat="43.4298489" lon="11.6220173"><ele>254.2</ele><time>2026-04-05T14:52:41.256Z</time></trkpt><trkpt lat="43.4299124" lon="11.6219549"><ele>254.39999999999998</ele><time>2026-04-05T14:52:42.26Z</time></trkpt><trkpt lat="43.429986" lon="11.6218851"><ele>254.6</ele><time>2026-04-05T14:52:43.265Z</time></trkpt><trkpt lat="43.430063" lon="11.621803"><ele>254.8</ele><time>2026-04-05T14:52:44.273Z</time></trkpt><trkpt lat="43.4301501" lon="11.6217163"><ele>255.0</ele><time>2026-04-05T14:52:45.265Z</time></trkpt><trkpt lat="43.4302497" lon="11.6216229"><ele>255.0</ele><time>2026-04-05T14:52:46.266Z</time></trkpt><trkpt lat="43.4303662" lon="11.6215136"><ele>255.0</ele><time>2026-04-05T14:52:47.257Z</time></trkpt><trkpt lat="43.430494" lon="11.6213841"><ele>255.0</ele><time>2026-04-05T14:52:48.257Z</time></trkpt><trkpt lat="43.4306307" lon="11.621246"><ele>252.0</ele><time>2026-04-05T14:52:49.269Z</time></trkpt><trkpt lat="43.4307639" lon="11.6211146"><ele>249.0</ele><time>2026-04-05T14:52:50.269Z</time></trkpt><trkpt lat="43.4308904" lon="11.6209942"><ele>246.0</ele><time>2026-04-05T14:52:51.268Z</time></trkpt><trkpt lat="43.4310116" lon="11.620884"><ele>246.0</ele><time>2026-04-05T14:52:52.256Z</time></trkpt><trkpt lat="43.4311345" lon="11.6207883"><ele>246.0</ele><time>2026-04-05T14:52:53.277Z</time></trkpt><trkpt lat="43.4312675" lon="11.6207029"><ele>246.0</ele><time>2026-04-05T14:52:54.269Z</time></trkpt><trkpt lat="43.4314099" lon="11.6206409"><ele>246.0</ele><time>2026-04-05T14:52:55.266Z</time></trkpt><trkpt lat="43.4315618" lon="11.6205969"><ele>246.66666666666669</ele><time>2026-04-05T14:52:56.268Z</time></trkpt><trkpt lat="43.4317247" lon="11.6205559"><ele>247.33333333333334</ele><time>2026-04-05T14:52:57.272Z</time></trkpt><trkpt lat="43.4318984" lon="11.6205252"><ele>248.0</ele><time>2026-04-05T14:52:58.263Z</time></trkpt><trkpt lat="43.4320791" lon="11.6205052"><ele>248.33333333333334</ele><time>2026-04-05T14:52:59.265Z</time></trkpt><trkpt lat="43.432249" lon="11.6204887"><ele>248.66666666666669</ele><time>2026-04-05T14:53:00.267Z</time></trkpt><trkpt lat="43.4324121" lon="11.6204716"><ele>249.0</ele><time>2026-04-05T14:53:01.264Z</time></trkpt><trkpt lat="43.4325657" lon="11.6204512"><ele>249.0</ele><time>2026-04-05T14:53:02.255Z</time></trkpt><trkpt lat="43.4327098" lon="11.620418"><ele>249.0</ele><time>2026-04-05T14:53:03.274Z</time></trkpt><trkpt lat="43.4328448" lon="11.6203625"><ele>249.0</ele><time>2026-04-05T14:53:04.274Z</time></trkpt><trkpt lat="43.4329738" lon="11.6202739"><ele>249.0</ele><time>2026-04-05T14:53:05.27Z</time></trkpt><trkpt lat="43.4330996" lon="11.6201688"><ele>247.75</ele><time>2026-04-05T14:53:06.278Z</time></trkpt><trkpt lat="43.4332252" lon="11.6200725"><ele>246.5</ele><time>2026-04-05T14:53:07.275Z</time></trkpt><trkpt lat="43.4333627" lon="11.6200003"><ele>245.25</ele><time>2026-04-05T14:53:08.267Z</time></trkpt><trkpt lat="43.4335113" lon="11.6199469"><ele>244.0</ele><time>2026-04-05T14:53:09.268Z</time></trkpt><trkpt lat="43.4336643" lon="11.6198979"><ele>243.66666666666666</ele><time>2026-04-05T14:53:10.263Z</time></trkpt><trkpt lat="43.4338198" lon="11.619835"><ele>243.33333333333331</ele><time>2026-04-05T14:53:11.272Z</time></trkpt><trkpt lat="43.433972" lon="11.619744"><ele>243.0</ele><time>2026-04-05T14:53:12.27Z</time></trkpt><trkpt lat="43.4341213" lon="11.619626"><ele>243.0</ele><time>2026-04-05T14:53:13.26Z</time></trkpt><trkpt lat="43.4342631" lon="11.6194976"><ele>243.0</ele><time>2026-04-05T14:53:14.262Z</time></trkpt><trkpt lat="43.4343907" lon="11.6193671"><ele>243.0</ele><time>2026-04-05T14:53:15.265Z</time></trkpt><trkpt lat="43.4345205" lon="11.6192273"><ele>240.33333333333331</ele><time>2026-04-05T14:53:16.26Z</time></trkpt><trkpt lat="43.4346513" lon="11.619083"><ele>237.66666666666666</ele><time>2026-04-05T14:53:17.271Z</time></trkpt><trkpt lat="43.4347758" lon="11.6189438"><ele>235.0</ele><time>2026-04-05T14:53:18.274Z</time></trkpt><trkpt lat="43.4348931" lon="11.6188091"><ele>235.0</ele><time>2026-04-05T14:53:19.268Z</time></trkpt><trkpt lat="43.4350081" lon="11.6186806"><ele>235.0</ele><time>2026-04-05T14:53:20.263Z</time></trkpt><trkpt lat="43.4351207" lon="11.6185665"><ele>235.0</ele><time>2026-04-05T14:53:21.267Z</time></trkpt><trkpt lat="43.4352324" lon="11.6184671"><ele>235.0</ele><time>2026-04-05T14:53:22.259Z</time></trkpt><trkpt lat="43.4353446" lon="11.6183841"><ele>234.25</ele><time>2026-04-05T14:53:23.268Z</time></trkpt><trkpt lat="43.4354547" lon="11.6183124"><ele>233.5</ele><time>2026-04-05T14:53:24.259Z</time></trkpt><trkpt lat="43.4355658" lon="11.6182556"><ele>232.75</ele><time>2026-04-05T14:53:25.267Z</time></trkpt><trkpt lat="43.435671" lon="11.6182059"><ele>232.0</ele><time>2026-04-05T14:53:26.254Z</time></trkpt><trkpt lat="43.435772" lon="11.6181599"><ele>231.99999999999997</ele><time>2026-04-05T14:53:27.265Z</time></trkpt><trkpt lat="43.435858" lon="11.6181172"><ele>232.0</ele><time>2026-04-05T14:53:28.264Z</time></trkpt><trkpt lat="43.4359248" lon="11.6180829"><ele>232.0</ele><time>2026-04-05T14:53:29.255Z</time></trkpt><trkpt lat="43.4360072" lon="11.6180614"><ele>232.0</ele><time>2026-04-05T14:53:31.261Z</time></trkpt><trkpt lat="43.4361014" lon="11.6180808"><ele>231.99999999999997</ele><time>2026-04-05T14:53:47.265Z</time></trkpt><trkpt lat="43.4361705" lon="11.6181245"><ele>232.0</ele><time>2026-04-05T14:53:48.262Z</time></trkpt><trkpt lat="43.436255" lon="11.6181871"><ele>231.5</ele><time>2026-04-05T14:53:49.26Z</time></trkpt><trkpt lat="43.4363409" lon="11.6182435"><ele>231.0</ele><time>2026-04-05T14:53:50.268Z</time></trkpt><trkpt lat="43.4364655" lon="11.6183259"><ele>230.5</ele><time>2026-04-05T14:53:51.267Z</time></trkpt><trkpt lat="43.4366024" lon="11.6184202"><ele>230.0</ele><time>2026-04-05T14:53:52.267Z</time></trkpt><trkpt lat="43.4367577" lon="11.6185239"><ele>230.0</ele><time>2026-04-05T14:53:53.262Z</time></trkpt><trkpt lat="43.4369206" lon="11.6186353"><ele>230.0</ele><time>2026-04-05T14:53:54.271Z</time></trkpt><trkpt lat="43.4370931" lon="11.6187571"><ele>230.0</ele><time>2026-04-05T14:53:55.273Z</time></trkpt><trkpt lat="43.4372492" lon="11.618869"><ele>231.33333333333334</ele><time>2026-04-05T14:53:56.272Z</time></trkpt><trkpt lat="43.4374045" lon="11.6189732"><ele>232.66666666666669</ele><time>2026-04-05T14:53:57.271Z</time></trkpt><trkpt lat="43.437561" lon="11.6190762"><ele>234.0</ele><time>2026-04-05T14:53:58.266Z</time></trkpt><trkpt lat="43.4377194" lon="11.6191712"><ele>234.0</ele><time>2026-04-05T14:53:59.257Z</time></trkpt><trkpt lat="43.4378826" lon="11.6192412"><ele>234.0</ele><time>2026-04-05T14:54:00.261Z</time></trkpt><trkpt lat="43.4380543" lon="11.6192789"><ele>234.0</ele><time>2026-04-05T14:54:01.266Z</time></trkpt><trkpt lat="43.4382348" lon="11.6192953"><ele>234.0</ele><time>2026-04-05T14:54:02.261Z</time></trkpt><trkpt lat="43.4384215" lon="11.6192944"><ele>234.0</ele><time>2026-04-05T14:54:03.264Z</time></trkpt><trkpt lat="43.4386174" lon="11.6192765"><ele>234.0</ele><time>2026-04-05T14:54:04.265Z</time></trkpt><trkpt lat="43.4388206" lon="11.6192487"><ele>235.0</ele><time>2026-04-05T14:54:05.26Z</time></trkpt><trkpt lat="43.4390155" lon="11.619231"><ele>236.0</ele><time>2026-04-05T14:54:06.278Z</time></trkpt><trkpt lat="43.439194" lon="11.6192148"><ele>237.0</ele><time>2026-04-05T14:54:07.273Z</time></trkpt><trkpt lat="43.4393641" lon="11.61919"><ele>237.0</ele><time>2026-04-05T14:54:08.265Z</time></trkpt><trkpt lat="43.4395302" lon="11.6191645"><ele>237.0</ele><time>2026-04-05T14:54:09.264Z</time></trkpt><trkpt lat="43.4396773" lon="11.6191485"><ele>237.0</ele><time>2026-04-05T14:54:10.276Z</time></trkpt><trkpt lat="43.4398086" lon="11.6191503"><ele>237.0</ele><time>2026-04-05T14:54:11.267Z</time></trkpt><trkpt lat="43.4399289" lon="11.6191745"><ele>237.0</ele><time>2026-04-05T14:54:12.263Z</time></trkpt><trkpt lat="43.440031" lon="11.6192436"><ele>237.0</ele><time>2026-04-05T14:54:13.268Z</time></trkpt><trkpt lat="43.44012" lon="11.6193537"><ele>237.0</ele><time>2026-04-05T14:54:14.26Z</time></trkpt><trkpt lat="43.4401914" lon="11.6195015"><ele>237.0</ele><time>2026-04-05T14:54:15.255Z</time></trkpt><trkpt lat="43.440249" lon="11.6196756"><ele>237.66666666666669</ele><time>2026-04-05T14:54:16.267Z</time></trkpt><trkpt lat="43.4403068" lon="11.6198669"><ele>238.33333333333334</ele><time>2026-04-05T14:54:17.268Z</time></trkpt><trkpt lat="43.4403705" lon="11.6200745"><ele>239.0</ele><time>2026-04-05T14:54:18.254Z</time></trkpt><trkpt lat="43.4404362" lon="11.6203003"><ele>238.33333333333334</ele><time>2026-04-05T14:54:19.266Z</time></trkpt><trkpt lat="43.4405007" lon="11.6205333"><ele>237.66666666666669</ele><time>2026-04-05T14:54:20.262Z</time></trkpt><trkpt lat="43.4405646" lon="11.6207481"><ele>237.0</ele><time>2026-04-05T14:54:21.272Z</time></trkpt><trkpt lat="43.4406459" lon="11.6209515"><ele>237.0</ele><time>2026-04-05T14:54:22.268Z</time></trkpt><trkpt lat="43.4407504" lon="11.6211466"><ele>237.0</ele><time>2026-04-05T14:54:23.271Z</time></trkpt><trkpt lat="43.4408735" lon="11.621334"><ele>237.0</ele><time>2026-04-05T14:54:24.26Z</time></trkpt><trkpt lat="43.4409941" lon="11.621515"><ele>237.25</ele><time>2026-04-05T14:54:25.258Z</time></trkpt><trkpt lat="43.4411027" lon="11.6216838"><ele>237.5</ele><time>2026-04-05T14:54:26.261Z</time></trkpt><trkpt lat="43.4411984" lon="11.6218324"><ele>237.75</ele><time>2026-04-05T14:54:27.267Z</time></trkpt><trkpt lat="43.4412864" lon="11.621965"><ele>238.0</ele><time>2026-04-05T14:54:28.265Z</time></trkpt><trkpt lat="43.441375" lon="11.6220716"><ele>237.0</ele><time>2026-04-05T14:54:29.263Z</time></trkpt><trkpt lat="43.4414711" lon="11.6221501"><ele>236.0</ele><time>2026-04-05T14:54:30.266Z</time></trkpt><trkpt lat="43.4415708" lon="11.6221968"><ele>235.0</ele><time>2026-04-05T14:54:31.259Z</time></trkpt><trkpt lat="43.4416688" lon="11.6222208"><ele>234.0</ele><time>2026-04-05T14:54:32.27Z</time></trkpt><trkpt lat="43.4417623" lon="11.6222323"><ele>233.0</ele><time>2026-04-05T14:54:33.264Z</time></trkpt><trkpt lat="43.4418528" lon="11.6222437"><ele>233.00000000000003</ele><time>2026-04-05T14:54:34.264Z</time></trkpt><trkpt lat="43.4419359" lon="11.6222646"><ele>233.0</ele><time>2026-04-05T14:54:35.269Z</time></trkpt><trkpt lat="43.4420108" lon="11.6222842"><ele>233.0</ele><time>2026-04-05T14:54:36.272Z</time></trkpt><trkpt lat="43.4420824" lon="11.6223051"><ele>233.0</ele><time>2026-04-05T14:54:37.267Z</time></trkpt><trkpt lat="43.4421447" lon="11.6223376"><ele>233.00000000000003</ele><time>2026-04-05T14:54:38.27Z</time></trkpt><trkpt lat="43.4422351" lon="11.6224296"><ele>233.0</ele><time>2026-04-05T14:54:40.264Z</time></trkpt><trkpt lat="43.4423026" lon="11.6225144"><ele>232.83333333333334</ele><time>2026-04-05T14:54:42.258Z</time></trkpt><trkpt lat="43.4423531" lon="11.6225912"><ele>232.66666666666669</ele><time>2026-04-05T14:54:44.255Z</time></trkpt><trkpt lat="43.4423925" lon="11.6226664"><ele>232.5</ele><time>2026-04-05T14:54:46.268Z</time></trkpt><trkpt lat="43.4424315" lon="11.6227435"><ele>232.33333333333331</ele><time>2026-04-05T14:54:48.26Z</time></trkpt><trkpt lat="43.4425127" lon="11.6228819"><ele>232.16666666666666</ele><time>2026-04-05T14:54:50.272Z</time></trkpt><trkpt lat="43.4425625" lon="11.6229695"><ele>232.0</ele><time>2026-04-05T14:54:51.273Z</time></trkpt><trkpt lat="43.4426415" lon="11.6231077"><ele>233.33333333333331</ele><time>2026-04-05T14:54:52.272Z</time></trkpt><trkpt lat="43.4427313" lon="11.6232634"><ele>234.66666666666669</ele><time>2026-04-05T14:54:53.259Z</time></trkpt><trkpt lat="43.4428303" lon="11.6234483"><ele>236.0</ele><time>2026-04-05T14:54:54.276Z</time></trkpt><trkpt lat="43.4429359" lon="11.6236506"><ele>235.33333333333334</ele><time>2026-04-05T14:54:55.271Z</time></trkpt><trkpt lat="43.4430544" lon="11.6238662"><ele>234.66666666666669</ele><time>2026-04-05T14:54:56.261Z</time></trkpt><trkpt lat="43.4431706" lon="11.6240752"><ele>234.0</ele><time>2026-04-05T14:54:57.269Z</time></trkpt><trkpt lat="43.4432936" lon="11.6242955"><ele>233.66666666666669</ele><time>2026-04-05T14:54:58.266Z</time></trkpt><trkpt lat="43.4434139" lon="11.6245313"><ele>233.33333333333334</ele><time>2026-04-05T14:54:59.268Z</time></trkpt><trkpt lat="43.4435288" lon="11.6247872"><ele>233.0</ele><time>2026-04-05T14:55:00.263Z</time></trkpt><trkpt lat="43.4436404" lon="11.6250533"><ele>233.0</ele><time>2026-04-05T14:55:01.27Z</time></trkpt><trkpt lat="43.4437521" lon="11.6253334"><ele>233.0</ele><time>2026-04-05T14:55:02.271Z</time></trkpt><trkpt lat="43.4438702" lon="11.6256201"><ele>233.0</ele><time>2026-04-05T14:55:03.269Z</time></trkpt><trkpt lat="43.4439884" lon="11.6259008"><ele>233.0</ele><time>2026-04-05T14:55:04.268Z</time></trkpt><trkpt lat="43.4440989" lon="11.6261618"><ele>232.33333333333334</ele><time>2026-04-05T14:55:05.273Z</time></trkpt><trkpt lat="43.4442025" lon="11.6264122"><ele>231.66666666666669</ele><time>2026-04-05T14:55:06.255Z</time></trkpt><trkpt lat="43.4442998" lon="11.6266496"><ele>231.0</ele><time>2026-04-05T14:55:07.258Z</time></trkpt><trkpt lat="43.4443975" lon="11.6268711"><ele>231.33333333333331</ele><time>2026-04-05T14:55:08.267Z</time></trkpt><trkpt lat="43.4444924" lon="11.6270903"><ele>231.66666666666666</ele><time>2026-04-05T14:55:09.265Z</time></trkpt><trkpt lat="43.4445751" lon="11.6273076"><ele>232.0</ele><time>2026-04-05T14:55:10.272Z</time></trkpt><trkpt lat="43.4446457" lon="11.6275236"><ele>233.66666666666666</ele><time>2026-04-05T14:55:11.277Z</time></trkpt><trkpt lat="43.4446983" lon="11.6277413"><ele>235.33333333333331</ele><time>2026-04-05T14:55:12.259Z</time></trkpt><trkpt lat="43.4447255" lon="11.6279646"><ele>237.0</ele><time>2026-04-05T14:55:13.261Z</time></trkpt><trkpt lat="43.4447293" lon="11.628189"><ele>237.0</ele><time>2026-04-05T14:55:14.263Z</time></trkpt><trkpt lat="43.4447043" lon="11.6284053"><ele>237.0</ele><time>2026-04-05T14:55:15.268Z</time></trkpt><trkpt lat="43.4446525" lon="11.628615"><ele>237.0</ele><time>2026-04-05T14:55:16.269Z</time></trkpt><trkpt lat="43.4445761" lon="11.6288097"><ele>237.0</ele><time>2026-04-05T14:55:17.273Z</time></trkpt><trkpt lat="43.4444706" lon="11.6289763"><ele>237.0</ele><time>2026-04-05T14:55:18.255Z</time></trkpt><trkpt lat="43.4443457" lon="11.6291134"><ele>237.0</ele><time>2026-04-05T14:55:19.278Z</time></trkpt><trkpt lat="43.4442106" lon="11.629236"><ele>237.0</ele><time>2026-04-05T14:55:20.26Z</time></trkpt><trkpt lat="43.444076" lon="11.6293607"><ele>237.0</ele><time>2026-04-05T14:55:21.274Z</time></trkpt><trkpt lat="43.4439395" lon="11.6294911"><ele>237.0</ele><time>2026-04-05T14:55:22.263Z</time></trkpt><trkpt lat="43.4437999" lon="11.6296226"><ele>238.0</ele><time>2026-04-05T14:55:23.258Z</time></trkpt><trkpt lat="43.4436568" lon="11.6297508"><ele>239.0</ele><time>2026-04-05T14:55:24.265Z</time></trkpt><trkpt lat="43.4435138" lon="11.6298801"><ele>240.0</ele><time>2026-04-05T14:55:25.277Z</time></trkpt><trkpt lat="43.4433727" lon="11.6300133"><ele>240.0</ele><time>2026-04-05T14:55:26.265Z</time></trkpt><trkpt lat="43.4432308" lon="11.6301458"><ele>240.0</ele><time>2026-04-05T14:55:27.278Z</time></trkpt><trkpt lat="43.4430968" lon="11.6302741"><ele>240.0</ele><time>2026-04-05T14:55:28.261Z</time></trkpt><trkpt lat="43.4429693" lon="11.6303954"><ele>239.0</ele><time>2026-04-05T14:55:29.27Z</time></trkpt><trkpt lat="43.4428444" lon="11.6305059"><ele>238.0</ele><time>2026-04-05T14:55:30.256Z</time></trkpt><trkpt lat="43.4427275" lon="11.6306162"><ele>237.0</ele><time>2026-04-05T14:55:31.272Z</time></trkpt><trkpt lat="43.4426267" lon="11.630746"><ele>236.0</ele><time>2026-04-05T14:55:32.274Z</time></trkpt><trkpt lat="43.4425366" lon="11.6309044"><ele>236.0</ele><time>2026-04-05T14:55:33.264Z</time></trkpt><trkpt lat="43.4424598" lon="11.6310837"><ele>236.0</ele><time>2026-04-05T14:55:34.269Z</time></trkpt><trkpt lat="43.4423931" lon="11.631282"><ele>236.0</ele><time>2026-04-05T14:55:35.261Z</time></trkpt><trkpt lat="43.4423421" lon="11.631496"><ele>236.0</ele><time>2026-04-05T14:55:36.265Z</time></trkpt><trkpt lat="43.4423158" lon="11.6317208"><ele>236.0</ele><time>2026-04-05T14:55:37.259Z</time></trkpt><trkpt lat="43.4423091" lon="11.6319514"><ele>236.0</ele><time>2026-04-05T14:55:38.262Z</time></trkpt><trkpt lat="43.4423205" lon="11.6321877"><ele>236.66666666666669</ele><time>2026-04-05T14:55:39.271Z</time></trkpt><trkpt lat="43.4423562" lon="11.6324237"><ele>237.33333333333331</ele><time>2026-04-05T14:55:40.254Z</time></trkpt><trkpt lat="43.4424034" lon="11.632645"><ele>238.0</ele><time>2026-04-05T14:55:41.269Z</time></trkpt><trkpt lat="43.4424378" lon="11.6328578"><ele>238.0</ele><time>2026-04-05T14:55:42.272Z</time></trkpt><trkpt lat="43.4424544" lon="11.6330734"><ele>238.0</ele><time>2026-04-05T14:55:43.269Z</time></trkpt><trkpt lat="43.4424496" lon="11.6332916"><ele>238.0</ele><time>2026-04-05T14:55:44.255Z</time></trkpt><trkpt lat="43.4424169" lon="11.6335068"><ele>238.33333333333331</ele><time>2026-04-05T14:55:45.269Z</time></trkpt><trkpt lat="43.4423583" lon="11.6337164"><ele>238.66666666666669</ele><time>2026-04-05T14:55:46.253Z</time></trkpt><trkpt lat="43.4422754" lon="11.6339139"><ele>239.0</ele><time>2026-04-05T14:55:47.272Z</time></trkpt><trkpt lat="43.4421732" lon="11.6340834"><ele>239.0</ele><time>2026-04-05T14:55:48.26Z</time></trkpt><trkpt lat="43.4420497" lon="11.6342228"><ele>239.0</ele><time>2026-04-05T14:55:49.266Z</time></trkpt><trkpt lat="43.4419113" lon="11.6343267"><ele>239.0</ele><time>2026-04-05T14:55:50.276Z</time></trkpt><trkpt lat="43.4417688" lon="11.634421"><ele>239.0</ele><time>2026-04-05T14:55:51.272Z</time></trkpt><trkpt lat="43.4416263" lon="11.6345267"><ele>239.0</ele><time>2026-04-05T14:55:52.272Z</time></trkpt><trkpt lat="43.4414779" lon="11.634635"><ele>239.0</ele><time>2026-04-05T14:55:53.269Z</time></trkpt><trkpt lat="43.4413259" lon="11.6347556"><ele>241.33333333333334</ele><time>2026-04-05T14:55:54.272Z</time></trkpt><trkpt lat="43.4411796" lon="11.6348943"><ele>243.66666666666669</ele><time>2026-04-05T14:55:55.269Z</time></trkpt><trkpt lat="43.4410343" lon="11.6350511"><ele>246.0</ele><time>2026-04-05T14:55:56.265Z</time></trkpt><trkpt lat="43.4408937" lon="11.6352173"><ele>245.0</ele><time>2026-04-05T14:55:57.262Z</time></trkpt><trkpt lat="43.4407547" lon="11.6353983"><ele>244.0</ele><time>2026-04-05T14:55:58.263Z</time></trkpt><trkpt lat="43.4406121" lon="11.635591"><ele>243.0</ele><time>2026-04-05T14:55:59.272Z</time></trkpt><trkpt lat="43.4404688" lon="11.635796"><ele>243.0</ele><time>2026-04-05T14:56:00.26Z</time></trkpt><trkpt lat="43.4403261" lon="11.6360163"><ele>243.0</ele><time>2026-04-05T14:56:01.253Z</time></trkpt><trkpt lat="43.4401816" lon="11.6362472"><ele>243.0</ele><time>2026-04-05T14:56:02.267Z</time></trkpt><trkpt lat="43.4400323" lon="11.6364828"><ele>243.0</ele><time>2026-04-05T14:56:03.268Z</time></trkpt><trkpt lat="43.4398777" lon="11.6367139"><ele>243.0</ele><time>2026-04-05T14:56:04.258Z</time></trkpt><trkpt lat="43.4397334" lon="11.6369241"><ele>243.0</ele><time>2026-04-05T14:56:05.268Z</time></trkpt><trkpt lat="43.4395959" lon="11.6371296"><ele>244.0</ele><time>2026-04-05T14:56:06.267Z</time></trkpt><trkpt lat="43.4394636" lon="11.6373242"><ele>245.0</ele><time>2026-04-05T14:56:07.276Z</time></trkpt><trkpt lat="43.4393381" lon="11.6375192"><ele>246.0</ele><time>2026-04-05T14:56:08.27Z</time></trkpt><trkpt lat="43.4392206" lon="11.637726"><ele>245.0</ele><time>2026-04-05T14:56:09.275Z</time></trkpt><trkpt lat="43.4391106" lon="11.6379451"><ele>244.0</ele><time>2026-04-05T14:56:10.272Z</time></trkpt><trkpt lat="43.4390096" lon="11.6381788"><ele>243.0</ele><time>2026-04-05T14:56:11.265Z</time></trkpt><trkpt lat="43.4389186" lon="11.6384269"><ele>242.66666666666669</ele><time>2026-04-05T14:56:12.261Z</time></trkpt><trkpt lat="43.4388412" lon="11.6386928"><ele>242.33333333333334</ele><time>2026-04-05T14:56:13.262Z</time></trkpt><trkpt lat="43.4387684" lon="11.6389732"><ele>242.0</ele><time>2026-04-05T14:56:14.268Z</time></trkpt><trkpt lat="43.4386924" lon="11.6392622"><ele>245.0</ele><time>2026-04-05T14:56:15.267Z</time></trkpt><trkpt lat="43.4386145" lon="11.6395599"><ele>248.0</ele><time>2026-04-05T14:56:16.256Z</time></trkpt><trkpt lat="43.4385352" lon="11.6398664"><ele>248.0</ele><time>2026-04-05T14:56:17.264Z</time></trkpt><trkpt lat="43.4384554" lon="11.6401829"><ele>248.0</ele><time>2026-04-05T14:56:18.266Z</time></trkpt><trkpt lat="43.4383745" lon="11.6405078"><ele>247.0</ele><time>2026-04-05T14:56:19.268Z</time></trkpt><trkpt lat="43.438291" lon="11.6408391"><ele>246.0</ele><time>2026-04-05T14:56:20.273Z</time></trkpt><trkpt lat="43.4382048" lon="11.6411743"><ele>245.5</ele><time>2026-04-05T14:56:21.267Z</time></trkpt><trkpt lat="43.4381214" lon="11.6414971"><ele>245.0</ele><time>2026-04-05T14:56:22.265Z</time></trkpt><trkpt lat="43.4380436" lon="11.6418027"><ele>245.33333333333334</ele><time>2026-04-05T14:56:23.266Z</time></trkpt><trkpt lat="43.4379696" lon="11.6420898"><ele>245.66666666666669</ele><time>2026-04-05T14:56:24.26Z</time></trkpt><trkpt lat="43.4379003" lon="11.642362"><ele>246.0</ele><time>2026-04-05T14:56:25.263Z</time></trkpt><trkpt lat="43.4378353" lon="11.6426227"><ele>247.0</ele><time>2026-04-05T14:56:26.263Z</time></trkpt><trkpt lat="43.4377775" lon="11.6428697"><ele>248.0</ele><time>2026-04-05T14:56:27.261Z</time></trkpt><trkpt lat="43.4377257" lon="11.6431063"><ele>249.0</ele><time>2026-04-05T14:56:28.269Z</time></trkpt><trkpt lat="43.4376849" lon="11.6433428"><ele>249.0</ele><time>2026-04-05T14:56:29.268Z</time></trkpt><trkpt lat="43.437658" lon="11.6435772"><ele>249.0</ele><time>2026-04-05T14:56:30.265Z</time></trkpt><trkpt lat="43.4376529" lon="11.6438137"><ele>249.0</ele><time>2026-04-05T14:56:31.272Z</time></trkpt><trkpt lat="43.43766" lon="11.6440557"><ele>250.66666666666669</ele><time>2026-04-05T14:56:32.268Z</time></trkpt><trkpt lat="43.43768" lon="11.6442982"><ele>252.33333333333334</ele><time>2026-04-05T14:56:33.262Z</time></trkpt><trkpt lat="43.4377181" lon="11.6445437"><ele>254.0</ele><time>2026-04-05T14:56:34.265Z</time></trkpt><trkpt lat="43.4377641" lon="11.6447928"><ele>255.0</ele><time>2026-04-05T14:56:35.269Z</time></trkpt><trkpt lat="43.4378146" lon="11.645049"><ele>256.0</ele><time>2026-04-05T14:56:36.263Z</time></trkpt><trkpt lat="43.4378567" lon="11.6453098"><ele>257.0</ele><time>2026-04-05T14:56:37.268Z</time></trkpt><trkpt lat="43.4378841" lon="11.6455776"><ele>257.0</ele><time>2026-04-05T14:56:38.283Z</time></trkpt><trkpt lat="43.4378963" lon="11.6458462"><ele>257.0</ele><time>2026-04-05T14:56:39.277Z</time></trkpt><trkpt lat="43.4378872" lon="11.6461098"><ele>257.0</ele><time>2026-04-05T14:56:40.253Z</time></trkpt><trkpt lat="43.4378654" lon="11.6463653"><ele>256.6666666666667</ele><time>2026-04-05T14:56:41.264Z</time></trkpt><trkpt lat="43.4378322" lon="11.6466224"><ele>256.3333333333333</ele><time>2026-04-05T14:56:42.261Z</time></trkpt><trkpt lat="43.4377799" lon="11.6468791"><ele>256.0</ele><time>2026-04-05T14:56:43.26Z</time></trkpt><trkpt lat="43.4377136" lon="11.6471322"><ele>256.3333333333333</ele><time>2026-04-05T14:56:44.266Z</time></trkpt><trkpt lat="43.4376304" lon="11.6473863"><ele>256.6666666666667</ele><time>2026-04-05T14:56:45.261Z</time></trkpt><trkpt lat="43.4375344" lon="11.647644"><ele>257.0</ele><time>2026-04-05T14:56:46.263Z</time></trkpt><trkpt lat="43.4374342" lon="11.6479109"><ele>257.0</ele><time>2026-04-05T14:56:47.265Z</time></trkpt><trkpt lat="43.4373278" lon="11.6481849"><ele>257.0</ele><time>2026-04-05T14:56:48.277Z</time></trkpt><trkpt lat="43.4372179" lon="11.6484628"><ele>259.5</ele><time>2026-04-05T14:56:49.263Z</time></trkpt><trkpt lat="43.4371088" lon="11.6487508"><ele>262.0</ele><time>2026-04-05T14:56:50.266Z</time></trkpt><trkpt lat="43.4369967" lon="11.6490475"><ele>262.0</ele><time>2026-04-05T14:56:51.256Z</time></trkpt><trkpt lat="43.4368891" lon="11.6493259"><ele>262.0</ele><time>2026-04-05T14:56:52.262Z</time></trkpt><trkpt lat="43.4367898" lon="11.6495858"><ele>262.0</ele><time>2026-04-05T14:56:53.274Z</time></trkpt><trkpt lat="43.4366938" lon="11.6498288"><ele>263.66666666666663</ele><time>2026-04-05T14:56:54.258Z</time></trkpt><trkpt lat="43.436603" lon="11.6500611"><ele>265.3333333333333</ele><time>2026-04-05T14:56:55.26Z</time></trkpt><trkpt lat="43.4365172" lon="11.6502932"><ele>267.0</ele><time>2026-04-05T14:56:56.267Z</time></trkpt><trkpt lat="43.4364434" lon="11.6505084"><ele>268.3333333333333</ele><time>2026-04-05T14:56:57.259Z</time></trkpt><trkpt lat="43.4363744" lon="11.6507099"><ele>269.66666666666663</ele><time>2026-04-05T14:56:58.26Z</time></trkpt><trkpt lat="43.4363108" lon="11.6508944"><ele>271.0</ele><time>2026-04-05T14:56:59.271Z</time></trkpt><trkpt lat="43.4362559" lon="11.6510726"><ele>271.75</ele><time>2026-04-05T14:57:00.262Z</time></trkpt><trkpt lat="43.4362108" lon="11.6512568"><ele>272.5</ele><time>2026-04-05T14:57:01.264Z</time></trkpt><trkpt lat="43.4361663" lon="11.6514416"><ele>273.25</ele><time>2026-04-05T14:57:02.272Z</time></trkpt><trkpt lat="43.4361218" lon="11.6516227"><ele>274.0</ele><time>2026-04-05T14:57:03.271Z</time></trkpt><trkpt lat="43.4360787" lon="11.6518075"><ele>273.25</ele><time>2026-04-05T14:57:04.267Z</time></trkpt><trkpt lat="43.4360405" lon="11.6519964"><ele>272.5</ele><time>2026-04-05T14:57:05.267Z</time></trkpt><trkpt lat="43.4360055" lon="11.6521912"><ele>271.75</ele><time>2026-04-05T14:57:06.265Z</time></trkpt><trkpt lat="43.4359723" lon="11.6523863"><ele>271.0</ele><time>2026-04-05T14:57:07.267Z</time></trkpt><trkpt lat="43.4359379" lon="11.6525758"><ele>271.0</ele><time>2026-04-05T14:57:08.266Z</time></trkpt><trkpt lat="43.4359085" lon="11.6527645"><ele>271.0</ele><time>2026-04-05T14:57:09.268Z</time></trkpt><trkpt lat="43.4358799" lon="11.6529551"><ele>271.0</ele><time>2026-04-05T14:57:10.281Z</time></trkpt><trkpt lat="43.4358501" lon="11.653144"><ele>271.0</ele><time>2026-04-05T14:57:11.271Z</time></trkpt><trkpt lat="43.4358189" lon="11.6533292"><ele>270.5</ele><time>2026-04-05T14:57:12.269Z</time></trkpt><trkpt lat="43.4357905" lon="11.6535085"><ele>270.0</ele><time>2026-04-05T14:57:13.26Z</time></trkpt><trkpt lat="43.435766" lon="11.6536891"><ele>269.5</ele><time>2026-04-05T14:57:14.267Z</time></trkpt><trkpt lat="43.4357432" lon="11.6538765"><ele>269.0</ele><time>2026-04-05T14:57:15.271Z</time></trkpt><trkpt lat="43.435714" lon="11.654074"><ele>268.33333333333337</ele><time>2026-04-05T14:57:16.27Z</time></trkpt><trkpt lat="43.435674" lon="11.6542781"><ele>267.6666666666667</ele><time>2026-04-05T14:57:17.269Z</time></trkpt><trkpt lat="43.4356301" lon="11.6544823"><ele>267.0</ele><time>2026-04-05T14:57:18.266Z</time></trkpt><trkpt lat="43.435589" lon="11.6546881"><ele>265.0</ele><time>2026-04-05T14:57:19.275Z</time></trkpt><trkpt lat="43.4355507" lon="11.6548972"><ele>263.0</ele><time>2026-04-05T14:57:20.27Z</time></trkpt><trkpt lat="43.4355122" lon="11.6550995"><ele>261.0</ele><time>2026-04-05T14:57:21.268Z</time></trkpt><trkpt lat="43.4354724" lon="11.6552961"><ele>261.25</ele><time>2026-04-05T14:57:22.253Z</time></trkpt><trkpt lat="43.4354323" lon="11.6554869"><ele>261.5</ele><time>2026-04-05T14:57:23.263Z</time></trkpt><trkpt lat="43.4353929" lon="11.6556729"><ele>261.75</ele><time>2026-04-05T14:57:24.265Z</time></trkpt><trkpt lat="43.4353516" lon="11.6558581"><ele>262.0</ele><time>2026-04-05T14:57:25.267Z</time></trkpt><trkpt lat="43.4353046" lon="11.6560495"><ele>260.75</ele><time>2026-04-05T14:57:26.263Z</time></trkpt><trkpt lat="43.4352608" lon="11.6562417"><ele>259.5</ele><time>2026-04-05T14:57:27.268Z</time></trkpt><trkpt lat="43.4352235" lon="11.6564307"><ele>258.25</ele><time>2026-04-05T14:57:28.272Z</time></trkpt><trkpt lat="43.4351876" lon="11.6566141"><ele>257.0</ele><time>2026-04-05T14:57:29.266Z</time></trkpt><trkpt lat="43.4351489" lon="11.6567904"><ele>256.5</ele><time>2026-04-05T14:57:30.273Z</time></trkpt><trkpt lat="43.4351101" lon="11.6569713"><ele>256.0</ele><time>2026-04-05T14:57:31.261Z</time></trkpt><trkpt lat="43.435085" lon="11.6571631"><ele>255.5</ele><time>2026-04-05T14:57:32.262Z</time></trkpt><trkpt lat="43.4350763" lon="11.657362"><ele>255.0</ele><time>2026-04-05T14:57:33.259Z</time></trkpt><trkpt lat="43.4350812" lon="11.6575513"><ele>255.0</ele><time>2026-04-05T14:57:34.26Z</time></trkpt><trkpt lat="43.4350977" lon="11.6577278"><ele>255.0</ele><time>2026-04-05T14:57:35.267Z</time></trkpt><trkpt lat="43.4351262" lon="11.6578948"><ele>255.0</ele><time>2026-04-05T14:57:36.258Z</time></trkpt><trkpt lat="43.4351701" lon="11.6580596"><ele>255.0</ele><time>2026-04-05T14:57:37.271Z</time></trkpt><trkpt lat="43.435228" lon="11.6582193"><ele>254.75</ele><time>2026-04-05T14:57:38.272Z</time></trkpt><trkpt lat="43.4352956" lon="11.6583704"><ele>254.5</ele><time>2026-04-05T14:57:39.274Z</time></trkpt><trkpt lat="43.4353716" lon="11.6585018"><ele>254.25</ele><time>2026-04-05T14:57:40.265Z</time></trkpt><trkpt lat="43.4354483" lon="11.6586187"><ele>254.0</ele><time>2026-04-05T14:57:41.256Z</time></trkpt><trkpt lat="43.4355257" lon="11.6587272"><ele>254.0</ele><time>2026-04-05T14:57:42.274Z</time></trkpt><trkpt lat="43.4356092" lon="11.6588234"><ele>253.99999999999997</ele><time>2026-04-05T14:57:43.267Z</time></trkpt><trkpt lat="43.4356987" lon="11.658911"><ele>253.99999999999997</ele><time>2026-04-05T14:57:44.259Z</time></trkpt><trkpt lat="43.4357892" lon="11.6589842"><ele>254.0</ele><time>2026-04-05T14:57:45.274Z</time></trkpt><trkpt lat="43.435891" lon="11.6590523"><ele>254.0</ele><time>2026-04-05T14:57:46.275Z</time></trkpt><trkpt lat="43.4359983" lon="11.659123"><ele>254.0</ele><time>2026-04-05T14:57:47.26Z</time></trkpt><trkpt lat="43.436109" lon="11.6591961"><ele>254.0</ele><time>2026-04-05T14:57:48.265Z</time></trkpt><trkpt lat="43.4362225" lon="11.6592705"><ele>254.0</ele><time>2026-04-05T14:57:49.269Z</time></trkpt><trkpt lat="43.4363388" lon="11.659346"><ele>254.0</ele><time>2026-04-05T14:57:50.266Z</time></trkpt><trkpt lat="43.4364562" lon="11.6594201"><ele>254.25</ele><time>2026-04-05T14:57:51.272Z</time></trkpt><trkpt lat="43.4365747" lon="11.6594917"><ele>254.5</ele><time>2026-04-05T14:57:52.269Z</time></trkpt><trkpt lat="43.4367" lon="11.6595544"><ele>254.75</ele><time>2026-04-05T14:57:53.262Z</time></trkpt><trkpt lat="43.4368336" lon="11.6595989"><ele>255.0</ele><time>2026-04-05T14:57:54.264Z</time></trkpt><trkpt lat="43.4369716" lon="11.6596274"><ele>255.0</ele><time>2026-04-05T14:57:55.256Z</time></trkpt><trkpt lat="43.4371141" lon="11.6596383"><ele>255.0</ele><time>2026-04-05T14:57:56.26Z</time></trkpt><trkpt lat="43.4372523" lon="11.6596384"><ele>255.0</ele><time>2026-04-05T14:57:57.269Z</time></trkpt><trkpt lat="43.4373909" lon="11.6596368"><ele>255.0</ele><time>2026-04-05T14:57:58.262Z</time></trkpt><trkpt lat="43.4375333" lon="11.659641"><ele>256.5</ele><time>2026-04-05T14:57:59.265Z</time></trkpt><trkpt lat="43.4376821" lon="11.6596373"><ele>258.0</ele><time>2026-04-05T14:58:00.259Z</time></trkpt><trkpt lat="43.4378285" lon="11.6596379"><ele>259.5</ele><time>2026-04-05T14:58:01.27Z</time></trkpt><trkpt lat="43.4379736" lon="11.6596444"><ele>261.0</ele><time>2026-04-05T14:58:02.257Z</time></trkpt><trkpt lat="43.4381198" lon="11.6596466"><ele>262.75</ele><time>2026-04-05T14:58:03.262Z</time></trkpt><trkpt lat="43.4382649" lon="11.6596442"><ele>264.5</ele><time>2026-04-05T14:58:04.262Z</time></trkpt><trkpt lat="43.4384109" lon="11.6596443"><ele>266.25</ele><time>2026-04-05T14:58:05.276Z</time></trkpt><trkpt lat="43.4385574" lon="11.6596492"><ele>268.0</ele><time>2026-04-05T14:58:06.265Z</time></trkpt><trkpt lat="43.4387026" lon="11.6596546"><ele>266.5</ele><time>2026-04-05T14:58:07.275Z</time></trkpt><trkpt lat="43.4388479" lon="11.6596571"><ele>265.0</ele><time>2026-04-05T14:58:08.271Z</time></trkpt><trkpt lat="43.4389943" lon="11.6596576"><ele>263.5</ele><time>2026-04-05T14:58:09.271Z</time></trkpt><trkpt lat="43.4391379" lon="11.6596586"><ele>262.0</ele><time>2026-04-05T14:58:10.257Z</time></trkpt><trkpt lat="43.4392779" lon="11.6596575"><ele>262.0</ele><time>2026-04-05T14:58:11.262Z</time></trkpt><trkpt lat="43.4394171" lon="11.6596614"><ele>262.0</ele><time>2026-04-05T14:58:12.261Z</time></trkpt><trkpt lat="43.4395445" lon="11.6596833"><ele>262.0</ele><time>2026-04-05T14:58:13.264Z</time></trkpt><trkpt lat="43.4396563" lon="11.6597295"><ele>262.0</ele><time>2026-04-05T14:58:14.271Z</time></trkpt><trkpt lat="43.4397563" lon="11.659785"><ele>263.0</ele><time>2026-04-05T14:58:15.256Z</time></trkpt><trkpt lat="43.4398419" lon="11.6598438"><ele>264.0</ele><time>2026-04-05T14:58:16.262Z</time></trkpt><trkpt lat="43.4399172" lon="11.6599061"><ele>265.0</ele><time>2026-04-05T14:58:17.275Z</time></trkpt><trkpt lat="43.4399829" lon="11.659979"><ele>266.0</ele><time>2026-04-05T14:58:18.26Z</time></trkpt><trkpt lat="43.4400439" lon="11.6600602"><ele>267.0</ele><time>2026-04-05T14:58:19.276Z</time></trkpt><trkpt lat="43.440108" lon="11.6601521"><ele>268.0</ele><time>2026-04-05T14:58:20.271Z</time></trkpt><trkpt lat="43.440172" lon="11.6602569"><ele>268.5</ele><time>2026-04-05T14:58:21.262Z</time></trkpt><trkpt lat="43.4402463" lon="11.6603741"><ele>269.0</ele><time>2026-04-05T14:58:22.264Z</time></trkpt><trkpt lat="43.4403299" lon="11.6605036"><ele>269.5</ele><time>2026-04-05T14:58:23.268Z</time></trkpt><trkpt lat="43.4404175" lon="11.6606504"><ele>270.0</ele><time>2026-04-05T14:58:24.278Z</time></trkpt><trkpt lat="43.4405111" lon="11.6608063"><ele>270.0</ele><time>2026-04-05T14:58:25.27Z</time></trkpt><trkpt lat="43.4406124" lon="11.6609725"><ele>270.0</ele><time>2026-04-05T14:58:26.273Z</time></trkpt><trkpt lat="43.440718" lon="11.6611462"><ele>270.0</ele><time>2026-04-05T14:58:27.274Z</time></trkpt><trkpt lat="43.440817" lon="11.6613108"><ele>270.75</ele><time>2026-04-05T14:58:28.259Z</time></trkpt><trkpt lat="43.4409141" lon="11.6614731"><ele>271.5</ele><time>2026-04-05T14:58:29.271Z</time></trkpt><trkpt lat="43.441006" lon="11.661625"><ele>272.25</ele><time>2026-04-05T14:58:30.269Z</time></trkpt><trkpt lat="43.4410986" lon="11.6617795"><ele>273.0</ele><time>2026-04-05T14:58:31.27Z</time></trkpt><trkpt lat="43.4411918" lon="11.6619352"><ele>273.6666666666667</ele><time>2026-04-05T14:58:32.269Z</time></trkpt><trkpt lat="43.4412861" lon="11.6620924"><ele>274.33333333333337</ele><time>2026-04-05T14:58:33.264Z</time></trkpt><trkpt lat="43.441382" lon="11.6622516"><ele>275.0</ele><time>2026-04-05T14:58:34.265Z</time></trkpt><trkpt lat="43.4414779" lon="11.6624147"><ele>275.0</ele><time>2026-04-05T14:58:35.265Z</time></trkpt><trkpt lat="43.441572" lon="11.6625763"><ele>275.0</ele><time>2026-04-05T14:58:36.279Z</time></trkpt><trkpt lat="43.4416677" lon="11.6627323"><ele>275.0</ele><time>2026-04-05T14:58:37.28Z</time></trkpt><trkpt lat="43.4417667" lon="11.6628885"><ele>275.0</ele><time>2026-04-05T14:58:38.274Z</time></trkpt><trkpt lat="43.4418659" lon="11.6630482"><ele>275.6666666666667</ele><time>2026-04-05T14:58:39.276Z</time></trkpt><trkpt lat="43.4419659" lon="11.6632132"><ele>276.3333333333333</ele><time>2026-04-05T14:58:40.26Z</time></trkpt><trkpt lat="43.4420657" lon="11.6633826"><ele>277.0</ele><time>2026-04-05T14:58:41.267Z</time></trkpt><trkpt lat="43.4421659" lon="11.6635539"><ele>278.3333333333333</ele><time>2026-04-05T14:58:42.274Z</time></trkpt><trkpt lat="43.4422674" lon="11.6637231"><ele>279.6666666666667</ele><time>2026-04-05T14:58:43.269Z</time></trkpt><trkpt lat="43.442369" lon="11.6638858"><ele>281.0</ele><time>2026-04-05T14:58:44.275Z</time></trkpt><trkpt lat="43.4424652" lon="11.6640447"><ele>281.0</ele><time>2026-04-05T14:58:45.267Z</time></trkpt><trkpt lat="43.4425612" lon="11.6642074"><ele>281.0</ele><time>2026-04-05T14:58:46.266Z</time></trkpt><trkpt lat="43.4426562" lon="11.6643711"><ele>281.0</ele><time>2026-04-05T14:58:47.262Z</time></trkpt><trkpt lat="43.4427533" lon="11.6645375"><ele>280.33333333333337</ele><time>2026-04-05T14:58:48.264Z</time></trkpt><trkpt lat="43.4428523" lon="11.6647038"><ele>279.6666666666667</ele><time>2026-04-05T14:58:49.257Z</time></trkpt><trkpt lat="43.4429541" lon="11.6648703"><ele>279.0</ele><time>2026-04-05T14:58:50.269Z</time></trkpt><trkpt lat="43.443055" lon="11.6650405"><ele>279.0</ele><time>2026-04-05T14:58:51.268Z</time></trkpt><trkpt lat="43.4431583" lon="11.6652133"><ele>279.0</ele><time>2026-04-05T14:58:52.271Z</time></trkpt><trkpt lat="43.4432621" lon="11.6653879"><ele>279.0</ele><time>2026-04-05T14:58:53.268Z</time></trkpt><trkpt lat="43.4433663" lon="11.6655625"><ele>280.3333333333333</ele><time>2026-04-05T14:58:54.278Z</time></trkpt><trkpt lat="43.4434741" lon="11.6657327"><ele>281.66666666666663</ele><time>2026-04-05T14:58:55.256Z</time></trkpt><trkpt lat="43.4435827" lon="11.6658901"><ele>283.0</ele><time>2026-04-05T14:58:56.269Z</time></trkpt><trkpt lat="43.4436995" lon="11.6660373"><ele>282.0</ele><time>2026-04-05T14:58:57.265Z</time></trkpt><trkpt lat="43.4438264" lon="11.666173"><ele>281.0</ele><time>2026-04-05T14:58:58.254Z</time></trkpt><trkpt lat="43.4439571" lon="11.6663027"><ele>280.0</ele><time>2026-04-05T14:58:59.28Z</time></trkpt><trkpt lat="43.4440855" lon="11.6664315"><ele>280.0</ele><time>2026-04-05T14:59:00.261Z</time></trkpt><trkpt lat="43.4442088" lon="11.6665637"><ele>280.0</ele><time>2026-04-05T14:59:01.266Z</time></trkpt><trkpt lat="43.4443304" lon="11.6666967"><ele>280.0</ele><time>2026-04-05T14:59:02.275Z</time></trkpt><trkpt lat="43.444457" lon="11.6668246"><ele>280.0</ele><time>2026-04-05T14:59:03.275Z</time></trkpt><trkpt lat="43.4445891" lon="11.6669521"><ele>280.0</ele><time>2026-04-05T14:59:04.263Z</time></trkpt><trkpt lat="43.4447204" lon="11.6670805"><ele>280.0</ele><time>2026-04-05T14:59:05.27Z</time></trkpt><trkpt lat="43.4448505" lon="11.6671978"><ele>280.0</ele><time>2026-04-05T14:59:06.26Z</time></trkpt><trkpt lat="43.4449881" lon="11.6672981"><ele>280.0</ele><time>2026-04-05T14:59:07.272Z</time></trkpt><trkpt lat="43.4451324" lon="11.6673814"><ele>280.0</ele><time>2026-04-05T14:59:08.258Z</time></trkpt><trkpt lat="43.4452861" lon="11.6674453"><ele>280.0</ele><time>2026-04-05T14:59:09.261Z</time></trkpt><trkpt lat="43.4454461" lon="11.6674951"><ele>280.0</ele><time>2026-04-05T14:59:10.259Z</time></trkpt><trkpt lat="43.4456109" lon="11.667535"><ele>280.0</ele><time>2026-04-05T14:59:11.259Z</time></trkpt><trkpt lat="43.4457748" lon="11.6675583"><ele>280.0</ele><time>2026-04-05T14:59:12.263Z</time></trkpt><trkpt lat="43.4459294" lon="11.6675739"><ele>280.0</ele><time>2026-04-05T14:59:13.261Z</time></trkpt><trkpt lat="43.4460731" lon="11.6675953"><ele>280.0</ele><time>2026-04-05T14:59:14.27Z</time></trkpt><trkpt lat="43.4462073" lon="11.6676155"><ele>280.0</ele><time>2026-04-05T14:59:15.27Z</time></trkpt><trkpt lat="43.4463352" lon="11.6676229"><ele>280.5</ele><time>2026-04-05T14:59:16.268Z</time></trkpt><trkpt lat="43.4464635" lon="11.6676313"><ele>281.0</ele><time>2026-04-05T14:59:17.261Z</time></trkpt><trkpt lat="43.4465907" lon="11.6676607"><ele>281.5</ele><time>2026-04-05T14:59:18.262Z</time></trkpt><trkpt lat="43.4467134" lon="11.6677147"><ele>282.0</ele><time>2026-04-05T14:59:19.261Z</time></trkpt><trkpt lat="43.4468257" lon="11.6677932"><ele>282.25</ele><time>2026-04-05T14:59:20.27Z</time></trkpt><trkpt lat="43.4469312" lon="11.6678952"><ele>282.5</ele><time>2026-04-05T14:59:21.258Z</time></trkpt><trkpt lat="43.4470391" lon="11.668"><ele>282.75</ele><time>2026-04-05T14:59:22.273Z</time></trkpt><trkpt lat="43.4471586" lon="11.6681022"><ele>283.0</ele><time>2026-04-05T14:59:23.264Z</time></trkpt><trkpt lat="43.4472812" lon="11.6682145"><ele>284.0</ele><time>2026-04-05T14:59:24.273Z</time></trkpt><trkpt lat="43.4474037" lon="11.6683296"><ele>285.0</ele><time>2026-04-05T14:59:25.274Z</time></trkpt><trkpt lat="43.4475255" lon="11.6684399"><ele>286.0</ele><time>2026-04-05T14:59:26.273Z</time></trkpt><trkpt lat="43.4476416" lon="11.6685624"><ele>287.0</ele><time>2026-04-05T14:59:27.268Z</time></trkpt><trkpt lat="43.4477476" lon="11.6687008"><ele>287.6666666666667</ele><time>2026-04-05T14:59:28.257Z</time></trkpt><trkpt lat="43.4478473" lon="11.6688493"><ele>288.3333333333333</ele><time>2026-04-05T14:59:29.274Z</time></trkpt><trkpt lat="43.4479575" lon="11.6689931"><ele>289.0</ele><time>2026-04-05T14:59:30.274Z</time></trkpt><trkpt lat="43.4480727" lon="11.6691399"><ele>289.5</ele><time>2026-04-05T14:59:31.269Z</time></trkpt><trkpt lat="43.4481872" lon="11.6692846"><ele>290.0</ele><time>2026-04-05T14:59:32.261Z</time></trkpt><trkpt lat="43.4482978" lon="11.6694215"><ele>290.5</ele><time>2026-04-05T14:59:33.26Z</time></trkpt><trkpt lat="43.448409" lon="11.6695438"><ele>291.0</ele><time>2026-04-05T14:59:34.271Z</time></trkpt><trkpt lat="43.4485303" lon="11.6696398"><ele>292.0</ele><time>2026-04-05T14:59:35.267Z</time></trkpt><trkpt lat="43.448659" lon="11.6697122"><ele>293.0</ele><time>2026-04-05T14:59:36.256Z</time></trkpt><trkpt lat="43.4487823" lon="11.6697767"><ele>294.0</ele><time>2026-04-05T14:59:37.274Z</time></trkpt><trkpt lat="43.4488822" lon="11.6698485"><ele>295.0</ele><time>2026-04-05T14:59:38.264Z</time></trkpt><trkpt lat="43.448956" lon="11.66994"><ele>296.8</ele><time>2026-04-05T14:59:39.264Z</time></trkpt><trkpt lat="43.4490084" lon="11.6700545"><ele>298.6</ele><time>2026-04-05T14:59:40.274Z</time></trkpt><trkpt lat="43.4490437" lon="11.6701866"><ele>300.4</ele><time>2026-04-05T14:59:41.274Z</time></trkpt><trkpt lat="43.4490791" lon="11.6703317"><ele>302.2</ele><time>2026-04-05T14:59:42.272Z</time></trkpt><trkpt lat="43.4491191" lon="11.670486"><ele>304.0</ele><time>2026-04-05T14:59:43.273Z</time></trkpt><trkpt lat="43.4491561" lon="11.6706559"><ele>306.0</ele><time>2026-04-05T14:59:44.27Z</time></trkpt><trkpt lat="43.4491882" lon="11.6708507"><ele>308.0</ele><time>2026-04-05T14:59:45.253Z</time></trkpt><trkpt lat="43.4492333" lon="11.6710397"><ele>310.0</ele><time>2026-04-05T14:59:46.271Z</time></trkpt><trkpt lat="43.449276" lon="11.6712193"><ele>312.0</ele><time>2026-04-05T14:59:47.263Z</time></trkpt><trkpt lat="43.4493026" lon="11.6713771"><ele>312.0</ele><time>2026-04-05T14:59:48.27Z</time></trkpt><trkpt lat="43.4493071" lon="11.6715228"><ele>312.0</ele><time>2026-04-05T14:59:49.266Z</time></trkpt><trkpt lat="43.4493087" lon="11.6716508"><ele>312.0</ele><time>2026-04-05T14:59:50.276Z</time></trkpt><trkpt lat="43.4493191" lon="11.6717542"><ele>312.0</ele><time>2026-04-05T14:59:51.263Z</time></trkpt><trkpt lat="43.4493431" lon="11.6718359"><ele>312.0</ele><time>2026-04-05T14:59:52.259Z</time></trkpt><trkpt lat="43.4493967" lon="11.6718925"><ele>312.0</ele><time>2026-04-05T14:59:53.261Z</time></trkpt><trkpt lat="43.4494628" lon="11.6719241"><ele>311.4</ele><time>2026-04-05T14:59:54.257Z</time></trkpt><trkpt lat="43.4495461" lon="11.6719508"><ele>310.79999999999995</ele><time>2026-04-05T14:59:55.261Z</time></trkpt><trkpt lat="43.4496366" lon="11.6719902"><ele>310.2</ele><time>2026-04-05T14:59:56.258Z</time></trkpt><trkpt lat="43.4497399" lon="11.6720388"><ele>309.59999999999997</ele><time>2026-04-05T14:59:57.264Z</time></trkpt><trkpt lat="43.4498477" lon="11.6721041"><ele>309.0</ele><time>2026-04-05T14:59:58.273Z</time></trkpt><trkpt lat="43.4499543" lon="11.6721774"><ele>311.0</ele><time>2026-04-05T14:59:59.27Z</time></trkpt><trkpt lat="43.4500735" lon="11.6722542"><ele>313.0</ele><time>2026-04-05T15:00:00.269Z</time></trkpt><trkpt lat="43.4501973" lon="11.6723357"><ele>315.0</ele><time>2026-04-05T15:00:01.273Z</time></trkpt><trkpt lat="43.4503233" lon="11.672416"><ele>317.0</ele><time>2026-04-05T15:00:02.269Z</time></trkpt><trkpt lat="43.4504457" lon="11.6725031"><ele>319.25</ele><time>2026-04-05T15:00:03.264Z</time></trkpt><trkpt lat="43.4505644" lon="11.6725765"><ele>321.5</ele><time>2026-04-05T15:00:04.259Z</time></trkpt><trkpt lat="43.4506716" lon="11.6726461"><ele>323.75</ele><time>2026-04-05T15:00:05.269Z</time></trkpt><trkpt lat="43.4507715" lon="11.6727095"><ele>326.0</ele><time>2026-04-05T15:00:06.264Z</time></trkpt><trkpt lat="43.4508582" lon="11.672759"><ele>326.0</ele><time>2026-04-05T15:00:07.255Z</time></trkpt><trkpt lat="43.4509419" lon="11.6727775"><ele>326.0</ele><time>2026-04-05T15:00:08.26Z</time></trkpt><trkpt lat="43.4510271" lon="11.6727602"><ele>326.0</ele><time>2026-04-05T15:00:09.261Z</time></trkpt><trkpt lat="43.4511149" lon="11.6727206"><ele>326.0</ele><time>2026-04-05T15:00:10.261Z</time></trkpt><trkpt lat="43.4512057" lon="11.6726663"><ele>326.0</ele><time>2026-04-05T15:00:11.259Z</time></trkpt><trkpt lat="43.451301" lon="11.6726047"><ele>327.4</ele><time>2026-04-05T15:00:12.262Z</time></trkpt><trkpt lat="43.4514017" lon="11.6725398"><ele>328.8</ele><time>2026-04-05T15:00:13.269Z</time></trkpt><trkpt lat="43.4515059" lon="11.6724739"><ele>330.2</ele><time>2026-04-05T15:00:14.259Z</time></trkpt><trkpt lat="43.4516063" lon="11.6724114"><ele>331.59999999999997</ele><time>2026-04-05T15:00:15.261Z</time></trkpt><trkpt lat="43.451695" lon="11.6723431"><ele>333.0</ele><time>2026-04-05T15:00:16.268Z</time></trkpt><trkpt lat="43.4517644" lon="11.6722686"><ele>333.0</ele><time>2026-04-05T15:00:17.272Z</time></trkpt><trkpt lat="43.4518194" lon="11.6721945"><ele>333.0</ele><time>2026-04-05T15:00:18.266Z</time></trkpt><trkpt lat="43.4518568" lon="11.6721163"><ele>333.0</ele><time>2026-04-05T15:00:19.261Z</time></trkpt><trkpt lat="43.4519006" lon="11.6720009"><ele>333.0</ele><time>2026-04-05T15:00:21.257Z</time></trkpt><trkpt lat="43.4519533" lon="11.6719493"><ele>333.0</ele><time>2026-04-05T15:00:23.275Z</time></trkpt><trkpt lat="43.4520505" lon="11.6719758"><ele>333.0</ele><time>2026-04-05T15:00:26.271Z</time></trkpt><trkpt lat="43.45216" lon="11.6720312"><ele>333.3333333333333</ele><time>2026-04-05T15:00:28.263Z</time></trkpt><trkpt lat="43.4522256" lon="11.6720635"><ele>333.6666666666667</ele><time>2026-04-05T15:00:29.265Z</time></trkpt><trkpt lat="43.4523273" lon="11.6721241"><ele>334.0</ele><time>2026-04-05T15:00:31.275Z</time></trkpt><trkpt lat="43.4523922" lon="11.6721991"><ele>334.33333333333337</ele><time>2026-04-05T15:00:34.268Z</time></trkpt><trkpt lat="43.4524251" lon="11.6722995"><ele>334.6666666666667</ele><time>2026-04-05T15:00:36.254Z</time></trkpt><trkpt lat="43.452496" lon="11.6723841"><ele>335.0</ele><time>2026-04-05T15:00:38.271Z</time></trkpt><trkpt lat="43.4525896" lon="11.6724828"><ele>335.0</ele><time>2026-04-05T15:00:40.273Z</time></trkpt><trkpt lat="43.4526664" lon="11.6725806"><ele>335.0</ele><time>2026-04-05T15:00:42.267Z</time></trkpt><trkpt lat="43.4526801" lon="11.6727135"><ele>335.0</ele><time>2026-04-05T15:00:44.26Z</time></trkpt><trkpt lat="43.4526714" lon="11.6728671"><ele>335.0</ele><time>2026-04-05T15:00:46.271Z</time></trkpt><trkpt lat="43.4526524" lon="11.673034"><ele>335.0</ele><time>2026-04-05T15:00:48.264Z</time></trkpt><trkpt lat="43.4526487" lon="11.6731248"><ele>336.33333333333337</ele><time>2026-04-05T15:00:49.27Z</time></trkpt><trkpt lat="43.4526523" lon="11.67322"><ele>337.6666666666667</ele><time>2026-04-05T15:00:50.261Z</time></trkpt><trkpt lat="43.4526585" lon="11.6733208"><ele>339.0</ele><time>2026-04-05T15:00:51.272Z</time></trkpt><trkpt lat="43.4526584" lon="11.6734233"><ele>340.3333333333333</ele><time>2026-04-05T15:00:52.259Z</time></trkpt><trkpt lat="43.4526538" lon="11.673532"><ele>341.66666666666663</ele><time>2026-04-05T15:00:53.264Z</time></trkpt><trkpt lat="43.452656" lon="11.6736402"><ele>343.0</ele><time>2026-04-05T15:00:54.258Z</time></trkpt><trkpt lat="43.4526692" lon="11.6737462"><ele>344.5</ele><time>2026-04-05T15:00:55.257Z</time></trkpt><trkpt lat="43.4526938" lon="11.6738467"><ele>346.0</ele><time>2026-04-05T15:00:56.259Z</time></trkpt><trkpt lat="43.4527169" lon="11.6739548"><ele>347.5</ele><time>2026-04-05T15:00:57.269Z</time></trkpt><trkpt lat="43.4527369" lon="11.6740664"><ele>349.0</ele><time>2026-04-05T15:00:58.265Z</time></trkpt><trkpt lat="43.452752" lon="11.6741822"><ele>350.5</ele><time>2026-04-05T15:00:59.265Z</time></trkpt><trkpt lat="43.4527621" lon="11.674302"><ele>352.0</ele><time>2026-04-05T15:01:00.269Z</time></trkpt><trkpt lat="43.4527758" lon="11.6744293"><ele>352.8333333333333</ele><time>2026-04-05T15:01:01.267Z</time></trkpt><trkpt lat="43.452788" lon="11.6745578"><ele>353.66666666666663</ele><time>2026-04-05T15:01:02.265Z</time></trkpt><trkpt lat="43.4528011" lon="11.6746899"><ele>354.5</ele><time>2026-04-05T15:01:03.276Z</time></trkpt><trkpt lat="43.4528152" lon="11.6748301"><ele>355.3333333333333</ele><time>2026-04-05T15:01:04.255Z</time></trkpt><trkpt lat="43.4528227" lon="11.6749393"><ele>356.1666666666667</ele><time>2026-04-05T15:01:05.262Z</time></trkpt><trkpt lat="43.4528308" lon="11.6750351"><ele>357.0</ele><time>2026-04-05T15:01:06.272Z</time></trkpt><trkpt lat="43.4528424" lon="11.6751872"><ele>358.20000000000005</ele><time>2026-04-05T15:01:08.261Z</time></trkpt><trkpt lat="43.4528443" lon="11.675317"><ele>359.4</ele><time>2026-04-05T15:01:10.258Z</time></trkpt><trkpt lat="43.4528522" lon="11.6754535"><ele>360.6</ele><time>2026-04-05T15:01:12.263Z</time></trkpt><trkpt lat="43.4528472" lon="11.6755566"><ele>361.79999999999995</ele><time>2026-04-05T15:01:15.266Z</time></trkpt><trkpt lat="43.4528522" lon="11.6756476"><ele>363.0</ele><time>2026-04-05T15:02:12.271Z</time></trkpt><trkpt lat="43.452885" lon="11.6758396"><ele>363.0</ele><time>2026-04-05T15:02:14.262Z</time></trkpt><trkpt lat="43.4529093" lon="11.6759591"><ele>363.0</ele><time>2026-04-05T15:02:15.261Z</time></trkpt><trkpt lat="43.452931" lon="11.6760653"><ele>363.0</ele><time>2026-04-05T15:02:16.263Z</time></trkpt><trkpt lat="43.4529565" lon="11.6761952"><ele>363.0</ele><time>2026-04-05T15:02:17.255Z</time></trkpt><trkpt lat="43.4529842" lon="11.6763244"><ele>363.0</ele><time>2026-04-05T15:02:18.278Z</time></trkpt><trkpt lat="43.45301" lon="11.6764474"><ele>364.1666666666667</ele><time>2026-04-05T15:02:19.266Z</time></trkpt><trkpt lat="43.4530335" lon="11.676557"><ele>365.3333333333333</ele><time>2026-04-05T15:02:20.273Z</time></trkpt><trkpt lat="43.4530548" lon="11.6766618"><ele>366.5</ele><time>2026-04-05T15:02:21.267Z</time></trkpt><trkpt lat="43.4530782" lon="11.6767657"><ele>367.66666666666663</ele><time>2026-04-05T15:02:22.268Z</time></trkpt><trkpt lat="43.453098" lon="11.6768495"><ele>368.8333333333333</ele><time>2026-04-05T15:02:23.265Z</time></trkpt><trkpt lat="43.4531216" lon="11.6769846"><ele>370.0</ele><time>2026-04-05T15:02:25.259Z</time></trkpt><trkpt lat="43.4530906" lon="11.6770812"><ele>371.0</ele><time>2026-04-05T15:02:30.257Z</time></trkpt><trkpt lat="43.4530113" lon="11.6771323"><ele>372.0</ele><time>2026-04-05T15:02:32.281Z</time></trkpt><trkpt lat="43.4529184" lon="11.6771913"><ele>373.0</ele><time>2026-04-05T15:02:34.268Z</time></trkpt><trkpt lat="43.4528309" lon="11.6772436"><ele>374.0</ele><time>2026-04-05T15:02:36.269Z</time></trkpt><trkpt lat="43.4527443" lon="11.677295"><ele>375.0</ele><time>2026-04-05T15:02:38.26Z</time></trkpt><trkpt lat="43.4526584" lon="11.6773386"><ele>375.0</ele><time>2026-04-05T15:02:40.26Z</time></trkpt><trkpt lat="43.4525794" lon="11.6773805"><ele>375.0</ele><time>2026-04-05T15:02:42.26Z</time></trkpt><trkpt lat="43.4525144" lon="11.6774161"><ele>375.0</ele><time>2026-04-05T15:02:45.272Z</time></trkpt><trkpt lat="43.4526011" lon="11.6773823"><ele>375.0</ele><time>2026-04-05T15:03:41.258Z</time></trkpt><trkpt lat="43.4526691" lon="11.6773499"><ele>375.0</ele><time>2026-04-05T15:03:42.265Z</time></trkpt><trkpt lat="43.4527348" lon="11.6773121"><ele>375.0</ele><time>2026-04-05T15:03:43.26Z</time></trkpt><trkpt lat="43.4528046" lon="11.6772732"><ele>375.0</ele><time>2026-04-05T15:03:44.276Z</time></trkpt><trkpt lat="43.4528702" lon="11.6772317"><ele>375.0</ele><time>2026-04-05T15:03:45.256Z</time></trkpt><trkpt lat="43.4529768" lon="11.6771621"><ele>375.0</ele><time>2026-04-05T15:03:47.263Z</time></trkpt><trkpt lat="43.4530543" lon="11.6771099"><ele>375.0</ele><time>2026-04-05T15:03:49.26Z</time></trkpt><trkpt lat="43.4531186" lon="11.677074"><ele>375.0</ele><time>2026-04-05T15:03:52.263Z</time></trkpt><trkpt lat="43.4531403" lon="11.6769574"><ele>375.0</ele><time>2026-04-05T15:03:55.257Z</time></trkpt><trkpt lat="43.4530856" lon="11.6768125"><ele>374.0</ele><time>2026-04-05T15:03:57.269Z</time></trkpt><trkpt lat="43.453055" lon="11.676682"><ele>373.0</ele><time>2026-04-05T15:03:58.271Z</time></trkpt><trkpt lat="43.4530233" lon="11.6765429"><ele>372.0</ele><time>2026-04-05T15:03:59.271Z</time></trkpt><trkpt lat="43.4529997" lon="11.6764144"><ele>371.0</ele><time>2026-04-05T15:04:00.256Z</time></trkpt><trkpt lat="43.4529742" lon="11.6762903"><ele>370.0</ele><time>2026-04-05T15:04:01.259Z</time></trkpt><trkpt lat="43.4529502" lon="11.6761742"><ele>368.8333333333333</ele><time>2026-04-05T15:04:02.263Z</time></trkpt><trkpt lat="43.4529264" lon="11.6760665"><ele>367.66666666666663</ele><time>2026-04-05T15:04:03.255Z</time></trkpt><trkpt lat="43.4529065" lon="11.6759642"><ele>366.5</ele><time>2026-04-05T15:04:04.268Z</time></trkpt><trkpt lat="43.4528895" lon="11.6758662"><ele>365.3333333333333</ele><time>2026-04-05T15:04:05.265Z</time></trkpt><trkpt lat="43.4528749" lon="11.6757591"><ele>364.1666666666667</ele><time>2026-04-05T15:04:06.271Z</time></trkpt><trkpt lat="43.4528608" lon="11.6756468"><ele>363.0</ele><time>2026-04-05T15:04:07.273Z</time></trkpt><trkpt lat="43.4528546" lon="11.6755323"><ele>363.0</ele><time>2026-04-05T15:04:08.261Z</time></trkpt><trkpt lat="43.4528505" lon="11.6754108"><ele>363.0</ele><time>2026-04-05T15:04:09.271Z</time></trkpt><trkpt lat="43.4528418" lon="11.6752786"><ele>363.0</ele><time>2026-04-05T15:04:10.269Z</time></trkpt><trkpt lat="43.4528326" lon="11.6751465"><ele>363.0</ele><time>2026-04-05T15:04:11.268Z</time></trkpt><trkpt lat="43.4528234" lon="11.6750197"><ele>363.0</ele><time>2026-04-05T15:04:12.269Z</time></trkpt><trkpt lat="43.4528108" lon="11.6749066"><ele>362.1428571428571</ele><time>2026-04-05T15:04:13.279Z</time></trkpt><trkpt lat="43.4528029" lon="11.6748087"><ele>361.2857142857143</ele><time>2026-04-05T15:04:14.278Z</time></trkpt><trkpt lat="43.4527975" lon="11.6747096"><ele>360.42857142857144</ele><time>2026-04-05T15:04:15.255Z</time></trkpt><trkpt lat="43.4527918" lon="11.6746097"><ele>359.57142857142856</ele><time>2026-04-05T15:04:16.266Z</time></trkpt><trkpt lat="43.4527832" lon="11.6745083"><ele>358.7142857142857</ele><time>2026-04-05T15:04:17.26Z</time></trkpt><trkpt lat="43.4527738" lon="11.674403"><ele>357.85714285714283</ele><time>2026-04-05T15:04:18.266Z</time></trkpt><trkpt lat="43.452763" lon="11.6742954"><ele>357.0</ele><time>2026-04-05T15:04:19.276Z</time></trkpt><trkpt lat="43.4527485" lon="11.6741827"><ele>356.1666666666667</ele><time>2026-04-05T15:04:20.266Z</time></trkpt><trkpt lat="43.4527281" lon="11.6740665"><ele>355.3333333333333</ele><time>2026-04-05T15:04:21.279Z</time></trkpt><trkpt lat="43.4527063" lon="11.6739517"><ele>354.5</ele><time>2026-04-05T15:04:22.269Z</time></trkpt><trkpt lat="43.4526857" lon="11.6738466"><ele>353.66666666666663</ele><time>2026-04-05T15:04:23.263Z</time></trkpt><trkpt lat="43.4526664" lon="11.6737482"><ele>352.8333333333333</ele><time>2026-04-05T15:04:24.265Z</time></trkpt><trkpt lat="43.4526516" lon="11.6736475"><ele>352.0</ele><time>2026-04-05T15:04:25.276Z</time></trkpt><trkpt lat="43.4526513" lon="11.6735468"><ele>350.5</ele><time>2026-04-05T15:04:26.274Z</time></trkpt><trkpt lat="43.4526579" lon="11.673447"><ele>349.0</ele><time>2026-04-05T15:04:27.266Z</time></trkpt><trkpt lat="43.4526577" lon="11.6733452"><ele>347.5</ele><time>2026-04-05T15:04:28.269Z</time></trkpt><trkpt lat="43.4526525" lon="11.6732396"><ele>346.0</ele><time>2026-04-05T15:04:29.277Z</time></trkpt><trkpt lat="43.4526503" lon="11.6731409"><ele>344.5</ele><time>2026-04-05T15:04:30.267Z</time></trkpt><trkpt lat="43.4526532" lon="11.6730498"><ele>343.0</ele><time>2026-04-05T15:04:31.281Z</time></trkpt><trkpt lat="43.4526714" lon="11.6728843"><ele>341.4</ele><time>2026-04-05T15:04:33.265Z</time></trkpt><trkpt lat="43.4526826" lon="11.6727368"><ele>339.79999999999995</ele><time>2026-04-05T15:04:35.26Z</time></trkpt><trkpt lat="43.4526606" lon="11.6726012"><ele>338.2</ele><time>2026-04-05T15:04:37.271Z</time></trkpt><trkpt lat="43.4525815" lon="11.6724894"><ele>336.6</ele><time>2026-04-05T15:04:39.265Z</time></trkpt><trkpt lat="43.4525249" lon="11.6724322"><ele>335.0</ele><time>2026-04-05T15:04:40.262Z</time></trkpt><trkpt lat="43.4524437" lon="11.6723285"><ele>335.0</ele><time>2026-04-05T15:04:42.255Z</time></trkpt><trkpt lat="43.452401" lon="11.6722581"><ele>335.0</ele><time>2026-04-05T15:04:44.259Z</time></trkpt><trkpt lat="43.4523806" lon="11.6721745"><ele>335.0</ele><time>2026-04-05T15:04:48.26Z</time></trkpt><trkpt lat="43.4524724" lon="11.6721755"><ele>335.0</ele><time>2026-04-05T15:04:51.271Z</time></trkpt><trkpt lat="43.452535" lon="11.6722213"><ele>335.0</ele><time>2026-04-05T15:04:52.272Z</time></trkpt><trkpt lat="43.4526287" lon="11.6722822"><ele>335.0</ele><time>2026-04-05T15:04:53.26Z</time></trkpt><trkpt lat="43.4527294" lon="11.6723414"><ele>335.0</ele><time>2026-04-05T15:04:54.263Z</time></trkpt><trkpt lat="43.4528218" lon="11.6723944"><ele>335.0</ele><time>2026-04-05T15:04:55.264Z</time></trkpt><trkpt lat="43.4529103" lon="11.6724465"><ele>335.0</ele><time>2026-04-05T15:04:56.256Z</time></trkpt><trkpt lat="43.4529996" lon="11.6724948"><ele>335.0</ele><time>2026-04-05T15:04:57.269Z</time></trkpt><trkpt lat="43.4531017" lon="11.6725246"><ele>335.0</ele><time>2026-04-05T15:04:58.262Z</time></trkpt><trkpt lat="43.4532025" lon="11.6725265"><ele>333.8</ele><time>2026-04-05T15:04:59.277Z</time></trkpt><trkpt lat="43.4532934" lon="11.6724927"><ele>332.6</ele><time>2026-04-05T15:05:00.265Z</time></trkpt><trkpt lat="43.4533834" lon="11.6724361"><ele>331.4</ele><time>2026-04-05T15:05:01.263Z</time></trkpt><trkpt lat="43.4534861" lon="11.6723783"><ele>330.2</ele><time>2026-04-05T15:05:02.262Z</time></trkpt><trkpt lat="43.4536023" lon="11.6723296"><ele>329.0</ele><time>2026-04-05T15:05:03.251Z</time></trkpt><trkpt lat="43.4537235" lon="11.6723002"><ele>327.4</ele><time>2026-04-05T15:05:04.262Z</time></trkpt><trkpt lat="43.4538396" lon="11.6723052"><ele>325.79999999999995</ele><time>2026-04-05T15:05:05.25Z</time></trkpt><trkpt lat="43.4539496" lon="11.6723336"><ele>324.20000000000005</ele><time>2026-04-05T15:05:06.26Z</time></trkpt><trkpt lat="43.4540468" lon="11.6723946"><ele>322.6</ele><time>2026-04-05T15:05:07.266Z</time></trkpt><trkpt lat="43.4541354" lon="11.6724842"><ele>321.0</ele><time>2026-04-05T15:05:08.259Z</time></trkpt><trkpt lat="43.4542246" lon="11.6725805"><ele>321.0</ele><time>2026-04-05T15:05:09.275Z</time></trkpt><trkpt lat="43.4543024" lon="11.6726798"><ele>321.0</ele><time>2026-04-05T15:05:10.263Z</time></trkpt><trkpt lat="43.4543726" lon="11.6727852"><ele>321.0</ele><time>2026-04-05T15:05:11.267Z</time></trkpt><trkpt lat="43.4544306" lon="11.6729078"><ele>321.0</ele><time>2026-04-05T15:05:12.268Z</time></trkpt><trkpt lat="43.4544828" lon="11.6730579"><ele>321.0</ele><time>2026-04-05T15:05:13.259Z</time></trkpt><trkpt lat="43.4545416" lon="11.6732306"><ele>322.5</ele><time>2026-04-05T15:05:14.258Z</time></trkpt><trkpt lat="43.4545965" lon="11.6734152"><ele>324.0</ele><time>2026-04-05T15:05:15.265Z</time></trkpt><trkpt lat="43.4546449" lon="11.6736108"><ele>325.5</ele><time>2026-04-05T15:05:16.275Z</time></trkpt><trkpt lat="43.4546849" lon="11.6737943"><ele>327.0</ele><time>2026-04-05T15:05:17.27Z</time></trkpt><trkpt lat="43.4547211" lon="11.6739766"><ele>324.8333333333333</ele><time>2026-04-05T15:05:18.267Z</time></trkpt><trkpt lat="43.4547408" lon="11.6741336"><ele>322.6666666666667</ele><time>2026-04-05T15:05:19.263Z</time></trkpt><trkpt lat="43.4547416" lon="11.6742685"><ele>320.5</ele><time>2026-04-05T15:05:20.262Z</time></trkpt><trkpt lat="43.4547269" lon="11.6743824"><ele>318.33333333333337</ele><time>2026-04-05T15:05:21.257Z</time></trkpt><trkpt lat="43.4547146" lon="11.6744865"><ele>316.1666666666667</ele><time>2026-04-05T15:05:22.269Z</time></trkpt><trkpt lat="43.4547244" lon="11.6745797"><ele>314.0</ele><time>2026-04-05T15:05:23.269Z</time></trkpt><trkpt lat="43.4547583" lon="11.674658"><ele>314.0</ele><time>2026-04-05T15:05:24.269Z</time></trkpt><trkpt lat="43.4548088" lon="11.6747154"><ele>314.0</ele><time>2026-04-05T15:05:25.263Z</time></trkpt><trkpt lat="43.4548716" lon="11.6747368"><ele>314.0</ele><time>2026-04-05T15:05:26.265Z</time></trkpt><trkpt lat="43.4549341" lon="11.674718"><ele>314.0</ele><time>2026-04-05T15:05:27.26Z</time></trkpt><trkpt lat="43.455008" lon="11.6745762"><ele>314.0</ele><time>2026-04-05T15:05:29.264Z</time></trkpt><trkpt lat="43.4550212" lon="11.6744591"><ele>314.0</ele><time>2026-04-05T15:05:30.264Z</time></trkpt><trkpt lat="43.4550358" lon="11.6743238"><ele>312.5</ele><time>2026-04-05T15:05:31.268Z</time></trkpt><trkpt lat="43.4550542" lon="11.6741657"><ele>311.0</ele><time>2026-04-05T15:05:32.251Z</time></trkpt><trkpt lat="43.4550702" lon="11.673986"><ele>309.5</ele><time>2026-04-05T15:05:33.265Z</time></trkpt><trkpt lat="43.4550886" lon="11.6737918"><ele>308.0</ele><time>2026-04-05T15:05:34.266Z</time></trkpt><trkpt lat="43.4551193" lon="11.6736071"><ele>307.75</ele><time>2026-04-05T15:05:35.268Z</time></trkpt><trkpt lat="43.4551697" lon="11.673428"><ele>307.5</ele><time>2026-04-05T15:05:36.27Z</time></trkpt><trkpt lat="43.4552314" lon="11.6732433"><ele>307.25</ele><time>2026-04-05T15:05:37.269Z</time></trkpt><trkpt lat="43.4552913" lon="11.6730626"><ele>307.0</ele><time>2026-04-05T15:05:38.261Z</time></trkpt><trkpt lat="43.4553499" lon="11.6728865"><ele>306.5</ele><time>2026-04-05T15:05:39.262Z</time></trkpt><trkpt lat="43.4554099" lon="11.6727153"><ele>306.0</ele><time>2026-04-05T15:05:40.268Z</time></trkpt><trkpt lat="43.4554699" lon="11.6725479"><ele>305.5</ele><time>2026-04-05T15:05:41.253Z</time></trkpt><trkpt lat="43.4555277" lon="11.6723803"><ele>305.0</ele><time>2026-04-05T15:05:42.26Z</time></trkpt><trkpt lat="43.4555715" lon="11.6722094"><ele>301.25</ele><time>2026-04-05T15:05:43.256Z</time></trkpt><trkpt lat="43.4556025" lon="11.6720389"><ele>297.5</ele><time>2026-04-05T15:05:44.264Z</time></trkpt><trkpt lat="43.4556314" lon="11.6718713"><ele>293.75</ele><time>2026-04-05T15:05:45.255Z</time></trkpt><trkpt lat="43.4556541" lon="11.6717051"><ele>290.0</ele><time>2026-04-05T15:05:46.26Z</time></trkpt><trkpt lat="43.455668" lon="11.6715413"><ele>289.75</ele><time>2026-04-05T15:05:47.265Z</time></trkpt><trkpt lat="43.4556685" lon="11.6713806"><ele>289.5</ele><time>2026-04-05T15:05:48.262Z</time></trkpt><trkpt lat="43.4556606" lon="11.6712243"><ele>289.25</ele><time>2026-04-05T15:05:49.269Z</time></trkpt><trkpt lat="43.4556579" lon="11.6710728"><ele>289.0</ele><time>2026-04-05T15:05:50.26Z</time></trkpt><trkpt lat="43.4556562" lon="11.6709189"><ele>288.0</ele><time>2026-04-05T15:05:51.276Z</time></trkpt><trkpt lat="43.4556546" lon="11.6707473"><ele>287.0</ele><time>2026-04-05T15:05:52.263Z</time></trkpt><trkpt lat="43.4556693" lon="11.6705646"><ele>286.0</ele><time>2026-04-05T15:05:53.26Z</time></trkpt><trkpt lat="43.4557012" lon="11.6703839"><ele>285.0</ele><time>2026-04-05T15:05:54.269Z</time></trkpt><trkpt lat="43.4557476" lon="11.6702151"><ele>284.5</ele><time>2026-04-05T15:05:55.262Z</time></trkpt><trkpt lat="43.4558027" lon="11.6700563"><ele>284.0</ele><time>2026-04-05T15:05:56.268Z</time></trkpt><trkpt lat="43.4558705" lon="11.6699122"><ele>283.5</ele><time>2026-04-05T15:05:57.266Z</time></trkpt><trkpt lat="43.4559546" lon="11.6697951"><ele>283.0</ele><time>2026-04-05T15:05:58.268Z</time></trkpt><trkpt lat="43.4560445" lon="11.6697081"><ele>283.0</ele><time>2026-04-05T15:05:59.265Z</time></trkpt><trkpt lat="43.4561267" lon="11.6696491"><ele>283.0</ele><time>2026-04-05T15:06:00.258Z</time></trkpt><trkpt lat="43.4562033" lon="11.6696116"><ele>283.0</ele><time>2026-04-05T15:06:01.27Z</time></trkpt><trkpt lat="43.456288" lon="11.6695902"><ele>283.0</ele><time>2026-04-05T15:06:02.264Z</time></trkpt><trkpt lat="43.4563866" lon="11.6695915"><ele>283.0</ele><time>2026-04-05T15:06:03.268Z</time></trkpt><trkpt lat="43.4564982" lon="11.6695831"><ele>282.5</ele><time>2026-04-05T15:06:04.259Z</time></trkpt><trkpt lat="43.4566224" lon="11.669548"><ele>282.0</ele><time>2026-04-05T15:06:05.269Z</time></trkpt><trkpt lat="43.4567547" lon="11.6694868"><ele>281.5</ele><time>2026-04-05T15:06:06.264Z</time></trkpt><trkpt lat="43.456885" lon="11.6694072"><ele>281.0</ele><time>2026-04-05T15:06:07.273Z</time></trkpt><trkpt lat="43.4570074" lon="11.6693062"><ele>280.75</ele><time>2026-04-05T15:06:08.267Z</time></trkpt><trkpt lat="43.4571037" lon="11.6691821"><ele>280.5</ele><time>2026-04-05T15:06:09.261Z</time></trkpt><trkpt lat="43.4571784" lon="11.6690305"><ele>280.25</ele><time>2026-04-05T15:06:10.264Z</time></trkpt><trkpt lat="43.4572452" lon="11.6688691"><ele>280.0</ele><time>2026-04-05T15:06:11.268Z</time></trkpt><trkpt lat="43.4573298" lon="11.6687229"><ele>281.25</ele><time>2026-04-05T15:06:12.265Z</time></trkpt><trkpt lat="43.4574324" lon="11.6685965"><ele>282.5</ele><time>2026-04-05T15:06:13.264Z</time></trkpt><trkpt lat="43.4575449" lon="11.6684804"><ele>283.75</ele><time>2026-04-05T15:06:14.265Z</time></trkpt><trkpt lat="43.4576639" lon="11.6683963"><ele>285.0</ele><time>2026-04-05T15:06:15.27Z</time></trkpt><trkpt lat="43.4577813" lon="11.6683458"><ele>285.0</ele><time>2026-04-05T15:06:16.262Z</time></trkpt><trkpt lat="43.4578994" lon="11.6683187"><ele>285.0</ele><time>2026-04-05T15:06:17.257Z</time></trkpt><trkpt lat="43.458025" lon="11.6683138"><ele>285.0</ele><time>2026-04-05T15:06:18.265Z</time></trkpt><trkpt lat="43.4581537" lon="11.6683332"><ele>285.0</ele><time>2026-04-05T15:06:19.265Z</time></trkpt><trkpt lat="43.4582918" lon="11.6683679"><ele>284.0</ele><time>2026-04-05T15:06:20.272Z</time></trkpt><trkpt lat="43.4584383" lon="11.6684158"><ele>283.0</ele><time>2026-04-05T15:06:21.273Z</time></trkpt><trkpt lat="43.4585984" lon="11.6684695"><ele>282.0</ele><time>2026-04-05T15:06:22.264Z</time></trkpt><trkpt lat="43.458756" lon="11.6685273"><ele>281.3333333333333</ele><time>2026-04-05T15:06:23.271Z</time></trkpt><trkpt lat="43.4589022" lon="11.6685863"><ele>280.66666666666663</ele><time>2026-04-05T15:06:24.262Z</time></trkpt><trkpt lat="43.4590481" lon="11.6686458"><ele>280.0</ele><time>2026-04-05T15:06:25.258Z</time></trkpt><trkpt lat="43.4591992" lon="11.6687204"><ele>282.3333333333333</ele><time>2026-04-05T15:06:26.272Z</time></trkpt><trkpt lat="43.4593445" lon="11.6688236"><ele>284.6666666666667</ele><time>2026-04-05T15:06:27.272Z</time></trkpt><trkpt lat="43.4594811" lon="11.668947"><ele>287.0</ele><time>2026-04-05T15:06:28.266Z</time></trkpt><trkpt lat="43.4596054" lon="11.6690727"><ele>285.0</ele><time>2026-04-05T15:06:29.263Z</time></trkpt><trkpt lat="43.4597236" lon="11.6692004"><ele>283.0</ele><time>2026-04-05T15:06:30.266Z</time></trkpt><trkpt lat="43.459825" lon="11.6693393"><ele>281.0</ele><time>2026-04-05T15:06:31.278Z</time></trkpt><trkpt lat="43.459913" lon="11.6694848"><ele>279.0</ele><time>2026-04-05T15:06:32.265Z</time></trkpt><trkpt lat="43.4599946" lon="11.6696251"><ele>279.0</ele><time>2026-04-05T15:06:33.265Z</time></trkpt><trkpt lat="43.4600888" lon="11.6697472"><ele>279.0</ele><time>2026-04-05T15:06:34.273Z</time></trkpt><trkpt lat="43.460203" lon="11.6698594"><ele>279.0</ele><time>2026-04-05T15:06:35.264Z</time></trkpt><trkpt lat="43.4603342" lon="11.669948"><ele>279.0</ele><time>2026-04-05T15:06:36.266Z</time></trkpt><trkpt lat="43.4604813" lon="11.6700007"><ele>277.6666666666667</ele><time>2026-04-05T15:06:37.265Z</time></trkpt><trkpt lat="43.4606407" lon="11.6700188"><ele>276.33333333333337</ele><time>2026-04-05T15:06:38.264Z</time></trkpt><trkpt lat="43.4608073" lon="11.6700173"><ele>275.0</ele><time>2026-04-05T15:06:39.27Z</time></trkpt><trkpt lat="43.4609762" lon="11.6700036"><ele>275.0</ele><time>2026-04-05T15:06:40.275Z</time></trkpt><trkpt lat="43.4611457" lon="11.6699747"><ele>275.0</ele><time>2026-04-05T15:06:41.257Z</time></trkpt><trkpt lat="43.4613177" lon="11.669913"><ele>275.0</ele><time>2026-04-05T15:06:42.269Z</time></trkpt><trkpt lat="43.4614936" lon="11.6698217"><ele>275.33333333333337</ele><time>2026-04-05T15:06:43.254Z</time></trkpt><trkpt lat="43.4616578" lon="11.6697283"><ele>275.6666666666667</ele><time>2026-04-05T15:06:44.272Z</time></trkpt><trkpt lat="43.4618221" lon="11.6696414"><ele>276.0</ele><time>2026-04-05T15:06:45.275Z</time></trkpt><trkpt lat="43.4619862" lon="11.6695564"><ele>276.3333333333333</ele><time>2026-04-05T15:06:46.26Z</time></trkpt><trkpt lat="43.4621348" lon="11.6694735"><ele>276.66666666666663</ele><time>2026-04-05T15:06:47.256Z</time></trkpt><trkpt lat="43.4622742" lon="11.6693913"><ele>277.0</ele><time>2026-04-05T15:06:48.262Z</time></trkpt><trkpt lat="43.462406" lon="11.6693152"><ele>277.0</ele><time>2026-04-05T15:06:49.271Z</time></trkpt><trkpt lat="43.4625316" lon="11.6692463"><ele>277.0</ele><time>2026-04-05T15:06:50.273Z</time></trkpt><trkpt lat="43.4626491" lon="11.6691803"><ele>277.0</ele><time>2026-04-05T15:06:51.253Z</time></trkpt><trkpt lat="43.4627533" lon="11.6691138"><ele>277.0</ele><time>2026-04-05T15:06:52.25Z</time></trkpt><trkpt lat="43.4628492" lon="11.6690525"><ele>277.0</ele><time>2026-04-05T15:06:53.26Z</time></trkpt><trkpt lat="43.4629425" lon="11.6690067"><ele>277.0</ele><time>2026-04-05T15:06:54.255Z</time></trkpt><trkpt lat="43.4630392" lon="11.66898"><ele>277.0</ele><time>2026-04-05T15:06:55.259Z</time></trkpt><trkpt lat="43.4631416" lon="11.6689833"><ele>277.0</ele><time>2026-04-05T15:06:56.272Z</time></trkpt><trkpt lat="43.4632506" lon="11.6690202"><ele>277.0</ele><time>2026-04-05T15:06:57.256Z</time></trkpt><trkpt lat="43.4633632" lon="11.6690935"><ele>278.3333333333333</ele><time>2026-04-05T15:06:58.263Z</time></trkpt><trkpt lat="43.4634762" lon="11.6692052"><ele>279.6666666666667</ele><time>2026-04-05T15:06:59.258Z</time></trkpt><trkpt lat="43.463587" lon="11.6693495"><ele>281.0</ele><time>2026-04-05T15:07:00.259Z</time></trkpt><trkpt lat="43.4636934" lon="11.6695214"><ele>284.33333333333337</ele><time>2026-04-05T15:07:01.259Z</time></trkpt><trkpt lat="43.4637981" lon="11.6697248"><ele>287.6666666666667</ele><time>2026-04-05T15:07:02.272Z</time></trkpt><trkpt lat="43.4638941" lon="11.6699306"><ele>291.0</ele><time>2026-04-05T15:07:03.266Z</time></trkpt><trkpt lat="43.4639816" lon="11.6701199"><ele>291.6666666666667</ele><time>2026-04-05T15:07:04.27Z</time></trkpt><trkpt lat="43.4640711" lon="11.6703097"><ele>292.33333333333337</ele><time>2026-04-05T15:07:05.268Z</time></trkpt><trkpt lat="43.4641604" lon="11.6705152"><ele>293.0</ele><time>2026-04-05T15:07:06.259Z</time></trkpt><trkpt lat="43.4642456" lon="11.6707209"><ele>293.0</ele><time>2026-04-05T15:07:07.273Z</time></trkpt><trkpt lat="43.4643331" lon="11.6709153"><ele>293.0</ele><time>2026-04-05T15:07:08.269Z</time></trkpt><trkpt lat="43.4644213" lon="11.6711048"><ele>293.0</ele><time>2026-04-05T15:07:09.26Z</time></trkpt><trkpt lat="43.4645046" lon="11.6712963"><ele>294.0</ele><time>2026-04-05T15:07:10.265Z</time></trkpt><trkpt lat="43.4645824" lon="11.6715027"><ele>295.0</ele><time>2026-04-05T15:07:11.262Z</time></trkpt><trkpt lat="43.4646493" lon="11.6717205"><ele>296.0</ele><time>2026-04-05T15:07:12.262Z</time></trkpt><trkpt lat="43.4647149" lon="11.6719324"><ele>298.6666666666667</ele><time>2026-04-05T15:07:13.266Z</time></trkpt><trkpt lat="43.4647848" lon="11.6721394"><ele>301.3333333333333</ele><time>2026-04-05T15:07:14.266Z</time></trkpt><trkpt lat="43.4648584" lon="11.6723451"><ele>304.0</ele><time>2026-04-05T15:07:15.259Z</time></trkpt><trkpt lat="43.4649411" lon="11.6725404"><ele>304.0</ele><time>2026-04-05T15:07:16.272Z</time></trkpt><trkpt lat="43.4650421" lon="11.6727161"><ele>304.0</ele><time>2026-04-05T15:07:17.265Z</time></trkpt><trkpt lat="43.4651648" lon="11.6728783"><ele>304.0</ele><time>2026-04-05T15:07:18.266Z</time></trkpt><trkpt lat="43.4653008" lon="11.6730299"><ele>307.66666666666663</ele><time>2026-04-05T15:07:19.265Z</time></trkpt><trkpt lat="43.4654472" lon="11.6731721"><ele>311.3333333333333</ele><time>2026-04-05T15:07:20.267Z</time></trkpt><trkpt lat="43.4656011" lon="11.6733057"><ele>315.0</ele><time>2026-04-05T15:07:21.259Z</time></trkpt><trkpt lat="43.4657474" lon="11.673438"><ele>315.0</ele><time>2026-04-05T15:07:22.267Z</time></trkpt><trkpt lat="43.4658709" lon="11.673573"><ele>315.0</ele><time>2026-04-05T15:07:23.259Z</time></trkpt><trkpt lat="43.4659772" lon="11.6737084"><ele>315.0</ele><time>2026-04-05T15:07:24.265Z</time></trkpt><trkpt lat="43.4660644" lon="11.6738472"><ele>315.0</ele><time>2026-04-05T15:07:25.269Z</time></trkpt><trkpt lat="43.4661357" lon="11.6740006"><ele>315.25</ele><time>2026-04-05T15:07:26.273Z</time></trkpt><trkpt lat="43.4661979" lon="11.6741681"><ele>315.5</ele><time>2026-04-05T15:07:27.257Z</time></trkpt><trkpt lat="43.4662551" lon="11.674346"><ele>315.75</ele><time>2026-04-05T15:07:28.265Z</time></trkpt><trkpt lat="43.4663077" lon="11.6745378"><ele>316.0</ele><time>2026-04-05T15:07:29.264Z</time></trkpt><trkpt lat="43.4663586" lon="11.6747424"><ele>316.0</ele><time>2026-04-05T15:07:30.256Z</time></trkpt><trkpt lat="43.4664086" lon="11.6749571"><ele>316.0</ele><time>2026-04-05T15:07:31.273Z</time></trkpt><trkpt lat="43.4664644" lon="11.675181"><ele>316.0</ele><time>2026-04-05T15:07:32.27Z</time></trkpt><trkpt lat="43.4665246" lon="11.6754135"><ele>315.66666666666663</ele><time>2026-04-05T15:07:33.266Z</time></trkpt><trkpt lat="43.4665803" lon="11.6756561"><ele>315.3333333333333</ele><time>2026-04-05T15:07:34.265Z</time></trkpt><trkpt lat="43.4666393" lon="11.6759065"><ele>315.0</ele><time>2026-04-05T15:07:35.26Z</time></trkpt><trkpt lat="43.466699" lon="11.676161"><ele>317.6666666666667</ele><time>2026-04-05T15:07:36.264Z</time></trkpt><trkpt lat="43.4667588" lon="11.6764069"><ele>320.33333333333337</ele><time>2026-04-05T15:07:37.26Z</time></trkpt><trkpt lat="43.4668202" lon="11.6766547"><ele>323.0</ele><time>2026-04-05T15:07:38.26Z</time></trkpt><trkpt lat="43.4668782" lon="11.6768917"><ele>326.0</ele><time>2026-04-05T15:07:39.271Z</time></trkpt><trkpt lat="43.4669346" lon="11.6771183"><ele>329.0</ele><time>2026-04-05T15:07:40.273Z</time></trkpt><trkpt lat="43.4669883" lon="11.6773291"><ele>332.0</ele><time>2026-04-05T15:07:41.272Z</time></trkpt><trkpt lat="43.467036" lon="11.6775273"><ele>332.0</ele><time>2026-04-05T15:07:42.268Z</time></trkpt><trkpt lat="43.4670852" lon="11.6777143"><ele>332.0</ele><time>2026-04-05T15:07:43.255Z</time></trkpt><trkpt lat="43.4671334" lon="11.6778901"><ele>332.0</ele><time>2026-04-05T15:07:44.26Z</time></trkpt><trkpt lat="43.4671822" lon="11.6780491"><ele>332.0</ele><time>2026-04-05T15:07:45.272Z</time></trkpt><trkpt lat="43.4672267" lon="11.6781975"><ele>333.75</ele><time>2026-04-05T15:07:46.265Z</time></trkpt><trkpt lat="43.4672631" lon="11.6783316"><ele>335.5</ele><time>2026-04-05T15:07:47.259Z</time></trkpt><trkpt lat="43.467314" lon="11.678466"><ele>337.25</ele><time>2026-04-05T15:07:48.267Z</time></trkpt><trkpt lat="43.4673723" lon="11.6786065"><ele>339.0</ele><time>2026-04-05T15:07:49.252Z</time></trkpt><trkpt lat="43.4674408" lon="11.6787568"><ele>339.6666666666667</ele><time>2026-04-05T15:07:50.273Z</time></trkpt><trkpt lat="43.4675225" lon="11.6789123"><ele>340.33333333333337</ele><time>2026-04-05T15:07:51.268Z</time></trkpt><trkpt lat="43.4676145" lon="11.6790781"><ele>341.0</ele><time>2026-04-05T15:07:52.27Z</time></trkpt><trkpt lat="43.4677116" lon="11.679254"><ele>341.0</ele><time>2026-04-05T15:07:53.267Z</time></trkpt><trkpt lat="43.4678037" lon="11.6794414"><ele>341.0</ele><time>2026-04-05T15:07:54.257Z</time></trkpt><trkpt lat="43.4678786" lon="11.6796444"><ele>341.0</ele><time>2026-04-05T15:07:55.263Z</time></trkpt><trkpt lat="43.4679277" lon="11.6798573"><ele>340.75</ele><time>2026-04-05T15:07:56.269Z</time></trkpt><trkpt lat="43.4679467" lon="11.6800677"><ele>340.5</ele><time>2026-04-05T15:07:57.265Z</time></trkpt><trkpt lat="43.4679387" lon="11.6802719"><ele>340.25</ele><time>2026-04-05T15:07:58.27Z</time></trkpt><trkpt lat="43.467927" lon="11.6804639"><ele>340.0</ele><time>2026-04-05T15:07:59.253Z</time></trkpt><trkpt lat="43.4679356" lon="11.6806644"><ele>343.66666666666663</ele><time>2026-04-05T15:08:00.261Z</time></trkpt><trkpt lat="43.4679635" lon="11.6808723"><ele>347.3333333333333</ele><time>2026-04-05T15:08:01.264Z</time></trkpt><trkpt lat="43.4680077" lon="11.6810843"><ele>351.0</ele><time>2026-04-05T15:08:02.262Z</time></trkpt><trkpt lat="43.4680569" lon="11.6813049"><ele>352.6666666666667</ele><time>2026-04-05T15:08:03.254Z</time></trkpt><trkpt lat="43.4681062" lon="11.6815143"><ele>354.33333333333337</ele><time>2026-04-05T15:08:04.264Z</time></trkpt><trkpt lat="43.4681574" lon="11.6817066"><ele>356.0</ele><time>2026-04-05T15:08:05.26Z</time></trkpt><trkpt lat="43.4682054" lon="11.6818964"><ele>356.25</ele><time>2026-04-05T15:08:06.267Z</time></trkpt><trkpt lat="43.4682465" lon="11.6820776"><ele>356.5</ele><time>2026-04-05T15:08:07.27Z</time></trkpt><trkpt lat="43.4682857" lon="11.6822375"><ele>356.75</ele><time>2026-04-05T15:08:08.259Z</time></trkpt><trkpt lat="43.4683193" lon="11.6823902"><ele>357.0</ele><time>2026-04-05T15:08:09.261Z</time></trkpt><trkpt lat="43.468341" lon="11.6825424"><ele>357.0</ele><time>2026-04-05T15:08:10.262Z</time></trkpt><trkpt lat="43.4683616" lon="11.6826948"><ele>357.0</ele><time>2026-04-05T15:08:11.267Z</time></trkpt><trkpt lat="43.468384" lon="11.6828456"><ele>357.0</ele><time>2026-04-05T15:08:12.263Z</time></trkpt><trkpt lat="43.4684029" lon="11.6829808"><ele>357.0</ele><time>2026-04-05T15:08:13.26Z</time></trkpt><trkpt lat="43.4684189" lon="11.6831029"><ele>357.0</ele><time>2026-04-05T15:08:14.274Z</time></trkpt><trkpt lat="43.4684334" lon="11.6832208"><ele>357.0</ele><time>2026-04-05T15:08:15.261Z</time></trkpt><trkpt lat="43.4684292" lon="11.6833483"><ele>357.0</ele><time>2026-04-05T15:08:16.263Z</time></trkpt><trkpt lat="43.4684054" lon="11.6834769"><ele>357.0</ele><time>2026-04-05T15:08:17.256Z</time></trkpt><trkpt lat="43.4683901" lon="11.6836244"><ele>357.0</ele><time>2026-04-05T15:08:18.267Z</time></trkpt><trkpt lat="43.4683769" lon="11.6837933"><ele>357.0</ele><time>2026-04-05T15:08:19.258Z</time></trkpt><trkpt lat="43.4683602" lon="11.6839766"><ele>357.8</ele><time>2026-04-05T15:08:20.266Z</time></trkpt><trkpt lat="43.4683444" lon="11.6841566"><ele>358.6</ele><time>2026-04-05T15:08:21.256Z</time></trkpt><trkpt lat="43.468334" lon="11.6843146"><ele>359.40000000000003</ele><time>2026-04-05T15:08:22.27Z</time></trkpt><trkpt lat="43.4683235" lon="11.6844436"><ele>360.20000000000005</ele><time>2026-04-05T15:08:23.273Z</time></trkpt><trkpt lat="43.4683138" lon="11.6845493"><ele>361.0</ele><time>2026-04-05T15:08:24.274Z</time></trkpt><trkpt lat="43.4683048" lon="11.6846886"><ele>361.66666666666663</ele><time>2026-04-05T15:08:26.264Z</time></trkpt><trkpt lat="43.4683113" lon="11.6848029"><ele>362.3333333333333</ele><time>2026-04-05T15:08:28.273Z</time></trkpt><trkpt lat="43.4683007" lon="11.6849425"><ele>363.0</ele><time>2026-04-05T15:08:30.267Z</time></trkpt><trkpt lat="43.4682702" lon="11.6850605"><ele>363.6666666666667</ele><time>2026-04-05T15:08:32.265Z</time></trkpt><trkpt lat="43.4681815" lon="11.6851247"><ele>364.33333333333337</ele><time>2026-04-05T15:08:34.258Z</time></trkpt><trkpt lat="43.4681134" lon="11.6851424"><ele>365.0</ele><time>2026-04-05T15:08:35.271Z</time></trkpt><trkpt lat="43.4680284" lon="11.6851832"><ele>364.4</ele><time>2026-04-05T15:08:36.274Z</time></trkpt><trkpt lat="43.4679325" lon="11.6852328"><ele>363.8</ele><time>2026-04-05T15:08:37.266Z</time></trkpt><trkpt lat="43.4678286" lon="11.6852757"><ele>363.20000000000005</ele><time>2026-04-05T15:08:38.26Z</time></trkpt><trkpt lat="43.4677189" lon="11.6853126"><ele>362.6</ele><time>2026-04-05T15:08:39.257Z</time></trkpt><trkpt lat="43.4676152" lon="11.6853509"><ele>362.0</ele><time>2026-04-05T15:08:40.25Z</time></trkpt><trkpt lat="43.467506" lon="11.6853949"><ele>364.25</ele><time>2026-04-05T15:08:41.265Z</time></trkpt><trkpt lat="43.4673956" lon="11.6854364"><ele>366.5</ele><time>2026-04-05T15:08:42.26Z</time></trkpt><trkpt lat="43.4672795" lon="11.6854731"><ele>368.75</ele><time>2026-04-05T15:08:43.259Z</time></trkpt><trkpt lat="43.4671662" lon="11.6855186"><ele>371.0</ele><time>2026-04-05T15:08:44.26Z</time></trkpt><trkpt lat="43.4670599" lon="11.6855551"><ele>372.0</ele><time>2026-04-05T15:08:45.263Z</time></trkpt><trkpt lat="43.466953" lon="11.6855927"><ele>373.0</ele><time>2026-04-05T15:08:46.266Z</time></trkpt><trkpt lat="43.4668405" lon="11.6856259"><ele>374.0</ele><time>2026-04-05T15:08:47.268Z</time></trkpt><trkpt lat="43.4667196" lon="11.6856471"><ele>375.0</ele><time>2026-04-05T15:08:48.264Z</time></trkpt><trkpt lat="43.4666052" lon="11.6856701"><ele>375.0</ele><time>2026-04-05T15:08:49.266Z</time></trkpt><trkpt lat="43.4664972" lon="11.6856975"><ele>375.0</ele><time>2026-04-05T15:08:50.256Z</time></trkpt><trkpt lat="43.4663911" lon="11.6857181"><ele>375.0</ele><time>2026-04-05T15:08:51.28Z</time></trkpt><trkpt lat="43.4662943" lon="11.6857317"><ele>375.0</ele><time>2026-04-05T15:08:52.263Z</time></trkpt><trkpt lat="43.4661913" lon="11.6857545"><ele>375.0</ele><time>2026-04-05T15:08:53.263Z</time></trkpt><trkpt lat="43.4660807" lon="11.6857782"><ele>374.4</ele><time>2026-04-05T15:08:54.271Z</time></trkpt><trkpt lat="43.4659735" lon="11.68579"><ele>373.8</ele><time>2026-04-05T15:08:55.266Z</time></trkpt><trkpt lat="43.4658724" lon="11.6857953"><ele>373.20000000000005</ele><time>2026-04-05T15:08:56.26Z</time></trkpt><trkpt lat="43.4657748" lon="11.685803"><ele>372.6</ele><time>2026-04-05T15:08:57.263Z</time></trkpt><trkpt lat="43.4656796" lon="11.6858134"><ele>372.0</ele><time>2026-04-05T15:08:58.263Z</time></trkpt><trkpt lat="43.4655847" lon="11.6858226"><ele>372.0</ele><time>2026-04-05T15:08:59.264Z</time></trkpt><trkpt lat="43.4654928" lon="11.6858186"><ele>372.0</ele><time>2026-04-05T15:09:00.262Z</time></trkpt><trkpt lat="43.4654025" lon="11.6858184"><ele>372.0</ele><time>2026-04-05T15:09:01.26Z</time></trkpt><trkpt lat="43.4653105" lon="11.6858339"><ele>372.0</ele><time>2026-04-05T15:09:02.261Z</time></trkpt><trkpt lat="43.4652078" lon="11.6858637"><ele>372.0</ele><time>2026-04-05T15:09:03.267Z</time></trkpt><trkpt lat="43.4650914" lon="11.6858854"><ele>372.5</ele><time>2026-04-05T15:09:04.276Z</time></trkpt><trkpt lat="43.4649642" lon="11.685896"><ele>373.0</ele><time>2026-04-05T15:09:05.262Z</time></trkpt><trkpt lat="43.4648276" lon="11.6858982"><ele>373.5</ele><time>2026-04-05T15:09:06.269Z</time></trkpt><trkpt lat="43.4646869" lon="11.6859079"><ele>374.0</ele><time>2026-04-05T15:09:07.27Z</time></trkpt><trkpt lat="43.4645476" lon="11.6859315"><ele>374.0</ele><time>2026-04-05T15:09:08.267Z</time></trkpt><trkpt lat="43.4644097" lon="11.6859786"><ele>374.0</ele><time>2026-04-05T15:09:09.265Z</time></trkpt><trkpt lat="43.4642705" lon="11.6860451"><ele>374.0</ele><time>2026-04-05T15:09:10.271Z</time></trkpt><trkpt lat="43.4641487" lon="11.6861078"><ele>374.0</ele><time>2026-04-05T15:09:11.262Z</time></trkpt><trkpt lat="43.464031" lon="11.6861688"><ele>373.0</ele><time>2026-04-05T15:09:12.266Z</time></trkpt><trkpt lat="43.4639061" lon="11.6862238"><ele>372.0</ele><time>2026-04-05T15:09:13.267Z</time></trkpt><trkpt lat="43.4637955" lon="11.6862594"><ele>371.0</ele><time>2026-04-05T15:09:14.263Z</time></trkpt><trkpt lat="43.4636908" lon="11.6862792"><ele>370.0</ele><time>2026-04-05T15:09:15.259Z</time></trkpt><trkpt lat="43.4635807" lon="11.6863053"><ele>372.0</ele><time>2026-04-05T15:09:16.27Z</time></trkpt><trkpt lat="43.4634602" lon="11.6863186"><ele>374.0</ele><time>2026-04-05T15:09:17.26Z</time></trkpt><trkpt lat="43.4633337" lon="11.6863227"><ele>376.0</ele><time>2026-04-05T15:09:18.269Z</time></trkpt><trkpt lat="43.4632062" lon="11.6863253"><ele>378.0</ele><time>2026-04-05T15:09:19.265Z</time></trkpt><trkpt lat="43.4630892" lon="11.6863243"><ele>378.0</ele><time>2026-04-05T15:09:20.263Z</time></trkpt><trkpt lat="43.4629772" lon="11.6863297"><ele>378.0</ele><time>2026-04-05T15:09:21.257Z</time></trkpt><trkpt lat="43.4628722" lon="11.6863362"><ele>378.0</ele><time>2026-04-05T15:09:22.271Z</time></trkpt><trkpt lat="43.4627716" lon="11.6863471"><ele>378.0</ele><time>2026-04-05T15:09:23.272Z</time></trkpt><trkpt lat="43.4626685" lon="11.6863768"><ele>378.0</ele><time>2026-04-05T15:09:24.256Z</time></trkpt><trkpt lat="43.462563" lon="11.6864266"><ele>380.5</ele><time>2026-04-05T15:09:25.261Z</time></trkpt><trkpt lat="43.4624521" lon="11.6864881"><ele>383.0</ele><time>2026-04-05T15:09:26.264Z</time></trkpt><trkpt lat="43.4623353" lon="11.6865473"><ele>385.5</ele><time>2026-04-05T15:09:27.264Z</time></trkpt><trkpt lat="43.4622092" lon="11.6866059"><ele>388.0</ele><time>2026-04-05T15:09:28.262Z</time></trkpt><trkpt lat="43.4620802" lon="11.6866707"><ele>390.5</ele><time>2026-04-05T15:09:29.26Z</time></trkpt><trkpt lat="43.4619494" lon="11.6867428"><ele>393.0</ele><time>2026-04-05T15:09:30.267Z</time></trkpt><trkpt lat="43.4618181" lon="11.6868072"><ele>395.5</ele><time>2026-04-05T15:09:31.259Z</time></trkpt><trkpt lat="43.4617037" lon="11.6868588"><ele>398.0</ele><time>2026-04-05T15:09:32.27Z</time></trkpt><trkpt lat="43.4615978" lon="11.6868999"><ele>398.0</ele><time>2026-04-05T15:09:33.266Z</time></trkpt><trkpt lat="43.4614922" lon="11.6869182"><ele>398.0</ele><time>2026-04-05T15:09:34.26Z</time></trkpt><trkpt lat="43.461383" lon="11.686913"><ele>398.0</ele><time>2026-04-05T15:09:35.255Z</time></trkpt><trkpt lat="43.461277" lon="11.686888"><ele>398.0</ele><time>2026-04-05T15:09:36.257Z</time></trkpt><trkpt lat="43.4611884" lon="11.6868574"><ele>398.0</ele><time>2026-04-05T15:09:37.274Z</time></trkpt><trkpt lat="43.461125" lon="11.686844"><ele>400.4</ele><time>2026-04-05T15:09:38.263Z</time></trkpt><trkpt lat="43.4610323" lon="11.6868078"><ele>402.79999999999995</ele><time>2026-04-05T15:09:40.27Z</time></trkpt><trkpt lat="43.4609487" lon="11.6867478"><ele>405.2</ele><time>2026-04-05T15:09:42.27Z</time></trkpt><trkpt lat="43.4608549" lon="11.6867151"><ele>407.6</ele><time>2026-04-05T15:10:05.261Z</time></trkpt><trkpt lat="43.4607944" lon="11.6866809"><ele>410.0</ele><time>2026-04-05T15:10:20.26Z</time></trkpt><trkpt lat="43.4606883" lon="11.6865969"><ele>409.99999999999994</ele><time>2026-04-05T15:10:22.273Z</time></trkpt><trkpt lat="43.4606346" lon="11.6865429"><ele>410.0</ele><time>2026-04-05T15:10:23.268Z</time></trkpt><trkpt lat="43.4605533" lon="11.6864785"><ele>410.0</ele><time>2026-04-05T15:10:25.272Z</time></trkpt><trkpt lat="43.4604896" lon="11.6864919"><ele>410.0</ele><time>2026-04-05T15:10:27.258Z</time></trkpt><trkpt lat="43.4604542" lon="11.6865716"><ele>409.99999999999994</ele><time>2026-04-05T15:10:29.263Z</time></trkpt><trkpt lat="43.4604924" lon="11.6866774"><ele>410.0</ele><time>2026-04-05T15:10:31.273Z</time></trkpt><trkpt lat="43.4605435" lon="11.686751"><ele>410.0</ele><time>2026-04-05T15:10:32.252Z</time></trkpt><trkpt lat="43.4605872" lon="11.6868333"><ele>410.0</ele><time>2026-04-05T15:10:33.258Z</time></trkpt><trkpt lat="43.460603" lon="11.6869242"><ele>410.0</ele><time>2026-04-05T15:10:34.261Z</time></trkpt><trkpt lat="43.4606002" lon="11.6870251"><ele>410.0</ele><time>2026-04-05T15:10:35.261Z</time></trkpt><trkpt lat="43.4605794" lon="11.6871212"><ele>410.0</ele><time>2026-04-05T15:10:36.264Z</time></trkpt><trkpt lat="43.4605374" lon="11.6872094"><ele>410.0</ele><time>2026-04-05T15:10:37.255Z</time></trkpt><trkpt lat="43.4604797" lon="11.6872875"><ele>410.0</ele><time>2026-04-05T15:10:38.261Z</time></trkpt><trkpt lat="43.4604114" lon="11.687339"><ele>411.99999999999994</ele><time>2026-04-05T15:10:39.267Z</time></trkpt><trkpt lat="43.4603345" lon="11.6873622"><ele>414.0</ele><time>2026-04-05T15:10:40.272Z</time></trkpt><trkpt lat="43.4602551" lon="11.6873665"><ele>416.0</ele><time>2026-04-05T15:10:41.262Z</time></trkpt><trkpt lat="43.4601721" lon="11.6873568"><ele>418.0</ele><time>2026-04-05T15:10:42.267Z</time></trkpt><trkpt lat="43.4600833" lon="11.6873287"><ele>419.99999999999994</ele><time>2026-04-05T15:10:43.257Z</time></trkpt><trkpt lat="43.4599957" lon="11.6872777"><ele>422.0</ele><time>2026-04-05T15:10:44.266Z</time></trkpt><trkpt lat="43.4599058" lon="11.6872237"><ele>421.99999999999994</ele><time>2026-04-05T15:10:45.261Z</time></trkpt><trkpt lat="43.4598195" lon="11.6871956"><ele>422.0</ele><time>2026-04-05T15:10:46.256Z</time></trkpt><trkpt lat="43.45973" lon="11.6871827"><ele>422.0</ele><time>2026-04-05T15:10:47.26Z</time></trkpt><trkpt lat="43.4596415" lon="11.6871682"><ele>422.0</ele><time>2026-04-05T15:10:48.251Z</time></trkpt><trkpt lat="43.4595704" lon="11.6871401"><ele>421.99999999999994</ele><time>2026-04-05T15:10:49.251Z</time></trkpt><trkpt lat="43.4595045" lon="11.6870932"><ele>422.0</ele><time>2026-04-05T15:10:50.254Z</time></trkpt><trkpt lat="43.45945" lon="11.6870305"><ele>424.49999999999994</ele><time>2026-04-05T15:10:51.274Z</time></trkpt><trkpt lat="43.4593929" lon="11.6869543"><ele>427.0</ele><time>2026-04-05T15:10:52.259Z</time></trkpt><trkpt lat="43.4593318" lon="11.6868858"><ele>429.5</ele><time>2026-04-05T15:10:53.271Z</time></trkpt><trkpt lat="43.4592631" lon="11.6868279"><ele>432.0</ele><time>2026-04-05T15:10:54.268Z</time></trkpt><trkpt lat="43.4592042" lon="11.6867892"><ele>434.49999999999994</ele><time>2026-04-05T15:10:55.265Z</time></trkpt><trkpt lat="43.4590996" lon="11.6867693"><ele>437.0</ele><time>2026-04-05T15:10:57.265Z</time></trkpt><trkpt lat="43.4590361" lon="11.6868452"><ele>437.0</ele><time>2026-04-05T15:10:59.259Z</time></trkpt><trkpt lat="43.4589988" lon="11.6870198"><ele>437.00000000000006</ele><time>2026-04-05T15:11:01.267Z</time></trkpt><trkpt lat="43.45898" lon="11.6871136"><ele>437.00000000000006</ele><time>2026-04-05T15:11:02.26Z</time></trkpt><trkpt lat="43.4589155" lon="11.6872211"><ele>437.0</ele><time>2026-04-05T15:11:04.261Z</time></trkpt><trkpt lat="43.458827" lon="11.6871819"><ele>437.0</ele><time>2026-04-05T15:11:07.258Z</time></trkpt><trkpt lat="43.4587694" lon="11.6870159"><ele>440.6</ele><time>2026-04-05T15:11:09.262Z</time></trkpt><trkpt lat="43.4587432" lon="11.6869188"><ele>444.20000000000005</ele><time>2026-04-05T15:11:10.254Z</time></trkpt><trkpt lat="43.4586982" lon="11.6867915"><ele>447.8</ele><time>2026-04-05T15:11:12.255Z</time></trkpt><trkpt lat="43.4586394" lon="11.6867347"><ele>451.4</ele><time>2026-04-05T15:11:14.26Z</time></trkpt><trkpt lat="43.4585747" lon="11.6867911"><ele>455.0</ele><time>2026-04-05T15:11:16.26Z</time></trkpt><trkpt lat="43.4585273" lon="11.6869604"><ele>454.99999999999994</ele><time>2026-04-05T15:11:18.253Z</time></trkpt><trkpt lat="43.4584946" lon="11.6870442"><ele>455.0</ele><time>2026-04-05T15:11:19.255Z</time></trkpt><trkpt lat="43.4584453" lon="11.6871138"><ele>455.0</ele><time>2026-04-05T15:11:20.265Z</time></trkpt><trkpt lat="43.4583859" lon="11.6871658"><ele>455.0</ele><time>2026-04-05T15:11:21.27Z</time></trkpt><trkpt lat="43.4583155" lon="11.6872036"><ele>454.99999999999994</ele><time>2026-04-05T15:11:22.263Z</time></trkpt><trkpt lat="43.4582352" lon="11.6872257"><ele>455.0</ele><time>2026-04-05T15:11:23.255Z</time></trkpt><trkpt lat="43.45815" lon="11.687229"><ele>455.0</ele><time>2026-04-05T15:11:24.279Z</time></trkpt><trkpt lat="43.4580634" lon="11.6872206"><ele>455.0</ele><time>2026-04-05T15:11:25.258Z</time></trkpt><trkpt lat="43.4579757" lon="11.6872107"><ele>455.0</ele><time>2026-04-05T15:11:26.257Z</time></trkpt><trkpt lat="43.4578879" lon="11.6872203"><ele>455.0</ele><time>2026-04-05T15:11:27.261Z</time></trkpt><trkpt lat="43.4577945" lon="11.6872469"><ele>455.0</ele><time>2026-04-05T15:11:28.25Z</time></trkpt><trkpt lat="43.4576947" lon="11.6872865"><ele>457.3333333333333</ele><time>2026-04-05T15:11:29.267Z</time></trkpt><trkpt lat="43.4576085" lon="11.6873129"><ele>459.66666666666663</ele><time>2026-04-05T15:11:30.256Z</time></trkpt><trkpt lat="43.4575217" lon="11.687322"><ele>462.0</ele><time>2026-04-05T15:11:31.27Z</time></trkpt><trkpt lat="43.4574366" lon="11.6873326"><ele>464.33333333333337</ele><time>2026-04-05T15:11:32.257Z</time></trkpt><trkpt lat="43.4573583" lon="11.6873573"><ele>466.6666666666667</ele><time>2026-04-05T15:11:33.256Z</time></trkpt><trkpt lat="43.45729" lon="11.6873953"><ele>469.0</ele><time>2026-04-05T15:11:34.273Z</time></trkpt><trkpt lat="43.4572277" lon="11.6874508"><ele>469.0</ele><time>2026-04-05T15:11:35.253Z</time></trkpt><trkpt lat="43.4571618" lon="11.6875137"><ele>469.0</ele><time>2026-04-05T15:11:36.268Z</time></trkpt><trkpt lat="43.4570878" lon="11.6875772"><ele>469.0</ele><time>2026-04-05T15:11:37.263Z</time></trkpt><trkpt lat="43.4570105" lon="11.6876433"><ele>469.0</ele><time>2026-04-05T15:11:38.265Z</time></trkpt><trkpt lat="43.4569268" lon="11.6877172"><ele>469.0</ele><time>2026-04-05T15:11:39.26Z</time></trkpt><trkpt lat="43.4568409" lon="11.6878035"><ele>471.4</ele><time>2026-04-05T15:11:40.266Z</time></trkpt><trkpt lat="43.4567509" lon="11.6879003"><ele>473.79999999999995</ele><time>2026-04-05T15:11:41.268Z</time></trkpt><trkpt lat="43.4566596" lon="11.6879974"><ele>476.20000000000005</ele><time>2026-04-05T15:11:42.278Z</time></trkpt><trkpt lat="43.4565737" lon="11.6880804"><ele>478.6</ele><time>2026-04-05T15:11:43.258Z</time></trkpt><trkpt lat="43.4564934" lon="11.6881671"><ele>481.0</ele><time>2026-04-05T15:11:44.26Z</time></trkpt><trkpt lat="43.4564224" lon="11.6882518"><ele>481.00000000000006</ele><time>2026-04-05T15:11:45.269Z</time></trkpt><trkpt lat="43.4563621" lon="11.6883176"><ele>481.0</ele><time>2026-04-05T15:11:46.262Z</time></trkpt><trkpt lat="43.4562963" lon="11.6883731"><ele>481.0</ele><time>2026-04-05T15:11:47.259Z</time></trkpt><trkpt lat="43.4562169" lon="11.6884142"><ele>481.0</ele><time>2026-04-05T15:11:48.278Z</time></trkpt><trkpt lat="43.4561285" lon="11.6884526"><ele>481.00000000000006</ele><time>2026-04-05T15:11:49.259Z</time></trkpt><trkpt lat="43.456038" lon="11.6885067"><ele>481.0</ele><time>2026-04-05T15:11:50.257Z</time></trkpt><trkpt lat="43.4559493" lon="11.6885844"><ele>483.20000000000005</ele><time>2026-04-05T15:11:51.254Z</time></trkpt><trkpt lat="43.4558609" lon="11.6886826"><ele>485.40000000000003</ele><time>2026-04-05T15:11:52.27Z</time></trkpt><trkpt lat="43.4557861" lon="11.6887642"><ele>487.6</ele><time>2026-04-05T15:11:53.261Z</time></trkpt><trkpt lat="43.4557131" lon="11.6888454"><ele>489.8</ele><time>2026-04-05T15:11:54.261Z</time></trkpt><trkpt lat="43.4556442" lon="11.6889333"><ele>492.0</ele><time>2026-04-05T15:11:55.255Z</time></trkpt><trkpt lat="43.4555784" lon="11.6890236"><ele>492.0</ele><time>2026-04-05T15:11:56.269Z</time></trkpt><trkpt lat="43.4555204" lon="11.6891238"><ele>492.00000000000006</ele><time>2026-04-05T15:11:57.26Z</time></trkpt><trkpt lat="43.4554616" lon="11.6892361"><ele>492.00000000000006</ele><time>2026-04-05T15:11:58.25Z</time></trkpt><trkpt lat="43.4554095" lon="11.689345"><ele>492.0</ele><time>2026-04-05T15:11:59.255Z</time></trkpt><trkpt lat="43.4553674" lon="11.689448"><ele>492.0</ele><time>2026-04-05T15:12:00.256Z</time></trkpt><trkpt lat="43.4553238" lon="11.6895587"><ele>494.8</ele><time>2026-04-05T15:12:01.257Z</time></trkpt><trkpt lat="43.4552853" lon="11.6896761"><ele>497.6</ele><time>2026-04-05T15:12:02.268Z</time></trkpt><trkpt lat="43.4552428" lon="11.689803"><ele>500.40000000000003</ele><time>2026-04-05T15:12:03.259Z</time></trkpt><trkpt lat="43.4551928" lon="11.6899241"><ele>503.20000000000005</ele><time>2026-04-05T15:12:04.261Z</time></trkpt><trkpt lat="43.4551327" lon="11.6900347"><ele>506.0</ele><time>2026-04-05T15:12:05.271Z</time></trkpt><trkpt lat="43.4550616" lon="11.6901353"><ele>506.0</ele><time>2026-04-05T15:12:06.259Z</time></trkpt><trkpt lat="43.4549802" lon="11.690233"><ele>506.0</ele><time>2026-04-05T15:12:07.258Z</time></trkpt><trkpt lat="43.4548945" lon="11.6903356"><ele>506.0</ele><time>2026-04-05T15:12:08.265Z</time></trkpt><trkpt lat="43.454807" lon="11.6904441"><ele>506.0</ele><time>2026-04-05T15:12:09.259Z</time></trkpt><trkpt lat="43.4547237" lon="11.6905594"><ele>506.5</ele><time>2026-04-05T15:12:10.257Z</time></trkpt><trkpt lat="43.4546385" lon="11.6906746"><ele>507.0</ele><time>2026-04-05T15:12:11.268Z</time></trkpt><trkpt lat="43.4545559" lon="11.6907926"><ele>507.5</ele><time>2026-04-05T15:12:12.256Z</time></trkpt><trkpt lat="43.4544731" lon="11.6909121"><ele>508.0</ele><time>2026-04-05T15:12:13.26Z</time></trkpt><trkpt lat="43.4544017" lon="11.6910149"><ele>510.0</ele><time>2026-04-05T15:12:14.261Z</time></trkpt><trkpt lat="43.454328" lon="11.6911213"><ele>512.0</ele><time>2026-04-05T15:12:15.276Z</time></trkpt><trkpt lat="43.4542504" lon="11.6912321"><ele>514.0</ele><time>2026-04-05T15:12:16.264Z</time></trkpt><trkpt lat="43.4541706" lon="11.6913465"><ele>516.0</ele><time>2026-04-05T15:12:17.27Z</time></trkpt><trkpt lat="43.454086" lon="11.69147"><ele>516.0</ele><time>2026-04-05T15:12:18.268Z</time></trkpt><trkpt lat="43.4539971" lon="11.6915964"><ele>516.0</ele><time>2026-04-05T15:12:19.273Z</time></trkpt><trkpt lat="43.4539064" lon="11.691723"><ele>516.0</ele><time>2026-04-05T15:12:20.265Z</time></trkpt><trkpt lat="43.4538271" lon="11.6918379"><ele>516.0</ele><time>2026-04-05T15:12:21.269Z</time></trkpt><trkpt lat="43.4537582" lon="11.6919406"><ele>517.1666666666666</ele><time>2026-04-05T15:12:22.273Z</time></trkpt><trkpt lat="43.4536966" lon="11.6920306"><ele>518.3333333333334</ele><time>2026-04-05T15:12:23.262Z</time></trkpt><trkpt lat="43.4536342" lon="11.6921137"><ele>519.5</ele><time>2026-04-05T15:12:24.273Z</time></trkpt><trkpt lat="43.4535862" lon="11.6921823"><ele>520.6666666666667</ele><time>2026-04-05T15:12:25.269Z</time></trkpt><trkpt lat="43.4535401" lon="11.6922479"><ele>521.8333333333334</ele><time>2026-04-05T15:12:26.271Z</time></trkpt><trkpt lat="43.4534893" lon="11.692318"><ele>523.0</ele><time>2026-04-05T15:12:27.265Z</time></trkpt><trkpt lat="43.4534368" lon="11.6923899"><ele>523.0</ele><time>2026-04-05T15:12:28.267Z</time></trkpt><trkpt lat="43.4533847" lon="11.6924648"><ele>523.0</ele><time>2026-04-05T15:12:29.261Z</time></trkpt><trkpt lat="43.453336" lon="11.69255"><ele>523.0</ele><time>2026-04-05T15:12:30.267Z</time></trkpt><trkpt lat="43.4532919" lon="11.6926384"><ele>523.0</ele><time>2026-04-05T15:12:31.263Z</time></trkpt><trkpt lat="43.453256" lon="11.6927332"><ele>523.0</ele><time>2026-04-05T15:12:32.276Z</time></trkpt><trkpt lat="43.4532275" lon="11.692832"><ele>523.0</ele><time>2026-04-05T15:12:33.274Z</time></trkpt><trkpt lat="43.4532058" lon="11.6929388"><ele>524.1999999999999</ele><time>2026-04-05T15:12:34.258Z</time></trkpt><trkpt lat="43.4531896" lon="11.6930579"><ele>525.4</ele><time>2026-04-05T15:12:35.268Z</time></trkpt><trkpt lat="43.4531774" lon="11.6931882"><ele>526.5999999999999</ele><time>2026-04-05T15:12:36.267Z</time></trkpt><trkpt lat="43.453175" lon="11.6933265"><ele>527.8</ele><time>2026-04-05T15:12:37.265Z</time></trkpt><trkpt lat="43.4531783" lon="11.6934716"><ele>529.0</ele><time>2026-04-05T15:12:38.263Z</time></trkpt><trkpt lat="43.4531759" lon="11.6936152"><ele>529.8</ele><time>2026-04-05T15:12:39.266Z</time></trkpt><trkpt lat="43.4531541" lon="11.6937553"><ele>530.5999999999999</ele><time>2026-04-05T15:12:40.255Z</time></trkpt><trkpt lat="43.4531159" lon="11.6938942"><ele>531.4</ele><time>2026-04-05T15:12:41.263Z</time></trkpt><trkpt lat="43.453074" lon="11.6940291"><ele>532.1999999999999</ele><time>2026-04-05T15:12:42.253Z</time></trkpt><trkpt lat="43.4530411" lon="11.694161"><ele>533.0</ele><time>2026-04-05T15:12:43.259Z</time></trkpt><trkpt lat="43.4529965" lon="11.6942997"><ele>532.3333333333333</ele><time>2026-04-05T15:12:44.259Z</time></trkpt><trkpt lat="43.4529487" lon="11.6944095"><ele>531.6666666666666</ele><time>2026-04-05T15:12:45.275Z</time></trkpt><trkpt lat="43.452906" lon="11.6945205"><ele>531.0</ele><time>2026-04-05T15:12:46.271Z</time></trkpt><trkpt lat="43.4528773" lon="11.6946333"><ele>530.3333333333334</ele><time>2026-04-05T15:12:47.264Z</time></trkpt><trkpt lat="43.4528654" lon="11.6947454"><ele>529.6666666666667</ele><time>2026-04-05T15:12:48.267Z</time></trkpt><trkpt lat="43.4528686" lon="11.6948668"><ele>529.0</ele><time>2026-04-05T15:12:49.262Z</time></trkpt><trkpt lat="43.4528824" lon="11.6949949"><ele>529.0</ele><time>2026-04-05T15:12:50.263Z</time></trkpt><trkpt lat="43.4529014" lon="11.6951255"><ele>529.0</ele><time>2026-04-05T15:12:51.258Z</time></trkpt><trkpt lat="43.4529125" lon="11.6952391"><ele>529.0</ele><time>2026-04-05T15:12:52.251Z</time></trkpt><trkpt lat="43.4529109" lon="11.6953638"><ele>529.0</ele><time>2026-04-05T15:12:53.264Z</time></trkpt><trkpt lat="43.4528853" lon="11.6954827"><ele>529.0</ele><time>2026-04-05T15:12:54.26Z</time></trkpt><trkpt lat="43.4528557" lon="11.6955971"><ele>529.0</ele><time>2026-04-05T15:12:55.261Z</time></trkpt><trkpt lat="43.4528296" lon="11.6957043"><ele>529.0</ele><time>2026-04-05T15:12:56.262Z</time></trkpt><trkpt lat="43.4528039" lon="11.6958235"><ele>529.0</ele><time>2026-04-05T15:12:57.257Z</time></trkpt><trkpt lat="43.4527903" lon="11.6959454"><ele>529.0</ele><time>2026-04-05T15:12:58.272Z</time></trkpt><trkpt lat="43.4527939" lon="11.6960701"><ele>529.0</ele><time>2026-04-05T15:12:59.265Z</time></trkpt><trkpt lat="43.4528073" lon="11.6961835"><ele>529.0</ele><time>2026-04-05T15:13:00.271Z</time></trkpt><trkpt lat="43.4528227" lon="11.6962876"><ele>529.0</ele><time>2026-04-05T15:13:01.271Z</time></trkpt><trkpt lat="43.4528284" lon="11.6963904"><ele>529.1666666666667</ele><time>2026-04-05T15:13:02.261Z</time></trkpt><trkpt lat="43.4528114" lon="11.6965006"><ele>529.3333333333334</ele><time>2026-04-05T15:13:03.271Z</time></trkpt><trkpt lat="43.4527691" lon="11.6966069"><ele>529.5</ele><time>2026-04-05T15:13:04.275Z</time></trkpt><trkpt lat="43.4527149" lon="11.6966946"><ele>529.6666666666666</ele><time>2026-04-05T15:13:05.255Z</time></trkpt><trkpt lat="43.4526621" lon="11.6967729"><ele>529.8333333333333</ele><time>2026-04-05T15:13:06.254Z</time></trkpt><trkpt lat="43.4526145" lon="11.6968571"><ele>530.0</ele><time>2026-04-05T15:13:07.267Z</time></trkpt><trkpt lat="43.452579" lon="11.6969582"><ele>530.5</ele><time>2026-04-05T15:13:08.264Z</time></trkpt><trkpt lat="43.4525554" lon="11.6970739"><ele>531.0</ele><time>2026-04-05T15:13:09.271Z</time></trkpt><trkpt lat="43.4525348" lon="11.6971975"><ele>531.5</ele><time>2026-04-05T15:13:10.259Z</time></trkpt><trkpt lat="43.4525211" lon="11.6973063"><ele>532.0</ele><time>2026-04-05T15:13:11.268Z</time></trkpt><trkpt lat="43.4525187" lon="11.6974214"><ele>532.5</ele><time>2026-04-05T15:13:12.26Z</time></trkpt><trkpt lat="43.4525217" lon="11.6975436"><ele>533.0</ele><time>2026-04-05T15:13:13.271Z</time></trkpt><trkpt lat="43.4525281" lon="11.6976633"><ele>532.1999999999999</ele><time>2026-04-05T15:13:14.261Z</time></trkpt><trkpt lat="43.4525355" lon="11.6977755"><ele>531.4</ele><time>2026-04-05T15:13:15.276Z</time></trkpt><trkpt lat="43.4525461" lon="11.6978825"><ele>530.5999999999999</ele><time>2026-04-05T15:13:16.258Z</time></trkpt><trkpt lat="43.4525659" lon="11.6980046"><ele>529.8</ele><time>2026-04-05T15:13:17.261Z</time></trkpt><trkpt lat="43.4525928" lon="11.6981385"><ele>529.0</ele><time>2026-04-05T15:13:18.265Z</time></trkpt><trkpt lat="43.4526242" lon="11.6982835"><ele>529.0</ele><time>2026-04-05T15:13:19.264Z</time></trkpt><trkpt lat="43.45266" lon="11.6984221"><ele>529.0</ele><time>2026-04-05T15:13:20.259Z</time></trkpt><trkpt lat="43.4526986" lon="11.6985522"><ele>529.0</ele><time>2026-04-05T15:13:21.26Z</time></trkpt><trkpt lat="43.4527318" lon="11.6986694"><ele>529.0</ele><time>2026-04-05T15:13:22.286Z</time></trkpt><trkpt lat="43.4527586" lon="11.6987737"><ele>529.0</ele><time>2026-04-05T15:13:23.254Z</time></trkpt><trkpt lat="43.4527813" lon="11.6988621"><ele>529.0</ele><time>2026-04-05T15:13:24.257Z</time></trkpt><trkpt lat="43.4528061" lon="11.6990224"><ele>527.25</ele><time>2026-04-05T15:13:26.263Z</time></trkpt><trkpt lat="43.4528025" lon="11.6991532"><ele>525.5</ele><time>2026-04-05T15:13:28.257Z</time></trkpt><trkpt lat="43.452757" lon="11.6992986"><ele>523.75</ele><time>2026-04-05T15:13:30.258Z</time></trkpt><trkpt lat="43.4526777" lon="11.699414"><ele>522.0</ele><time>2026-04-05T15:13:32.27Z</time></trkpt><trkpt lat="43.4525787" lon="11.6995191"><ele>520.8571428571429</ele><time>2026-04-05T15:13:34.271Z</time></trkpt><trkpt lat="43.4525286" lon="11.6995798"><ele>519.7142857142857</ele><time>2026-04-05T15:13:35.255Z</time></trkpt><trkpt lat="43.4524784" lon="11.6996399"><ele>518.5714285714286</ele><time>2026-04-05T15:13:36.26Z</time></trkpt><trkpt lat="43.452426" lon="11.699698"><ele>517.4285714285714</ele><time>2026-04-05T15:13:37.271Z</time></trkpt><trkpt lat="43.4523695" lon="11.6997519"><ele>516.2857142857143</ele><time>2026-04-05T15:13:38.265Z</time></trkpt><trkpt lat="43.4523128" lon="11.6998055"><ele>515.1428571428571</ele><time>2026-04-05T15:13:39.278Z</time></trkpt><trkpt lat="43.4522592" lon="11.6998605"><ele>514.0</ele><time>2026-04-05T15:13:40.26Z</time></trkpt><trkpt lat="43.4522049" lon="11.6999139"><ele>514.0</ele><time>2026-04-05T15:13:41.269Z</time></trkpt><trkpt lat="43.4521484" lon="11.699965"><ele>514.0</ele><time>2026-04-05T15:13:42.268Z</time></trkpt><trkpt lat="43.4520904" lon="11.700018"><ele>514.0</ele><time>2026-04-05T15:13:43.264Z</time></trkpt><trkpt lat="43.4520329" lon="11.7000675"><ele>514.0</ele><time>2026-04-05T15:13:44.27Z</time></trkpt><trkpt lat="43.4519781" lon="11.7001151"><ele>514.0</ele><time>2026-04-05T15:13:45.267Z</time></trkpt><trkpt lat="43.4519239" lon="11.7001633"><ele>514.0</ele><time>2026-04-05T15:13:46.262Z</time></trkpt><trkpt lat="43.4518688" lon="11.7002112"><ele>514.0</ele><time>2026-04-05T15:13:47.266Z</time></trkpt><trkpt lat="43.4518144" lon="11.7002634"><ele>512.2857142857142</ele><time>2026-04-05T15:13:48.273Z</time></trkpt><trkpt lat="43.4517626" lon="11.7003185"><ele>510.57142857142856</ele><time>2026-04-05T15:13:49.27Z</time></trkpt><trkpt lat="43.4517112" lon="11.7003715"><ele>508.85714285714283</ele><time>2026-04-05T15:13:50.26Z</time></trkpt><trkpt lat="43.4516586" lon="11.7004307"><ele>507.1428571428571</ele><time>2026-04-05T15:13:51.275Z</time></trkpt><trkpt lat="43.4516052" lon="11.7004946"><ele>505.42857142857144</ele><time>2026-04-05T15:13:52.277Z</time></trkpt><trkpt lat="43.4515545" lon="11.7005699"><ele>503.71428571428567</ele><time>2026-04-05T15:13:53.267Z</time></trkpt><trkpt lat="43.45151" lon="11.7006577"><ele>501.99999999999994</ele><time>2026-04-05T15:13:54.266Z</time></trkpt><trkpt lat="43.4514675" lon="11.7007497"><ele>502.00000000000006</ele><time>2026-04-05T15:13:55.264Z</time></trkpt><trkpt lat="43.4514241" lon="11.7008394"><ele>502.0</ele><time>2026-04-05T15:13:56.279Z</time></trkpt><trkpt lat="43.4513758" lon="11.700925"><ele>502.0</ele><time>2026-04-05T15:13:57.269Z</time></trkpt><trkpt lat="43.45133" lon="11.7010118"><ele>502.0</ele><time>2026-04-05T15:13:58.274Z</time></trkpt><trkpt lat="43.4512884" lon="11.7011034"><ele>502.00000000000006</ele><time>2026-04-05T15:13:59.269Z</time></trkpt><trkpt lat="43.4512478" lon="11.7011946"><ele>502.0</ele><time>2026-04-05T15:14:00.267Z</time></trkpt><trkpt lat="43.4512081" lon="11.7012849"><ele>500.50000000000006</ele><time>2026-04-05T15:14:01.265Z</time></trkpt><trkpt lat="43.4511674" lon="11.70137"><ele>499.0</ele><time>2026-04-05T15:14:02.279Z</time></trkpt><trkpt lat="43.4511323" lon="11.7014572"><ele>497.5</ele><time>2026-04-05T15:14:03.271Z</time></trkpt><trkpt lat="43.4510912" lon="11.7015431"><ele>496.0</ele><time>2026-04-05T15:14:04.263Z</time></trkpt><trkpt lat="43.451044" lon="11.7016406"><ele>494.50000000000006</ele><time>2026-04-05T15:14:05.265Z</time></trkpt><trkpt lat="43.4509964" lon="11.7017524"><ele>493.0</ele><time>2026-04-05T15:14:06.272Z</time></trkpt><trkpt lat="43.4509491" lon="11.7018557"><ele>492.2</ele><time>2026-04-05T15:14:07.26Z</time></trkpt><trkpt lat="43.4508909" lon="11.7019419"><ele>491.4</ele><time>2026-04-05T15:14:08.258Z</time></trkpt><trkpt lat="43.4508247" lon="11.7020042"><ele>490.59999999999997</ele><time>2026-04-05T15:14:09.277Z</time></trkpt><trkpt lat="43.4507454" lon="11.702061"><ele>489.79999999999995</ele><time>2026-04-05T15:14:10.261Z</time></trkpt><trkpt lat="43.450664" lon="11.7021286"><ele>489.0</ele><time>2026-04-05T15:14:11.27Z</time></trkpt><trkpt lat="43.4505763" lon="11.702219"><ele>489.0</ele><time>2026-04-05T15:14:12.265Z</time></trkpt><trkpt lat="43.4504919" lon="11.7023194"><ele>489.0</ele><time>2026-04-05T15:14:13.261Z</time></trkpt><trkpt lat="43.4504101" lon="11.7024143"><ele>489.0</ele><time>2026-04-05T15:14:14.251Z</time></trkpt><trkpt lat="43.4503401" lon="11.7025015"><ele>489.0</ele><time>2026-04-05T15:14:15.26Z</time></trkpt><trkpt lat="43.4502765" lon="11.7025836"><ele>489.0</ele><time>2026-04-05T15:14:16.255Z</time></trkpt><trkpt lat="43.4502095" lon="11.7026683"><ele>490.0</ele><time>2026-04-05T15:14:17.257Z</time></trkpt><trkpt lat="43.4501397" lon="11.7027567"><ele>491.0</ele><time>2026-04-05T15:14:18.262Z</time></trkpt><trkpt lat="43.4500744" lon="11.702838"><ele>492.0</ele><time>2026-04-05T15:14:19.253Z</time></trkpt><trkpt lat="43.4500192" lon="11.7029236"><ele>493.0</ele><time>2026-04-05T15:14:20.269Z</time></trkpt><trkpt lat="43.449964" lon="11.7030136"><ele>494.0</ele><time>2026-04-05T15:14:21.263Z</time></trkpt><trkpt lat="43.4499102" lon="11.7030937"><ele>495.0</ele><time>2026-04-05T15:14:22.266Z</time></trkpt><trkpt lat="43.4498674" lon="11.7031699"><ele>495.0</ele><time>2026-04-05T15:14:23.252Z</time></trkpt><trkpt lat="43.4498148" lon="11.7032497"><ele>495.0</ele><time>2026-04-05T15:14:24.269Z</time></trkpt><trkpt lat="43.4497525" lon="11.7033368"><ele>495.0</ele><time>2026-04-05T15:14:25.265Z</time></trkpt><trkpt lat="43.4496812" lon="11.7034377"><ele>495.0</ele><time>2026-04-05T15:14:26.27Z</time></trkpt><trkpt lat="43.449605" lon="11.703547"><ele>495.0</ele><time>2026-04-05T15:14:27.264Z</time></trkpt><trkpt lat="43.449534" lon="11.7036673"><ele>496.5</ele><time>2026-04-05T15:14:28.269Z</time></trkpt><trkpt lat="43.4494647" lon="11.7038086"><ele>498.0</ele><time>2026-04-05T15:14:29.273Z</time></trkpt><trkpt lat="43.4493946" lon="11.7039608"><ele>499.5</ele><time>2026-04-05T15:14:30.269Z</time></trkpt><trkpt lat="43.4493216" lon="11.704118"><ele>501.0</ele><time>2026-04-05T15:14:31.255Z</time></trkpt><trkpt lat="43.449252" lon="11.7042643"><ele>501.20000000000005</ele><time>2026-04-05T15:14:32.266Z</time></trkpt><trkpt lat="43.4491873" lon="11.7044195"><ele>501.40000000000003</ele><time>2026-04-05T15:14:33.267Z</time></trkpt><trkpt lat="43.4491301" lon="11.7045689"><ele>501.6</ele><time>2026-04-05T15:14:34.268Z</time></trkpt><trkpt lat="43.4490832" lon="11.7046914"><ele>501.8</ele><time>2026-04-05T15:14:35.257Z</time></trkpt><trkpt lat="43.4490436" lon="11.7048053"><ele>502.0</ele><time>2026-04-05T15:14:36.267Z</time></trkpt><trkpt lat="43.4490066" lon="11.7049184"><ele>502.00000000000006</ele><time>2026-04-05T15:14:37.261Z</time></trkpt><trkpt lat="43.4489678" lon="11.7050212"><ele>502.0</ele><time>2026-04-05T15:14:38.259Z</time></trkpt><trkpt lat="43.4489358" lon="11.7051123"><ele>502.0</ele><time>2026-04-05T15:14:39.257Z</time></trkpt><trkpt lat="43.4488981" lon="11.7051965"><ele>502.0</ele><time>2026-04-05T15:14:40.262Z</time></trkpt><trkpt lat="43.4488507" lon="11.7052672"><ele>502.00000000000006</ele><time>2026-04-05T15:14:41.268Z</time></trkpt><trkpt lat="43.448789" lon="11.7053322"><ele>502.0</ele><time>2026-04-05T15:14:42.268Z</time></trkpt><trkpt lat="43.4487083" lon="11.7053922"><ele>503.25</ele><time>2026-04-05T15:14:43.266Z</time></trkpt><trkpt lat="43.4486097" lon="11.7054616"><ele>504.5</ele><time>2026-04-05T15:14:44.264Z</time></trkpt><trkpt lat="43.4484964" lon="11.7055374"><ele>505.75</ele><time>2026-04-05T15:14:45.264Z</time></trkpt><trkpt lat="43.4483878" lon="11.7056004"><ele>507.0</ele><time>2026-04-05T15:14:46.261Z</time></trkpt><trkpt lat="43.4482942" lon="11.7056637"><ele>507.0</ele><time>2026-04-05T15:14:47.261Z</time></trkpt><trkpt lat="43.4481964" lon="11.7057237"><ele>507.00000000000006</ele><time>2026-04-05T15:14:48.252Z</time></trkpt><trkpt lat="43.4480989" lon="11.7057515"><ele>507.00000000000006</ele><time>2026-04-05T15:14:49.266Z</time></trkpt><trkpt lat="43.4479917" lon="11.7057733"><ele>507.0</ele><time>2026-04-05T15:14:50.259Z</time></trkpt><trkpt lat="43.4478749" lon="11.7058001"><ele>507.0</ele><time>2026-04-05T15:14:51.265Z</time></trkpt><trkpt lat="43.4477519" lon="11.7058378"><ele>509.0</ele><time>2026-04-05T15:14:52.264Z</time></trkpt><trkpt lat="43.4476376" lon="11.7058599"><ele>511.00000000000006</ele><time>2026-04-05T15:14:53.265Z</time></trkpt><trkpt lat="43.4475439" lon="11.7058712"><ele>513.0</ele><time>2026-04-05T15:14:54.272Z</time></trkpt><trkpt lat="43.4474526" lon="11.7058605"><ele>515.0</ele><time>2026-04-05T15:14:55.272Z</time></trkpt><trkpt lat="43.447361" lon="11.705839"><ele>517.0</ele><time>2026-04-05T15:14:56.275Z</time></trkpt><trkpt lat="43.4472646" lon="11.7058138"><ele>517.0</ele><time>2026-04-05T15:14:57.266Z</time></trkpt><trkpt lat="43.447163" lon="11.7057862"><ele>517.0</ele><time>2026-04-05T15:14:58.266Z</time></trkpt><trkpt lat="43.4470585" lon="11.7057642"><ele>517.0</ele><time>2026-04-05T15:14:59.266Z</time></trkpt><trkpt lat="43.4469663" lon="11.7057487"><ele>517.0</ele><time>2026-04-05T15:15:00.258Z</time></trkpt><trkpt lat="43.4468721" lon="11.705744"><ele>517.0</ele><time>2026-04-05T15:15:01.252Z</time></trkpt><trkpt lat="43.4467721" lon="11.7057493"><ele>518.75</ele><time>2026-04-05T15:15:02.267Z</time></trkpt><trkpt lat="43.4466667" lon="11.7057663"><ele>520.5</ele><time>2026-04-05T15:15:03.26Z</time></trkpt><trkpt lat="43.4465594" lon="11.7057984"><ele>522.25</ele><time>2026-04-05T15:15:04.268Z</time></trkpt><trkpt lat="43.4464483" lon="11.7058515"><ele>524.0</ele><time>2026-04-05T15:15:05.26Z</time></trkpt><trkpt lat="43.4463345" lon="11.7059204"><ele>525.25</ele><time>2026-04-05T15:15:06.258Z</time></trkpt><trkpt lat="43.4462188" lon="11.706001"><ele>526.5</ele><time>2026-04-05T15:15:07.263Z</time></trkpt><trkpt lat="43.4461127" lon="11.7060935"><ele>527.75</ele><time>2026-04-05T15:15:08.264Z</time></trkpt><trkpt lat="43.4460278" lon="11.7061829"><ele>529.0</ele><time>2026-04-05T15:15:09.274Z</time></trkpt><trkpt lat="43.4459565" lon="11.70628"><ele>529.6</ele><time>2026-04-05T15:15:10.261Z</time></trkpt><trkpt lat="43.4458921" lon="11.706397"><ele>530.2</ele><time>2026-04-05T15:15:11.263Z</time></trkpt><trkpt lat="43.4458298" lon="11.706522"><ele>530.8000000000001</ele><time>2026-04-05T15:15:12.257Z</time></trkpt><trkpt lat="43.4457709" lon="11.7066443"><ele>531.4</ele><time>2026-04-05T15:15:13.271Z</time></trkpt><trkpt lat="43.4457058" lon="11.7067709"><ele>532.0</ele><time>2026-04-05T15:15:14.262Z</time></trkpt><trkpt lat="43.4456358" lon="11.706893"><ele>532.75</ele><time>2026-04-05T15:15:15.265Z</time></trkpt><trkpt lat="43.4455616" lon="11.7070096"><ele>533.5</ele><time>2026-04-05T15:15:16.266Z</time></trkpt><trkpt lat="43.4454791" lon="11.7071217"><ele>534.25</ele><time>2026-04-05T15:15:17.271Z</time></trkpt><trkpt lat="43.4453904" lon="11.7072303"><ele>535.0</ele><time>2026-04-05T15:15:18.265Z</time></trkpt><trkpt lat="43.4452996" lon="11.7073431"><ele>535.75</ele><time>2026-04-05T15:15:19.266Z</time></trkpt><trkpt lat="43.4452083" lon="11.7074586"><ele>536.5</ele><time>2026-04-05T15:15:20.263Z</time></trkpt><trkpt lat="43.4451159" lon="11.7075707"><ele>537.25</ele><time>2026-04-05T15:15:21.266Z</time></trkpt><trkpt lat="43.4450292" lon="11.707674"><ele>538.0</ele><time>2026-04-05T15:15:22.254Z</time></trkpt><trkpt lat="43.4449508" lon="11.7077731"><ele>538.0</ele><time>2026-04-05T15:15:23.26Z</time></trkpt><trkpt lat="43.4448759" lon="11.7078636"><ele>538.0</ele><time>2026-04-05T15:15:24.261Z</time></trkpt><trkpt lat="43.4448018" lon="11.7079578"><ele>538.0</ele><time>2026-04-05T15:15:25.271Z</time></trkpt><trkpt lat="43.444733" lon="11.7080691"><ele>538.0</ele><time>2026-04-05T15:15:26.258Z</time></trkpt><trkpt lat="43.44467" lon="11.7081867"><ele>538.0</ele><time>2026-04-05T15:15:27.255Z</time></trkpt><trkpt lat="43.444621" lon="11.7082983"><ele>538.8</ele><time>2026-04-05T15:15:28.268Z</time></trkpt><trkpt lat="43.4445933" lon="11.7084107"><ele>539.5999999999999</ele><time>2026-04-05T15:15:29.256Z</time></trkpt><trkpt lat="43.4445818" lon="11.7085326"><ele>540.4000000000001</ele><time>2026-04-05T15:15:30.265Z</time></trkpt><trkpt lat="43.4445777" lon="11.7086598"><ele>541.2</ele><time>2026-04-05T15:15:31.275Z</time></trkpt><trkpt lat="43.4445761" lon="11.7087902"><ele>542.0</ele><time>2026-04-05T15:15:32.267Z</time></trkpt><trkpt lat="43.4445653" lon="11.7089159"><ele>542.1666666666666</ele><time>2026-04-05T15:15:33.257Z</time></trkpt><trkpt lat="43.4445389" lon="11.7090157"><ele>542.3333333333333</ele><time>2026-04-05T15:15:34.274Z</time></trkpt><trkpt lat="43.4444971" lon="11.7091072"><ele>542.5</ele><time>2026-04-05T15:15:35.264Z</time></trkpt><trkpt lat="43.4444421" lon="11.7091956"><ele>542.6666666666666</ele><time>2026-04-05T15:15:36.262Z</time></trkpt><trkpt lat="43.444376" lon="11.709281"><ele>542.8333333333334</ele><time>2026-04-05T15:15:37.261Z</time></trkpt><trkpt lat="43.444295" lon="11.7093746"><ele>543.0</ele><time>2026-04-05T15:15:38.253Z</time></trkpt><trkpt lat="43.4442054" lon="11.7094692"><ele>543.0</ele><time>2026-04-05T15:15:39.267Z</time></trkpt><trkpt lat="43.4441232" lon="11.7095532"><ele>543.0</ele><time>2026-04-05T15:15:40.26Z</time></trkpt><trkpt lat="43.4440429" lon="11.7096401"><ele>543.0</ele><time>2026-04-05T15:15:41.267Z</time></trkpt><trkpt lat="43.4439648" lon="11.709735"><ele>543.0</ele><time>2026-04-05T15:15:42.272Z</time></trkpt><trkpt lat="43.4438882" lon="11.7098259"><ele>543.0</ele><time>2026-04-05T15:15:43.266Z</time></trkpt><trkpt lat="43.4438233" lon="11.7099034"><ele>545.1666666666666</ele><time>2026-04-05T15:15:44.261Z</time></trkpt><trkpt lat="43.4437612" lon="11.7099626"><ele>547.3333333333334</ele><time>2026-04-05T15:15:45.257Z</time></trkpt><trkpt lat="43.4436933" lon="11.7100109"><ele>549.5</ele><time>2026-04-05T15:15:46.26Z</time></trkpt><trkpt lat="43.4436299" lon="11.7100706"><ele>551.6666666666667</ele><time>2026-04-05T15:15:47.263Z</time></trkpt><trkpt lat="43.4435728" lon="11.7101434"><ele>553.8333333333334</ele><time>2026-04-05T15:15:48.258Z</time></trkpt><trkpt lat="43.443518" lon="11.7102372"><ele>556.0</ele><time>2026-04-05T15:15:49.261Z</time></trkpt><trkpt lat="43.4434709" lon="11.7103478"><ele>556.0</ele><time>2026-04-05T15:15:50.26Z</time></trkpt><trkpt lat="43.4434288" lon="11.7104772"><ele>556.0</ele><time>2026-04-05T15:15:51.254Z</time></trkpt><trkpt lat="43.4433947" lon="11.7106198"><ele>556.0</ele><time>2026-04-05T15:15:52.27Z</time></trkpt><trkpt lat="43.4433688" lon="11.7107534"><ele>556.0</ele><time>2026-04-05T15:15:53.27Z</time></trkpt><trkpt lat="43.4433532" lon="11.7108817"><ele>556.0</ele><time>2026-04-05T15:15:54.27Z</time></trkpt><trkpt lat="43.4433406" lon="11.7109989"><ele>556.8333333333334</ele><time>2026-04-05T15:15:55.27Z</time></trkpt><trkpt lat="43.4433439" lon="11.7111088"><ele>557.6666666666667</ele><time>2026-04-05T15:15:56.26Z</time></trkpt><trkpt lat="43.4433621" lon="11.7112157"><ele>558.5</ele><time>2026-04-05T15:15:57.259Z</time></trkpt><trkpt lat="43.443402" lon="11.7113167"><ele>559.3333333333334</ele><time>2026-04-05T15:15:58.253Z</time></trkpt><trkpt lat="43.4434565" lon="11.7114116"><ele>560.1666666666666</ele><time>2026-04-05T15:15:59.267Z</time></trkpt><trkpt lat="43.4435135" lon="11.7115122"><ele>561.0</ele><time>2026-04-05T15:16:00.272Z</time></trkpt><trkpt lat="43.4435705" lon="11.7116244"><ele>561.0</ele><time>2026-04-05T15:16:01.27Z</time></trkpt><trkpt lat="43.4436329" lon="11.7117389"><ele>561.0</ele><time>2026-04-05T15:16:02.254Z</time></trkpt><trkpt lat="43.4436971" lon="11.7118384"><ele>561.0</ele><time>2026-04-05T15:16:03.277Z</time></trkpt><trkpt lat="43.4437549" lon="11.7119174"><ele>561.0</ele><time>2026-04-05T15:16:04.269Z</time></trkpt><trkpt lat="43.4438013" lon="11.7119942"><ele>561.0</ele><time>2026-04-05T15:16:05.259Z</time></trkpt><trkpt lat="43.4438438" lon="11.7120807"><ele>561.0</ele><time>2026-04-05T15:16:06.261Z</time></trkpt><trkpt lat="43.4438744" lon="11.712175"><ele>559.3333333333334</ele><time>2026-04-05T15:16:07.259Z</time></trkpt><trkpt lat="43.4438956" lon="11.7122788"><ele>557.6666666666666</ele><time>2026-04-05T15:16:08.266Z</time></trkpt><trkpt lat="43.4439149" lon="11.7123943"><ele>556.0</ele><time>2026-04-05T15:16:09.256Z</time></trkpt><trkpt lat="43.4439355" lon="11.7125145"><ele>554.3333333333333</ele><time>2026-04-05T15:16:10.26Z</time></trkpt><trkpt lat="43.4439509" lon="11.7126417"><ele>552.6666666666666</ele><time>2026-04-05T15:16:11.255Z</time></trkpt><trkpt lat="43.4439548" lon="11.7127531"><ele>551.0</ele><time>2026-04-05T15:16:12.254Z</time></trkpt><trkpt lat="43.4439398" lon="11.7128652"><ele>550.8</ele><time>2026-04-05T15:16:13.276Z</time></trkpt><trkpt lat="43.4439039" lon="11.7129755"><ele>550.6</ele><time>2026-04-05T15:16:14.267Z</time></trkpt><trkpt lat="43.4438514" lon="11.7130763"><ele>550.4</ele><time>2026-04-05T15:16:15.26Z</time></trkpt><trkpt lat="43.4437883" lon="11.713176"><ele>550.2</ele><time>2026-04-05T15:16:16.257Z</time></trkpt><trkpt lat="43.4437099" lon="11.7132749"><ele>550.0</ele><time>2026-04-05T15:16:17.269Z</time></trkpt><trkpt lat="43.4436263" lon="11.7133809"><ele>550.8</ele><time>2026-04-05T15:16:18.264Z</time></trkpt><trkpt lat="43.4435497" lon="11.7135026"><ele>551.6</ele><time>2026-04-05T15:16:19.26Z</time></trkpt><trkpt lat="43.4434828" lon="11.7136113"><ele>552.4</ele><time>2026-04-05T15:16:20.252Z</time></trkpt><trkpt lat="43.443425" lon="11.7137025"><ele>553.2</ele><time>2026-04-05T15:16:21.257Z</time></trkpt><trkpt lat="43.443364" lon="11.7137825"><ele>554.0</ele><time>2026-04-05T15:16:22.282Z</time></trkpt><trkpt lat="43.4432943" lon="11.7138529"><ele>554.0</ele><time>2026-04-05T15:16:23.266Z</time></trkpt><trkpt lat="43.4432125" lon="11.7139062"><ele>554.0</ele><time>2026-04-05T15:16:24.261Z</time></trkpt><trkpt lat="43.4431227" lon="11.7139591"><ele>554.0</ele><time>2026-04-05T15:16:25.28Z</time></trkpt><trkpt lat="43.4430307" lon="11.714011"><ele>554.0</ele><time>2026-04-05T15:16:26.26Z</time></trkpt><trkpt lat="43.4429305" lon="11.7140635"><ele>554.0</ele><time>2026-04-05T15:16:27.259Z</time></trkpt><trkpt lat="43.4428359" lon="11.7141053"><ele>556.0</ele><time>2026-04-05T15:16:28.269Z</time></trkpt><trkpt lat="43.4427303" lon="11.7141305"><ele>558.0</ele><time>2026-04-05T15:16:29.261Z</time></trkpt><trkpt lat="43.4426312" lon="11.7141382"><ele>560.0</ele><time>2026-04-05T15:16:30.256Z</time></trkpt><trkpt lat="43.4425187" lon="11.7141462"><ele>562.0</ele><time>2026-04-05T15:16:31.261Z</time></trkpt><trkpt lat="43.4424001" lon="11.7141591"><ele>564.0</ele><time>2026-04-05T15:16:32.256Z</time></trkpt><trkpt lat="43.4422998" lon="11.7141577"><ele>564.0</ele><time>2026-04-05T15:16:33.267Z</time></trkpt><trkpt lat="43.4422097" lon="11.7141424"><ele>564.0</ele><time>2026-04-05T15:16:34.257Z</time></trkpt><trkpt lat="43.4421298" lon="11.7141229"><ele>564.0</ele><time>2026-04-05T15:16:35.259Z</time></trkpt><trkpt lat="43.4420485" lon="11.7141124"><ele>564.0</ele><time>2026-04-05T15:16:36.265Z</time></trkpt><trkpt lat="43.4419572" lon="11.7141065"><ele>564.0</ele><time>2026-04-05T15:16:37.268Z</time></trkpt><trkpt lat="43.4418552" lon="11.7141275"><ele>564.0</ele><time>2026-04-05T15:16:38.27Z</time></trkpt><trkpt lat="43.4417635" lon="11.7141752"><ele>565.1666666666666</ele><time>2026-04-05T15:16:39.261Z</time></trkpt><trkpt lat="43.4416711" lon="11.7142272"><ele>566.3333333333334</ele><time>2026-04-05T15:16:40.27Z</time></trkpt><trkpt lat="43.4416142" lon="11.7142995"><ele>567.5</ele><time>2026-04-05T15:16:41.256Z</time></trkpt><trkpt lat="43.4415408" lon="11.7143598"><ele>568.6666666666667</ele><time>2026-04-05T15:16:42.265Z</time></trkpt><trkpt lat="43.4414623" lon="11.7144133"><ele>569.8333333333334</ele><time>2026-04-05T15:16:43.26Z</time></trkpt><trkpt lat="43.4413801" lon="11.7144787"><ele>571.0</ele><time>2026-04-05T15:16:44.266Z</time></trkpt><trkpt lat="43.4413029" lon="11.7145576"><ele>569.1666666666667</ele><time>2026-04-05T15:16:45.261Z</time></trkpt><trkpt lat="43.4412382" lon="11.7146394"><ele>567.3333333333334</ele><time>2026-04-05T15:16:46.265Z</time></trkpt><trkpt lat="43.4411897" lon="11.714734"><ele>565.5</ele><time>2026-04-05T15:16:47.26Z</time></trkpt><trkpt lat="43.4411537" lon="11.7148421"><ele>563.6666666666666</ele><time>2026-04-05T15:16:48.271Z</time></trkpt><trkpt lat="43.4411383" lon="11.7149502"><ele>561.8333333333333</ele><time>2026-04-05T15:16:49.263Z</time></trkpt><trkpt lat="43.4411299" lon="11.7150555"><ele>560.0</ele><time>2026-04-05T15:16:50.27Z</time></trkpt><trkpt lat="43.4411311" lon="11.715162"><ele>559.0</ele><time>2026-04-05T15:16:51.254Z</time></trkpt><trkpt lat="43.4411359" lon="11.7152846"><ele>558.0</ele><time>2026-04-05T15:16:52.268Z</time></trkpt><trkpt lat="43.4411327" lon="11.7154043"><ele>557.0</ele><time>2026-04-05T15:16:53.258Z</time></trkpt><trkpt lat="43.4411277" lon="11.715523"><ele>556.0</ele><time>2026-04-05T15:16:54.251Z</time></trkpt><trkpt lat="43.4411184" lon="11.7156309"><ele>555.0</ele><time>2026-04-05T15:16:55.268Z</time></trkpt><trkpt lat="43.4411051" lon="11.715736"><ele>554.0</ele><time>2026-04-05T15:16:56.269Z</time></trkpt><trkpt lat="43.4410898" lon="11.7158343"><ele>554.0</ele><time>2026-04-05T15:16:57.258Z</time></trkpt><trkpt lat="43.4410704" lon="11.7159223"><ele>554.0</ele><time>2026-04-05T15:16:58.256Z</time></trkpt><trkpt lat="43.4410472" lon="11.7160035"><ele>554.0</ele><time>2026-04-05T15:16:59.257Z</time></trkpt><trkpt lat="43.4409987" lon="11.7161525"><ele>554.0</ele><time>2026-04-05T15:17:01.258Z</time></trkpt><trkpt lat="43.4409495" lon="11.7162095"><ele>554.0</ele><time>2026-04-05T15:17:03.267Z</time></trkpt><trkpt lat="43.440895" lon="11.7161342"><ele>554.0</ele><time>2026-04-05T15:17:07.261Z</time></trkpt><trkpt lat="43.4408775" lon="11.715996"><ele>554.0</ele><time>2026-04-05T15:18:01.265Z</time></trkpt><trkpt lat="43.4408548" lon="11.7158294"><ele>554.0</ele><time>2026-04-05T15:18:03.262Z</time></trkpt><trkpt lat="43.4408374" lon="11.7157427"><ele>554.0</ele><time>2026-04-05T15:18:04.264Z</time></trkpt><trkpt lat="43.4408088" lon="11.7156434"><ele>554.0</ele><time>2026-04-05T15:18:05.28Z</time></trkpt><trkpt lat="43.4407696" lon="11.7155373"><ele>554.0</ele><time>2026-04-05T15:18:06.269Z</time></trkpt><trkpt lat="43.4407197" lon="11.7154227"><ele>554.0</ele><time>2026-04-05T15:18:07.264Z</time></trkpt><trkpt lat="43.4406664" lon="11.7153078"><ele>555.2</ele><time>2026-04-05T15:18:08.264Z</time></trkpt><trkpt lat="43.4406074" lon="11.7152021"><ele>556.4</ele><time>2026-04-05T15:18:09.26Z</time></trkpt><trkpt lat="43.4405484" lon="11.7150963"><ele>557.6</ele><time>2026-04-05T15:18:10.261Z</time></trkpt><trkpt lat="43.4404923" lon="11.7149891"><ele>558.8</ele><time>2026-04-05T15:18:11.266Z</time></trkpt><trkpt lat="43.440442" lon="11.714884"><ele>560.0</ele><time>2026-04-05T15:18:12.265Z</time></trkpt><trkpt lat="43.4403911" lon="11.7148004"><ele>557.8333333333333</ele><time>2026-04-05T15:18:13.266Z</time></trkpt><trkpt lat="43.4403465" lon="11.7147166"><ele>555.6666666666666</ele><time>2026-04-05T15:18:14.268Z</time></trkpt><trkpt lat="43.4403072" lon="11.7146437"><ele>553.5</ele><time>2026-04-05T15:18:15.263Z</time></trkpt><trkpt lat="43.4402499" lon="11.7145829"><ele>551.3333333333334</ele><time>2026-04-05T15:18:16.266Z</time></trkpt><trkpt lat="43.440185" lon="11.7145293"><ele>549.1666666666667</ele><time>2026-04-05T15:18:17.263Z</time></trkpt><trkpt lat="43.440114" lon="11.7144692"><ele>547.0</ele><time>2026-04-05T15:18:18.266Z</time></trkpt><trkpt lat="43.4400321" lon="11.7144125"><ele>548.5</ele><time>2026-04-05T15:18:19.261Z</time></trkpt><trkpt lat="43.4399475" lon="11.7143578"><ele>550.0</ele><time>2026-04-05T15:18:20.255Z</time></trkpt><trkpt lat="43.4398656" lon="11.7143038"><ele>551.5</ele><time>2026-04-05T15:18:21.266Z</time></trkpt><trkpt lat="43.4397798" lon="11.7142739"><ele>553.0</ele><time>2026-04-05T15:18:22.262Z</time></trkpt><trkpt lat="43.4396967" lon="11.7142667"><ele>554.5</ele><time>2026-04-05T15:18:23.261Z</time></trkpt><trkpt lat="43.4396127" lon="11.7142694"><ele>556.0</ele><time>2026-04-05T15:18:24.272Z</time></trkpt><trkpt lat="43.4395347" lon="11.7142569"><ele>556.0</ele><time>2026-04-05T15:18:25.269Z</time></trkpt><trkpt lat="43.4394634" lon="11.7142246"><ele>556.0</ele><time>2026-04-05T15:18:26.259Z</time></trkpt><trkpt lat="43.4393864" lon="11.7141924"><ele>556.0</ele><time>2026-04-05T15:18:27.27Z</time></trkpt><trkpt lat="43.4393009" lon="11.7141518"><ele>556.0</ele><time>2026-04-05T15:18:28.262Z</time></trkpt><trkpt lat="43.4392142" lon="11.7141156"><ele>556.0</ele><time>2026-04-05T15:18:29.264Z</time></trkpt><trkpt lat="43.4391307" lon="11.7140972"><ele>556.0</ele><time>2026-04-05T15:18:30.262Z</time></trkpt><trkpt lat="43.4390533" lon="11.7140701"><ele>556.0</ele><time>2026-04-05T15:18:31.268Z</time></trkpt><trkpt lat="43.4389798" lon="11.7140317"><ele>556.0</ele><time>2026-04-05T15:18:32.255Z</time></trkpt><trkpt lat="43.4389057" lon="11.713971"><ele>556.0</ele><time>2026-04-05T15:18:33.265Z</time></trkpt><trkpt lat="43.438845" lon="11.7139062"><ele>556.0</ele><time>2026-04-05T15:18:34.256Z</time></trkpt><trkpt lat="43.4387955" lon="11.7138378"><ele>556.0</ele><time>2026-04-05T15:18:35.256Z</time></trkpt><trkpt lat="43.4387592" lon="11.7137666"><ele>556.0</ele><time>2026-04-05T15:18:36.27Z</time></trkpt><trkpt lat="43.4387058" lon="11.7136014"><ele>555.0</ele><time>2026-04-05T15:18:38.263Z</time></trkpt><trkpt lat="43.4386711" lon="11.713501"><ele>554.0</ele><time>2026-04-05T15:18:39.273Z</time></trkpt><trkpt lat="43.4386279" lon="11.7134035"><ele>553.0</ele><time>2026-04-05T15:18:40.264Z</time></trkpt><trkpt lat="43.4385736" lon="11.713319"><ele>552.0</ele><time>2026-04-05T15:18:41.254Z</time></trkpt><trkpt lat="43.4385119" lon="11.7132296"><ele>551.0</ele><time>2026-04-05T15:18:42.269Z</time></trkpt><trkpt lat="43.4384418" lon="11.713165"><ele>550.0</ele><time>2026-04-05T15:18:43.262Z</time></trkpt><trkpt lat="43.4383698" lon="11.7131132"><ele>550.0</ele><time>2026-04-05T15:18:44.258Z</time></trkpt><trkpt lat="43.4382851" lon="11.7130848"><ele>550.0</ele><time>2026-04-05T15:18:45.268Z</time></trkpt><trkpt lat="43.4381833" lon="11.7130698"><ele>550.0</ele><time>2026-04-05T15:18:46.263Z</time></trkpt><trkpt lat="43.4380868" lon="11.713041"><ele>550.0</ele><time>2026-04-05T15:18:47.252Z</time></trkpt><trkpt lat="43.4379951" lon="11.7129974"><ele>550.0</ele><time>2026-04-05T15:18:48.259Z</time></trkpt><trkpt lat="43.437914" lon="11.7129423"><ele>549.6666666666667</ele><time>2026-04-05T15:18:49.264Z</time></trkpt><trkpt lat="43.4378425" lon="11.7128819"><ele>549.3333333333334</ele><time>2026-04-05T15:18:50.264Z</time></trkpt><trkpt lat="43.4377719" lon="11.7128171"><ele>549.0</ele><time>2026-04-05T15:18:51.256Z</time></trkpt><trkpt lat="43.4376968" lon="11.7127535"><ele>548.6666666666666</ele><time>2026-04-05T15:18:52.259Z</time></trkpt><trkpt lat="43.437626" lon="11.7126883"><ele>548.3333333333333</ele><time>2026-04-05T15:18:53.26Z</time></trkpt><trkpt lat="43.4375576" lon="11.7126167"><ele>548.0</ele><time>2026-04-05T15:18:54.264Z</time></trkpt><trkpt lat="43.4374937" lon="11.7125593"><ele>548.0</ele><time>2026-04-05T15:18:55.259Z</time></trkpt><trkpt lat="43.4374089" lon="11.7124551"><ele>548.0</ele><time>2026-04-05T15:18:57.259Z</time></trkpt><trkpt lat="43.437367" lon="11.7123384"><ele>548.0</ele><time>2026-04-05T15:18:59.263Z</time></trkpt><trkpt lat="43.4373515" lon="11.7121967"><ele>548.0</ele><time>2026-04-05T15:19:01.26Z</time></trkpt><trkpt lat="43.4373514" lon="11.7121067"><ele>548.0</ele><time>2026-04-05T15:19:02.261Z</time></trkpt><trkpt lat="43.4373585" lon="11.7120094"><ele>548.0</ele><time>2026-04-05T15:19:03.267Z</time></trkpt><trkpt lat="43.4373671" lon="11.7119059"><ele>549.0</ele><time>2026-04-05T15:19:04.254Z</time></trkpt><trkpt lat="43.4373702" lon="11.7117968"><ele>550.0</ele><time>2026-04-05T15:19:05.257Z</time></trkpt><trkpt lat="43.4373673" lon="11.7116846"><ele>551.0</ele><time>2026-04-05T15:19:06.266Z</time></trkpt><trkpt lat="43.4373561" lon="11.7115719"><ele>552.0</ele><time>2026-04-05T15:19:07.272Z</time></trkpt><trkpt lat="43.4373349" lon="11.7114642"><ele>553.0</ele><time>2026-04-05T15:19:08.277Z</time></trkpt><trkpt lat="43.4373015" lon="11.7113413"><ele>554.0</ele><time>2026-04-05T15:19:09.261Z</time></trkpt><trkpt lat="43.4372654" lon="11.7112234"><ele>554.0</ele><time>2026-04-05T15:19:10.269Z</time></trkpt><trkpt lat="43.4372319" lon="11.7111162"><ele>554.0</ele><time>2026-04-05T15:19:11.266Z</time></trkpt><trkpt lat="43.4372027" lon="11.7110146"><ele>554.0</ele><time>2026-04-05T15:19:12.262Z</time></trkpt><trkpt lat="43.437177" lon="11.7109167"><ele>554.0</ele><time>2026-04-05T15:19:13.254Z</time></trkpt><trkpt lat="43.4371578" lon="11.7108087"><ele>554.0</ele><time>2026-04-05T15:19:14.271Z</time></trkpt><trkpt lat="43.4371369" lon="11.7106878"><ele>554.0</ele><time>2026-04-05T15:19:15.261Z</time></trkpt><trkpt lat="43.4371141" lon="11.7105772"><ele>552.5</ele><time>2026-04-05T15:19:16.262Z</time></trkpt><trkpt lat="43.4370855" lon="11.7104782"><ele>551.0</ele><time>2026-04-05T15:19:17.272Z</time></trkpt><trkpt lat="43.4370461" lon="11.7104016"><ele>549.5</ele><time>2026-04-05T15:19:18.274Z</time></trkpt><trkpt lat="43.4369934" lon="11.7103344"><ele>548.0</ele><time>2026-04-05T15:19:19.262Z</time></trkpt><trkpt lat="43.4369243" lon="11.7102788"><ele>546.5</ele><time>2026-04-05T15:19:20.256Z</time></trkpt><trkpt lat="43.4368374" lon="11.7102243"><ele>545.0</ele><time>2026-04-05T15:19:21.267Z</time></trkpt><trkpt lat="43.4367461" lon="11.7101656"><ele>545.0</ele><time>2026-04-05T15:19:22.28Z</time></trkpt><trkpt lat="43.4366427" lon="11.7100979"><ele>545.0</ele><time>2026-04-05T15:19:23.273Z</time></trkpt><trkpt lat="43.4365455" lon="11.7100293"><ele>545.0</ele><time>2026-04-05T15:19:24.277Z</time></trkpt><trkpt lat="43.4364525" lon="11.709959"><ele>545.0</ele><time>2026-04-05T15:19:25.275Z</time></trkpt><trkpt lat="43.4363622" lon="11.7098903"><ele>545.0</ele><time>2026-04-05T15:19:26.267Z</time></trkpt><trkpt lat="43.4362803" lon="11.7098212"><ele>544.4</ele><time>2026-04-05T15:19:27.27Z</time></trkpt><trkpt lat="43.4361995" lon="11.7097397"><ele>543.8</ele><time>2026-04-05T15:19:28.258Z</time></trkpt><trkpt lat="43.4361135" lon="11.7096509"><ele>543.2</ele><time>2026-04-05T15:19:29.267Z</time></trkpt><trkpt lat="43.4360299" lon="11.7095616"><ele>542.6</ele><time>2026-04-05T15:19:30.266Z</time></trkpt><trkpt lat="43.4359512" lon="11.7094716"><ele>542.0</ele><time>2026-04-05T15:19:31.262Z</time></trkpt><trkpt lat="43.4358742" lon="11.7093912"><ele>542.0</ele><time>2026-04-05T15:19:32.265Z</time></trkpt><trkpt lat="43.4357941" lon="11.7093257"><ele>542.0</ele><time>2026-04-05T15:19:33.25Z</time></trkpt><trkpt lat="43.4357017" lon="11.7092649"><ele>542.0</ele><time>2026-04-05T15:19:34.267Z</time></trkpt><trkpt lat="43.4356174" lon="11.7092194"><ele>542.0</ele><time>2026-04-05T15:19:35.264Z</time></trkpt><trkpt lat="43.4355337" lon="11.7091948"><ele>542.0</ele><time>2026-04-05T15:19:36.263Z</time></trkpt><trkpt lat="43.4354459" lon="11.7091824"><ele>539.4</ele><time>2026-04-05T15:19:37.263Z</time></trkpt><trkpt lat="43.4353486" lon="11.7091713"><ele>536.8000000000001</ele><time>2026-04-05T15:19:38.257Z</time></trkpt><trkpt lat="43.4352516" lon="11.7091537"><ele>534.2</ele><time>2026-04-05T15:19:39.272Z</time></trkpt><trkpt lat="43.4351545" lon="11.7091354"><ele>531.6</ele><time>2026-04-05T15:19:40.258Z</time></trkpt><trkpt lat="43.4350544" lon="11.709117"><ele>529.0</ele><time>2026-04-05T15:19:41.265Z</time></trkpt><trkpt lat="43.4349537" lon="11.7091037"><ele>529.0</ele><time>2026-04-05T15:19:42.269Z</time></trkpt><trkpt lat="43.4348599" lon="11.7091013"><ele>529.0</ele><time>2026-04-05T15:19:43.263Z</time></trkpt><trkpt lat="43.4347723" lon="11.7091065"><ele>529.0</ele><time>2026-04-05T15:19:44.266Z</time></trkpt><trkpt lat="43.4346951" lon="11.7091084"><ele>529.0</ele><time>2026-04-05T15:19:45.276Z</time></trkpt><trkpt lat="43.4346264" lon="11.7091097"><ele>529.0</ele><time>2026-04-05T15:19:46.271Z</time></trkpt><trkpt lat="43.4345152" lon="11.7091154"><ele>529.0</ele><time>2026-04-05T15:19:48.264Z</time></trkpt><trkpt lat="43.4343882" lon="11.7091413"><ele>527.5</ele><time>2026-04-05T15:19:50.278Z</time></trkpt><trkpt lat="43.4342838" lon="11.7091676"><ele>526.0</ele><time>2026-04-05T15:19:52.266Z</time></trkpt><trkpt lat="43.4342114" lon="11.7091924"><ele>524.5</ele><time>2026-04-05T15:19:54.265Z</time></trkpt><trkpt lat="43.4341467" lon="11.7092266"><ele>523.0</ele><time>2026-04-05T15:20:27.266Z</time></trkpt><trkpt lat="43.4340737" lon="11.7092746"><ele>521.5</ele><time>2026-04-05T15:20:30.268Z</time></trkpt><trkpt lat="43.434001" lon="11.7093381"><ele>520.0</ele><time>2026-04-05T15:20:33.255Z</time></trkpt><trkpt lat="43.4339554" lon="11.7094092"><ele>509.0</ele><time>2026-04-05T15:20:36.257Z</time></trkpt><trkpt lat="43.4339413" lon="11.7093141"><ele>520.0</ele><time>2026-04-05T15:22:38.263Z</time></trkpt><trkpt lat="43.4339036" lon="11.70924"><ele>520.0</ele><time>2026-04-05T15:22:44.267Z</time></trkpt><trkpt lat="43.4338789" lon="11.7091515"><ele>520.0</ele><time>2026-04-05T15:22:50.265Z</time></trkpt><trkpt lat="43.433875" lon="11.7090556"><ele>520.0</ele><time>2026-04-05T15:22:56.264Z</time></trkpt><trkpt lat="43.4338303" lon="11.7089873"><ele>520.0</ele><time>2026-04-05T15:23:17.373Z</time></trkpt><trkpt lat="43.4337981" lon="11.7090728"><ele>505.0</ele><time>2026-04-05T15:23:26.259Z</time></trkpt></trkseg></trk></gpx>